<?xml version="1.0" encoding="UTF-8" standalone="no" ?>
<gpx xmlns="http://www.topografix.com/GPX/1/1" xmlns:xsi="http://www.w3.org/2001/XMLSchema-instance" xsi:schemaLocation="http://www.topografix.com/GPX/1/1 http://www.topografix.com/GPX/1/1/gpx.xsd" version="1.1" creator="VisuGPX - https://www.visugpx.com">
  <metadata>
    <name>Pyramide Cassini</name>
    <desc><![CDATA[boucle au départ du Pin d'Alep via le Baou, le col du corps de Garde, Maramoye, Siou Blanc, la pyramide Cassini et le Revest.]]></desc>
  </metadata>
  <trk>
    <name><![CDATA[2020-06-21 Pyramide Cassini]]></name>
    <trkseg>
      <trkpt lat="43.14352" lon="5.89516">
        <ele>51.4765625</ele>
        <time>2020-06-21T06:29:15Z</time>
      </trkpt>
      <trkpt lat="43.14352" lon="5.89516">
        <ele>51.4765625</ele>
        <time>2020-06-21T06:29:16Z</time>
      </trkpt>
      <trkpt lat="43.14352" lon="5.89515">
        <ele>51.515625</ele>
        <time>2020-06-21T06:29:26Z</time>
      </trkpt>
      <trkpt lat="43.14349" lon="5.89517">
        <ele>51.46875</ele>
        <time>2020-06-21T06:29:56Z</time>
      </trkpt>
      <trkpt lat="43.14348" lon="5.89517">
        <ele>51.46484375</ele>
        <time>2020-06-21T06:30:10Z</time>
      </trkpt>
      <trkpt lat="43.14348" lon="5.89517">
        <ele>51.46484375</ele>
        <time>2020-06-21T06:30:11Z</time>
      </trkpt>
      <trkpt lat="43.1435" lon="5.89513">
        <ele>51.59765625</ele>
        <time>2020-06-21T06:30:33Z</time>
      </trkpt>
      <trkpt lat="43.14353" lon="5.8952">
        <ele>51.3671875</ele>
        <time>2020-06-21T06:31:09Z</time>
      </trkpt>
      <trkpt lat="43.14354" lon="5.89517">
        <ele>51.44921875</ele>
        <time>2020-06-21T06:31:50Z</time>
      </trkpt>
      <trkpt lat="43.1435" lon="5.89513">
        <ele>51.59375</ele>
        <time>2020-06-21T06:32:27Z</time>
      </trkpt>
      <trkpt lat="43.14351" lon="5.89511">
        <ele>51.66796875</ele>
        <time>2020-06-21T06:33:01Z</time>
      </trkpt>
      <trkpt lat="43.1435" lon="5.89513">
        <ele>51.58984375</ele>
        <time>2020-06-21T06:33:36Z</time>
      </trkpt>
      <trkpt lat="43.14349" lon="5.89513">
        <ele>51.6171875</ele>
        <time>2020-06-21T06:33:43Z</time>
      </trkpt>
      <trkpt lat="43.14353" lon="5.89516">
        <ele>51.49609375</ele>
        <time>2020-06-21T06:33:56Z</time>
      </trkpt>
      <trkpt lat="43.14354" lon="5.89518">
        <ele>51.41796875</ele>
        <time>2020-06-21T06:34:04Z</time>
      </trkpt>
      <trkpt lat="43.14377" lon="5.89542">
        <ele>50.37109375</ele>
        <time>2020-06-21T06:34:15Z</time>
      </trkpt>
      <trkpt lat="43.14408" lon="5.89557">
        <ele>49.015625</ele>
        <time>2020-06-21T06:34:26Z</time>
      </trkpt>
      <trkpt lat="43.14448" lon="5.89598">
        <ele>49.078125</ele>
        <time>2020-06-21T06:34:37Z</time>
      </trkpt>
      <trkpt lat="43.1449" lon="5.89676">
        <ele>50.265625</ele>
        <time>2020-06-21T06:34:52Z</time>
      </trkpt>
      <trkpt lat="43.14492" lon="5.89681">
        <ele>50.36328125</ele>
        <time>2020-06-21T06:34:53Z</time>
      </trkpt>
      <trkpt lat="43.14496" lon="5.89685">
        <ele>50.484375</ele>
        <time>2020-06-21T06:34:54Z</time>
      </trkpt>
      <trkpt lat="43.14519" lon="5.89714">
        <ele>51.4609375</ele>
        <time>2020-06-21T06:35:01Z</time>
      </trkpt>
      <trkpt lat="43.14522" lon="5.89719">
        <ele>51.50390625</ele>
        <time>2020-06-21T06:35:02Z</time>
      </trkpt>
      <trkpt lat="43.14575" lon="5.89806">
        <ele>54.34765625</ele>
        <time>2020-06-21T06:35:19Z</time>
      </trkpt>
      <trkpt lat="43.14602" lon="5.89863">
        <ele>55.59765625</ele>
        <time>2020-06-21T06:35:30Z</time>
      </trkpt>
      <trkpt lat="43.14603" lon="5.89869">
        <ele>55.609375</ele>
        <time>2020-06-21T06:35:31Z</time>
      </trkpt>
      <trkpt lat="43.14603" lon="5.89875">
        <ele>55.56640625</ele>
        <time>2020-06-21T06:35:32Z</time>
      </trkpt>
      <trkpt lat="43.14609" lon="5.89924">
        <ele>54.99609375</ele>
        <time>2020-06-21T06:35:40Z</time>
      </trkpt>
      <trkpt lat="43.1461" lon="5.8993">
        <ele>54.9453125</ele>
        <time>2020-06-21T06:35:41Z</time>
      </trkpt>
      <trkpt lat="43.14613" lon="5.89942">
        <ele>54.7890625</ele>
        <time>2020-06-21T06:35:43Z</time>
      </trkpt>
      <trkpt lat="43.14615" lon="5.89948">
        <ele>54.74609375</ele>
        <time>2020-06-21T06:35:44Z</time>
      </trkpt>
      <trkpt lat="43.14617" lon="5.89954">
        <ele>54.8046875</ele>
        <time>2020-06-21T06:35:45Z</time>
      </trkpt>
      <trkpt lat="43.14649" lon="5.9003">
        <ele>55.9921875</ele>
        <time>2020-06-21T06:35:59Z</time>
      </trkpt>
      <trkpt lat="43.14651" lon="5.90057">
        <ele>56.06640625</ele>
        <time>2020-06-21T06:36:04Z</time>
      </trkpt>
      <trkpt lat="43.14652" lon="5.90063">
        <ele>55.890625</ele>
        <time>2020-06-21T06:36:05Z</time>
      </trkpt>
      <trkpt lat="43.14654" lon="5.90069">
        <ele>55.765625</ele>
        <time>2020-06-21T06:36:06Z</time>
      </trkpt>
      <trkpt lat="43.14657" lon="5.90074">
        <ele>55.6796875</ele>
        <time>2020-06-21T06:36:07Z</time>
      </trkpt>
      <trkpt lat="43.1466" lon="5.90079">
        <ele>55.609375</ele>
        <time>2020-06-21T06:36:08Z</time>
      </trkpt>
      <trkpt lat="43.14714" lon="5.90166">
        <ele>56.73828125</ele>
        <time>2020-06-21T06:36:26Z</time>
      </trkpt>
      <trkpt lat="43.14741" lon="5.90211">
        <ele>57.4609375</ele>
        <time>2020-06-21T06:36:39Z</time>
      </trkpt>
      <trkpt lat="43.14746" lon="5.90224">
        <ele>57.48046875</ele>
        <time>2020-06-21T06:36:44Z</time>
      </trkpt>
      <trkpt lat="43.14745" lon="5.90228">
        <ele>57.45703125</ele>
        <time>2020-06-21T06:36:45Z</time>
      </trkpt>
      <trkpt lat="43.14746" lon="5.90233">
        <ele>57.49609375</ele>
        <time>2020-06-21T06:36:46Z</time>
      </trkpt>
      <trkpt lat="43.14749" lon="5.90236">
        <ele>57.59765625</ele>
        <time>2020-06-21T06:36:47Z</time>
      </trkpt>
      <trkpt lat="43.14753" lon="5.90237">
        <ele>57.73828125</ele>
        <time>2020-06-21T06:36:48Z</time>
      </trkpt>
      <trkpt lat="43.14757" lon="5.90238">
        <ele>57.890625</ele>
        <time>2020-06-21T06:36:49Z</time>
      </trkpt>
      <trkpt lat="43.14774" lon="5.90239">
        <ele>59.02734375</ele>
        <time>2020-06-21T06:36:54Z</time>
      </trkpt>
      <trkpt lat="43.14813" lon="5.90247">
        <ele>61.79296875</ele>
        <time>2020-06-21T06:37:06Z</time>
      </trkpt>
      <trkpt lat="43.14857" lon="5.90253">
        <ele>63.96484375</ele>
        <time>2020-06-21T06:37:19Z</time>
      </trkpt>
      <trkpt lat="43.14877" lon="5.90257">
        <ele>65.4609375</ele>
        <time>2020-06-21T06:37:25Z</time>
      </trkpt>
      <trkpt lat="43.14914" lon="5.90265">
        <ele>68.1328125</ele>
        <time>2020-06-21T06:37:37Z</time>
      </trkpt>
      <trkpt lat="43.14949" lon="5.90273">
        <ele>70.01171875</ele>
        <time>2020-06-21T06:37:49Z</time>
      </trkpt>
      <trkpt lat="43.14988" lon="5.90278">
        <ele>72.73828125</ele>
        <time>2020-06-21T06:38:03Z</time>
      </trkpt>
      <trkpt lat="43.15025" lon="5.90284">
        <ele>77.16015625</ele>
        <time>2020-06-21T06:38:15Z</time>
      </trkpt>
      <trkpt lat="43.15045" lon="5.90289">
        <ele>79.44140625</ele>
        <time>2020-06-21T06:38:22Z</time>
      </trkpt>
      <trkpt lat="43.15078" lon="5.903">
        <ele>82.609375</ele>
        <time>2020-06-21T06:38:35Z</time>
      </trkpt>
      <trkpt lat="43.15103" lon="5.90305">
        <ele>84.78125</ele>
        <time>2020-06-21T06:38:45Z</time>
      </trkpt>
      <trkpt lat="43.15143" lon="5.90315">
        <ele>88.2109375</ele>
        <time>2020-06-21T06:39:01Z</time>
      </trkpt>
      <trkpt lat="43.15186" lon="5.90331">
        <ele>91.31640625</ele>
        <time>2020-06-21T06:39:17Z</time>
      </trkpt>
      <trkpt lat="43.15227" lon="5.90356">
        <ele>93.86328125</ele>
        <time>2020-06-21T06:39:32Z</time>
      </trkpt>
      <trkpt lat="43.15273" lon="5.90388">
        <ele>96.47265625</ele>
        <time>2020-06-21T06:39:49Z</time>
      </trkpt>
      <trkpt lat="43.15315" lon="5.90404">
        <ele>100.4375</ele>
        <time>2020-06-21T06:40:04Z</time>
      </trkpt>
      <trkpt lat="43.15329" lon="5.90407">
        <ele>102.16796875</ele>
        <time>2020-06-21T06:40:09Z</time>
      </trkpt>
      <trkpt lat="43.15356" lon="5.90421">
        <ele>106.48828125</ele>
        <time>2020-06-21T06:40:21Z</time>
      </trkpt>
      <trkpt lat="43.15369" lon="5.90465">
        <ele>111.73046875</ele>
        <time>2020-06-21T06:40:34Z</time>
      </trkpt>
      <trkpt lat="43.15371" lon="5.90467">
        <ele>112.3046875</ele>
        <time>2020-06-21T06:40:35Z</time>
      </trkpt>
      <trkpt lat="43.15371" lon="5.9046">
        <ele>111.609375</ele>
        <time>2020-06-21T06:40:37Z</time>
      </trkpt>
      <trkpt lat="43.15369" lon="5.90455">
        <ele>110.76171875</ele>
        <time>2020-06-21T06:40:38Z</time>
      </trkpt>
      <trkpt lat="43.15368" lon="5.9045">
        <ele>109.859375</ele>
        <time>2020-06-21T06:40:39Z</time>
      </trkpt>
      <trkpt lat="43.15366" lon="5.90443">
        <ele>109.05859375</ele>
        <time>2020-06-21T06:40:40Z</time>
      </trkpt>
      <trkpt lat="43.15364" lon="5.90429">
        <ele>108.18359375</ele>
        <time>2020-06-21T06:40:42Z</time>
      </trkpt>
      <trkpt lat="43.15364" lon="5.90422">
        <ele>107.89453125</ele>
        <time>2020-06-21T06:40:43Z</time>
      </trkpt>
      <trkpt lat="43.15364" lon="5.90414">
        <ele>107.65234375</ele>
        <time>2020-06-21T06:40:44Z</time>
      </trkpt>
      <trkpt lat="43.15365" lon="5.90407">
        <ele>107.34375</ele>
        <time>2020-06-21T06:40:45Z</time>
      </trkpt>
      <trkpt lat="43.15365" lon="5.90401">
        <ele>106.96484375</ele>
        <time>2020-06-21T06:40:46Z</time>
      </trkpt>
      <trkpt lat="43.15364" lon="5.90395">
        <ele>106.609375</ele>
        <time>2020-06-21T06:40:47Z</time>
      </trkpt>
      <trkpt lat="43.15365" lon="5.9039">
        <ele>106.4453125</ele>
        <time>2020-06-21T06:40:48Z</time>
      </trkpt>
      <trkpt lat="43.15367" lon="5.90386">
        <ele>106.796875</ele>
        <time>2020-06-21T06:40:49Z</time>
      </trkpt>
      <trkpt lat="43.1537" lon="5.90385">
        <ele>107.07421875</ele>
        <time>2020-06-21T06:40:50Z</time>
      </trkpt>
      <trkpt lat="43.15372" lon="5.90385">
        <ele>107.33984375</ele>
        <time>2020-06-21T06:40:51Z</time>
      </trkpt>
      <trkpt lat="43.15404" lon="5.90389">
        <ele>111.578125</ele>
        <time>2020-06-21T06:41:04Z</time>
      </trkpt>
      <trkpt lat="43.15431" lon="5.90385">
        <ele>114.59375</ele>
        <time>2020-06-21T06:41:15Z</time>
      </trkpt>
      <trkpt lat="43.15453" lon="5.90401">
        <ele>119.75390625</ele>
        <time>2020-06-21T06:41:25Z</time>
      </trkpt>
      <trkpt lat="43.15459" lon="5.90399">
        <ele>120.28515625</ele>
        <time>2020-06-21T06:41:27Z</time>
      </trkpt>
      <trkpt lat="43.15471" lon="5.904">
        <ele>121.92578125</ele>
        <time>2020-06-21T06:41:32Z</time>
      </trkpt>
      <trkpt lat="43.15492" lon="5.90414">
        <ele>126.63671875</ele>
        <time>2020-06-21T06:41:44Z</time>
      </trkpt>
      <trkpt lat="43.15518" lon="5.90429">
        <ele>131.58203125</ele>
        <time>2020-06-21T06:41:58Z</time>
      </trkpt>
      <trkpt lat="43.15533" lon="5.90443">
        <ele>134.4140625</ele>
        <time>2020-06-21T06:42:07Z</time>
      </trkpt>
      <trkpt lat="43.15548" lon="5.9046">
        <ele>138.1640625</ele>
        <time>2020-06-21T06:42:17Z</time>
      </trkpt>
      <trkpt lat="43.1555" lon="5.90462">
        <ele>138.88671875</ele>
        <time>2020-06-21T06:42:19Z</time>
      </trkpt>
      <trkpt lat="43.15565" lon="5.90483">
        <ele>142.93359375</ele>
        <time>2020-06-21T06:42:31Z</time>
      </trkpt>
      <trkpt lat="43.15572" lon="5.90491">
        <ele>144.71484375</ele>
        <time>2020-06-21T06:42:43Z</time>
      </trkpt>
      <trkpt lat="43.15575" lon="5.90494">
        <ele>145.41796875</ele>
        <time>2020-06-21T06:42:57Z</time>
      </trkpt>
      <trkpt lat="43.15577" lon="5.90497">
        <ele>145.9609375</ele>
        <time>2020-06-21T06:43:11Z</time>
      </trkpt>
      <trkpt lat="43.15575" lon="5.905">
        <ele>145.96484375</ele>
        <time>2020-06-21T06:43:40Z</time>
      </trkpt>
      <trkpt lat="43.15576" lon="5.90501">
        <ele>146.15625</ele>
        <time>2020-06-21T06:43:41Z</time>
      </trkpt>
      <trkpt lat="43.15587" lon="5.90497">
        <ele>147.1015625</ele>
        <time>2020-06-21T06:43:48Z</time>
      </trkpt>
      <trkpt lat="43.15589" lon="5.90497">
        <ele>147.30078125</ele>
        <time>2020-06-21T06:43:49Z</time>
      </trkpt>
      <trkpt lat="43.15591" lon="5.90497">
        <ele>147.48828125</ele>
        <time>2020-06-21T06:43:50Z</time>
      </trkpt>
      <trkpt lat="43.15593" lon="5.90496">
        <ele>147.62109375</ele>
        <time>2020-06-21T06:43:51Z</time>
      </trkpt>
      <trkpt lat="43.15594" lon="5.90496">
        <ele>148.02734375</ele>
        <time>2020-06-21T06:43:52Z</time>
      </trkpt>
      <trkpt lat="43.15596" lon="5.90495">
        <ele>148.51171875</ele>
        <time>2020-06-21T06:43:53Z</time>
      </trkpt>
      <trkpt lat="43.15607" lon="5.90471">
        <ele>151.19921875</ele>
        <time>2020-06-21T06:44:05Z</time>
      </trkpt>
      <trkpt lat="43.1561" lon="5.90431">
        <ele>153.87109375</ele>
        <time>2020-06-21T06:44:19Z</time>
      </trkpt>
      <trkpt lat="43.15612" lon="5.90393">
        <ele>156.5859375</ele>
        <time>2020-06-21T06:44:33Z</time>
      </trkpt>
      <trkpt lat="43.15616" lon="5.90359">
        <ele>159.26953125</ele>
        <time>2020-06-21T06:44:45Z</time>
      </trkpt>
      <trkpt lat="43.15627" lon="5.9032">
        <ele>164.3203125</ele>
        <time>2020-06-21T06:44:59Z</time>
      </trkpt>
      <trkpt lat="43.15642" lon="5.90283">
        <ele>169.31640625</ele>
        <time>2020-06-21T06:45:14Z</time>
      </trkpt>
      <trkpt lat="43.15643" lon="5.90281">
        <ele>169.796875</ele>
        <time>2020-06-21T06:45:15Z</time>
      </trkpt>
      <trkpt lat="43.15653" lon="5.90255">
        <ele>173.26171875</ele>
        <time>2020-06-21T06:45:26Z</time>
      </trkpt>
      <trkpt lat="43.15653" lon="5.90249">
        <ele>173.36328125</ele>
        <time>2020-06-21T06:45:28Z</time>
      </trkpt>
      <trkpt lat="43.15655" lon="5.90214">
        <ele>174.6484375</ele>
        <time>2020-06-21T06:45:41Z</time>
      </trkpt>
      <trkpt lat="43.15643" lon="5.90173">
        <ele>173.37890625</ele>
        <time>2020-06-21T06:45:57Z</time>
      </trkpt>
      <trkpt lat="43.15634" lon="5.90135">
        <ele>175.40625</ele>
        <time>2020-06-21T06:46:12Z</time>
      </trkpt>
      <trkpt lat="43.15631" lon="5.90092">
        <ele>180.1796875</ele>
        <time>2020-06-21T06:46:27Z</time>
      </trkpt>
      <trkpt lat="43.15631" lon="5.90062">
        <ele>184.0078125</ele>
        <time>2020-06-21T06:46:38Z</time>
      </trkpt>
      <trkpt lat="43.15632" lon="5.90024">
        <ele>187.546875</ele>
        <time>2020-06-21T06:46:51Z</time>
      </trkpt>
      <trkpt lat="43.15641" lon="5.8998">
        <ele>192.08984375</ele>
        <time>2020-06-21T06:47:08Z</time>
      </trkpt>
      <trkpt lat="43.15657" lon="5.89938">
        <ele>196.75</ele>
        <time>2020-06-21T06:47:25Z</time>
      </trkpt>
      <trkpt lat="43.15662" lon="5.89895">
        <ele>197.46484375</ele>
        <time>2020-06-21T06:47:40Z</time>
      </trkpt>
      <trkpt lat="43.15649" lon="5.89852">
        <ele>194.59765625</ele>
        <time>2020-06-21T06:47:53Z</time>
      </trkpt>
      <trkpt lat="43.15622" lon="5.89805">
        <ele>192.484375</ele>
        <time>2020-06-21T06:48:08Z</time>
      </trkpt>
      <trkpt lat="43.15595" lon="5.89781">
        <ele>191.06640625</ele>
        <time>2020-06-21T06:48:20Z</time>
      </trkpt>
      <trkpt lat="43.15578" lon="5.89746">
        <ele>194.609375</ele>
        <time>2020-06-21T06:48:32Z</time>
      </trkpt>
      <trkpt lat="43.1558" lon="5.89705">
        <ele>199.67578125</ele>
        <time>2020-06-21T06:48:44Z</time>
      </trkpt>
      <trkpt lat="43.15597" lon="5.89666">
        <ele>206.76171875</ele>
        <time>2020-06-21T06:48:58Z</time>
      </trkpt>
      <trkpt lat="43.156" lon="5.8966">
        <ele>207.44140625</ele>
        <time>2020-06-21T06:49:00Z</time>
      </trkpt>
      <trkpt lat="43.15615" lon="5.89622">
        <ele>212.89453125</ele>
        <time>2020-06-21T06:49:14Z</time>
      </trkpt>
      <trkpt lat="43.15632" lon="5.89587">
        <ele>219.48046875</ele>
        <time>2020-06-21T06:49:28Z</time>
      </trkpt>
      <trkpt lat="43.15651" lon="5.89555">
        <ele>224.8046875</ele>
        <time>2020-06-21T06:49:42Z</time>
      </trkpt>
      <trkpt lat="43.15671" lon="5.89529">
        <ele>230.4375</ele>
        <time>2020-06-21T06:49:55Z</time>
      </trkpt>
      <trkpt lat="43.15691" lon="5.89506">
        <ele>235.15625</ele>
        <time>2020-06-21T06:50:07Z</time>
      </trkpt>
      <trkpt lat="43.15695" lon="5.89499">
        <ele>236.2578125</ele>
        <time>2020-06-21T06:50:10Z</time>
      </trkpt>
      <trkpt lat="43.15697" lon="5.89497">
        <ele>236.80859375</ele>
        <time>2020-06-21T06:50:11Z</time>
      </trkpt>
      <trkpt lat="43.15698" lon="5.89494">
        <ele>237.23828125</ele>
        <time>2020-06-21T06:50:12Z</time>
      </trkpt>
      <trkpt lat="43.157" lon="5.89492">
        <ele>237.5625</ele>
        <time>2020-06-21T06:50:13Z</time>
      </trkpt>
      <trkpt lat="43.157" lon="5.89489">
        <ele>237.73046875</ele>
        <time>2020-06-21T06:50:14Z</time>
      </trkpt>
      <trkpt lat="43.15701" lon="5.89486">
        <ele>237.8359375</ele>
        <time>2020-06-21T06:50:15Z</time>
      </trkpt>
      <trkpt lat="43.15702" lon="5.89484">
        <ele>237.8515625</ele>
        <time>2020-06-21T06:50:16Z</time>
      </trkpt>
      <trkpt lat="43.15702" lon="5.89481">
        <ele>237.6328125</ele>
        <time>2020-06-21T06:50:17Z</time>
      </trkpt>
      <trkpt lat="43.15701" lon="5.89478">
        <ele>237.171875</ele>
        <time>2020-06-21T06:50:18Z</time>
      </trkpt>
      <trkpt lat="43.157" lon="5.89477">
        <ele>236.6015625</ele>
        <time>2020-06-21T06:50:19Z</time>
      </trkpt>
      <trkpt lat="43.15699" lon="5.89475">
        <ele>235.984375</ele>
        <time>2020-06-21T06:50:20Z</time>
      </trkpt>
      <trkpt lat="43.15697" lon="5.89474">
        <ele>235.15625</ele>
        <time>2020-06-21T06:50:21Z</time>
      </trkpt>
      <trkpt lat="43.15695" lon="5.89473">
        <ele>234.4765625</ele>
        <time>2020-06-21T06:50:22Z</time>
      </trkpt>
      <trkpt lat="43.15693" lon="5.89472">
        <ele>233.87890625</ele>
        <time>2020-06-21T06:50:23Z</time>
      </trkpt>
      <trkpt lat="43.15667" lon="5.89462">
        <ele>225.46875</ele>
        <time>2020-06-21T06:50:36Z</time>
      </trkpt>
      <trkpt lat="43.15636" lon="5.89438">
        <ele>223.109375</ele>
        <time>2020-06-21T06:50:52Z</time>
      </trkpt>
      <trkpt lat="43.15632" lon="5.89435">
        <ele>223.25390625</ele>
        <time>2020-06-21T06:50:54Z</time>
      </trkpt>
      <trkpt lat="43.15607" lon="5.8941">
        <ele>226.75</ele>
        <time>2020-06-21T06:51:09Z</time>
      </trkpt>
      <trkpt lat="43.15598" lon="5.89372">
        <ele>237.66015625</ele>
        <time>2020-06-21T06:51:23Z</time>
      </trkpt>
      <trkpt lat="43.15604" lon="5.89337">
        <ele>246.3984375</ele>
        <time>2020-06-21T06:51:35Z</time>
      </trkpt>
      <trkpt lat="43.15618" lon="5.89294">
        <ele>252.92578125</ele>
        <time>2020-06-21T06:51:51Z</time>
      </trkpt>
      <trkpt lat="43.15632" lon="5.89262">
        <ele>258.21484375</ele>
        <time>2020-06-21T06:52:04Z</time>
      </trkpt>
      <trkpt lat="43.15646" lon="5.89232">
        <ele>262.72265625</ele>
        <time>2020-06-21T06:52:17Z</time>
      </trkpt>
      <trkpt lat="43.15658" lon="5.89206">
        <ele>266.30078125</ele>
        <time>2020-06-21T06:52:27Z</time>
      </trkpt>
      <trkpt lat="43.15677" lon="5.89168">
        <ele>271.453125</ele>
        <time>2020-06-21T06:52:43Z</time>
      </trkpt>
      <trkpt lat="43.15698" lon="5.89133">
        <ele>274.25</ele>
        <time>2020-06-21T06:52:58Z</time>
      </trkpt>
      <trkpt lat="43.15705" lon="5.8911">
        <ele>272.4765625</ele>
        <time>2020-06-21T06:53:07Z</time>
      </trkpt>
      <trkpt lat="43.15704" lon="5.89107">
        <ele>272.01171875</ele>
        <time>2020-06-21T06:53:08Z</time>
      </trkpt>
      <trkpt lat="43.15702" lon="5.89105">
        <ele>271.43359375</ele>
        <time>2020-06-21T06:53:09Z</time>
      </trkpt>
      <trkpt lat="43.15701" lon="5.89102">
        <ele>270.8515625</ele>
        <time>2020-06-21T06:53:10Z</time>
      </trkpt>
      <trkpt lat="43.15699" lon="5.891">
        <ele>270.20703125</ele>
        <time>2020-06-21T06:53:11Z</time>
      </trkpt>
      <trkpt lat="43.15697" lon="5.89098">
        <ele>269.5</ele>
        <time>2020-06-21T06:53:12Z</time>
      </trkpt>
      <trkpt lat="43.15665" lon="5.89075">
        <ele>259.66796875</ele>
        <time>2020-06-21T06:53:25Z</time>
      </trkpt>
      <trkpt lat="43.15631" lon="5.89068">
        <ele>253.53125</ele>
        <time>2020-06-21T06:53:37Z</time>
      </trkpt>
      <trkpt lat="43.15592" lon="5.89066">
        <ele>252.42578125</ele>
        <time>2020-06-21T06:53:52Z</time>
      </trkpt>
      <trkpt lat="43.15568" lon="5.89065">
        <ele>254.34765625</ele>
        <time>2020-06-21T06:54:02Z</time>
      </trkpt>
      <trkpt lat="43.1554" lon="5.89044">
        <ele>261.9765625</ele>
        <time>2020-06-21T06:54:15Z</time>
      </trkpt>
      <trkpt lat="43.15542" lon="5.89004">
        <ele>272.90234375</ele>
        <time>2020-06-21T06:54:28Z</time>
      </trkpt>
      <trkpt lat="43.15545" lon="5.88954">
        <ele>282.3984375</ele>
        <time>2020-06-21T06:54:43Z</time>
      </trkpt>
      <trkpt lat="43.15538" lon="5.88915">
        <ele>286.921875</ele>
        <time>2020-06-21T06:54:54Z</time>
      </trkpt>
      <trkpt lat="43.15533" lon="5.88901">
        <ele>287.21484375</ele>
        <time>2020-06-21T06:54:59Z</time>
      </trkpt>
      <trkpt lat="43.15531" lon="5.88899">
        <ele>286.9453125</ele>
        <time>2020-06-21T06:55:00Z</time>
      </trkpt>
      <trkpt lat="43.1553" lon="5.88896">
        <ele>286.87890625</ele>
        <time>2020-06-21T06:55:01Z</time>
      </trkpt>
      <trkpt lat="43.15529" lon="5.88895">
        <ele>286.90625</ele>
        <time>2020-06-21T06:55:02Z</time>
      </trkpt>
      <trkpt lat="43.15528" lon="5.88893">
        <ele>286.68359375</ele>
        <time>2020-06-21T06:55:16Z</time>
      </trkpt>
      <trkpt lat="43.15528" lon="5.88895">
        <ele>286.39453125</ele>
        <time>2020-06-21T06:55:47Z</time>
      </trkpt>
      <trkpt lat="43.15528" lon="5.88897">
        <ele>285.828125</ele>
        <time>2020-06-21T06:56:09Z</time>
      </trkpt>
      <trkpt lat="43.15527" lon="5.8889">
        <ele>286.6640625</ele>
        <time>2020-06-21T06:56:28Z</time>
      </trkpt>
      <trkpt lat="43.15514" lon="5.88861">
        <ele>286.875</ele>
        <time>2020-06-21T06:56:42Z</time>
      </trkpt>
      <trkpt lat="43.15493" lon="5.88834">
        <ele>286.4140625</ele>
        <time>2020-06-21T06:56:56Z</time>
      </trkpt>
      <trkpt lat="43.15467" lon="5.88808">
        <ele>285.75390625</ele>
        <time>2020-06-21T06:57:12Z</time>
      </trkpt>
      <trkpt lat="43.15448" lon="5.88783">
        <ele>289.453125</ele>
        <time>2020-06-21T06:57:26Z</time>
      </trkpt>
      <trkpt lat="43.15447" lon="5.88781">
        <ele>289.99609375</ele>
        <time>2020-06-21T06:57:27Z</time>
      </trkpt>
      <trkpt lat="43.15446" lon="5.88779">
        <ele>290.375</ele>
        <time>2020-06-21T06:57:28Z</time>
      </trkpt>
      <trkpt lat="43.15445" lon="5.88777">
        <ele>290.58203125</ele>
        <time>2020-06-21T06:57:29Z</time>
      </trkpt>
      <trkpt lat="43.15444" lon="5.88775">
        <ele>290.79296875</ele>
        <time>2020-06-21T06:57:30Z</time>
      </trkpt>
      <trkpt lat="43.15443" lon="5.88773">
        <ele>291.06640625</ele>
        <time>2020-06-21T06:57:31Z</time>
      </trkpt>
      <trkpt lat="43.15442" lon="5.8877">
        <ele>291.3984375</ele>
        <time>2020-06-21T06:57:32Z</time>
      </trkpt>
      <trkpt lat="43.15441" lon="5.88767">
        <ele>291.74609375</ele>
        <time>2020-06-21T06:57:33Z</time>
      </trkpt>
      <trkpt lat="43.1544" lon="5.88764">
        <ele>292.15234375</ele>
        <time>2020-06-21T06:57:34Z</time>
      </trkpt>
      <trkpt lat="43.15436" lon="5.88753">
        <ele>293.74609375</ele>
        <time>2020-06-21T06:57:39Z</time>
      </trkpt>
      <trkpt lat="43.15436" lon="5.88753">
        <ele>293.484375</ele>
        <time>2020-06-21T06:57:40Z</time>
      </trkpt>
      <trkpt lat="43.15435" lon="5.88755">
        <ele>293.07421875</ele>
        <time>2020-06-21T06:57:41Z</time>
      </trkpt>
      <trkpt lat="43.15436" lon="5.88759">
        <ele>292.39453125</ele>
        <time>2020-06-21T06:57:57Z</time>
      </trkpt>
      <trkpt lat="43.15437" lon="5.8876">
        <ele>292.40234375</ele>
        <time>2020-06-21T06:58:22Z</time>
      </trkpt>
      <trkpt lat="43.15438" lon="5.8876">
        <ele>292.59375</ele>
        <time>2020-06-21T06:58:23Z</time>
      </trkpt>
      <trkpt lat="43.1544" lon="5.8876">
        <ele>292.96484375</ele>
        <time>2020-06-21T06:58:24Z</time>
      </trkpt>
      <trkpt lat="43.1544" lon="5.88758">
        <ele>293.453125</ele>
        <time>2020-06-21T06:58:25Z</time>
      </trkpt>
      <trkpt lat="43.1544" lon="5.88756">
        <ele>293.83984375</ele>
        <time>2020-06-21T06:58:26Z</time>
      </trkpt>
      <trkpt lat="43.15439" lon="5.88753">
        <ele>294.1484375</ele>
        <time>2020-06-21T06:58:27Z</time>
      </trkpt>
      <trkpt lat="43.15439" lon="5.88751">
        <ele>294.4140625</ele>
        <time>2020-06-21T06:58:28Z</time>
      </trkpt>
      <trkpt lat="43.15438" lon="5.88748">
        <ele>294.640625</ele>
        <time>2020-06-21T06:58:29Z</time>
      </trkpt>
      <trkpt lat="43.15438" lon="5.88745">
        <ele>294.98046875</ele>
        <time>2020-06-21T06:58:30Z</time>
      </trkpt>
      <trkpt lat="43.15439" lon="5.88742">
        <ele>295.37109375</ele>
        <time>2020-06-21T06:58:31Z</time>
      </trkpt>
      <trkpt lat="43.1544" lon="5.8874">
        <ele>295.796875</ele>
        <time>2020-06-21T06:58:32Z</time>
      </trkpt>
      <trkpt lat="43.15441" lon="5.88738">
        <ele>296.26171875</ele>
        <time>2020-06-21T06:58:33Z</time>
      </trkpt>
      <trkpt lat="43.15443" lon="5.88736">
        <ele>296.73046875</ele>
        <time>2020-06-21T06:58:34Z</time>
      </trkpt>
      <trkpt lat="43.15445" lon="5.88735">
        <ele>297.203125</ele>
        <time>2020-06-21T06:58:35Z</time>
      </trkpt>
      <trkpt lat="43.15447" lon="5.88734">
        <ele>297.70703125</ele>
        <time>2020-06-21T06:58:36Z</time>
      </trkpt>
      <trkpt lat="43.1545" lon="5.88734">
        <ele>298.21484375</ele>
        <time>2020-06-21T06:58:37Z</time>
      </trkpt>
      <trkpt lat="43.15491" lon="5.88719">
        <ele>307.97265625</ele>
        <time>2020-06-21T06:58:56Z</time>
      </trkpt>
      <trkpt lat="43.15526" lon="5.88706">
        <ele>314.2421875</ele>
        <time>2020-06-21T06:59:13Z</time>
      </trkpt>
      <trkpt lat="43.15558" lon="5.8869">
        <ele>320.00390625</ele>
        <time>2020-06-21T06:59:29Z</time>
      </trkpt>
      <trkpt lat="43.15577" lon="5.88677">
        <ele>322.98046875</ele>
        <time>2020-06-21T06:59:41Z</time>
      </trkpt>
      <trkpt lat="43.15602" lon="5.88653">
        <ele>323.7265625</ele>
        <time>2020-06-21T06:59:57Z</time>
      </trkpt>
      <trkpt lat="43.15629" lon="5.88638">
        <ele>325.671875</ele>
        <time>2020-06-21T07:00:12Z</time>
      </trkpt>
      <trkpt lat="43.15656" lon="5.8863">
        <ele>327.01953125</ele>
        <time>2020-06-21T07:00:27Z</time>
      </trkpt>
      <trkpt lat="43.15683" lon="5.88625">
        <ele>326.41015625</ele>
        <time>2020-06-21T07:00:42Z</time>
      </trkpt>
      <trkpt lat="43.15713" lon="5.88629">
        <ele>327.38671875</ele>
        <time>2020-06-21T07:00:58Z</time>
      </trkpt>
      <trkpt lat="43.15741" lon="5.88646">
        <ele>331.296875</ele>
        <time>2020-06-21T07:01:14Z</time>
      </trkpt>
      <trkpt lat="43.15763" lon="5.8866">
        <ele>333.6640625</ele>
        <time>2020-06-21T07:01:27Z</time>
      </trkpt>
      <trkpt lat="43.1579" lon="5.88676">
        <ele>336.33203125</ele>
        <time>2020-06-21T07:01:43Z</time>
      </trkpt>
      <trkpt lat="43.15814" lon="5.88695">
        <ele>341.40625</ele>
        <time>2020-06-21T07:01:58Z</time>
      </trkpt>
      <trkpt lat="43.15819" lon="5.88699">
        <ele>342.9921875</ele>
        <time>2020-06-21T07:02:01Z</time>
      </trkpt>
      <trkpt lat="43.15839" lon="5.88714">
        <ele>348.5546875</ele>
        <time>2020-06-21T07:02:13Z</time>
      </trkpt>
      <trkpt lat="43.15863" lon="5.88719">
        <ele>351.4296875</ele>
        <time>2020-06-21T07:02:26Z</time>
      </trkpt>
      <trkpt lat="43.15892" lon="5.88721">
        <ele>353.27734375</ele>
        <time>2020-06-21T07:02:41Z</time>
      </trkpt>
      <trkpt lat="43.15918" lon="5.88727">
        <ele>357.22265625</ele>
        <time>2020-06-21T07:02:55Z</time>
      </trkpt>
      <trkpt lat="43.15936" lon="5.88732">
        <ele>363.453125</ele>
        <time>2020-06-21T07:03:05Z</time>
      </trkpt>
      <trkpt lat="43.15962" lon="5.88729">
        <ele>370.30078125</ele>
        <time>2020-06-21T07:03:19Z</time>
      </trkpt>
      <trkpt lat="43.15973" lon="5.88726">
        <ele>372.76953125</ele>
        <time>2020-06-21T07:03:32Z</time>
      </trkpt>
      <trkpt lat="43.15972" lon="5.88728">
        <ele>373.88671875</ele>
        <time>2020-06-21T07:03:59Z</time>
      </trkpt>
      <trkpt lat="43.1597" lon="5.88727">
        <ele>372.62109375</ele>
        <time>2020-06-21T07:04:27Z</time>
      </trkpt>
      <trkpt lat="43.15971" lon="5.88724">
        <ele>371.328125</ele>
        <time>2020-06-21T07:04:54Z</time>
      </trkpt>
      <trkpt lat="43.15978" lon="5.88726">
        <ele>374.56640625</ele>
        <time>2020-06-21T07:05:02Z</time>
      </trkpt>
      <trkpt lat="43.1598" lon="5.88726">
        <ele>375.0625</ele>
        <time>2020-06-21T07:05:03Z</time>
      </trkpt>
      <trkpt lat="43.15981" lon="5.88725">
        <ele>375.453125</ele>
        <time>2020-06-21T07:05:04Z</time>
      </trkpt>
      <trkpt lat="43.15983" lon="5.88725">
        <ele>375.671875</ele>
        <time>2020-06-21T07:05:05Z</time>
      </trkpt>
      <trkpt lat="43.15985" lon="5.88724">
        <ele>376.05859375</ele>
        <time>2020-06-21T07:05:06Z</time>
      </trkpt>
      <trkpt lat="43.15987" lon="5.88723">
        <ele>376.58984375</ele>
        <time>2020-06-21T07:05:07Z</time>
      </trkpt>
      <trkpt lat="43.15989" lon="5.88722">
        <ele>376.99609375</ele>
        <time>2020-06-21T07:05:08Z</time>
      </trkpt>
      <trkpt lat="43.16021" lon="5.88701">
        <ele>383.48828125</ele>
        <time>2020-06-21T07:05:22Z</time>
      </trkpt>
      <trkpt lat="43.16026" lon="5.88678">
        <ele>379.58984375</ele>
        <time>2020-06-21T07:05:30Z</time>
      </trkpt>
      <trkpt lat="43.16026" lon="5.88679">
        <ele>379.64453125</ele>
        <time>2020-06-21T07:05:44Z</time>
      </trkpt>
      <trkpt lat="43.16026" lon="5.8868">
        <ele>380.20703125</ele>
        <time>2020-06-21T07:06:12Z</time>
      </trkpt>
      <trkpt lat="43.16027" lon="5.88678">
        <ele>379.734375</ele>
        <time>2020-06-21T07:06:13Z</time>
      </trkpt>
      <trkpt lat="43.16027" lon="5.88675">
        <ele>378.890625</ele>
        <time>2020-06-21T07:06:14Z</time>
      </trkpt>
      <trkpt lat="43.16027" lon="5.88672">
        <ele>378.21484375</ele>
        <time>2020-06-21T07:06:15Z</time>
      </trkpt>
      <trkpt lat="43.16027" lon="5.88669">
        <ele>377.5703125</ele>
        <time>2020-06-21T07:06:16Z</time>
      </trkpt>
      <trkpt lat="43.16027" lon="5.88665">
        <ele>376.94140625</ele>
        <time>2020-06-21T07:06:17Z</time>
      </trkpt>
      <trkpt lat="43.16027" lon="5.88662">
        <ele>376.04296875</ele>
        <time>2020-06-21T07:06:18Z</time>
      </trkpt>
      <trkpt lat="43.16026" lon="5.88658">
        <ele>375.08203125</ele>
        <time>2020-06-21T07:06:19Z</time>
      </trkpt>
      <trkpt lat="43.16026" lon="5.88655">
        <ele>374.03125</ele>
        <time>2020-06-21T07:06:20Z</time>
      </trkpt>
      <trkpt lat="43.16025" lon="5.88652">
        <ele>373.07421875</ele>
        <time>2020-06-21T07:06:21Z</time>
      </trkpt>
      <trkpt lat="43.16025" lon="5.8865">
        <ele>372.14453125</ele>
        <time>2020-06-21T07:06:22Z</time>
      </trkpt>
      <trkpt lat="43.1602" lon="5.88639">
        <ele>367.02734375</ele>
        <time>2020-06-21T07:06:31Z</time>
      </trkpt>
      <trkpt lat="43.16018" lon="5.88638">
        <ele>366.1640625</ele>
        <time>2020-06-21T07:06:32Z</time>
      </trkpt>
      <trkpt lat="43.16017" lon="5.88636">
        <ele>365.05078125</ele>
        <time>2020-06-21T07:06:33Z</time>
      </trkpt>
      <trkpt lat="43.16015" lon="5.88635">
        <ele>363.66015625</ele>
        <time>2020-06-21T07:06:34Z</time>
      </trkpt>
      <trkpt lat="43.16013" lon="5.88634">
        <ele>362.23046875</ele>
        <time>2020-06-21T07:06:35Z</time>
      </trkpt>
      <trkpt lat="43.15991" lon="5.88614">
        <ele>355.1015625</ele>
        <time>2020-06-21T07:06:49Z</time>
      </trkpt>
      <trkpt lat="43.15992" lon="5.88607">
        <ele>357.36328125</ele>
        <time>2020-06-21T07:07:02Z</time>
      </trkpt>
      <trkpt lat="43.15986" lon="5.88594">
        <ele>359.9453125</ele>
        <time>2020-06-21T07:07:20Z</time>
      </trkpt>
      <trkpt lat="43.15961" lon="5.88577">
        <ele>359.4453125</ele>
        <time>2020-06-21T07:07:33Z</time>
      </trkpt>
      <trkpt lat="43.15935" lon="5.88561">
        <ele>356.28515625</ele>
        <time>2020-06-21T07:07:46Z</time>
      </trkpt>
      <trkpt lat="43.15921" lon="5.88527">
        <ele>364.59765625</ele>
        <time>2020-06-21T07:08:01Z</time>
      </trkpt>
      <trkpt lat="43.15919" lon="5.88496">
        <ele>372.37890625</ele>
        <time>2020-06-21T07:08:13Z</time>
      </trkpt>
      <trkpt lat="43.1592" lon="5.88491">
        <ele>374.01171875</ele>
        <time>2020-06-21T07:08:24Z</time>
      </trkpt>
      <trkpt lat="43.15921" lon="5.88489">
        <ele>374.69140625</ele>
        <time>2020-06-21T07:08:25Z</time>
      </trkpt>
      <trkpt lat="43.15922" lon="5.88486">
        <ele>375.51171875</ele>
        <time>2020-06-21T07:08:26Z</time>
      </trkpt>
      <trkpt lat="43.15933" lon="5.88452">
        <ele>389.75</ele>
        <time>2020-06-21T07:08:44Z</time>
      </trkpt>
      <trkpt lat="43.15922" lon="5.88422">
        <ele>386.67578125</ele>
        <time>2020-06-21T07:09:00Z</time>
      </trkpt>
      <trkpt lat="43.15909" lon="5.88391">
        <ele>385.17578125</ele>
        <time>2020-06-21T07:09:16Z</time>
      </trkpt>
      <trkpt lat="43.1592" lon="5.88356">
        <ele>395.50390625</ele>
        <time>2020-06-21T07:09:32Z</time>
      </trkpt>
      <trkpt lat="43.15934" lon="5.8832">
        <ele>410.0390625</ele>
        <time>2020-06-21T07:09:49Z</time>
      </trkpt>
      <trkpt lat="43.15934" lon="5.88284">
        <ele>414.41015625</ele>
        <time>2020-06-21T07:10:04Z</time>
      </trkpt>
      <trkpt lat="43.15922" lon="5.88245">
        <ele>407.93359375</ele>
        <time>2020-06-21T07:10:21Z</time>
      </trkpt>
      <trkpt lat="43.15921" lon="5.8821">
        <ele>414.40625</ele>
        <time>2020-06-21T07:10:36Z</time>
      </trkpt>
      <trkpt lat="43.15927" lon="5.88174">
        <ele>422.51171875</ele>
        <time>2020-06-21T07:10:51Z</time>
      </trkpt>
      <trkpt lat="43.15918" lon="5.88144">
        <ele>417.5</ele>
        <time>2020-06-21T07:11:05Z</time>
      </trkpt>
      <trkpt lat="43.15914" lon="5.88104">
        <ele>417.84375</ele>
        <time>2020-06-21T07:11:22Z</time>
      </trkpt>
      <trkpt lat="43.15916" lon="5.8807">
        <ele>424.4453125</ele>
        <time>2020-06-21T07:11:36Z</time>
      </trkpt>
      <trkpt lat="43.15904" lon="5.88031">
        <ele>420.48828125</ele>
        <time>2020-06-21T07:11:53Z</time>
      </trkpt>
      <trkpt lat="43.15881" lon="5.88006">
        <ele>411.7421875</ele>
        <time>2020-06-21T07:12:08Z</time>
      </trkpt>
      <trkpt lat="43.15841" lon="5.88002">
        <ele>398.09375</ele>
        <time>2020-06-21T07:12:26Z</time>
      </trkpt>
      <trkpt lat="43.15806" lon="5.87999">
        <ele>396.49609375</ele>
        <time>2020-06-21T07:12:42Z</time>
      </trkpt>
      <trkpt lat="43.15804" lon="5.87997">
        <ele>397.015625</ele>
        <time>2020-06-21T07:12:43Z</time>
      </trkpt>
      <trkpt lat="43.15768" lon="5.87989">
        <ele>401.7265625</ele>
        <time>2020-06-21T07:13:00Z</time>
      </trkpt>
      <trkpt lat="43.15737" lon="5.87992">
        <ele>403.03125</ele>
        <time>2020-06-21T07:13:16Z</time>
      </trkpt>
      <trkpt lat="43.15708" lon="5.87997">
        <ele>406.3671875</ele>
        <time>2020-06-21T07:13:31Z</time>
      </trkpt>
      <trkpt lat="43.15676" lon="5.88007">
        <ele>409.48828125</ele>
        <time>2020-06-21T07:13:48Z</time>
      </trkpt>
      <trkpt lat="43.15644" lon="5.87998">
        <ele>417.09765625</ele>
        <time>2020-06-21T07:14:05Z</time>
      </trkpt>
      <trkpt lat="43.1563" lon="5.8799">
        <ele>418.37890625</ele>
        <time>2020-06-21T07:14:19Z</time>
      </trkpt>
      <trkpt lat="43.15631" lon="5.8799">
        <ele>418.27734375</ele>
        <time>2020-06-21T07:14:41Z</time>
      </trkpt>
      <trkpt lat="43.1563" lon="5.87991">
        <ele>417.9375</ele>
        <time>2020-06-21T07:15:17Z</time>
      </trkpt>
      <trkpt lat="43.15631" lon="5.87989">
        <ele>418.55078125</ele>
        <time>2020-06-21T07:16:00Z</time>
      </trkpt>
      <trkpt lat="43.15629" lon="5.87988">
        <ele>418.65625</ele>
        <time>2020-06-21T07:16:32Z</time>
      </trkpt>
      <trkpt lat="43.15631" lon="5.8799">
        <ele>418.39453125</ele>
        <time>2020-06-21T07:17:05Z</time>
      </trkpt>
      <trkpt lat="43.15633" lon="5.8799">
        <ele>418.5546875</ele>
        <time>2020-06-21T07:17:41Z</time>
      </trkpt>
      <trkpt lat="43.1563" lon="5.87989">
        <ele>418.41796875</ele>
        <time>2020-06-21T07:18:16Z</time>
      </trkpt>
      <trkpt lat="43.1563" lon="5.87987">
        <ele>419.1640625</ele>
        <time>2020-06-21T07:18:34Z</time>
      </trkpt>
      <trkpt lat="43.15633" lon="5.87984">
        <ele>420.53515625</ele>
        <time>2020-06-21T07:19:00Z</time>
      </trkpt>
      <trkpt lat="43.15635" lon="5.87984">
        <ele>420.58984375</ele>
        <time>2020-06-21T07:19:01Z</time>
      </trkpt>
      <trkpt lat="43.15638" lon="5.87979">
        <ele>422.48828125</ele>
        <time>2020-06-21T07:19:07Z</time>
      </trkpt>
      <trkpt lat="43.15638" lon="5.87978">
        <ele>423.02734375</ele>
        <time>2020-06-21T07:19:08Z</time>
      </trkpt>
      <trkpt lat="43.15637" lon="5.87975">
        <ele>423.63671875</ele>
        <time>2020-06-21T07:19:09Z</time>
      </trkpt>
      <trkpt lat="43.15636" lon="5.87973">
        <ele>424.1015625</ele>
        <time>2020-06-21T07:19:10Z</time>
      </trkpt>
      <trkpt lat="43.15635" lon="5.87971">
        <ele>424.58984375</ele>
        <time>2020-06-21T07:19:11Z</time>
      </trkpt>
      <trkpt lat="43.15634" lon="5.87968">
        <ele>425.109375</ele>
        <time>2020-06-21T07:19:12Z</time>
      </trkpt>
      <trkpt lat="43.15634" lon="5.87966">
        <ele>425.62109375</ele>
        <time>2020-06-21T07:19:13Z</time>
      </trkpt>
      <trkpt lat="43.15634" lon="5.87963">
        <ele>426.26171875</ele>
        <time>2020-06-21T07:19:14Z</time>
      </trkpt>
      <trkpt lat="43.15634" lon="5.8796">
        <ele>426.890625</ele>
        <time>2020-06-21T07:19:15Z</time>
      </trkpt>
      <trkpt lat="43.15634" lon="5.87957">
        <ele>427.6171875</ele>
        <time>2020-06-21T07:19:16Z</time>
      </trkpt>
      <trkpt lat="43.1564" lon="5.87927">
        <ele>434.2734375</ele>
        <time>2020-06-21T07:19:27Z</time>
      </trkpt>
      <trkpt lat="43.15659" lon="5.87896">
        <ele>439.5625</ele>
        <time>2020-06-21T07:19:43Z</time>
      </trkpt>
      <trkpt lat="43.15681" lon="5.87878">
        <ele>443.46484375</ele>
        <time>2020-06-21T07:19:58Z</time>
      </trkpt>
      <trkpt lat="43.15703" lon="5.87861">
        <ele>446.71875</ele>
        <time>2020-06-21T07:20:12Z</time>
      </trkpt>
      <trkpt lat="43.15731" lon="5.87848">
        <ele>448.40625</ele>
        <time>2020-06-21T07:20:29Z</time>
      </trkpt>
      <trkpt lat="43.15758" lon="5.87844">
        <ele>449.90625</ele>
        <time>2020-06-21T07:20:44Z</time>
      </trkpt>
      <trkpt lat="43.15788" lon="5.87847">
        <ele>451.09765625</ele>
        <time>2020-06-21T07:21:01Z</time>
      </trkpt>
      <trkpt lat="43.15814" lon="5.8785">
        <ele>452.9140625</ele>
        <time>2020-06-21T07:21:16Z</time>
      </trkpt>
      <trkpt lat="43.15826" lon="5.87858">
        <ele>453.81640625</ele>
        <time>2020-06-21T07:21:24Z</time>
      </trkpt>
      <trkpt lat="43.1585" lon="5.87871">
        <ele>454.4921875</ele>
        <time>2020-06-21T07:21:40Z</time>
      </trkpt>
      <trkpt lat="43.15876" lon="5.87875">
        <ele>457.70703125</ele>
        <time>2020-06-21T07:21:54Z</time>
      </trkpt>
      <trkpt lat="43.159" lon="5.87878">
        <ele>464.26171875</ele>
        <time>2020-06-21T07:22:08Z</time>
      </trkpt>
      <trkpt lat="43.15924" lon="5.87874">
        <ele>473.80859375</ele>
        <time>2020-06-21T07:22:22Z</time>
      </trkpt>
      <trkpt lat="43.15947" lon="5.87859">
        <ele>487.2265625</ele>
        <time>2020-06-21T07:22:37Z</time>
      </trkpt>
      <trkpt lat="43.15966" lon="5.87838">
        <ele>493.328125</ele>
        <time>2020-06-21T07:22:52Z</time>
      </trkpt>
      <trkpt lat="43.15972" lon="5.87804">
        <ele>492.359375</ele>
        <time>2020-06-21T07:23:06Z</time>
      </trkpt>
      <trkpt lat="43.15982" lon="5.87764">
        <ele>494.44921875</ele>
        <time>2020-06-21T07:23:23Z</time>
      </trkpt>
      <trkpt lat="43.15992" lon="5.87727">
        <ele>495.55078125</ele>
        <time>2020-06-21T07:23:40Z</time>
      </trkpt>
      <trkpt lat="43.15998" lon="5.87685">
        <ele>494.77734375</ele>
        <time>2020-06-21T07:23:56Z</time>
      </trkpt>
      <trkpt lat="43.16011" lon="5.87652">
        <ele>497.39453125</ele>
        <time>2020-06-21T07:24:10Z</time>
      </trkpt>
      <trkpt lat="43.16032" lon="5.87618">
        <ele>497.40625</ele>
        <time>2020-06-21T07:24:27Z</time>
      </trkpt>
      <trkpt lat="43.16049" lon="5.87593">
        <ele>495.30078125</ele>
        <time>2020-06-21T07:24:40Z</time>
      </trkpt>
      <trkpt lat="43.16075" lon="5.87574">
        <ele>492.515625</ele>
        <time>2020-06-21T07:24:55Z</time>
      </trkpt>
      <trkpt lat="43.16098" lon="5.87601">
        <ele>490.93359375</ele>
        <time>2020-06-21T07:25:09Z</time>
      </trkpt>
      <trkpt lat="43.16112" lon="5.87626">
        <ele>489.62890625</ele>
        <time>2020-06-21T07:25:17Z</time>
      </trkpt>
      <trkpt lat="43.16113" lon="5.8763">
        <ele>489.625</ele>
        <time>2020-06-21T07:25:18Z</time>
      </trkpt>
      <trkpt lat="43.16129" lon="5.87687">
        <ele>489.64453125</ele>
        <time>2020-06-21T07:25:31Z</time>
      </trkpt>
      <trkpt lat="43.16142" lon="5.87743">
        <ele>488.8984375</ele>
        <time>2020-06-21T07:25:43Z</time>
      </trkpt>
      <trkpt lat="43.16148" lon="5.87794">
        <ele>488.86328125</ele>
        <time>2020-06-21T07:25:53Z</time>
      </trkpt>
      <trkpt lat="43.16139" lon="5.87841">
        <ele>493.7265625</ele>
        <time>2020-06-21T07:26:03Z</time>
      </trkpt>
      <trkpt lat="43.16137" lon="5.87861">
        <ele>496.69921875</ele>
        <time>2020-06-21T07:26:07Z</time>
      </trkpt>
      <trkpt lat="43.1614" lon="5.87863">
        <ele>496.6796875</ele>
        <time>2020-06-21T07:26:08Z</time>
      </trkpt>
      <trkpt lat="43.16143" lon="5.87863">
        <ele>496.359375</ele>
        <time>2020-06-21T07:26:09Z</time>
      </trkpt>
      <trkpt lat="43.16183" lon="5.8788">
        <ele>494.96875</ele>
        <time>2020-06-21T07:26:21Z</time>
      </trkpt>
      <trkpt lat="43.16224" lon="5.87915">
        <ele>493.39453125</ele>
        <time>2020-06-21T07:26:35Z</time>
      </trkpt>
      <trkpt lat="43.16255" lon="5.8797">
        <ele>493.0625</ele>
        <time>2020-06-21T07:26:48Z</time>
      </trkpt>
      <trkpt lat="43.16282" lon="5.88041">
        <ele>493.578125</ele>
        <time>2020-06-21T07:27:02Z</time>
      </trkpt>
      <trkpt lat="43.16297" lon="5.88082">
        <ele>493.625</ele>
        <time>2020-06-21T07:27:10Z</time>
      </trkpt>
      <trkpt lat="43.16301" lon="5.88084">
        <ele>493.5</ele>
        <time>2020-06-21T07:27:11Z</time>
      </trkpt>
      <trkpt lat="43.16305" lon="5.88086">
        <ele>493.359375</ele>
        <time>2020-06-21T07:27:12Z</time>
      </trkpt>
      <trkpt lat="43.16314" lon="5.88089">
        <ele>493.03125</ele>
        <time>2020-06-21T07:27:14Z</time>
      </trkpt>
      <trkpt lat="43.16318" lon="5.88092">
        <ele>493.15625</ele>
        <time>2020-06-21T07:27:15Z</time>
      </trkpt>
      <trkpt lat="43.16361" lon="5.88134">
        <ele>495.671875</ele>
        <time>2020-06-21T07:27:29Z</time>
      </trkpt>
      <trkpt lat="43.16389" lon="5.88166">
        <ele>496.68359375</ele>
        <time>2020-06-21T07:27:43Z</time>
      </trkpt>
      <trkpt lat="43.16432" lon="5.8819">
        <ele>499.72265625</ele>
        <time>2020-06-21T07:27:59Z</time>
      </trkpt>
      <trkpt lat="43.16464" lon="5.88221">
        <ele>500.5859375</ele>
        <time>2020-06-21T07:28:12Z</time>
      </trkpt>
      <trkpt lat="43.16501" lon="5.88259">
        <ele>500.421875</ele>
        <time>2020-06-21T07:28:26Z</time>
      </trkpt>
      <trkpt lat="43.16546" lon="5.88304">
        <ele>500.13671875</ele>
        <time>2020-06-21T07:28:42Z</time>
      </trkpt>
      <trkpt lat="43.16581" lon="5.88309">
        <ele>501.21875</ele>
        <time>2020-06-21T07:28:54Z</time>
      </trkpt>
      <trkpt lat="43.1662" lon="5.88296">
        <ele>504.61328125</ele>
        <time>2020-06-21T07:29:06Z</time>
      </trkpt>
      <trkpt lat="43.16656" lon="5.88253">
        <ele>506.6171875</ele>
        <time>2020-06-21T07:29:20Z</time>
      </trkpt>
      <trkpt lat="43.167" lon="5.8823">
        <ele>509.99609375</ele>
        <time>2020-06-21T07:29:37Z</time>
      </trkpt>
      <trkpt lat="43.16701" lon="5.88233">
        <ele>510.28515625</ele>
        <time>2020-06-21T07:29:38Z</time>
      </trkpt>
      <trkpt lat="43.167" lon="5.88235">
        <ele>510.41796875</ele>
        <time>2020-06-21T07:29:39Z</time>
      </trkpt>
      <trkpt lat="43.16694" lon="5.88281">
        <ele>510.32421875</ele>
        <time>2020-06-21T07:29:54Z</time>
      </trkpt>
      <trkpt lat="43.16686" lon="5.88326">
        <ele>507.54296875</ele>
        <time>2020-06-21T07:30:08Z</time>
      </trkpt>
      <trkpt lat="43.16677" lon="5.88376">
        <ele>500.85546875</ele>
        <time>2020-06-21T07:30:21Z</time>
      </trkpt>
      <trkpt lat="43.16672" lon="5.88426">
        <ele>490.23046875</ele>
        <time>2020-06-21T07:30:34Z</time>
      </trkpt>
      <trkpt lat="43.16669" lon="5.88444">
        <ele>486.22265625</ele>
        <time>2020-06-21T07:30:44Z</time>
      </trkpt>
      <trkpt lat="43.16669" lon="5.88445">
        <ele>486.22265625</ele>
        <time>2020-06-21T07:30:45Z</time>
      </trkpt>
      <trkpt lat="43.16668" lon="5.88446">
        <ele>486.015625</ele>
        <time>2020-06-21T07:30:46Z</time>
      </trkpt>
      <trkpt lat="43.16669" lon="5.88448">
        <ele>485.375</ele>
        <time>2020-06-21T07:30:54Z</time>
      </trkpt>
      <trkpt lat="43.1667" lon="5.8845">
        <ele>484.49609375</ele>
        <time>2020-06-21T07:31:28Z</time>
      </trkpt>
      <trkpt lat="43.1667" lon="5.88447">
        <ele>485.06640625</ele>
        <time>2020-06-21T07:32:02Z</time>
      </trkpt>
      <trkpt lat="43.1667" lon="5.88451">
        <ele>484.1171875</ele>
        <time>2020-06-21T07:32:43Z</time>
      </trkpt>
      <trkpt lat="43.1667" lon="5.88447">
        <ele>485.16796875</ele>
        <time>2020-06-21T07:33:26Z</time>
      </trkpt>
      <trkpt lat="43.16671" lon="5.88448">
        <ele>484.63671875</ele>
        <time>2020-06-21T07:34:04Z</time>
      </trkpt>
      <trkpt lat="43.16672" lon="5.88451">
        <ele>483.12890625</ele>
        <time>2020-06-21T07:34:34Z</time>
      </trkpt>
      <trkpt lat="43.16672" lon="5.88443">
        <ele>485.390625</ele>
        <time>2020-06-21T07:34:45Z</time>
      </trkpt>
      <trkpt lat="43.16672" lon="5.88447">
        <ele>484.4921875</ele>
        <time>2020-06-21T07:35:01Z</time>
      </trkpt>
      <trkpt lat="43.16672" lon="5.88458">
        <ele>480.96484375</ele>
        <time>2020-06-21T07:35:14Z</time>
      </trkpt>
      <trkpt lat="43.16663" lon="5.88476">
        <ele>479.55859375</ele>
        <time>2020-06-21T07:35:23Z</time>
      </trkpt>
      <trkpt lat="43.16662" lon="5.88481">
        <ele>478.5546875</ele>
        <time>2020-06-21T07:35:24Z</time>
      </trkpt>
      <trkpt lat="43.16661" lon="5.88487">
        <ele>477.515625</ele>
        <time>2020-06-21T07:35:25Z</time>
      </trkpt>
      <trkpt lat="43.16661" lon="5.88491">
        <ele>476.43359375</ele>
        <time>2020-06-21T07:35:26Z</time>
      </trkpt>
      <trkpt lat="43.16661" lon="5.88495">
        <ele>475.25390625</ele>
        <time>2020-06-21T07:35:27Z</time>
      </trkpt>
      <trkpt lat="43.16658" lon="5.88507">
        <ele>472.96484375</ele>
        <time>2020-06-21T07:35:30Z</time>
      </trkpt>
      <trkpt lat="43.16651" lon="5.88524">
        <ele>472.1015625</ele>
        <time>2020-06-21T07:35:35Z</time>
      </trkpt>
      <trkpt lat="43.16648" lon="5.88536">
        <ele>470.390625</ele>
        <time>2020-06-21T07:35:38Z</time>
      </trkpt>
      <trkpt lat="43.16649" lon="5.88541">
        <ele>468.69921875</ele>
        <time>2020-06-21T07:35:41Z</time>
      </trkpt>
      <trkpt lat="43.1665" lon="5.8854">
        <ele>468.109375</ele>
        <time>2020-06-21T07:35:42Z</time>
      </trkpt>
      <trkpt lat="43.16652" lon="5.88538">
        <ele>467.8671875</ele>
        <time>2020-06-21T07:35:43Z</time>
      </trkpt>
      <trkpt lat="43.16653" lon="5.88536">
        <ele>467.8203125</ele>
        <time>2020-06-21T07:35:44Z</time>
      </trkpt>
      <trkpt lat="43.16654" lon="5.88533">
        <ele>467.6796875</ele>
        <time>2020-06-21T07:35:55Z</time>
      </trkpt>
      <trkpt lat="43.16656" lon="5.88532">
        <ele>467.09375</ele>
        <time>2020-06-21T07:35:56Z</time>
      </trkpt>
      <trkpt lat="43.16658" lon="5.88531">
        <ele>466.50390625</ele>
        <time>2020-06-21T07:35:57Z</time>
      </trkpt>
      <trkpt lat="43.1666" lon="5.8853">
        <ele>465.75390625</ele>
        <time>2020-06-21T07:35:58Z</time>
      </trkpt>
      <trkpt lat="43.16662" lon="5.88528">
        <ele>464.73046875</ele>
        <time>2020-06-21T07:35:59Z</time>
      </trkpt>
      <trkpt lat="43.16685" lon="5.88508">
        <ele>459.16796875</ele>
        <time>2020-06-21T07:36:07Z</time>
      </trkpt>
      <trkpt lat="43.1669" lon="5.88502">
        <ele>458.43359375</ele>
        <time>2020-06-21T07:36:18Z</time>
      </trkpt>
      <trkpt lat="43.16694" lon="5.88497">
        <ele>457.9609375</ele>
        <time>2020-06-21T07:36:29Z</time>
      </trkpt>
      <trkpt lat="43.16695" lon="5.88496">
        <ele>457.7265625</ele>
        <time>2020-06-21T07:36:30Z</time>
      </trkpt>
      <trkpt lat="43.16697" lon="5.88494">
        <ele>457.28515625</ele>
        <time>2020-06-21T07:36:31Z</time>
      </trkpt>
      <trkpt lat="43.16699" lon="5.88493">
        <ele>457.0078125</ele>
        <time>2020-06-21T07:36:32Z</time>
      </trkpt>
      <trkpt lat="43.167" lon="5.88492">
        <ele>456.7265625</ele>
        <time>2020-06-21T07:36:33Z</time>
      </trkpt>
      <trkpt lat="43.16715" lon="5.88482">
        <ele>452.546875</ele>
        <time>2020-06-21T07:36:39Z</time>
      </trkpt>
      <trkpt lat="43.16718" lon="5.8848">
        <ele>451.828125</ele>
        <time>2020-06-21T07:36:40Z</time>
      </trkpt>
      <trkpt lat="43.16724" lon="5.88474">
        <ele>450.51953125</ele>
        <time>2020-06-21T07:36:42Z</time>
      </trkpt>
      <trkpt lat="43.16727" lon="5.8847">
        <ele>450.08203125</ele>
        <time>2020-06-21T07:36:43Z</time>
      </trkpt>
      <trkpt lat="43.16739" lon="5.88458">
        <ele>448.9453125</ele>
        <time>2020-06-21T07:36:47Z</time>
      </trkpt>
      <trkpt lat="43.16757" lon="5.8844">
        <ele>448.2109375</ele>
        <time>2020-06-21T07:36:54Z</time>
      </trkpt>
      <trkpt lat="43.16767" lon="5.88435">
        <ele>447.24609375</ele>
        <time>2020-06-21T07:36:58Z</time>
      </trkpt>
      <trkpt lat="43.1677" lon="5.88433">
        <ele>447.02734375</ele>
        <time>2020-06-21T07:36:59Z</time>
      </trkpt>
      <trkpt lat="43.16775" lon="5.88431">
        <ele>446.90234375</ele>
        <time>2020-06-21T07:37:01Z</time>
      </trkpt>
      <trkpt lat="43.16777" lon="5.8843">
        <ele>446.359375</ele>
        <time>2020-06-21T07:37:02Z</time>
      </trkpt>
      <trkpt lat="43.1678" lon="5.8843">
        <ele>445.97265625</ele>
        <time>2020-06-21T07:37:03Z</time>
      </trkpt>
      <trkpt lat="43.16781" lon="5.88429">
        <ele>445.72265625</ele>
        <time>2020-06-21T07:37:04Z</time>
      </trkpt>
      <trkpt lat="43.16783" lon="5.88429">
        <ele>445.32421875</ele>
        <time>2020-06-21T07:37:05Z</time>
      </trkpt>
      <trkpt lat="43.16785" lon="5.88429">
        <ele>444.828125</ele>
        <time>2020-06-21T07:37:06Z</time>
      </trkpt>
      <trkpt lat="43.16786" lon="5.8843">
        <ele>444.296875</ele>
        <time>2020-06-21T07:37:07Z</time>
      </trkpt>
      <trkpt lat="43.16798" lon="5.88431">
        <ele>444.1796875</ele>
        <time>2020-06-21T07:37:12Z</time>
      </trkpt>
      <trkpt lat="43.16812" lon="5.88433">
        <ele>444.26953125</ele>
        <time>2020-06-21T07:37:17Z</time>
      </trkpt>
      <trkpt lat="43.16819" lon="5.88431">
        <ele>445.03125</ele>
        <time>2020-06-21T07:37:20Z</time>
      </trkpt>
      <trkpt lat="43.16822" lon="5.88431">
        <ele>445.25390625</ele>
        <time>2020-06-21T07:37:31Z</time>
      </trkpt>
      <trkpt lat="43.16827" lon="5.8843">
        <ele>445.5</ele>
        <time>2020-06-21T07:37:37Z</time>
      </trkpt>
      <trkpt lat="43.16841" lon="5.8843">
        <ele>445.359375</ele>
        <time>2020-06-21T07:37:42Z</time>
      </trkpt>
      <trkpt lat="43.16843" lon="5.88432">
        <ele>444.875</ele>
        <time>2020-06-21T07:37:43Z</time>
      </trkpt>
      <trkpt lat="43.16844" lon="5.88434">
        <ele>444.2734375</ele>
        <time>2020-06-21T07:37:44Z</time>
      </trkpt>
      <trkpt lat="43.16847" lon="5.88438">
        <ele>443.3203125</ele>
        <time>2020-06-21T07:37:45Z</time>
      </trkpt>
      <trkpt lat="43.16849" lon="5.88443">
        <ele>442.09375</ele>
        <time>2020-06-21T07:37:46Z</time>
      </trkpt>
      <trkpt lat="43.16851" lon="5.88447">
        <ele>441.05859375</ele>
        <time>2020-06-21T07:37:47Z</time>
      </trkpt>
      <trkpt lat="43.16862" lon="5.88467">
        <ele>437.2421875</ele>
        <time>2020-06-21T07:37:54Z</time>
      </trkpt>
      <trkpt lat="43.16864" lon="5.88468">
        <ele>437.078125</ele>
        <time>2020-06-21T07:37:55Z</time>
      </trkpt>
      <trkpt lat="43.16866" lon="5.88469">
        <ele>436.93359375</ele>
        <time>2020-06-21T07:37:56Z</time>
      </trkpt>
      <trkpt lat="43.16873" lon="5.8847">
        <ele>436.5078125</ele>
        <time>2020-06-21T07:38:05Z</time>
      </trkpt>
      <trkpt lat="43.16871" lon="5.88468">
        <ele>437.1171875</ele>
        <time>2020-06-21T07:38:07Z</time>
      </trkpt>
      <trkpt lat="43.1687" lon="5.88467">
        <ele>437.43359375</ele>
        <time>2020-06-21T07:38:08Z</time>
      </trkpt>
      <trkpt lat="43.16867" lon="5.88464">
        <ele>437.875</ele>
        <time>2020-06-21T07:38:19Z</time>
      </trkpt>
      <trkpt lat="43.16868" lon="5.88466">
        <ele>437.6171875</ele>
        <time>2020-06-21T07:38:26Z</time>
      </trkpt>
      <trkpt lat="43.16869" lon="5.88466">
        <ele>437.55078125</ele>
        <time>2020-06-21T07:38:27Z</time>
      </trkpt>
      <trkpt lat="43.1687" lon="5.88467">
        <ele>437.3671875</ele>
        <time>2020-06-21T07:38:28Z</time>
      </trkpt>
      <trkpt lat="43.1687" lon="5.88469">
        <ele>436.93359375</ele>
        <time>2020-06-21T07:38:29Z</time>
      </trkpt>
      <trkpt lat="43.16871" lon="5.88472">
        <ele>436.2890625</ele>
        <time>2020-06-21T07:38:30Z</time>
      </trkpt>
      <trkpt lat="43.16872" lon="5.88476">
        <ele>435.4921875</ele>
        <time>2020-06-21T07:38:31Z</time>
      </trkpt>
      <trkpt lat="43.16874" lon="5.88492">
        <ele>432.32421875</ele>
        <time>2020-06-21T07:38:36Z</time>
      </trkpt>
      <trkpt lat="43.16873" lon="5.88501">
        <ele>430.82421875</ele>
        <time>2020-06-21T07:38:38Z</time>
      </trkpt>
      <trkpt lat="43.16873" lon="5.88508">
        <ele>429.65625</ele>
        <time>2020-06-21T07:38:40Z</time>
      </trkpt>
      <trkpt lat="43.16875" lon="5.88511">
        <ele>429.0078125</ele>
        <time>2020-06-21T07:38:41Z</time>
      </trkpt>
      <trkpt lat="43.16877" lon="5.88514">
        <ele>428.26171875</ele>
        <time>2020-06-21T07:38:42Z</time>
      </trkpt>
      <trkpt lat="43.16879" lon="5.88518">
        <ele>427.44921875</ele>
        <time>2020-06-21T07:38:43Z</time>
      </trkpt>
      <trkpt lat="43.16879" lon="5.88523">
        <ele>426.765625</ele>
        <time>2020-06-21T07:38:44Z</time>
      </trkpt>
      <trkpt lat="43.16882" lon="5.88548">
        <ele>422.1171875</ele>
        <time>2020-06-21T07:38:52Z</time>
      </trkpt>
      <trkpt lat="43.16886" lon="5.88556">
        <ele>420.015625</ele>
        <time>2020-06-21T07:38:55Z</time>
      </trkpt>
      <trkpt lat="43.16887" lon="5.88556">
        <ele>419.87109375</ele>
        <time>2020-06-21T07:38:56Z</time>
      </trkpt>
      <trkpt lat="43.16889" lon="5.88555">
        <ele>419.734375</ele>
        <time>2020-06-21T07:38:57Z</time>
      </trkpt>
      <trkpt lat="43.16892" lon="5.88555">
        <ele>419.3671875</ele>
        <time>2020-06-21T07:38:58Z</time>
      </trkpt>
      <trkpt lat="43.16894" lon="5.88556">
        <ele>418.89453125</ele>
        <time>2020-06-21T07:38:59Z</time>
      </trkpt>
      <trkpt lat="43.16893" lon="5.88558">
        <ele>418.609375</ele>
        <time>2020-06-21T07:39:11Z</time>
      </trkpt>
      <trkpt lat="43.16894" lon="5.88559">
        <ele>418.421875</ele>
        <time>2020-06-21T07:39:15Z</time>
      </trkpt>
      <trkpt lat="43.16894" lon="5.88561">
        <ele>417.97265625</ele>
        <time>2020-06-21T07:39:16Z</time>
      </trkpt>
      <trkpt lat="43.16895" lon="5.88564">
        <ele>417.31640625</ele>
        <time>2020-06-21T07:39:17Z</time>
      </trkpt>
      <trkpt lat="43.16896" lon="5.88567">
        <ele>416.5625</ele>
        <time>2020-06-21T07:39:18Z</time>
      </trkpt>
      <trkpt lat="43.16897" lon="5.8857">
        <ele>415.91796875</ele>
        <time>2020-06-21T07:39:19Z</time>
      </trkpt>
      <trkpt lat="43.16897" lon="5.88573">
        <ele>415.3046875</ele>
        <time>2020-06-21T07:39:20Z</time>
      </trkpt>
      <trkpt lat="43.16898" lon="5.88576">
        <ele>414.58203125</ele>
        <time>2020-06-21T07:39:21Z</time>
      </trkpt>
      <trkpt lat="43.169" lon="5.8858">
        <ele>413.796875</ele>
        <time>2020-06-21T07:39:22Z</time>
      </trkpt>
      <trkpt lat="43.16901" lon="5.88583">
        <ele>412.984375</ele>
        <time>2020-06-21T07:39:23Z</time>
      </trkpt>
      <trkpt lat="43.16902" lon="5.88586">
        <ele>412.2890625</ele>
        <time>2020-06-21T07:39:24Z</time>
      </trkpt>
      <trkpt lat="43.16903" lon="5.88589">
        <ele>411.859375</ele>
        <time>2020-06-21T07:39:26Z</time>
      </trkpt>
      <trkpt lat="43.16905" lon="5.88598">
        <ele>410.328125</ele>
        <time>2020-06-21T07:39:38Z</time>
      </trkpt>
      <trkpt lat="43.16907" lon="5.88599">
        <ele>410.0234375</ele>
        <time>2020-06-21T07:39:39Z</time>
      </trkpt>
      <trkpt lat="43.16909" lon="5.886">
        <ele>409.6953125</ele>
        <time>2020-06-21T07:39:40Z</time>
      </trkpt>
      <trkpt lat="43.16911" lon="5.88602">
        <ele>409.2578125</ele>
        <time>2020-06-21T07:39:41Z</time>
      </trkpt>
      <trkpt lat="43.16913" lon="5.88604">
        <ele>408.8671875</ele>
        <time>2020-06-21T07:39:42Z</time>
      </trkpt>
      <trkpt lat="43.16914" lon="5.88606">
        <ele>408.56640625</ele>
        <time>2020-06-21T07:39:43Z</time>
      </trkpt>
      <trkpt lat="43.16914" lon="5.88609">
        <ele>408.265625</ele>
        <time>2020-06-21T07:39:44Z</time>
      </trkpt>
      <trkpt lat="43.16915" lon="5.88612">
        <ele>407.89453125</ele>
        <time>2020-06-21T07:39:45Z</time>
      </trkpt>
      <trkpt lat="43.16916" lon="5.88615">
        <ele>407.47265625</ele>
        <time>2020-06-21T07:39:46Z</time>
      </trkpt>
      <trkpt lat="43.16917" lon="5.88618">
        <ele>407.12109375</ele>
        <time>2020-06-21T07:39:47Z</time>
      </trkpt>
      <trkpt lat="43.16918" lon="5.88621">
        <ele>406.83984375</ele>
        <time>2020-06-21T07:39:48Z</time>
      </trkpt>
      <trkpt lat="43.16918" lon="5.88624">
        <ele>406.515625</ele>
        <time>2020-06-21T07:39:49Z</time>
      </trkpt>
      <trkpt lat="43.16919" lon="5.88627">
        <ele>406.203125</ele>
        <time>2020-06-21T07:39:50Z</time>
      </trkpt>
      <trkpt lat="43.16925" lon="5.88646">
        <ele>404.42578125</ele>
        <time>2020-06-21T07:39:57Z</time>
      </trkpt>
      <trkpt lat="43.16924" lon="5.88649">
        <ele>404.06640625</ele>
        <time>2020-06-21T07:39:58Z</time>
      </trkpt>
      <trkpt lat="43.16926" lon="5.88656">
        <ele>403.30859375</ele>
        <time>2020-06-21T07:40:00Z</time>
      </trkpt>
      <trkpt lat="43.16929" lon="5.88658">
        <ele>402.4609375</ele>
        <time>2020-06-21T07:40:01Z</time>
      </trkpt>
      <trkpt lat="43.16932" lon="5.88661">
        <ele>401.609375</ele>
        <time>2020-06-21T07:40:02Z</time>
      </trkpt>
      <trkpt lat="43.16941" lon="5.88667">
        <ele>399.33203125</ele>
        <time>2020-06-21T07:40:05Z</time>
      </trkpt>
      <trkpt lat="43.16944" lon="5.88671">
        <ele>398.44921875</ele>
        <time>2020-06-21T07:40:16Z</time>
      </trkpt>
      <trkpt lat="43.16945" lon="5.88673">
        <ele>398.1640625</ele>
        <time>2020-06-21T07:40:19Z</time>
      </trkpt>
      <trkpt lat="43.16946" lon="5.88675">
        <ele>397.93359375</ele>
        <time>2020-06-21T07:40:20Z</time>
      </trkpt>
      <trkpt lat="43.16946" lon="5.88678">
        <ele>397.6953125</ele>
        <time>2020-06-21T07:40:21Z</time>
      </trkpt>
      <trkpt lat="43.16947" lon="5.8868">
        <ele>397.3671875</ele>
        <time>2020-06-21T07:40:22Z</time>
      </trkpt>
      <trkpt lat="43.16949" lon="5.88684">
        <ele>396.953125</ele>
        <time>2020-06-21T07:40:23Z</time>
      </trkpt>
      <trkpt lat="43.16951" lon="5.88688">
        <ele>396.57421875</ele>
        <time>2020-06-21T07:40:24Z</time>
      </trkpt>
      <trkpt lat="43.16952" lon="5.88692">
        <ele>396.25</ele>
        <time>2020-06-21T07:40:25Z</time>
      </trkpt>
      <trkpt lat="43.16954" lon="5.88696">
        <ele>395.87109375</ele>
        <time>2020-06-21T07:40:26Z</time>
      </trkpt>
      <trkpt lat="43.16956" lon="5.887">
        <ele>395.38671875</ele>
        <time>2020-06-21T07:40:27Z</time>
      </trkpt>
      <trkpt lat="43.16958" lon="5.88705">
        <ele>394.9140625</ele>
        <time>2020-06-21T07:40:28Z</time>
      </trkpt>
      <trkpt lat="43.16964" lon="5.88727">
        <ele>393.4453125</ele>
        <time>2020-06-21T07:40:33Z</time>
      </trkpt>
      <trkpt lat="43.16987" lon="5.88768">
        <ele>390.6875</ele>
        <time>2020-06-21T07:40:44Z</time>
      </trkpt>
      <trkpt lat="43.16999" lon="5.88783">
        <ele>389.73828125</ele>
        <time>2020-06-21T07:40:49Z</time>
      </trkpt>
      <trkpt lat="43.17001" lon="5.88783">
        <ele>389.77734375</ele>
        <time>2020-06-21T07:40:50Z</time>
      </trkpt>
      <trkpt lat="43.17003" lon="5.88782">
        <ele>389.80078125</ele>
        <time>2020-06-21T07:40:51Z</time>
      </trkpt>
      <trkpt lat="43.17006" lon="5.88783">
        <ele>389.80078125</ele>
        <time>2020-06-21T07:40:52Z</time>
      </trkpt>
      <trkpt lat="43.17008" lon="5.88784">
        <ele>389.73046875</ele>
        <time>2020-06-21T07:40:53Z</time>
      </trkpt>
      <trkpt lat="43.1701" lon="5.88786">
        <ele>389.8046875</ele>
        <time>2020-06-21T07:40:54Z</time>
      </trkpt>
      <trkpt lat="43.17013" lon="5.88788">
        <ele>389.90234375</ele>
        <time>2020-06-21T07:40:55Z</time>
      </trkpt>
      <trkpt lat="43.1702" lon="5.88793">
        <ele>390.46875</ele>
        <time>2020-06-21T07:40:58Z</time>
      </trkpt>
      <trkpt lat="43.17028" lon="5.88804">
        <ele>390.95703125</ele>
        <time>2020-06-21T07:41:01Z</time>
      </trkpt>
      <trkpt lat="43.1703" lon="5.88808">
        <ele>390.9921875</ele>
        <time>2020-06-21T07:41:11Z</time>
      </trkpt>
      <trkpt lat="43.17032" lon="5.88805">
        <ele>391.53125</ele>
        <time>2020-06-21T07:41:26Z</time>
      </trkpt>
      <trkpt lat="43.17035" lon="5.88803">
        <ele>391.97265625</ele>
        <time>2020-06-21T07:41:33Z</time>
      </trkpt>
      <trkpt lat="43.17036" lon="5.88801">
        <ele>392.20703125</ele>
        <time>2020-06-21T07:41:34Z</time>
      </trkpt>
      <trkpt lat="43.17037" lon="5.88799">
        <ele>392.47265625</ele>
        <time>2020-06-21T07:41:35Z</time>
      </trkpt>
      <trkpt lat="43.17037" lon="5.88796">
        <ele>392.6171875</ele>
        <time>2020-06-21T07:41:36Z</time>
      </trkpt>
      <trkpt lat="43.17037" lon="5.88793">
        <ele>392.6796875</ele>
        <time>2020-06-21T07:41:38Z</time>
      </trkpt>
      <trkpt lat="43.17037" lon="5.88792">
        <ele>392.69921875</ele>
        <time>2020-06-21T07:41:39Z</time>
      </trkpt>
      <trkpt lat="43.17037" lon="5.8879">
        <ele>392.7421875</ele>
        <time>2020-06-21T07:41:40Z</time>
      </trkpt>
      <trkpt lat="43.17036" lon="5.88783">
        <ele>392.9140625</ele>
        <time>2020-06-21T07:41:56Z</time>
      </trkpt>
      <trkpt lat="43.17039" lon="5.88774">
        <ele>392.95703125</ele>
        <time>2020-06-21T07:42:06Z</time>
      </trkpt>
      <trkpt lat="43.17039" lon="5.88771">
        <ele>392.734375</ele>
        <time>2020-06-21T07:42:07Z</time>
      </trkpt>
      <trkpt lat="43.17039" lon="5.88769">
        <ele>392.6015625</ele>
        <time>2020-06-21T07:42:08Z</time>
      </trkpt>
      <trkpt lat="43.1704" lon="5.88766">
        <ele>392.546875</ele>
        <time>2020-06-21T07:42:09Z</time>
      </trkpt>
      <trkpt lat="43.17042" lon="5.88764">
        <ele>392.609375</ele>
        <time>2020-06-21T07:42:10Z</time>
      </trkpt>
      <trkpt lat="43.17045" lon="5.88761">
        <ele>392.890625</ele>
        <time>2020-06-21T07:42:11Z</time>
      </trkpt>
      <trkpt lat="43.17049" lon="5.88759">
        <ele>393.3125</ele>
        <time>2020-06-21T07:42:12Z</time>
      </trkpt>
      <trkpt lat="43.17053" lon="5.88757">
        <ele>393.69921875</ele>
        <time>2020-06-21T07:42:13Z</time>
      </trkpt>
      <trkpt lat="43.17056" lon="5.88755">
        <ele>394.0234375</ele>
        <time>2020-06-21T07:42:14Z</time>
      </trkpt>
      <trkpt lat="43.17059" lon="5.88753">
        <ele>394.23046875</ele>
        <time>2020-06-21T07:42:15Z</time>
      </trkpt>
      <trkpt lat="43.17061" lon="5.8875">
        <ele>394.234375</ele>
        <time>2020-06-21T07:42:16Z</time>
      </trkpt>
      <trkpt lat="43.17064" lon="5.88742">
        <ele>393.58203125</ele>
        <time>2020-06-21T07:42:18Z</time>
      </trkpt>
      <trkpt lat="43.17064" lon="5.88737">
        <ele>392.81640625</ele>
        <time>2020-06-21T07:42:19Z</time>
      </trkpt>
      <trkpt lat="43.17063" lon="5.88732">
        <ele>392.015625</ele>
        <time>2020-06-21T07:42:20Z</time>
      </trkpt>
      <trkpt lat="43.17061" lon="5.88727">
        <ele>391.26953125</ele>
        <time>2020-06-21T07:42:21Z</time>
      </trkpt>
      <trkpt lat="43.17059" lon="5.88723">
        <ele>390.62890625</ele>
        <time>2020-06-21T07:42:22Z</time>
      </trkpt>
      <trkpt lat="43.17058" lon="5.88718">
        <ele>389.9296875</ele>
        <time>2020-06-21T07:42:23Z</time>
      </trkpt>
      <trkpt lat="43.17056" lon="5.88713">
        <ele>389.1328125</ele>
        <time>2020-06-21T07:42:24Z</time>
      </trkpt>
      <trkpt lat="43.17054" lon="5.88707">
        <ele>388.34375</ele>
        <time>2020-06-21T07:42:25Z</time>
      </trkpt>
      <trkpt lat="43.17052" lon="5.88701">
        <ele>387.546875</ele>
        <time>2020-06-21T07:42:26Z</time>
      </trkpt>
      <trkpt lat="43.17051" lon="5.88695">
        <ele>386.77734375</ele>
        <time>2020-06-21T07:42:27Z</time>
      </trkpt>
      <trkpt lat="43.1705" lon="5.88688">
        <ele>386.08203125</ele>
        <time>2020-06-21T07:42:28Z</time>
      </trkpt>
      <trkpt lat="43.17047" lon="5.88676">
        <ele>384.7265625</ele>
        <time>2020-06-21T07:42:30Z</time>
      </trkpt>
      <trkpt lat="43.17046" lon="5.8867">
        <ele>384.09765625</ele>
        <time>2020-06-21T07:42:31Z</time>
      </trkpt>
      <trkpt lat="43.17047" lon="5.88665">
        <ele>383.58984375</ele>
        <time>2020-06-21T07:42:32Z</time>
      </trkpt>
      <trkpt lat="43.17048" lon="5.88662">
        <ele>383.2734375</ele>
        <time>2020-06-21T07:42:33Z</time>
      </trkpt>
      <trkpt lat="43.17048" lon="5.88657">
        <ele>382.734375</ele>
        <time>2020-06-21T07:42:43Z</time>
      </trkpt>
      <trkpt lat="43.17058" lon="5.88638">
        <ele>380.57421875</ele>
        <time>2020-06-21T07:42:51Z</time>
      </trkpt>
      <trkpt lat="43.1706" lon="5.88627">
        <ele>379.1484375</ele>
        <time>2020-06-21T07:42:53Z</time>
      </trkpt>
      <trkpt lat="43.17062" lon="5.88621">
        <ele>378.2421875</ele>
        <time>2020-06-21T07:42:54Z</time>
      </trkpt>
      <trkpt lat="43.17064" lon="5.88615">
        <ele>377.18359375</ele>
        <time>2020-06-21T07:42:55Z</time>
      </trkpt>
      <trkpt lat="43.17066" lon="5.88608">
        <ele>376.921875</ele>
        <time>2020-06-21T07:42:56Z</time>
      </trkpt>
      <trkpt lat="43.17069" lon="5.88601">
        <ele>376.69921875</ele>
        <time>2020-06-21T07:42:57Z</time>
      </trkpt>
      <trkpt lat="43.17071" lon="5.88595">
        <ele>376.390625</ele>
        <time>2020-06-21T07:42:58Z</time>
      </trkpt>
      <trkpt lat="43.17076" lon="5.88583">
        <ele>375.90625</ele>
        <time>2020-06-21T07:43:00Z</time>
      </trkpt>
      <trkpt lat="43.17084" lon="5.88566">
        <ele>375.82421875</ele>
        <time>2020-06-21T07:43:03Z</time>
      </trkpt>
      <trkpt lat="43.17087" lon="5.8856">
        <ele>375.69921875</ele>
        <time>2020-06-21T07:43:04Z</time>
      </trkpt>
      <trkpt lat="43.1709" lon="5.88554">
        <ele>375.21484375</ele>
        <time>2020-06-21T07:43:05Z</time>
      </trkpt>
      <trkpt lat="43.17095" lon="5.8854">
        <ele>373.75</ele>
        <time>2020-06-21T07:43:07Z</time>
      </trkpt>
      <trkpt lat="43.17098" lon="5.88534">
        <ele>372.9296875</ele>
        <time>2020-06-21T07:43:08Z</time>
      </trkpt>
      <trkpt lat="43.171" lon="5.88527">
        <ele>372.359375</ele>
        <time>2020-06-21T07:43:09Z</time>
      </trkpt>
      <trkpt lat="43.17106" lon="5.88516">
        <ele>371.46484375</ele>
        <time>2020-06-21T07:43:11Z</time>
      </trkpt>
      <trkpt lat="43.17112" lon="5.88508">
        <ele>370.36328125</ele>
        <time>2020-06-21T07:43:13Z</time>
      </trkpt>
      <trkpt lat="43.17122" lon="5.88498">
        <ele>368.8671875</ele>
        <time>2020-06-21T07:43:16Z</time>
      </trkpt>
      <trkpt lat="43.17126" lon="5.88493">
        <ele>368.7421875</ele>
        <time>2020-06-21T07:43:17Z</time>
      </trkpt>
      <trkpt lat="43.17131" lon="5.88489">
        <ele>368.44140625</ele>
        <time>2020-06-21T07:43:18Z</time>
      </trkpt>
      <trkpt lat="43.17145" lon="5.88475">
        <ele>366.1484375</ele>
        <time>2020-06-21T07:43:21Z</time>
      </trkpt>
      <trkpt lat="43.17154" lon="5.88464">
        <ele>364.55859375</ele>
        <time>2020-06-21T07:43:23Z</time>
      </trkpt>
      <trkpt lat="43.17159" lon="5.88458">
        <ele>363.63671875</ele>
        <time>2020-06-21T07:43:24Z</time>
      </trkpt>
      <trkpt lat="43.17162" lon="5.88452">
        <ele>362.6796875</ele>
        <time>2020-06-21T07:43:25Z</time>
      </trkpt>
      <trkpt lat="43.17166" lon="5.88447">
        <ele>361.66796875</ele>
        <time>2020-06-21T07:43:26Z</time>
      </trkpt>
      <trkpt lat="43.1717" lon="5.88441">
        <ele>361.3515625</ele>
        <time>2020-06-21T07:43:27Z</time>
      </trkpt>
      <trkpt lat="43.17174" lon="5.88436">
        <ele>360.80859375</ele>
        <time>2020-06-21T07:43:28Z</time>
      </trkpt>
      <trkpt lat="43.17193" lon="5.88402">
        <ele>356.125</ele>
        <time>2020-06-21T07:43:34Z</time>
      </trkpt>
      <trkpt lat="43.17201" lon="5.88391">
        <ele>353.390625</ele>
        <time>2020-06-21T07:43:36Z</time>
      </trkpt>
      <trkpt lat="43.17205" lon="5.88387">
        <ele>353.265625</ele>
        <time>2020-06-21T07:43:37Z</time>
      </trkpt>
      <trkpt lat="43.17223" lon="5.88374">
        <ele>353.25390625</ele>
        <time>2020-06-21T07:43:42Z</time>
      </trkpt>
      <trkpt lat="43.17241" lon="5.88358">
        <ele>351.77734375</ele>
        <time>2020-06-21T07:43:48Z</time>
      </trkpt>
      <trkpt lat="43.17256" lon="5.88348">
        <ele>350.484375</ele>
        <time>2020-06-21T07:43:57Z</time>
      </trkpt>
      <trkpt lat="43.17261" lon="5.88346">
        <ele>350.15625</ele>
        <time>2020-06-21T07:44:20Z</time>
      </trkpt>
      <trkpt lat="43.17277" lon="5.88337">
        <ele>349.8046875</ele>
        <time>2020-06-21T07:44:26Z</time>
      </trkpt>
      <trkpt lat="43.17281" lon="5.88334">
        <ele>349.51171875</ele>
        <time>2020-06-21T07:44:27Z</time>
      </trkpt>
      <trkpt lat="43.17299" lon="5.8831">
        <ele>346.70703125</ele>
        <time>2020-06-21T07:44:35Z</time>
      </trkpt>
      <trkpt lat="43.17299" lon="5.88307">
        <ele>346.390625</ele>
        <time>2020-06-21T07:44:36Z</time>
      </trkpt>
      <trkpt lat="43.17298" lon="5.88304">
        <ele>346.17578125</ele>
        <time>2020-06-21T07:44:37Z</time>
      </trkpt>
      <trkpt lat="43.173" lon="5.88294">
        <ele>345.4609375</ele>
        <time>2020-06-21T07:44:46Z</time>
      </trkpt>
      <trkpt lat="43.17299" lon="5.88291">
        <ele>345.2734375</ele>
        <time>2020-06-21T07:44:47Z</time>
      </trkpt>
      <trkpt lat="43.173" lon="5.88289">
        <ele>345.13671875</ele>
        <time>2020-06-21T07:44:48Z</time>
      </trkpt>
      <trkpt lat="43.17312" lon="5.88264">
        <ele>342.921875</ele>
        <time>2020-06-21T07:44:56Z</time>
      </trkpt>
      <trkpt lat="43.17314" lon="5.88259">
        <ele>342.46875</ele>
        <time>2020-06-21T07:44:57Z</time>
      </trkpt>
      <trkpt lat="43.17324" lon="5.88231">
        <ele>341.6640625</ele>
        <time>2020-06-21T07:45:02Z</time>
      </trkpt>
      <trkpt lat="43.17326" lon="5.88225">
        <ele>341.41796875</ele>
        <time>2020-06-21T07:45:03Z</time>
      </trkpt>
      <trkpt lat="43.17329" lon="5.88219">
        <ele>340.86328125</ele>
        <time>2020-06-21T07:45:04Z</time>
      </trkpt>
      <trkpt lat="43.17331" lon="5.88214">
        <ele>340.3203125</ele>
        <time>2020-06-21T07:45:05Z</time>
      </trkpt>
      <trkpt lat="43.17331" lon="5.8821">
        <ele>339.890625</ele>
        <time>2020-06-21T07:45:06Z</time>
      </trkpt>
      <trkpt lat="43.17332" lon="5.88207">
        <ele>339.53125</ele>
        <time>2020-06-21T07:45:07Z</time>
      </trkpt>
      <trkpt lat="43.17333" lon="5.88204">
        <ele>339.125</ele>
        <time>2020-06-21T07:45:08Z</time>
      </trkpt>
      <trkpt lat="43.1734" lon="5.88186">
        <ele>336.1015625</ele>
        <time>2020-06-21T07:45:12Z</time>
      </trkpt>
      <trkpt lat="43.17343" lon="5.88181">
        <ele>335.3046875</ele>
        <time>2020-06-21T07:45:13Z</time>
      </trkpt>
      <trkpt lat="43.17356" lon="5.88147">
        <ele>335.44140625</ele>
        <time>2020-06-21T07:45:21Z</time>
      </trkpt>
      <trkpt lat="43.17362" lon="5.88119">
        <ele>335.1796875</ele>
        <time>2020-06-21T07:45:29Z</time>
      </trkpt>
      <trkpt lat="43.17364" lon="5.88111">
        <ele>335.08984375</ele>
        <time>2020-06-21T07:45:37Z</time>
      </trkpt>
      <trkpt lat="43.17365" lon="5.88109">
        <ele>335.07421875</ele>
        <time>2020-06-21T07:45:38Z</time>
      </trkpt>
      <trkpt lat="43.17366" lon="5.88106">
        <ele>334.9921875</ele>
        <time>2020-06-21T07:45:39Z</time>
      </trkpt>
      <trkpt lat="43.17367" lon="5.88102">
        <ele>334.8984375</ele>
        <time>2020-06-21T07:45:40Z</time>
      </trkpt>
      <trkpt lat="43.17368" lon="5.88098">
        <ele>334.75390625</ele>
        <time>2020-06-21T07:45:41Z</time>
      </trkpt>
      <trkpt lat="43.17383" lon="5.88051">
        <ele>332.95703125</ele>
        <time>2020-06-21T07:45:53Z</time>
      </trkpt>
      <trkpt lat="43.17396" lon="5.88012">
        <ele>330.65234375</ele>
        <time>2020-06-21T07:46:00Z</time>
      </trkpt>
      <trkpt lat="43.17398" lon="5.88004">
        <ele>330.27734375</ele>
        <time>2020-06-21T07:46:01Z</time>
      </trkpt>
      <trkpt lat="43.17401" lon="5.87989">
        <ele>329.59765625</ele>
        <time>2020-06-21T07:46:03Z</time>
      </trkpt>
      <trkpt lat="43.17403" lon="5.87977">
        <ele>328.98046875</ele>
        <time>2020-06-21T07:46:05Z</time>
      </trkpt>
      <trkpt lat="43.17405" lon="5.87971">
        <ele>328.99609375</ele>
        <time>2020-06-21T07:46:06Z</time>
      </trkpt>
      <trkpt lat="43.17407" lon="5.87967">
        <ele>329.2421875</ele>
        <time>2020-06-21T07:46:07Z</time>
      </trkpt>
      <trkpt lat="43.17409" lon="5.87963">
        <ele>329.32421875</ele>
        <time>2020-06-21T07:46:08Z</time>
      </trkpt>
      <trkpt lat="43.1741" lon="5.87959">
        <ele>329.109375</ele>
        <time>2020-06-21T07:46:09Z</time>
      </trkpt>
      <trkpt lat="43.17408" lon="5.87955">
        <ele>328.5</ele>
        <time>2020-06-21T07:46:10Z</time>
      </trkpt>
      <trkpt lat="43.17406" lon="5.87951">
        <ele>327.51171875</ele>
        <time>2020-06-21T07:46:11Z</time>
      </trkpt>
      <trkpt lat="43.17403" lon="5.87947">
        <ele>326.4296875</ele>
        <time>2020-06-21T07:46:12Z</time>
      </trkpt>
      <trkpt lat="43.17401" lon="5.87941">
        <ele>325.51953125</ele>
        <time>2020-06-21T07:46:13Z</time>
      </trkpt>
      <trkpt lat="43.174" lon="5.87936">
        <ele>324.7265625</ele>
        <time>2020-06-21T07:46:14Z</time>
      </trkpt>
      <trkpt lat="43.17399" lon="5.8793">
        <ele>324.078125</ele>
        <time>2020-06-21T07:46:15Z</time>
      </trkpt>
      <trkpt lat="43.17399" lon="5.87923">
        <ele>323.59765625</ele>
        <time>2020-06-21T07:46:16Z</time>
      </trkpt>
      <trkpt lat="43.174" lon="5.87916">
        <ele>323.41015625</ele>
        <time>2020-06-21T07:46:17Z</time>
      </trkpt>
      <trkpt lat="43.17401" lon="5.87909">
        <ele>323.37890625</ele>
        <time>2020-06-21T07:46:18Z</time>
      </trkpt>
      <trkpt lat="43.17402" lon="5.87901">
        <ele>323.38671875</ele>
        <time>2020-06-21T07:46:19Z</time>
      </trkpt>
      <trkpt lat="43.17404" lon="5.87895">
        <ele>323.625</ele>
        <time>2020-06-21T07:46:20Z</time>
      </trkpt>
      <trkpt lat="43.17407" lon="5.87888">
        <ele>324.0625</ele>
        <time>2020-06-21T07:46:21Z</time>
      </trkpt>
      <trkpt lat="43.1741" lon="5.87882">
        <ele>324.37109375</ele>
        <time>2020-06-21T07:46:22Z</time>
      </trkpt>
      <trkpt lat="43.17412" lon="5.87875">
        <ele>324.48046875</ele>
        <time>2020-06-21T07:46:23Z</time>
      </trkpt>
      <trkpt lat="43.17414" lon="5.87868">
        <ele>324.609375</ele>
        <time>2020-06-21T07:46:24Z</time>
      </trkpt>
      <trkpt lat="43.17417" lon="5.87861">
        <ele>324.59765625</ele>
        <time>2020-06-21T07:46:25Z</time>
      </trkpt>
      <trkpt lat="43.17428" lon="5.87834">
        <ele>323.3671875</ele>
        <time>2020-06-21T07:46:29Z</time>
      </trkpt>
      <trkpt lat="43.17429" lon="5.87828">
        <ele>323.2734375</ele>
        <time>2020-06-21T07:46:30Z</time>
      </trkpt>
      <trkpt lat="43.17433" lon="5.87816">
        <ele>322.98828125</ele>
        <time>2020-06-21T07:46:32Z</time>
      </trkpt>
      <trkpt lat="43.17434" lon="5.8781">
        <ele>322.8046875</ele>
        <time>2020-06-21T07:46:33Z</time>
      </trkpt>
      <trkpt lat="43.17437" lon="5.87798">
        <ele>322.26171875</ele>
        <time>2020-06-21T07:46:35Z</time>
      </trkpt>
      <trkpt lat="43.17439" lon="5.87786">
        <ele>321.46484375</ele>
        <time>2020-06-21T07:46:37Z</time>
      </trkpt>
      <trkpt lat="43.17441" lon="5.8778">
        <ele>321.15625</ele>
        <time>2020-06-21T07:46:38Z</time>
      </trkpt>
      <trkpt lat="43.17442" lon="5.87774">
        <ele>320.90625</ele>
        <time>2020-06-21T07:46:39Z</time>
      </trkpt>
      <trkpt lat="43.17444" lon="5.87768">
        <ele>320.609375</ele>
        <time>2020-06-21T07:46:40Z</time>
      </trkpt>
      <trkpt lat="43.17446" lon="5.87762">
        <ele>320.3125</ele>
        <time>2020-06-21T07:46:41Z</time>
      </trkpt>
      <trkpt lat="43.17449" lon="5.87756">
        <ele>319.98828125</ele>
        <time>2020-06-21T07:46:42Z</time>
      </trkpt>
      <trkpt lat="43.17451" lon="5.8775">
        <ele>319.6484375</ele>
        <time>2020-06-21T07:46:43Z</time>
      </trkpt>
      <trkpt lat="43.17454" lon="5.87737">
        <ele>319.20703125</ele>
        <time>2020-06-21T07:46:45Z</time>
      </trkpt>
      <trkpt lat="43.17457" lon="5.87733">
        <ele>319.2734375</ele>
        <time>2020-06-21T07:46:46Z</time>
      </trkpt>
      <trkpt lat="43.17466" lon="5.87706">
        <ele>319.07421875</ele>
        <time>2020-06-21T07:46:55Z</time>
      </trkpt>
      <trkpt lat="43.17474" lon="5.87677">
        <ele>318.5234375</ele>
        <time>2020-06-21T07:47:06Z</time>
      </trkpt>
      <trkpt lat="43.17468" lon="5.87621">
        <ele>314.5078125</ele>
        <time>2020-06-21T07:47:17Z</time>
      </trkpt>
      <trkpt lat="43.17467" lon="5.876">
        <ele>313.73828125</ele>
        <time>2020-06-21T07:47:20Z</time>
      </trkpt>
      <trkpt lat="43.17466" lon="5.87586">
        <ele>313.4609375</ele>
        <time>2020-06-21T07:47:22Z</time>
      </trkpt>
      <trkpt lat="43.17467" lon="5.8758">
        <ele>313.1640625</ele>
        <time>2020-06-21T07:47:23Z</time>
      </trkpt>
      <trkpt lat="43.17468" lon="5.87575">
        <ele>312.9453125</ele>
        <time>2020-06-21T07:47:24Z</time>
      </trkpt>
      <trkpt lat="43.17472" lon="5.87563">
        <ele>312.61328125</ele>
        <time>2020-06-21T07:47:26Z</time>
      </trkpt>
      <trkpt lat="43.17475" lon="5.87558">
        <ele>312.53125</ele>
        <time>2020-06-21T07:47:27Z</time>
      </trkpt>
      <trkpt lat="43.17478" lon="5.87553">
        <ele>312.3671875</ele>
        <time>2020-06-21T07:47:28Z</time>
      </trkpt>
      <trkpt lat="43.17481" lon="5.87548">
        <ele>312.28515625</ele>
        <time>2020-06-21T07:47:29Z</time>
      </trkpt>
      <trkpt lat="43.17484" lon="5.87544">
        <ele>312.40625</ele>
        <time>2020-06-21T07:47:30Z</time>
      </trkpt>
      <trkpt lat="43.17513" lon="5.87521">
        <ele>313.640625</ele>
        <time>2020-06-21T07:47:42Z</time>
      </trkpt>
      <trkpt lat="43.17546" lon="5.87494">
        <ele>313.421875</ele>
        <time>2020-06-21T07:47:57Z</time>
      </trkpt>
      <trkpt lat="43.17574" lon="5.87491">
        <ele>313.65234375</ele>
        <time>2020-06-21T07:48:08Z</time>
      </trkpt>
      <trkpt lat="43.17599" lon="5.87492">
        <ele>313.67578125</ele>
        <time>2020-06-21T07:48:22Z</time>
      </trkpt>
      <trkpt lat="43.17598" lon="5.87491">
        <ele>313.57421875</ele>
        <time>2020-06-21T07:48:23Z</time>
      </trkpt>
      <trkpt lat="43.17596" lon="5.87491">
        <ele>313.60546875</ele>
        <time>2020-06-21T07:48:24Z</time>
      </trkpt>
      <trkpt lat="43.17594" lon="5.87491">
        <ele>313.65234375</ele>
        <time>2020-06-21T07:48:25Z</time>
      </trkpt>
      <trkpt lat="43.17592" lon="5.87491">
        <ele>313.66796875</ele>
        <time>2020-06-21T07:48:26Z</time>
      </trkpt>
      <trkpt lat="43.1759" lon="5.87491">
        <ele>313.703125</ele>
        <time>2020-06-21T07:48:27Z</time>
      </trkpt>
      <trkpt lat="43.17588" lon="5.87491">
        <ele>313.734375</ele>
        <time>2020-06-21T07:48:28Z</time>
      </trkpt>
      <trkpt lat="43.17586" lon="5.87492">
        <ele>313.7421875</ele>
        <time>2020-06-21T07:48:29Z</time>
      </trkpt>
      <trkpt lat="43.17582" lon="5.87491">
        <ele>313.68359375</ele>
        <time>2020-06-21T07:48:31Z</time>
      </trkpt>
      <trkpt lat="43.17582" lon="5.87488">
        <ele>313.3828125</ele>
        <time>2020-06-21T07:48:41Z</time>
      </trkpt>
      <trkpt lat="43.17585" lon="5.87489">
        <ele>313.48046875</ele>
        <time>2020-06-21T07:49:08Z</time>
      </trkpt>
      <trkpt lat="43.17584" lon="5.87487">
        <ele>313.24609375</ele>
        <time>2020-06-21T07:49:29Z</time>
      </trkpt>
      <trkpt lat="43.17581" lon="5.8749">
        <ele>313.625</ele>
        <time>2020-06-21T07:49:55Z</time>
      </trkpt>
      <trkpt lat="43.17583" lon="5.87496">
        <ele>314.21484375</ele>
        <time>2020-06-21T07:50:28Z</time>
      </trkpt>
      <trkpt lat="43.17587" lon="5.87495">
        <ele>314.109375</ele>
        <time>2020-06-21T07:50:32Z</time>
      </trkpt>
      <trkpt lat="43.17588" lon="5.87495">
        <ele>314.0859375</ele>
        <time>2020-06-21T07:50:33Z</time>
      </trkpt>
      <trkpt lat="43.17622" lon="5.8747">
        <ele>311.58984375</ele>
        <time>2020-06-21T07:50:47Z</time>
      </trkpt>
      <trkpt lat="43.17665" lon="5.87444">
        <ele>309.74609375</ele>
        <time>2020-06-21T07:50:58Z</time>
      </trkpt>
      <trkpt lat="43.17676" lon="5.87439">
        <ele>309.3125</ele>
        <time>2020-06-21T07:51:00Z</time>
      </trkpt>
      <trkpt lat="43.17682" lon="5.87435">
        <ele>308.8671875</ele>
        <time>2020-06-21T07:51:01Z</time>
      </trkpt>
      <trkpt lat="43.17699" lon="5.87425">
        <ele>307.5</ele>
        <time>2020-06-21T07:51:04Z</time>
      </trkpt>
      <trkpt lat="43.1771" lon="5.87418">
        <ele>306.94921875</ele>
        <time>2020-06-21T07:51:06Z</time>
      </trkpt>
      <trkpt lat="43.17715" lon="5.87415">
        <ele>306.80859375</ele>
        <time>2020-06-21T07:51:07Z</time>
      </trkpt>
      <trkpt lat="43.17752" lon="5.87365">
        <ele>304.796875</ele>
        <time>2020-06-21T07:51:19Z</time>
      </trkpt>
      <trkpt lat="43.17756" lon="5.87341">
        <ele>304.12890625</ele>
        <time>2020-06-21T07:51:23Z</time>
      </trkpt>
      <trkpt lat="43.17758" lon="5.87334">
        <ele>303.9140625</ele>
        <time>2020-06-21T07:51:24Z</time>
      </trkpt>
      <trkpt lat="43.17762" lon="5.87329">
        <ele>303.71484375</ele>
        <time>2020-06-21T07:51:25Z</time>
      </trkpt>
      <trkpt lat="43.17766" lon="5.87324">
        <ele>303.546875</ele>
        <time>2020-06-21T07:51:26Z</time>
      </trkpt>
      <trkpt lat="43.1777" lon="5.8732">
        <ele>303.390625</ele>
        <time>2020-06-21T07:51:27Z</time>
      </trkpt>
      <trkpt lat="43.17835" lon="5.87268">
        <ele>303.30078125</ele>
        <time>2020-06-21T07:51:41Z</time>
      </trkpt>
      <trkpt lat="43.17898" lon="5.87205">
        <ele>302.65234375</ele>
        <time>2020-06-21T07:51:57Z</time>
      </trkpt>
      <trkpt lat="43.17902" lon="5.87203">
        <ele>302.93359375</ele>
        <time>2020-06-21T07:51:58Z</time>
      </trkpt>
      <trkpt lat="43.17907" lon="5.87201">
        <ele>303.31640625</ele>
        <time>2020-06-21T07:51:59Z</time>
      </trkpt>
      <trkpt lat="43.17912" lon="5.872">
        <ele>303.7890625</ele>
        <time>2020-06-21T07:52:00Z</time>
      </trkpt>
      <trkpt lat="43.17918" lon="5.872">
        <ele>304.34375</ele>
        <time>2020-06-21T07:52:01Z</time>
      </trkpt>
      <trkpt lat="43.17923" lon="5.872">
        <ele>304.921875</ele>
        <time>2020-06-21T07:52:02Z</time>
      </trkpt>
      <trkpt lat="43.17929" lon="5.872">
        <ele>305.5234375</ele>
        <time>2020-06-21T07:52:03Z</time>
      </trkpt>
      <trkpt lat="43.17934" lon="5.872">
        <ele>306.0859375</ele>
        <time>2020-06-21T07:52:04Z</time>
      </trkpt>
      <trkpt lat="43.17939" lon="5.87198">
        <ele>306.55859375</ele>
        <time>2020-06-21T07:52:05Z</time>
      </trkpt>
      <trkpt lat="43.17943" lon="5.87195">
        <ele>306.83984375</ele>
        <time>2020-06-21T07:52:06Z</time>
      </trkpt>
      <trkpt lat="43.17947" lon="5.87192">
        <ele>307.01953125</ele>
        <time>2020-06-21T07:52:07Z</time>
      </trkpt>
      <trkpt lat="43.17951" lon="5.87188">
        <ele>307.1875</ele>
        <time>2020-06-21T07:52:08Z</time>
      </trkpt>
      <trkpt lat="43.17955" lon="5.87184">
        <ele>306.83984375</ele>
        <time>2020-06-21T07:52:09Z</time>
      </trkpt>
      <trkpt lat="43.17997" lon="5.8716">
        <ele>302.45703125</ele>
        <time>2020-06-21T07:52:22Z</time>
      </trkpt>
      <trkpt lat="43.18017" lon="5.87156">
        <ele>300.32421875</ele>
        <time>2020-06-21T07:52:27Z</time>
      </trkpt>
      <trkpt lat="43.18022" lon="5.87157">
        <ele>299.69921875</ele>
        <time>2020-06-21T07:52:28Z</time>
      </trkpt>
      <trkpt lat="43.18028" lon="5.87161">
        <ele>299.02734375</ele>
        <time>2020-06-21T07:52:29Z</time>
      </trkpt>
      <trkpt lat="43.18033" lon="5.87166">
        <ele>298.3359375</ele>
        <time>2020-06-21T07:52:30Z</time>
      </trkpt>
      <trkpt lat="43.18039" lon="5.87173">
        <ele>297.9609375</ele>
        <time>2020-06-21T07:52:31Z</time>
      </trkpt>
      <trkpt lat="43.1805" lon="5.87185">
        <ele>297.7265625</ele>
        <time>2020-06-21T07:52:33Z</time>
      </trkpt>
      <trkpt lat="43.18057" lon="5.87186">
        <ele>297.15234375</ele>
        <time>2020-06-21T07:52:34Z</time>
      </trkpt>
      <trkpt lat="43.18065" lon="5.87184">
        <ele>296.5</ele>
        <time>2020-06-21T07:52:35Z</time>
      </trkpt>
      <trkpt lat="43.18089" lon="5.87171">
        <ele>296.046875</ele>
        <time>2020-06-21T07:52:38Z</time>
      </trkpt>
      <trkpt lat="43.18096" lon="5.87168">
        <ele>296</ele>
        <time>2020-06-21T07:52:39Z</time>
      </trkpt>
      <trkpt lat="43.18104" lon="5.87166">
        <ele>296</ele>
        <time>2020-06-21T07:52:40Z</time>
      </trkpt>
      <trkpt lat="43.18111" lon="5.87164">
        <ele>296</ele>
        <time>2020-06-21T07:52:41Z</time>
      </trkpt>
      <trkpt lat="43.18193" lon="5.87154">
        <ele>300.02734375</ele>
        <time>2020-06-21T07:52:54Z</time>
      </trkpt>
      <trkpt lat="43.18198" lon="5.87155">
        <ele>300.3203125</ele>
        <time>2020-06-21T07:52:55Z</time>
      </trkpt>
      <trkpt lat="43.1823" lon="5.87163">
        <ele>299.9921875</ele>
        <time>2020-06-21T07:53:01Z</time>
      </trkpt>
      <trkpt lat="43.18233" lon="5.87165">
        <ele>299.91015625</ele>
        <time>2020-06-21T07:53:02Z</time>
      </trkpt>
      <trkpt lat="43.18237" lon="5.87167">
        <ele>299.76171875</ele>
        <time>2020-06-21T07:53:03Z</time>
      </trkpt>
      <trkpt lat="43.18268" lon="5.87206">
        <ele>306.93359375</ele>
        <time>2020-06-21T07:53:14Z</time>
      </trkpt>
      <trkpt lat="43.1829" lon="5.87248">
        <ele>316.3828125</ele>
        <time>2020-06-21T07:53:25Z</time>
      </trkpt>
      <trkpt lat="43.18318" lon="5.87261">
        <ele>317.65625</ele>
        <time>2020-06-21T07:53:36Z</time>
      </trkpt>
      <trkpt lat="43.18361" lon="5.87242">
        <ele>309.97265625</ele>
        <time>2020-06-21T07:53:49Z</time>
      </trkpt>
      <trkpt lat="43.18385" lon="5.87227">
        <ele>307.5859375</ele>
        <time>2020-06-21T07:53:55Z</time>
      </trkpt>
      <trkpt lat="43.18389" lon="5.87226">
        <ele>307.4765625</ele>
        <time>2020-06-21T07:53:56Z</time>
      </trkpt>
      <trkpt lat="43.18429" lon="5.87204">
        <ele>308.66015625</ele>
        <time>2020-06-21T07:54:08Z</time>
      </trkpt>
      <trkpt lat="43.18468" lon="5.87214">
        <ele>310.96484375</ele>
        <time>2020-06-21T07:54:19Z</time>
      </trkpt>
      <trkpt lat="43.185" lon="5.87251">
        <ele>313.46484375</ele>
        <time>2020-06-21T07:54:29Z</time>
      </trkpt>
      <trkpt lat="43.18515" lon="5.87269">
        <ele>314.26171875</ele>
        <time>2020-06-21T07:54:34Z</time>
      </trkpt>
      <trkpt lat="43.18572" lon="5.87321">
        <ele>311.84765625</ele>
        <time>2020-06-21T07:54:51Z</time>
      </trkpt>
      <trkpt lat="43.18615" lon="5.87378">
        <ele>313.49609375</ele>
        <time>2020-06-21T07:55:06Z</time>
      </trkpt>
      <trkpt lat="43.18617" lon="5.87382">
        <ele>313.28125</ele>
        <time>2020-06-21T07:55:07Z</time>
      </trkpt>
      <trkpt lat="43.18621" lon="5.87392">
        <ele>313.6328125</ele>
        <time>2020-06-21T07:55:09Z</time>
      </trkpt>
      <trkpt lat="43.18649" lon="5.87448">
        <ele>320.48046875</ele>
        <time>2020-06-21T07:55:22Z</time>
      </trkpt>
      <trkpt lat="43.18651" lon="5.87464">
        <ele>321.07421875</ele>
        <time>2020-06-21T07:55:25Z</time>
      </trkpt>
      <trkpt lat="43.18651" lon="5.87481">
        <ele>321.453125</ele>
        <time>2020-06-21T07:55:28Z</time>
      </trkpt>
      <trkpt lat="43.1865" lon="5.87499">
        <ele>321.703125</ele>
        <time>2020-06-21T07:55:31Z</time>
      </trkpt>
      <trkpt lat="43.18649" lon="5.87504">
        <ele>321.55859375</ele>
        <time>2020-06-21T07:55:32Z</time>
      </trkpt>
      <trkpt lat="43.18648" lon="5.8751">
        <ele>321.34765625</ele>
        <time>2020-06-21T07:55:33Z</time>
      </trkpt>
      <trkpt lat="43.18648" lon="5.87516">
        <ele>321.2734375</ele>
        <time>2020-06-21T07:55:34Z</time>
      </trkpt>
      <trkpt lat="43.18648" lon="5.87521">
        <ele>321.265625</ele>
        <time>2020-06-21T07:55:35Z</time>
      </trkpt>
      <trkpt lat="43.18655" lon="5.87592">
        <ele>322.53125</ele>
        <time>2020-06-21T07:55:48Z</time>
      </trkpt>
      <trkpt lat="43.18663" lon="5.87657">
        <ele>324.76953125</ele>
        <time>2020-06-21T07:55:58Z</time>
      </trkpt>
      <trkpt lat="43.18663" lon="5.87664">
        <ele>324.83203125</ele>
        <time>2020-06-21T07:55:59Z</time>
      </trkpt>
      <trkpt lat="43.18662" lon="5.8767">
        <ele>324.8125</ele>
        <time>2020-06-21T07:56:00Z</time>
      </trkpt>
      <trkpt lat="43.18661" lon="5.87675">
        <ele>324.70703125</ele>
        <time>2020-06-21T07:56:01Z</time>
      </trkpt>
      <trkpt lat="43.18661" lon="5.87679">
        <ele>324.62890625</ele>
        <time>2020-06-21T07:56:02Z</time>
      </trkpt>
      <trkpt lat="43.1866" lon="5.87683">
        <ele>324.52734375</ele>
        <time>2020-06-21T07:56:03Z</time>
      </trkpt>
      <trkpt lat="43.1866" lon="5.87686">
        <ele>324.44140625</ele>
        <time>2020-06-21T07:56:04Z</time>
      </trkpt>
      <trkpt lat="43.18659" lon="5.87694">
        <ele>324.26171875</ele>
        <time>2020-06-21T07:56:07Z</time>
      </trkpt>
      <trkpt lat="43.18659" lon="5.87698">
        <ele>324.2421875</ele>
        <time>2020-06-21T07:56:09Z</time>
      </trkpt>
      <trkpt lat="43.18658" lon="5.87701">
        <ele>324.19140625</ele>
        <time>2020-06-21T07:56:10Z</time>
      </trkpt>
      <trkpt lat="43.18658" lon="5.87704">
        <ele>324.16796875</ele>
        <time>2020-06-21T07:56:11Z</time>
      </trkpt>
      <trkpt lat="43.18656" lon="5.87711">
        <ele>324.05859375</ele>
        <time>2020-06-21T07:56:13Z</time>
      </trkpt>
      <trkpt lat="43.18652" lon="5.8777">
        <ele>321.890625</ele>
        <time>2020-06-21T07:56:27Z</time>
      </trkpt>
      <trkpt lat="43.18655" lon="5.87785">
        <ele>321.43359375</ele>
        <time>2020-06-21T07:56:30Z</time>
      </trkpt>
      <trkpt lat="43.18657" lon="5.87791">
        <ele>321.22265625</ele>
        <time>2020-06-21T07:56:31Z</time>
      </trkpt>
      <trkpt lat="43.1866" lon="5.87804">
        <ele>320.7109375</ele>
        <time>2020-06-21T07:56:33Z</time>
      </trkpt>
      <trkpt lat="43.18663" lon="5.87811">
        <ele>320.5234375</ele>
        <time>2020-06-21T07:56:34Z</time>
      </trkpt>
      <trkpt lat="43.18666" lon="5.87818">
        <ele>320.46875</ele>
        <time>2020-06-21T07:56:35Z</time>
      </trkpt>
      <trkpt lat="43.1867" lon="5.87823">
        <ele>320.39453125</ele>
        <time>2020-06-21T07:56:36Z</time>
      </trkpt>
      <trkpt lat="43.18675" lon="5.87828">
        <ele>320.32421875</ele>
        <time>2020-06-21T07:56:37Z</time>
      </trkpt>
      <trkpt lat="43.1868" lon="5.87831">
        <ele>320.3984375</ele>
        <time>2020-06-21T07:56:38Z</time>
      </trkpt>
      <trkpt lat="43.18686" lon="5.87834">
        <ele>320.50390625</ele>
        <time>2020-06-21T07:56:39Z</time>
      </trkpt>
      <trkpt lat="43.18692" lon="5.87836">
        <ele>320.65234375</ele>
        <time>2020-06-21T07:56:40Z</time>
      </trkpt>
      <trkpt lat="43.18698" lon="5.87837">
        <ele>320.88671875</ele>
        <time>2020-06-21T07:56:41Z</time>
      </trkpt>
      <trkpt lat="43.18733" lon="5.87837">
        <ele>320.89453125</ele>
        <time>2020-06-21T07:56:51Z</time>
      </trkpt>
      <trkpt lat="43.18758" lon="5.87831">
        <ele>320.78125</ele>
        <time>2020-06-21T07:57:00Z</time>
      </trkpt>
      <trkpt lat="43.18793" lon="5.87825">
        <ele>322.94921875</ele>
        <time>2020-06-21T07:57:11Z</time>
      </trkpt>
      <trkpt lat="43.18828" lon="5.87837">
        <ele>324.203125</ele>
        <time>2020-06-21T07:57:21Z</time>
      </trkpt>
      <trkpt lat="43.18832" lon="5.8784">
        <ele>324.61328125</ele>
        <time>2020-06-21T07:57:22Z</time>
      </trkpt>
      <trkpt lat="43.1886" lon="5.87863">
        <ele>326.1640625</ele>
        <time>2020-06-21T07:57:29Z</time>
      </trkpt>
      <trkpt lat="43.18864" lon="5.87866">
        <ele>326.46484375</ele>
        <time>2020-06-21T07:57:30Z</time>
      </trkpt>
      <trkpt lat="43.18897" lon="5.87891">
        <ele>328.1015625</ele>
        <time>2020-06-21T07:57:39Z</time>
      </trkpt>
      <trkpt lat="43.18901" lon="5.87893">
        <ele>328.35546875</ele>
        <time>2020-06-21T07:57:40Z</time>
      </trkpt>
      <trkpt lat="43.18904" lon="5.87896">
        <ele>328.6875</ele>
        <time>2020-06-21T07:57:41Z</time>
      </trkpt>
      <trkpt lat="43.18908" lon="5.87898">
        <ele>328.9921875</ele>
        <time>2020-06-21T07:57:42Z</time>
      </trkpt>
      <trkpt lat="43.18912" lon="5.879">
        <ele>329.28515625</ele>
        <time>2020-06-21T07:57:43Z</time>
      </trkpt>
      <trkpt lat="43.18948" lon="5.8792">
        <ele>330</ele>
        <time>2020-06-21T07:57:54Z</time>
      </trkpt>
      <trkpt lat="43.18975" lon="5.87917">
        <ele>331.80859375</ele>
        <time>2020-06-21T07:58:03Z</time>
      </trkpt>
      <trkpt lat="43.19013" lon="5.87913">
        <ele>332.65234375</ele>
        <time>2020-06-21T07:58:16Z</time>
      </trkpt>
      <trkpt lat="43.19062" lon="5.87928">
        <ele>333.640625</ele>
        <time>2020-06-21T07:58:31Z</time>
      </trkpt>
      <trkpt lat="43.19105" lon="5.87939">
        <ele>334.82421875</ele>
        <time>2020-06-21T07:58:43Z</time>
      </trkpt>
      <trkpt lat="43.19117" lon="5.87948">
        <ele>334.93359375</ele>
        <time>2020-06-21T07:58:46Z</time>
      </trkpt>
      <trkpt lat="43.19186" lon="5.87987">
        <ele>335.2265625</ele>
        <time>2020-06-21T07:59:03Z</time>
      </trkpt>
      <trkpt lat="43.19224" lon="5.8801">
        <ele>335.5625</ele>
        <time>2020-06-21T07:59:13Z</time>
      </trkpt>
      <trkpt lat="43.19228" lon="5.88012">
        <ele>335.62109375</ele>
        <time>2020-06-21T07:59:14Z</time>
      </trkpt>
      <trkpt lat="43.19267" lon="5.8803">
        <ele>336.37890625</ele>
        <time>2020-06-21T07:59:24Z</time>
      </trkpt>
      <trkpt lat="43.19269" lon="5.88027">
        <ele>336.5625</ele>
        <time>2020-06-21T07:59:25Z</time>
      </trkpt>
      <trkpt lat="43.19272" lon="5.88024">
        <ele>336.78515625</ele>
        <time>2020-06-21T07:59:26Z</time>
      </trkpt>
      <trkpt lat="43.19293" lon="5.8798">
        <ele>339.1171875</ele>
        <time>2020-06-21T07:59:35Z</time>
      </trkpt>
      <trkpt lat="43.19297" lon="5.87977">
        <ele>339.36328125</ele>
        <time>2020-06-21T07:59:36Z</time>
      </trkpt>
      <trkpt lat="43.19302" lon="5.87975">
        <ele>339.6015625</ele>
        <time>2020-06-21T07:59:37Z</time>
      </trkpt>
      <trkpt lat="43.19306" lon="5.87974">
        <ele>339.76171875</ele>
        <time>2020-06-21T07:59:38Z</time>
      </trkpt>
      <trkpt lat="43.1931" lon="5.87973">
        <ele>339.90234375</ele>
        <time>2020-06-21T07:59:39Z</time>
      </trkpt>
      <trkpt lat="43.19372" lon="5.87968">
        <ele>341.13671875</ele>
        <time>2020-06-21T07:59:54Z</time>
      </trkpt>
      <trkpt lat="43.1938" lon="5.87967">
        <ele>341.4375</ele>
        <time>2020-06-21T07:59:56Z</time>
      </trkpt>
      <trkpt lat="43.19385" lon="5.87965">
        <ele>341.59765625</ele>
        <time>2020-06-21T07:59:57Z</time>
      </trkpt>
      <trkpt lat="43.19434" lon="5.87941">
        <ele>344.08203125</ele>
        <time>2020-06-21T08:00:09Z</time>
      </trkpt>
      <trkpt lat="43.19469" lon="5.87931">
        <ele>344.84765625</ele>
        <time>2020-06-21T08:00:17Z</time>
      </trkpt>
      <trkpt lat="43.19479" lon="5.87932">
        <ele>344.9921875</ele>
        <time>2020-06-21T08:00:19Z</time>
      </trkpt>
      <trkpt lat="43.19509" lon="5.87949">
        <ele>345</ele>
        <time>2020-06-21T08:00:27Z</time>
      </trkpt>
      <trkpt lat="43.19523" lon="5.87962">
        <ele>345</ele>
        <time>2020-06-21T08:00:31Z</time>
      </trkpt>
      <trkpt lat="43.19527" lon="5.87964">
        <ele>345</ele>
        <time>2020-06-21T08:00:32Z</time>
      </trkpt>
      <trkpt lat="43.19531" lon="5.87966">
        <ele>345</ele>
        <time>2020-06-21T08:00:33Z</time>
      </trkpt>
      <trkpt lat="43.19535" lon="5.87967">
        <ele>345</ele>
        <time>2020-06-21T08:00:34Z</time>
      </trkpt>
      <trkpt lat="43.19539" lon="5.87967">
        <ele>345</ele>
        <time>2020-06-21T08:00:35Z</time>
      </trkpt>
      <trkpt lat="43.19543" lon="5.87966">
        <ele>345</ele>
        <time>2020-06-21T08:00:36Z</time>
      </trkpt>
      <trkpt lat="43.19547" lon="5.87966">
        <ele>345</ele>
        <time>2020-06-21T08:00:37Z</time>
      </trkpt>
      <trkpt lat="43.1955" lon="5.87964">
        <ele>345</ele>
        <time>2020-06-21T08:00:38Z</time>
      </trkpt>
      <trkpt lat="43.19553" lon="5.87962">
        <ele>345</ele>
        <time>2020-06-21T08:00:39Z</time>
      </trkpt>
      <trkpt lat="43.19556" lon="5.8796">
        <ele>345</ele>
        <time>2020-06-21T08:00:40Z</time>
      </trkpt>
      <trkpt lat="43.19573" lon="5.87913">
        <ele>345.68359375</ele>
        <time>2020-06-21T08:00:52Z</time>
      </trkpt>
      <trkpt lat="43.19579" lon="5.87884">
        <ele>347.56640625</ele>
        <time>2020-06-21T08:01:02Z</time>
      </trkpt>
      <trkpt lat="43.19592" lon="5.87848">
        <ele>350.80078125</ele>
        <time>2020-06-21T08:01:13Z</time>
      </trkpt>
      <trkpt lat="43.19609" lon="5.87835">
        <ele>352.7734375</ele>
        <time>2020-06-21T08:01:21Z</time>
      </trkpt>
      <trkpt lat="43.19644" lon="5.87828">
        <ele>354.55078125</ele>
        <time>2020-06-21T08:01:35Z</time>
      </trkpt>
      <trkpt lat="43.19648" lon="5.87828">
        <ele>354.52734375</ele>
        <time>2020-06-21T08:01:43Z</time>
      </trkpt>
      <trkpt lat="43.19643" lon="5.8783">
        <ele>354.3828125</ele>
        <time>2020-06-21T08:01:47Z</time>
      </trkpt>
      <trkpt lat="43.19642" lon="5.87829">
        <ele>354.4453125</ele>
        <time>2020-06-21T08:01:48Z</time>
      </trkpt>
      <trkpt lat="43.19643" lon="5.87826">
        <ele>354.67578125</ele>
        <time>2020-06-21T08:01:59Z</time>
      </trkpt>
      <trkpt lat="43.1965" lon="5.87825">
        <ele>354.69921875</ele>
        <time>2020-06-21T08:02:09Z</time>
      </trkpt>
      <trkpt lat="43.19651" lon="5.87825">
        <ele>354.69921875</ele>
        <time>2020-06-21T08:02:10Z</time>
      </trkpt>
      <trkpt lat="43.19653" lon="5.87825">
        <ele>354.69921875</ele>
        <time>2020-06-21T08:02:11Z</time>
      </trkpt>
      <trkpt lat="43.19654" lon="5.87823">
        <ele>354.78515625</ele>
        <time>2020-06-21T08:02:12Z</time>
      </trkpt>
      <trkpt lat="43.19656" lon="5.87821">
        <ele>354.92578125</ele>
        <time>2020-06-21T08:02:13Z</time>
      </trkpt>
      <trkpt lat="43.19658" lon="5.87819">
        <ele>355.08203125</ele>
        <time>2020-06-21T08:02:14Z</time>
      </trkpt>
      <trkpt lat="43.1966" lon="5.87817">
        <ele>355.2109375</ele>
        <time>2020-06-21T08:02:15Z</time>
      </trkpt>
      <trkpt lat="43.19662" lon="5.87816">
        <ele>355.32421875</ele>
        <time>2020-06-21T08:02:16Z</time>
      </trkpt>
      <trkpt lat="43.19664" lon="5.87814">
        <ele>355.48046875</ele>
        <time>2020-06-21T08:02:17Z</time>
      </trkpt>
      <trkpt lat="43.19665" lon="5.87812">
        <ele>355.671875</ele>
        <time>2020-06-21T08:02:18Z</time>
      </trkpt>
      <trkpt lat="43.19685" lon="5.87784">
        <ele>358.26171875</ele>
        <time>2020-06-21T08:02:31Z</time>
      </trkpt>
      <trkpt lat="43.19716" lon="5.87759">
        <ele>359.22265625</ele>
        <time>2020-06-21T08:02:45Z</time>
      </trkpt>
      <trkpt lat="43.19746" lon="5.87734">
        <ele>359.99609375</ele>
        <time>2020-06-21T08:02:57Z</time>
      </trkpt>
      <trkpt lat="43.1978" lon="5.87719">
        <ele>359.7734375</ele>
        <time>2020-06-21T08:03:08Z</time>
      </trkpt>
      <trkpt lat="43.19824" lon="5.87701">
        <ele>360.3046875</ele>
        <time>2020-06-21T08:03:20Z</time>
      </trkpt>
      <trkpt lat="43.19847" lon="5.87691">
        <ele>360.625</ele>
        <time>2020-06-21T08:03:26Z</time>
      </trkpt>
      <trkpt lat="43.1986" lon="5.87688">
        <ele>360.76171875</ele>
        <time>2020-06-21T08:03:29Z</time>
      </trkpt>
      <trkpt lat="43.19864" lon="5.87688">
        <ele>360.70703125</ele>
        <time>2020-06-21T08:03:30Z</time>
      </trkpt>
      <trkpt lat="43.19868" lon="5.87689">
        <ele>360.6484375</ele>
        <time>2020-06-21T08:03:31Z</time>
      </trkpt>
      <trkpt lat="43.19872" lon="5.87688">
        <ele>360.55859375</ele>
        <time>2020-06-21T08:03:32Z</time>
      </trkpt>
      <trkpt lat="43.19876" lon="5.87688">
        <ele>360.49609375</ele>
        <time>2020-06-21T08:03:33Z</time>
      </trkpt>
      <trkpt lat="43.19889" lon="5.87685">
        <ele>360.50390625</ele>
        <time>2020-06-21T08:03:36Z</time>
      </trkpt>
      <trkpt lat="43.19894" lon="5.87683">
        <ele>360.58984375</ele>
        <time>2020-06-21T08:03:37Z</time>
      </trkpt>
      <trkpt lat="43.19898" lon="5.87682">
        <ele>360.63671875</ele>
        <time>2020-06-21T08:03:38Z</time>
      </trkpt>
      <trkpt lat="43.19902" lon="5.87681">
        <ele>360.62890625</ele>
        <time>2020-06-21T08:03:39Z</time>
      </trkpt>
      <trkpt lat="43.19906" lon="5.87681">
        <ele>360.61328125</ele>
        <time>2020-06-21T08:03:40Z</time>
      </trkpt>
      <trkpt lat="43.1991" lon="5.87679">
        <ele>360.65234375</ele>
        <time>2020-06-21T08:03:41Z</time>
      </trkpt>
      <trkpt lat="43.19915" lon="5.87677">
        <ele>360.6796875</ele>
        <time>2020-06-21T08:03:42Z</time>
      </trkpt>
      <trkpt lat="43.1992" lon="5.87676">
        <ele>360.64453125</ele>
        <time>2020-06-21T08:03:43Z</time>
      </trkpt>
      <trkpt lat="43.19955" lon="5.87666">
        <ele>360.2265625</ele>
        <time>2020-06-21T08:03:50Z</time>
      </trkpt>
      <trkpt lat="43.19961" lon="5.87664">
        <ele>360.26953125</ele>
        <time>2020-06-21T08:03:51Z</time>
      </trkpt>
      <trkpt lat="43.19966" lon="5.87662">
        <ele>360.2578125</ele>
        <time>2020-06-21T08:03:52Z</time>
      </trkpt>
      <trkpt lat="43.19982" lon="5.87655">
        <ele>360</ele>
        <time>2020-06-21T08:03:55Z</time>
      </trkpt>
      <trkpt lat="43.19988" lon="5.87653">
        <ele>360</ele>
        <time>2020-06-21T08:03:56Z</time>
      </trkpt>
      <trkpt lat="43.19993" lon="5.8765">
        <ele>360</ele>
        <time>2020-06-21T08:03:57Z</time>
      </trkpt>
      <trkpt lat="43.2001" lon="5.8764">
        <ele>360.0078125</ele>
        <time>2020-06-21T08:04:00Z</time>
      </trkpt>
      <trkpt lat="43.2003" lon="5.87625">
        <ele>360.38671875</ele>
        <time>2020-06-21T08:04:04Z</time>
      </trkpt>
      <trkpt lat="43.20081" lon="5.87603">
        <ele>361.7734375</ele>
        <time>2020-06-21T08:04:15Z</time>
      </trkpt>
      <trkpt lat="43.20111" lon="5.87591">
        <ele>362.15625</ele>
        <time>2020-06-21T08:04:26Z</time>
      </trkpt>
      <trkpt lat="43.20141" lon="5.87578">
        <ele>362.91015625</ele>
        <time>2020-06-21T08:04:37Z</time>
      </trkpt>
      <trkpt lat="43.20181" lon="5.87563">
        <ele>363.71875</ele>
        <time>2020-06-21T08:04:49Z</time>
      </trkpt>
      <trkpt lat="43.20215" lon="5.87542">
        <ele>365.99609375</ele>
        <time>2020-06-21T08:04:58Z</time>
      </trkpt>
      <trkpt lat="43.20219" lon="5.87541">
        <ele>366.13671875</ele>
        <time>2020-06-21T08:04:59Z</time>
      </trkpt>
      <trkpt lat="43.2026" lon="5.87537">
        <ele>366.91015625</ele>
        <time>2020-06-21T08:05:10Z</time>
      </trkpt>
      <trkpt lat="43.20311" lon="5.87526">
        <ele>368.9765625</ele>
        <time>2020-06-21T08:05:23Z</time>
      </trkpt>
      <trkpt lat="43.2032" lon="5.87526">
        <ele>369</ele>
        <time>2020-06-21T08:05:25Z</time>
      </trkpt>
      <trkpt lat="43.20347" lon="5.87523">
        <ele>369.1875</ele>
        <time>2020-06-21T08:05:31Z</time>
      </trkpt>
      <trkpt lat="43.20352" lon="5.87521">
        <ele>369.26953125</ele>
        <time>2020-06-21T08:05:32Z</time>
      </trkpt>
      <trkpt lat="43.20368" lon="5.87513">
        <ele>369.3671875</ele>
        <time>2020-06-21T08:05:36Z</time>
      </trkpt>
      <trkpt lat="43.20372" lon="5.87511">
        <ele>369.42578125</ele>
        <time>2020-06-21T08:05:37Z</time>
      </trkpt>
      <trkpt lat="43.20392" lon="5.87499">
        <ele>369.8828125</ele>
        <time>2020-06-21T08:05:42Z</time>
      </trkpt>
      <trkpt lat="43.20436" lon="5.87483">
        <ele>371.60546875</ele>
        <time>2020-06-21T08:05:54Z</time>
      </trkpt>
      <trkpt lat="43.20471" lon="5.87462">
        <ele>372.96875</ele>
        <time>2020-06-21T08:06:05Z</time>
      </trkpt>
      <trkpt lat="43.20502" lon="5.87442">
        <ele>374.484375</ele>
        <time>2020-06-21T08:06:16Z</time>
      </trkpt>
      <trkpt lat="43.20551" lon="5.87417">
        <ele>378.1015625</ele>
        <time>2020-06-21T08:06:30Z</time>
      </trkpt>
      <trkpt lat="43.2059" lon="5.87388">
        <ele>378.88671875</ele>
        <time>2020-06-21T08:06:41Z</time>
      </trkpt>
      <trkpt lat="43.20636" lon="5.87338">
        <ele>380.34765625</ele>
        <time>2020-06-21T08:06:55Z</time>
      </trkpt>
      <trkpt lat="43.20664" lon="5.87288">
        <ele>382.30859375</ele>
        <time>2020-06-21T08:07:06Z</time>
      </trkpt>
      <trkpt lat="43.20672" lon="5.87265">
        <ele>382.296875</ele>
        <time>2020-06-21T08:07:10Z</time>
      </trkpt>
      <trkpt lat="43.2069" lon="5.87203">
        <ele>382.125</ele>
        <time>2020-06-21T08:07:23Z</time>
      </trkpt>
      <trkpt lat="43.20704" lon="5.87143">
        <ele>383.18359375</ele>
        <time>2020-06-21T08:07:36Z</time>
      </trkpt>
      <trkpt lat="43.20736" lon="5.87092">
        <ele>386.86328125</ele>
        <time>2020-06-21T08:07:50Z</time>
      </trkpt>
      <trkpt lat="43.20773" lon="5.87068">
        <ele>388.46875</ele>
        <time>2020-06-21T08:08:04Z</time>
      </trkpt>
      <trkpt lat="43.20803" lon="5.87071">
        <ele>389.6796875</ele>
        <time>2020-06-21T08:08:12Z</time>
      </trkpt>
      <trkpt lat="43.20807" lon="5.87073">
        <ele>389.83203125</ele>
        <time>2020-06-21T08:08:13Z</time>
      </trkpt>
      <trkpt lat="43.20811" lon="5.87076">
        <ele>389.96875</ele>
        <time>2020-06-21T08:08:14Z</time>
      </trkpt>
      <trkpt lat="43.20836" lon="5.87098">
        <ele>390.3359375</ele>
        <time>2020-06-21T08:08:21Z</time>
      </trkpt>
      <trkpt lat="43.2084" lon="5.871">
        <ele>390.48046875</ele>
        <time>2020-06-21T08:08:22Z</time>
      </trkpt>
      <trkpt lat="43.20845" lon="5.87101">
        <ele>390.69140625</ele>
        <time>2020-06-21T08:08:23Z</time>
      </trkpt>
      <trkpt lat="43.20849" lon="5.87101">
        <ele>390.8515625</ele>
        <time>2020-06-21T08:08:24Z</time>
      </trkpt>
      <trkpt lat="43.20853" lon="5.87101">
        <ele>390.9921875</ele>
        <time>2020-06-21T08:08:25Z</time>
      </trkpt>
      <trkpt lat="43.20862" lon="5.87099">
        <ele>391.23828125</ele>
        <time>2020-06-21T08:08:27Z</time>
      </trkpt>
      <trkpt lat="43.20866" lon="5.87098">
        <ele>391.34765625</ele>
        <time>2020-06-21T08:08:28Z</time>
      </trkpt>
      <trkpt lat="43.20916" lon="5.87078">
        <ele>393.5234375</ele>
        <time>2020-06-21T08:08:41Z</time>
      </trkpt>
      <trkpt lat="43.20951" lon="5.87093">
        <ele>395.7890625</ele>
        <time>2020-06-21T08:08:51Z</time>
      </trkpt>
      <trkpt lat="43.20962" lon="5.87107">
        <ele>395.25390625</ele>
        <time>2020-06-21T08:08:55Z</time>
      </trkpt>
      <trkpt lat="43.20965" lon="5.87111">
        <ele>395.109375</ele>
        <time>2020-06-21T08:08:56Z</time>
      </trkpt>
      <trkpt lat="43.20973" lon="5.87123">
        <ele>395</ele>
        <time>2020-06-21T08:08:59Z</time>
      </trkpt>
      <trkpt lat="43.21012" lon="5.87138">
        <ele>397.23828125</ele>
        <time>2020-06-21T08:09:10Z</time>
      </trkpt>
      <trkpt lat="43.21067" lon="5.87145">
        <ele>400.48828125</ele>
        <time>2020-06-21T08:09:25Z</time>
      </trkpt>
      <trkpt lat="43.21093" lon="5.87173">
        <ele>401.3828125</ele>
        <time>2020-06-21T08:09:34Z</time>
      </trkpt>
      <trkpt lat="43.21121" lon="5.87186">
        <ele>403.69921875</ele>
        <time>2020-06-21T08:09:42Z</time>
      </trkpt>
      <trkpt lat="43.21172" lon="5.87212">
        <ele>405.46484375</ele>
        <time>2020-06-21T08:09:56Z</time>
      </trkpt>
      <trkpt lat="43.21211" lon="5.87221">
        <ele>407.98828125</ele>
        <time>2020-06-21T08:10:07Z</time>
      </trkpt>
      <trkpt lat="43.21257" lon="5.87232">
        <ele>411.09375</ele>
        <time>2020-06-21T08:10:21Z</time>
      </trkpt>
      <trkpt lat="43.21303" lon="5.87248">
        <ele>414.52734375</ele>
        <time>2020-06-21T08:10:35Z</time>
      </trkpt>
      <trkpt lat="43.21347" lon="5.87261">
        <ele>417.57421875</ele>
        <time>2020-06-21T08:10:49Z</time>
      </trkpt>
      <trkpt lat="43.21379" lon="5.87278">
        <ele>419.9296875</ele>
        <time>2020-06-21T08:10:59Z</time>
      </trkpt>
      <trkpt lat="43.21428" lon="5.87316">
        <ele>422.7421875</ele>
        <time>2020-06-21T08:11:14Z</time>
      </trkpt>
      <trkpt lat="43.21455" lon="5.8734">
        <ele>424.28125</ele>
        <time>2020-06-21T08:11:25Z</time>
      </trkpt>
      <trkpt lat="43.21464" lon="5.87346">
        <ele>424.8125</ele>
        <time>2020-06-21T08:11:29Z</time>
      </trkpt>
      <trkpt lat="43.21492" lon="5.8737">
        <ele>425.11328125</ele>
        <time>2020-06-21T08:11:41Z</time>
      </trkpt>
      <trkpt lat="43.21524" lon="5.87375">
        <ele>426.5390625</ele>
        <time>2020-06-21T08:11:52Z</time>
      </trkpt>
      <trkpt lat="43.21561" lon="5.87369">
        <ele>428.83203125</ele>
        <time>2020-06-21T08:12:05Z</time>
      </trkpt>
      <trkpt lat="43.21607" lon="5.87365">
        <ele>431.24609375</ele>
        <time>2020-06-21T08:12:19Z</time>
      </trkpt>
      <trkpt lat="43.21654" lon="5.87356">
        <ele>433.8671875</ele>
        <time>2020-06-21T08:12:35Z</time>
      </trkpt>
      <trkpt lat="43.21692" lon="5.87334">
        <ele>436.328125</ele>
        <time>2020-06-21T08:12:49Z</time>
      </trkpt>
      <trkpt lat="43.21728" lon="5.87301">
        <ele>438.87890625</ele>
        <time>2020-06-21T08:13:03Z</time>
      </trkpt>
      <trkpt lat="43.21756" lon="5.8727">
        <ele>441.20703125</ele>
        <time>2020-06-21T08:13:15Z</time>
      </trkpt>
      <trkpt lat="43.21774" lon="5.87249">
        <ele>442.80859375</ele>
        <time>2020-06-21T08:13:28Z</time>
      </trkpt>
      <trkpt lat="43.21774" lon="5.87249">
        <ele>442.80859375</ele>
        <time>2020-06-21T08:13:40Z</time>
      </trkpt>
      <trkpt lat="43.21773" lon="5.87252">
        <ele>442.44921875</ele>
        <time>2020-06-21T08:14:13Z</time>
      </trkpt>
      <trkpt lat="43.21774" lon="5.87255">
        <ele>442.21875</ele>
        <time>2020-06-21T08:14:45Z</time>
      </trkpt>
      <trkpt lat="43.21775" lon="5.87256">
        <ele>442.10546875</ele>
        <time>2020-06-21T08:15:18Z</time>
      </trkpt>
      <trkpt lat="43.2178" lon="5.87255">
        <ele>442.0234375</ele>
        <time>2020-06-21T08:15:36Z</time>
      </trkpt>
      <trkpt lat="43.21782" lon="5.87254">
        <ele>442.00390625</ele>
        <time>2020-06-21T08:15:39Z</time>
      </trkpt>
      <trkpt lat="43.21783" lon="5.87254">
        <ele>441.9921875</ele>
        <time>2020-06-21T08:15:40Z</time>
      </trkpt>
      <trkpt lat="43.21785" lon="5.87253">
        <ele>442.02734375</ele>
        <time>2020-06-21T08:15:41Z</time>
      </trkpt>
      <trkpt lat="43.21786" lon="5.87251">
        <ele>442.14453125</ele>
        <time>2020-06-21T08:15:42Z</time>
      </trkpt>
      <trkpt lat="43.21788" lon="5.87248">
        <ele>442.35546875</ele>
        <time>2020-06-21T08:15:43Z</time>
      </trkpt>
      <trkpt lat="43.2182" lon="5.87205">
        <ele>445.8359375</ele>
        <time>2020-06-21T08:15:59Z</time>
      </trkpt>
      <trkpt lat="43.21845" lon="5.87165">
        <ele>448.140625</ele>
        <time>2020-06-21T08:16:14Z</time>
      </trkpt>
      <trkpt lat="43.21877" lon="5.87136">
        <ele>449.015625</ele>
        <time>2020-06-21T08:16:27Z</time>
      </trkpt>
      <trkpt lat="43.21897" lon="5.8711">
        <ele>449.0546875</ele>
        <time>2020-06-21T08:16:34Z</time>
      </trkpt>
      <trkpt lat="43.219" lon="5.87105">
        <ele>449.0703125</ele>
        <time>2020-06-21T08:16:35Z</time>
      </trkpt>
      <trkpt lat="43.21903" lon="5.87101">
        <ele>449.04296875</ele>
        <time>2020-06-21T08:16:36Z</time>
      </trkpt>
      <trkpt lat="43.21906" lon="5.87096">
        <ele>448.9765625</ele>
        <time>2020-06-21T08:16:37Z</time>
      </trkpt>
      <trkpt lat="43.21909" lon="5.87091">
        <ele>448.8828125</ele>
        <time>2020-06-21T08:16:38Z</time>
      </trkpt>
      <trkpt lat="43.21913" lon="5.87086">
        <ele>448.71484375</ele>
        <time>2020-06-21T08:16:39Z</time>
      </trkpt>
      <trkpt lat="43.21928" lon="5.87067">
        <ele>448.54296875</ele>
        <time>2020-06-21T08:16:43Z</time>
      </trkpt>
      <trkpt lat="43.21933" lon="5.87064">
        <ele>448.5078125</ele>
        <time>2020-06-21T08:16:44Z</time>
      </trkpt>
      <trkpt lat="43.21942" lon="5.87057">
        <ele>448.3359375</ele>
        <time>2020-06-21T08:16:46Z</time>
      </trkpt>
      <trkpt lat="43.21946" lon="5.87053">
        <ele>448.3359375</ele>
        <time>2020-06-21T08:16:47Z</time>
      </trkpt>
      <trkpt lat="43.21953" lon="5.87043">
        <ele>448.58984375</ele>
        <time>2020-06-21T08:16:49Z</time>
      </trkpt>
      <trkpt lat="43.2196" lon="5.87031">
        <ele>449.01953125</ele>
        <time>2020-06-21T08:16:51Z</time>
      </trkpt>
      <trkpt lat="43.21963" lon="5.87025">
        <ele>449.2265625</ele>
        <time>2020-06-21T08:16:52Z</time>
      </trkpt>
      <trkpt lat="43.21966" lon="5.87019">
        <ele>449.421875</ele>
        <time>2020-06-21T08:16:53Z</time>
      </trkpt>
      <trkpt lat="43.21982" lon="5.87">
        <ele>450</ele>
        <time>2020-06-21T08:16:57Z</time>
      </trkpt>
      <trkpt lat="43.21987" lon="5.86997">
        <ele>450</ele>
        <time>2020-06-21T08:16:58Z</time>
      </trkpt>
      <trkpt lat="43.21992" lon="5.86995">
        <ele>450</ele>
        <time>2020-06-21T08:16:59Z</time>
      </trkpt>
      <trkpt lat="43.21997" lon="5.86992">
        <ele>450</ele>
        <time>2020-06-21T08:17:00Z</time>
      </trkpt>
      <trkpt lat="43.22002" lon="5.86991">
        <ele>450</ele>
        <time>2020-06-21T08:17:01Z</time>
      </trkpt>
      <trkpt lat="43.22007" lon="5.86991">
        <ele>450</ele>
        <time>2020-06-21T08:17:02Z</time>
      </trkpt>
      <trkpt lat="43.22037" lon="5.86983">
        <ele>450.12109375</ele>
        <time>2020-06-21T08:17:08Z</time>
      </trkpt>
      <trkpt lat="43.22061" lon="5.86971">
        <ele>451.18359375</ele>
        <time>2020-06-21T08:17:13Z</time>
      </trkpt>
      <trkpt lat="43.22094" lon="5.86964">
        <ele>452.07421875</ele>
        <time>2020-06-21T08:17:20Z</time>
      </trkpt>
      <trkpt lat="43.22098" lon="5.86962">
        <ele>452.1640625</ele>
        <time>2020-06-21T08:17:21Z</time>
      </trkpt>
      <trkpt lat="43.22102" lon="5.8696">
        <ele>452.2734375</ele>
        <time>2020-06-21T08:17:22Z</time>
      </trkpt>
      <trkpt lat="43.22136" lon="5.86941">
        <ele>453</ele>
        <time>2020-06-21T08:17:32Z</time>
      </trkpt>
      <trkpt lat="43.22155" lon="5.86889">
        <ele>454.046875</ele>
        <time>2020-06-21T08:17:48Z</time>
      </trkpt>
      <trkpt lat="43.22162" lon="5.86838">
        <ele>454.984375</ele>
        <time>2020-06-21T08:18:00Z</time>
      </trkpt>
      <trkpt lat="43.22166" lon="5.86771">
        <ele>456.37109375</ele>
        <time>2020-06-21T08:18:15Z</time>
      </trkpt>
      <trkpt lat="43.22168" lon="5.86753">
        <ele>457.0234375</ele>
        <time>2020-06-21T08:18:19Z</time>
      </trkpt>
      <trkpt lat="43.22191" lon="5.867">
        <ele>458.92578125</ele>
        <time>2020-06-21T08:18:32Z</time>
      </trkpt>
      <trkpt lat="43.22202" lon="5.86684">
        <ele>459.0625</ele>
        <time>2020-06-21T08:18:36Z</time>
      </trkpt>
      <trkpt lat="43.22204" lon="5.86679">
        <ele>459.16015625</ele>
        <time>2020-06-21T08:18:37Z</time>
      </trkpt>
      <trkpt lat="43.22207" lon="5.86675">
        <ele>459.26171875</ele>
        <time>2020-06-21T08:18:38Z</time>
      </trkpt>
      <trkpt lat="43.2221" lon="5.86672">
        <ele>459.36328125</ele>
        <time>2020-06-21T08:18:39Z</time>
      </trkpt>
      <trkpt lat="43.22213" lon="5.86668">
        <ele>459.46484375</ele>
        <time>2020-06-21T08:18:40Z</time>
      </trkpt>
      <trkpt lat="43.2223" lon="5.86642">
        <ele>460.09765625</ele>
        <time>2020-06-21T08:18:46Z</time>
      </trkpt>
      <trkpt lat="43.22233" lon="5.86638">
        <ele>460.18359375</ele>
        <time>2020-06-21T08:18:47Z</time>
      </trkpt>
      <trkpt lat="43.22264" lon="5.86598">
        <ele>461.296875</ele>
        <time>2020-06-21T08:18:59Z</time>
      </trkpt>
      <trkpt lat="43.2227" lon="5.8659">
        <ele>461.51171875</ele>
        <time>2020-06-21T08:19:01Z</time>
      </trkpt>
      <trkpt lat="43.22302" lon="5.86535">
        <ele>461.7734375</ele>
        <time>2020-06-21T08:19:14Z</time>
      </trkpt>
      <trkpt lat="43.22335" lon="5.86481">
        <ele>463.85546875</ele>
        <time>2020-06-21T08:19:26Z</time>
      </trkpt>
      <trkpt lat="43.22337" lon="5.86476">
        <ele>463.8671875</ele>
        <time>2020-06-21T08:19:27Z</time>
      </trkpt>
      <trkpt lat="43.22369" lon="5.86421">
        <ele>466.4609375</ele>
        <time>2020-06-21T08:19:40Z</time>
      </trkpt>
      <trkpt lat="43.22395" lon="5.8636">
        <ele>468.0078125</ele>
        <time>2020-06-21T08:19:54Z</time>
      </trkpt>
      <trkpt lat="43.22435" lon="5.8631">
        <ele>471.46484375</ele>
        <time>2020-06-21T08:20:10Z</time>
      </trkpt>
      <trkpt lat="43.22442" lon="5.863">
        <ele>471.5</ele>
        <time>2020-06-21T08:20:13Z</time>
      </trkpt>
      <trkpt lat="43.22477" lon="5.8625">
        <ele>471.8515625</ele>
        <time>2020-06-21T08:20:26Z</time>
      </trkpt>
      <trkpt lat="43.22509" lon="5.86209">
        <ele>474.44140625</ele>
        <time>2020-06-21T08:20:39Z</time>
      </trkpt>
      <trkpt lat="43.2252" lon="5.86195">
        <ele>475.59765625</ele>
        <time>2020-06-21T08:20:44Z</time>
      </trkpt>
      <trkpt lat="43.22541" lon="5.86167">
        <ele>477.8515625</ele>
        <time>2020-06-21T08:20:54Z</time>
      </trkpt>
      <trkpt lat="43.22567" lon="5.86133">
        <ele>480.6640625</ele>
        <time>2020-06-21T08:21:09Z</time>
      </trkpt>
      <trkpt lat="43.22599" lon="5.86101">
        <ele>483.72265625</ele>
        <time>2020-06-21T08:21:24Z</time>
      </trkpt>
      <trkpt lat="43.22632" lon="5.86085">
        <ele>485.5078125</ele>
        <time>2020-06-21T08:21:37Z</time>
      </trkpt>
      <trkpt lat="43.22644" lon="5.86088">
        <ele>486.0078125</ele>
        <time>2020-06-21T08:21:43Z</time>
      </trkpt>
      <trkpt lat="43.22678" lon="5.86088">
        <ele>488.234375</ele>
        <time>2020-06-21T08:21:59Z</time>
      </trkpt>
      <trkpt lat="43.2268" lon="5.86089">
        <ele>488.30859375</ele>
        <time>2020-06-21T08:22:01Z</time>
      </trkpt>
      <trkpt lat="43.22681" lon="5.86089">
        <ele>488.36328125</ele>
        <time>2020-06-21T08:22:02Z</time>
      </trkpt>
      <trkpt lat="43.22682" lon="5.86093">
        <ele>488.4140625</ele>
        <time>2020-06-21T08:22:12Z</time>
      </trkpt>
      <trkpt lat="43.22678" lon="5.86092">
        <ele>488.2578125</ele>
        <time>2020-06-21T08:22:33Z</time>
      </trkpt>
      <trkpt lat="43.22677" lon="5.8609">
        <ele>488.19921875</ele>
        <time>2020-06-21T08:23:11Z</time>
      </trkpt>
      <trkpt lat="43.22678" lon="5.86088">
        <ele>488.24609375</ele>
        <time>2020-06-21T08:23:52Z</time>
      </trkpt>
      <trkpt lat="43.22675" lon="5.86085">
        <ele>488.05078125</ele>
        <time>2020-06-21T08:24:34Z</time>
      </trkpt>
      <trkpt lat="43.22673" lon="5.8608">
        <ele>487.78125</ele>
        <time>2020-06-21T08:25:09Z</time>
      </trkpt>
      <trkpt lat="43.22679" lon="5.86083">
        <ele>488.125</ele>
        <time>2020-06-21T08:25:51Z</time>
      </trkpt>
      <trkpt lat="43.22679" lon="5.86084">
        <ele>488.12890625</ele>
        <time>2020-06-21T08:26:38Z</time>
      </trkpt>
      <trkpt lat="43.22678" lon="5.86085">
        <ele>488.1171875</ele>
        <time>2020-06-21T08:27:28Z</time>
      </trkpt>
      <trkpt lat="43.22681" lon="5.86088">
        <ele>488.3203125</ele>
        <time>2020-06-21T08:28:10Z</time>
      </trkpt>
      <trkpt lat="43.2268" lon="5.86085">
        <ele>488.19921875</ele>
        <time>2020-06-21T08:28:57Z</time>
      </trkpt>
      <trkpt lat="43.2268" lon="5.86086">
        <ele>488.265625</ele>
        <time>2020-06-21T08:29:38Z</time>
      </trkpt>
      <trkpt lat="43.22683" lon="5.86088">
        <ele>488.41796875</ele>
        <time>2020-06-21T08:30:22Z</time>
      </trkpt>
      <trkpt lat="43.2268" lon="5.86084">
        <ele>488.18359375</ele>
        <time>2020-06-21T08:30:35Z</time>
      </trkpt>
      <trkpt lat="43.22682" lon="5.86079">
        <ele>488.0703125</ele>
        <time>2020-06-21T08:30:43Z</time>
      </trkpt>
      <trkpt lat="43.22683" lon="5.86078">
        <ele>488.05859375</ele>
        <time>2020-06-21T08:30:44Z</time>
      </trkpt>
      <trkpt lat="43.22684" lon="5.86077">
        <ele>488.0703125</ele>
        <time>2020-06-21T08:30:45Z</time>
      </trkpt>
      <trkpt lat="43.22685" lon="5.86078">
        <ele>488.140625</ele>
        <time>2020-06-21T08:30:46Z</time>
      </trkpt>
      <trkpt lat="43.22687" lon="5.86079">
        <ele>488.2265625</ele>
        <time>2020-06-21T08:30:47Z</time>
      </trkpt>
      <trkpt lat="43.22689" lon="5.86082">
        <ele>488.4140625</ele>
        <time>2020-06-21T08:30:48Z</time>
      </trkpt>
      <trkpt lat="43.2269" lon="5.86083">
        <ele>488.50390625</ele>
        <time>2020-06-21T08:30:49Z</time>
      </trkpt>
      <trkpt lat="43.22691" lon="5.86084">
        <ele>488.59375</ele>
        <time>2020-06-21T08:30:50Z</time>
      </trkpt>
      <trkpt lat="43.22693" lon="5.86085">
        <ele>488.6640625</ele>
        <time>2020-06-21T08:30:51Z</time>
      </trkpt>
      <trkpt lat="43.22695" lon="5.86085">
        <ele>488.74609375</ele>
        <time>2020-06-21T08:30:52Z</time>
      </trkpt>
      <trkpt lat="43.22698" lon="5.86086">
        <ele>488.90234375</ele>
        <time>2020-06-21T08:30:53Z</time>
      </trkpt>
      <trkpt lat="43.22701" lon="5.86086">
        <ele>489.0859375</ele>
        <time>2020-06-21T08:30:54Z</time>
      </trkpt>
      <trkpt lat="43.22704" lon="5.86086">
        <ele>489.25</ele>
        <time>2020-06-21T08:30:55Z</time>
      </trkpt>
      <trkpt lat="43.22706" lon="5.86085">
        <ele>489.375</ele>
        <time>2020-06-21T08:30:56Z</time>
      </trkpt>
      <trkpt lat="43.22708" lon="5.86085">
        <ele>489.51171875</ele>
        <time>2020-06-21T08:30:57Z</time>
      </trkpt>
      <trkpt lat="43.2274" lon="5.86072">
        <ele>490.87109375</ele>
        <time>2020-06-21T08:31:11Z</time>
      </trkpt>
      <trkpt lat="43.22754" lon="5.86061">
        <ele>491.05078125</ele>
        <time>2020-06-21T08:31:17Z</time>
      </trkpt>
      <trkpt lat="43.22771" lon="5.86046">
        <ele>490.625</ele>
        <time>2020-06-21T08:31:29Z</time>
      </trkpt>
      <trkpt lat="43.22809" lon="5.86031">
        <ele>490.875</ele>
        <time>2020-06-21T08:31:43Z</time>
      </trkpt>
      <trkpt lat="43.22833" lon="5.86017">
        <ele>489.4453125</ele>
        <time>2020-06-21T08:31:50Z</time>
      </trkpt>
      <trkpt lat="43.22837" lon="5.86016">
        <ele>489.3359375</ele>
        <time>2020-06-21T08:31:51Z</time>
      </trkpt>
      <trkpt lat="43.22842" lon="5.86017">
        <ele>489.265625</ele>
        <time>2020-06-21T08:31:52Z</time>
      </trkpt>
      <trkpt lat="43.22846" lon="5.86018">
        <ele>489.26953125</ele>
        <time>2020-06-21T08:31:53Z</time>
      </trkpt>
      <trkpt lat="43.2285" lon="5.86021">
        <ele>489.3828125</ele>
        <time>2020-06-21T08:31:54Z</time>
      </trkpt>
      <trkpt lat="43.22853" lon="5.86024">
        <ele>489.60546875</ele>
        <time>2020-06-21T08:31:55Z</time>
      </trkpt>
      <trkpt lat="43.22856" lon="5.86027">
        <ele>489.8203125</ele>
        <time>2020-06-21T08:31:56Z</time>
      </trkpt>
      <trkpt lat="43.22859" lon="5.86029">
        <ele>489.97265625</ele>
        <time>2020-06-21T08:31:57Z</time>
      </trkpt>
      <trkpt lat="43.22866" lon="5.86034">
        <ele>490.16796875</ele>
        <time>2020-06-21T08:31:59Z</time>
      </trkpt>
      <trkpt lat="43.22911" lon="5.86082">
        <ele>494.2578125</ele>
        <time>2020-06-21T08:32:16Z</time>
      </trkpt>
      <trkpt lat="43.22931" lon="5.86099">
        <ele>496.37890625</ele>
        <time>2020-06-21T08:32:23Z</time>
      </trkpt>
      <trkpt lat="43.22978" lon="5.86123">
        <ele>499.40234375</ele>
        <time>2020-06-21T08:32:38Z</time>
      </trkpt>
      <trkpt lat="43.23004" lon="5.86139">
        <ele>501.9453125</ele>
        <time>2020-06-21T08:32:52Z</time>
      </trkpt>
      <trkpt lat="43.23022" lon="5.86155">
        <ele>503.86328125</ele>
        <time>2020-06-21T08:33:03Z</time>
      </trkpt>
      <trkpt lat="43.23025" lon="5.86158">
        <ele>504.171875</ele>
        <time>2020-06-21T08:33:05Z</time>
      </trkpt>
      <trkpt lat="43.23047" lon="5.86166">
        <ele>507.515625</ele>
        <time>2020-06-21T08:33:18Z</time>
      </trkpt>
      <trkpt lat="43.23072" lon="5.86176">
        <ele>511.359375</ele>
        <time>2020-06-21T08:33:32Z</time>
      </trkpt>
      <trkpt lat="43.23099" lon="5.86184">
        <ele>515.1015625</ele>
        <time>2020-06-21T08:33:45Z</time>
      </trkpt>
      <trkpt lat="43.23119" lon="5.86196">
        <ele>518.3984375</ele>
        <time>2020-06-21T08:33:56Z</time>
      </trkpt>
      <trkpt lat="43.23142" lon="5.86218">
        <ele>522.78125</ele>
        <time>2020-06-21T08:34:11Z</time>
      </trkpt>
      <trkpt lat="43.23156" lon="5.86233">
        <ele>525.39453125</ele>
        <time>2020-06-21T08:34:20Z</time>
      </trkpt>
      <trkpt lat="43.2317" lon="5.86259">
        <ele>527.58203125</ele>
        <time>2020-06-21T08:34:32Z</time>
      </trkpt>
      <trkpt lat="43.23182" lon="5.8628">
        <ele>528.515625</ele>
        <time>2020-06-21T08:34:42Z</time>
      </trkpt>
      <trkpt lat="43.23208" lon="5.86313">
        <ele>531.296875</ele>
        <time>2020-06-21T08:35:00Z</time>
      </trkpt>
      <trkpt lat="43.23238" lon="5.8633">
        <ele>535.15234375</ele>
        <time>2020-06-21T08:35:15Z</time>
      </trkpt>
      <trkpt lat="43.2326" lon="5.86359">
        <ele>539.10546875</ele>
        <time>2020-06-21T08:35:30Z</time>
      </trkpt>
      <trkpt lat="43.23273" lon="5.86386">
        <ele>542.19140625</ele>
        <time>2020-06-21T08:35:41Z</time>
      </trkpt>
      <trkpt lat="43.2328" lon="5.864">
        <ele>543.84375</ele>
        <time>2020-06-21T08:35:47Z</time>
      </trkpt>
      <trkpt lat="43.23286" lon="5.86414">
        <ele>545.296875</ele>
        <time>2020-06-21T08:35:53Z</time>
      </trkpt>
      <trkpt lat="43.2329" lon="5.86446">
        <ele>547.94921875</ele>
        <time>2020-06-21T08:36:05Z</time>
      </trkpt>
      <trkpt lat="43.2329" lon="5.86449">
        <ele>548.17578125</ele>
        <time>2020-06-21T08:36:06Z</time>
      </trkpt>
      <trkpt lat="43.23292" lon="5.8646">
        <ele>548.8046875</ele>
        <time>2020-06-21T08:36:10Z</time>
      </trkpt>
      <trkpt lat="43.23293" lon="5.86462">
        <ele>549.01953125</ele>
        <time>2020-06-21T08:36:11Z</time>
      </trkpt>
      <trkpt lat="43.23294" lon="5.86465">
        <ele>549.234375</ele>
        <time>2020-06-21T08:36:12Z</time>
      </trkpt>
      <trkpt lat="43.23308" lon="5.86493">
        <ele>552.95703125</ele>
        <time>2020-06-21T08:36:24Z</time>
      </trkpt>
      <trkpt lat="43.23325" lon="5.86519">
        <ele>555.8203125</ele>
        <time>2020-06-21T08:36:36Z</time>
      </trkpt>
      <trkpt lat="43.2334" lon="5.86545">
        <ele>558.7265625</ele>
        <time>2020-06-21T08:36:49Z</time>
      </trkpt>
      <trkpt lat="43.2335" lon="5.86591">
        <ele>562.8046875</ele>
        <time>2020-06-21T08:37:06Z</time>
      </trkpt>
      <trkpt lat="43.23358" lon="5.86626">
        <ele>565.72265625</ele>
        <time>2020-06-21T08:37:19Z</time>
      </trkpt>
      <trkpt lat="43.2337" lon="5.86653">
        <ele>569.34765625</ele>
        <time>2020-06-21T08:37:31Z</time>
      </trkpt>
      <trkpt lat="43.23379" lon="5.86673">
        <ele>571.54296875</ele>
        <time>2020-06-21T08:37:40Z</time>
      </trkpt>
      <trkpt lat="43.2338" lon="5.86676">
        <ele>571.73828125</ele>
        <time>2020-06-21T08:37:41Z</time>
      </trkpt>
      <trkpt lat="43.2339" lon="5.867">
        <ele>573.6796875</ele>
        <time>2020-06-21T08:37:50Z</time>
      </trkpt>
      <trkpt lat="43.23406" lon="5.8674">
        <ele>576.84375</ele>
        <time>2020-06-21T08:38:05Z</time>
      </trkpt>
      <trkpt lat="43.23427" lon="5.86767">
        <ele>580.25</ele>
        <time>2020-06-21T08:38:18Z</time>
      </trkpt>
      <trkpt lat="43.23448" lon="5.86791">
        <ele>582.328125</ele>
        <time>2020-06-21T08:38:30Z</time>
      </trkpt>
      <trkpt lat="43.23461" lon="5.86823">
        <ele>584.6328125</ele>
        <time>2020-06-21T08:38:42Z</time>
      </trkpt>
      <trkpt lat="43.23477" lon="5.86869">
        <ele>588.1640625</ele>
        <time>2020-06-21T08:38:59Z</time>
      </trkpt>
      <trkpt lat="43.23489" lon="5.86914">
        <ele>590.2265625</ele>
        <time>2020-06-21T08:39:15Z</time>
      </trkpt>
      <trkpt lat="43.235" lon="5.86957">
        <ele>592.8828125</ele>
        <time>2020-06-21T08:39:30Z</time>
      </trkpt>
      <trkpt lat="43.23511" lon="5.87003">
        <ele>595.98828125</ele>
        <time>2020-06-21T08:39:46Z</time>
      </trkpt>
      <trkpt lat="43.23525" lon="5.87051">
        <ele>597.8984375</ele>
        <time>2020-06-21T08:40:03Z</time>
      </trkpt>
      <trkpt lat="43.23546" lon="5.87109">
        <ele>599.3203125</ele>
        <time>2020-06-21T08:40:20Z</time>
      </trkpt>
      <trkpt lat="43.23579" lon="5.87162">
        <ele>600.0078125</ele>
        <time>2020-06-21T08:40:34Z</time>
      </trkpt>
      <trkpt lat="43.23602" lon="5.87217">
        <ele>600.82421875</ele>
        <time>2020-06-21T08:40:47Z</time>
      </trkpt>
      <trkpt lat="43.23632" lon="5.87269">
        <ele>600.35546875</ele>
        <time>2020-06-21T08:41:01Z</time>
      </trkpt>
      <trkpt lat="43.23652" lon="5.87307">
        <ele>600.328125</ele>
        <time>2020-06-21T08:41:09Z</time>
      </trkpt>
      <trkpt lat="43.2367" lon="5.87387">
        <ele>600.09765625</ele>
        <time>2020-06-21T08:41:24Z</time>
      </trkpt>
      <trkpt lat="43.23688" lon="5.87457">
        <ele>598.21484375</ele>
        <time>2020-06-21T08:41:39Z</time>
      </trkpt>
      <trkpt lat="43.23695" lon="5.87492">
        <ele>596.6484375</ele>
        <time>2020-06-21T08:41:45Z</time>
      </trkpt>
      <trkpt lat="43.23696" lon="5.87499">
        <ele>596.34375</ele>
        <time>2020-06-21T08:41:46Z</time>
      </trkpt>
      <trkpt lat="43.23701" lon="5.87525">
        <ele>595.87890625</ele>
        <time>2020-06-21T08:41:50Z</time>
      </trkpt>
      <trkpt lat="43.23705" lon="5.87568">
        <ele>595.0546875</ele>
        <time>2020-06-21T08:41:57Z</time>
      </trkpt>
      <trkpt lat="43.23708" lon="5.87618">
        <ele>594.9296875</ele>
        <time>2020-06-21T08:42:05Z</time>
      </trkpt>
      <trkpt lat="43.23709" lon="5.87685">
        <ele>594.87890625</ele>
        <time>2020-06-21T08:42:14Z</time>
      </trkpt>
      <trkpt lat="43.23713" lon="5.87704">
        <ele>594.32421875</ele>
        <time>2020-06-21T08:42:17Z</time>
      </trkpt>
      <trkpt lat="43.23716" lon="5.87716">
        <ele>593.67578125</ele>
        <time>2020-06-21T08:42:19Z</time>
      </trkpt>
      <trkpt lat="43.23718" lon="5.87722">
        <ele>593.30859375</ele>
        <time>2020-06-21T08:42:20Z</time>
      </trkpt>
      <trkpt lat="43.2372" lon="5.87728">
        <ele>592.97265625</ele>
        <time>2020-06-21T08:42:21Z</time>
      </trkpt>
      <trkpt lat="43.2374" lon="5.87829">
        <ele>587.671875</ele>
        <time>2020-06-21T08:42:36Z</time>
      </trkpt>
      <trkpt lat="43.23747" lon="5.87865">
        <ele>586.80859375</ele>
        <time>2020-06-21T08:42:40Z</time>
      </trkpt>
      <trkpt lat="43.23747" lon="5.87905">
        <ele>586.65625</ele>
        <time>2020-06-21T08:42:44Z</time>
      </trkpt>
      <trkpt lat="43.23748" lon="5.87933">
        <ele>587.06640625</ele>
        <time>2020-06-21T08:42:47Z</time>
      </trkpt>
      <trkpt lat="43.23751" lon="5.87942">
        <ele>587.0859375</ele>
        <time>2020-06-21T08:42:48Z</time>
      </trkpt>
      <trkpt lat="43.23755" lon="5.87949">
        <ele>587.05859375</ele>
        <time>2020-06-21T08:42:49Z</time>
      </trkpt>
      <trkpt lat="43.23759" lon="5.87955">
        <ele>586.9375</ele>
        <time>2020-06-21T08:42:50Z</time>
      </trkpt>
      <trkpt lat="43.23765" lon="5.87959">
        <ele>586.64453125</ele>
        <time>2020-06-21T08:42:51Z</time>
      </trkpt>
      <trkpt lat="43.23772" lon="5.8796">
        <ele>586.19921875</ele>
        <time>2020-06-21T08:42:52Z</time>
      </trkpt>
      <trkpt lat="43.23779" lon="5.87959">
        <ele>585.6484375</ele>
        <time>2020-06-21T08:42:53Z</time>
      </trkpt>
      <trkpt lat="43.23787" lon="5.87957">
        <ele>585.14453125</ele>
        <time>2020-06-21T08:42:54Z</time>
      </trkpt>
      <trkpt lat="43.23801" lon="5.87954">
        <ele>584.39453125</ele>
        <time>2020-06-21T08:42:56Z</time>
      </trkpt>
      <trkpt lat="43.23837" lon="5.87956">
        <ele>584.984375</ele>
        <time>2020-06-21T08:43:03Z</time>
      </trkpt>
      <trkpt lat="43.23854" lon="5.87982">
        <ele>585.85546875</ele>
        <time>2020-06-21T08:43:11Z</time>
      </trkpt>
      <trkpt lat="43.23861" lon="5.8804">
        <ele>587.26953125</ele>
        <time>2020-06-21T08:43:22Z</time>
      </trkpt>
      <trkpt lat="43.23863" lon="5.88085">
        <ele>588.83984375</ele>
        <time>2020-06-21T08:43:32Z</time>
      </trkpt>
      <trkpt lat="43.23865" lon="5.88128">
        <ele>589.51171875</ele>
        <time>2020-06-21T08:43:46Z</time>
      </trkpt>
      <trkpt lat="43.23868" lon="5.88131">
        <ele>589.85546875</ele>
        <time>2020-06-21T08:43:57Z</time>
      </trkpt>
      <trkpt lat="43.23867" lon="5.88132">
        <ele>589.83984375</ele>
        <time>2020-06-21T08:44:30Z</time>
      </trkpt>
      <trkpt lat="43.23867" lon="5.88133">
        <ele>589.8515625</ele>
        <time>2020-06-21T08:44:45Z</time>
      </trkpt>
      <trkpt lat="43.23866" lon="5.88133">
        <ele>589.7734375</ele>
        <time>2020-06-21T08:44:46Z</time>
      </trkpt>
      <trkpt lat="43.23863" lon="5.88134">
        <ele>589.71875</ele>
        <time>2020-06-21T08:44:59Z</time>
      </trkpt>
      <trkpt lat="43.23861" lon="5.88133">
        <ele>589.6953125</ele>
        <time>2020-06-21T08:45:07Z</time>
      </trkpt>
      <trkpt lat="43.2386" lon="5.88132">
        <ele>589.6640625</ele>
        <time>2020-06-21T08:45:08Z</time>
      </trkpt>
      <trkpt lat="43.23858" lon="5.88131">
        <ele>589.625</ele>
        <time>2020-06-21T08:45:09Z</time>
      </trkpt>
      <trkpt lat="43.23853" lon="5.88134">
        <ele>589.7109375</ele>
        <time>2020-06-21T08:45:13Z</time>
      </trkpt>
      <trkpt lat="43.23853" lon="5.88137">
        <ele>589.8203125</ele>
        <time>2020-06-21T08:45:14Z</time>
      </trkpt>
      <trkpt lat="43.23853" lon="5.8814">
        <ele>589.92578125</ele>
        <time>2020-06-21T08:45:15Z</time>
      </trkpt>
      <trkpt lat="43.23853" lon="5.88142">
        <ele>590.02734375</ele>
        <time>2020-06-21T08:45:16Z</time>
      </trkpt>
      <trkpt lat="43.23852" lon="5.88144">
        <ele>590.09765625</ele>
        <time>2020-06-21T08:45:17Z</time>
      </trkpt>
      <trkpt lat="43.23851" lon="5.88146">
        <ele>590.140625</ele>
        <time>2020-06-21T08:45:18Z</time>
      </trkpt>
      <trkpt lat="43.2385" lon="5.88147">
        <ele>590.1796875</ele>
        <time>2020-06-21T08:45:19Z</time>
      </trkpt>
      <trkpt lat="43.23848" lon="5.88147">
        <ele>590.19921875</ele>
        <time>2020-06-21T08:45:20Z</time>
      </trkpt>
      <trkpt lat="43.23846" lon="5.88147">
        <ele>590.203125</ele>
        <time>2020-06-21T08:45:21Z</time>
      </trkpt>
      <trkpt lat="43.23843" lon="5.88148">
        <ele>590.22265625</ele>
        <time>2020-06-21T08:45:22Z</time>
      </trkpt>
      <trkpt lat="43.23841" lon="5.88149">
        <ele>590.27734375</ele>
        <time>2020-06-21T08:45:23Z</time>
      </trkpt>
      <trkpt lat="43.23838" lon="5.88151">
        <ele>590.3515625</ele>
        <time>2020-06-21T08:45:24Z</time>
      </trkpt>
      <trkpt lat="43.23836" lon="5.88154">
        <ele>590.5078125</ele>
        <time>2020-06-21T08:45:25Z</time>
      </trkpt>
      <trkpt lat="43.23834" lon="5.88157">
        <ele>590.6953125</ele>
        <time>2020-06-21T08:45:26Z</time>
      </trkpt>
      <trkpt lat="43.23832" lon="5.88161">
        <ele>590.8828125</ele>
        <time>2020-06-21T08:45:27Z</time>
      </trkpt>
      <trkpt lat="43.23831" lon="5.88165">
        <ele>591.0625</ele>
        <time>2020-06-21T08:45:28Z</time>
      </trkpt>
      <trkpt lat="43.2383" lon="5.88168">
        <ele>591.234375</ele>
        <time>2020-06-21T08:45:29Z</time>
      </trkpt>
      <trkpt lat="43.2383" lon="5.88172">
        <ele>591.39453125</ele>
        <time>2020-06-21T08:45:30Z</time>
      </trkpt>
      <trkpt lat="43.23829" lon="5.88175">
        <ele>591.54296875</ele>
        <time>2020-06-21T08:45:31Z</time>
      </trkpt>
      <trkpt lat="43.23829" lon="5.88192">
        <ele>592.13671875</ele>
        <time>2020-06-21T08:45:41Z</time>
      </trkpt>
      <trkpt lat="43.23829" lon="5.88208">
        <ele>593.05078125</ele>
        <time>2020-06-21T08:45:53Z</time>
      </trkpt>
      <trkpt lat="43.23829" lon="5.88211">
        <ele>593.3046875</ele>
        <time>2020-06-21T08:45:55Z</time>
      </trkpt>
      <trkpt lat="43.2383" lon="5.88214">
        <ele>593.47265625</ele>
        <time>2020-06-21T08:45:56Z</time>
      </trkpt>
      <trkpt lat="43.23832" lon="5.88235">
        <ele>594.9453125</ele>
        <time>2020-06-21T08:46:04Z</time>
      </trkpt>
      <trkpt lat="43.23847" lon="5.88277">
        <ele>597.44140625</ele>
        <time>2020-06-21T08:46:16Z</time>
      </trkpt>
      <trkpt lat="43.23879" lon="5.8833">
        <ele>601.0546875</ele>
        <time>2020-06-21T08:46:32Z</time>
      </trkpt>
      <trkpt lat="43.23898" lon="5.88393">
        <ele>602.890625</ele>
        <time>2020-06-21T08:46:47Z</time>
      </trkpt>
      <trkpt lat="43.23906" lon="5.88472">
        <ele>605</ele>
        <time>2020-06-21T08:47:02Z</time>
      </trkpt>
      <trkpt lat="43.23895" lon="5.88565">
        <ele>606.01953125</ele>
        <time>2020-06-21T08:47:20Z</time>
      </trkpt>
      <trkpt lat="43.23885" lon="5.88637">
        <ele>606.5859375</ele>
        <time>2020-06-21T08:47:34Z</time>
      </trkpt>
      <trkpt lat="43.23884" lon="5.88642">
        <ele>606.7109375</ele>
        <time>2020-06-21T08:47:35Z</time>
      </trkpt>
      <trkpt lat="43.23876" lon="5.88685">
        <ele>607.58203125</ele>
        <time>2020-06-21T08:47:42Z</time>
      </trkpt>
      <trkpt lat="43.23874" lon="5.88692">
        <ele>607.5859375</ele>
        <time>2020-06-21T08:47:43Z</time>
      </trkpt>
      <trkpt lat="43.23872" lon="5.88698">
        <ele>607.5390625</ele>
        <time>2020-06-21T08:47:44Z</time>
      </trkpt>
      <trkpt lat="43.23831" lon="5.88779">
        <ele>608.71875</ele>
        <time>2020-06-21T08:47:58Z</time>
      </trkpt>
      <trkpt lat="43.2377" lon="5.88855">
        <ele>608.39453125</ele>
        <time>2020-06-21T08:48:13Z</time>
      </trkpt>
      <trkpt lat="43.23729" lon="5.88914">
        <ele>607.06640625</ele>
        <time>2020-06-21T08:48:23Z</time>
      </trkpt>
      <trkpt lat="43.23726" lon="5.88922">
        <ele>607.1015625</ele>
        <time>2020-06-21T08:48:24Z</time>
      </trkpt>
      <trkpt lat="43.23713" lon="5.8899">
        <ele>609.04296875</ele>
        <time>2020-06-21T08:48:33Z</time>
      </trkpt>
      <trkpt lat="43.23713" lon="5.88998">
        <ele>609.328125</ele>
        <time>2020-06-21T08:48:34Z</time>
      </trkpt>
      <trkpt lat="43.23713" lon="5.89006">
        <ele>609.640625</ele>
        <time>2020-06-21T08:48:35Z</time>
      </trkpt>
      <trkpt lat="43.23714" lon="5.89013">
        <ele>609.953125</ele>
        <time>2020-06-21T08:48:36Z</time>
      </trkpt>
      <trkpt lat="43.23716" lon="5.8902">
        <ele>610.26171875</ele>
        <time>2020-06-21T08:48:37Z</time>
      </trkpt>
      <trkpt lat="43.23728" lon="5.89099">
        <ele>612.53125</ele>
        <time>2020-06-21T08:48:49Z</time>
      </trkpt>
      <trkpt lat="43.23727" lon="5.89145">
        <ele>614</ele>
        <time>2020-06-21T08:48:56Z</time>
      </trkpt>
      <trkpt lat="43.23727" lon="5.89152">
        <ele>614.00390625</ele>
        <time>2020-06-21T08:48:57Z</time>
      </trkpt>
      <trkpt lat="43.23727" lon="5.89179">
        <ele>614.375</ele>
        <time>2020-06-21T08:49:01Z</time>
      </trkpt>
      <trkpt lat="43.2373" lon="5.89284">
        <ele>616.13671875</ele>
        <time>2020-06-21T08:49:16Z</time>
      </trkpt>
      <trkpt lat="43.23729" lon="5.89301">
        <ele>616.09375</ele>
        <time>2020-06-21T08:49:18Z</time>
      </trkpt>
      <trkpt lat="43.23712" lon="5.89378">
        <ele>614.484375</ele>
        <time>2020-06-21T08:49:27Z</time>
      </trkpt>
      <trkpt lat="43.23709" lon="5.89394">
        <ele>614.390625</ele>
        <time>2020-06-21T08:49:29Z</time>
      </trkpt>
      <trkpt lat="43.2369" lon="5.89444">
        <ele>613.3359375</ele>
        <time>2020-06-21T08:49:36Z</time>
      </trkpt>
      <trkpt lat="43.23683" lon="5.89449">
        <ele>612.890625</ele>
        <time>2020-06-21T08:49:37Z</time>
      </trkpt>
      <trkpt lat="43.2362" lon="5.89477">
        <ele>612.3046875</ele>
        <time>2020-06-21T08:49:46Z</time>
      </trkpt>
      <trkpt lat="43.23608" lon="5.89476">
        <ele>612.51953125</ele>
        <time>2020-06-21T08:49:48Z</time>
      </trkpt>
      <trkpt lat="43.23588" lon="5.89474">
        <ele>613</ele>
        <time>2020-06-21T08:49:52Z</time>
      </trkpt>
      <trkpt lat="43.23583" lon="5.89475">
        <ele>613.27734375</ele>
        <time>2020-06-21T08:49:53Z</time>
      </trkpt>
      <trkpt lat="43.23579" lon="5.89477">
        <ele>613.6171875</ele>
        <time>2020-06-21T08:49:54Z</time>
      </trkpt>
      <trkpt lat="43.23575" lon="5.89479">
        <ele>614.01953125</ele>
        <time>2020-06-21T08:49:55Z</time>
      </trkpt>
      <trkpt lat="43.23571" lon="5.89482">
        <ele>614.46875</ele>
        <time>2020-06-21T08:49:56Z</time>
      </trkpt>
      <trkpt lat="43.23568" lon="5.89486">
        <ele>614.953125</ele>
        <time>2020-06-21T08:49:57Z</time>
      </trkpt>
      <trkpt lat="43.23566" lon="5.89489">
        <ele>615.44140625</ele>
        <time>2020-06-21T08:49:58Z</time>
      </trkpt>
      <trkpt lat="43.23563" lon="5.89493">
        <ele>615.9140625</ele>
        <time>2020-06-21T08:49:59Z</time>
      </trkpt>
      <trkpt lat="43.23548" lon="5.89526">
        <ele>619.61328125</ele>
        <time>2020-06-21T08:50:08Z</time>
      </trkpt>
      <trkpt lat="43.23543" lon="5.89539">
        <ele>620.80859375</ele>
        <time>2020-06-21T08:50:12Z</time>
      </trkpt>
      <trkpt lat="43.23539" lon="5.8955">
        <ele>621.60546875</ele>
        <time>2020-06-21T08:50:15Z</time>
      </trkpt>
      <trkpt lat="43.23537" lon="5.89552">
        <ele>621.7109375</ele>
        <time>2020-06-21T08:50:16Z</time>
      </trkpt>
      <trkpt lat="43.23534" lon="5.89553">
        <ele>621.76171875</ele>
        <time>2020-06-21T08:50:17Z</time>
      </trkpt>
      <trkpt lat="43.23531" lon="5.89554">
        <ele>621.82421875</ele>
        <time>2020-06-21T08:50:18Z</time>
      </trkpt>
      <trkpt lat="43.23528" lon="5.89554">
        <ele>622.0078125</ele>
        <time>2020-06-21T08:50:19Z</time>
      </trkpt>
      <trkpt lat="43.23525" lon="5.89552">
        <ele>622.14453125</ele>
        <time>2020-06-21T08:50:20Z</time>
      </trkpt>
      <trkpt lat="43.23523" lon="5.89551">
        <ele>622.19921875</ele>
        <time>2020-06-21T08:50:21Z</time>
      </trkpt>
      <trkpt lat="43.2352" lon="5.89549">
        <ele>622.24609375</ele>
        <time>2020-06-21T08:50:22Z</time>
      </trkpt>
      <trkpt lat="43.23496" lon="5.89541">
        <ele>623.3984375</ele>
        <time>2020-06-21T08:50:31Z</time>
      </trkpt>
      <trkpt lat="43.23482" lon="5.89568">
        <ele>626.36328125</ele>
        <time>2020-06-21T08:50:41Z</time>
      </trkpt>
      <trkpt lat="43.2348" lon="5.89581">
        <ele>627.3359375</ele>
        <time>2020-06-21T08:50:45Z</time>
      </trkpt>
      <trkpt lat="43.23478" lon="5.89594">
        <ele>628.2265625</ele>
        <time>2020-06-21T08:50:50Z</time>
      </trkpt>
      <trkpt lat="43.23471" lon="5.89627">
        <ele>630.60546875</ele>
        <time>2020-06-21T08:51:02Z</time>
      </trkpt>
      <trkpt lat="43.23455" lon="5.8965">
        <ele>634.3828125</ele>
        <time>2020-06-21T08:51:13Z</time>
      </trkpt>
      <trkpt lat="43.23447" lon="5.89691">
        <ele>637.8203125</ele>
        <time>2020-06-21T08:51:26Z</time>
      </trkpt>
      <trkpt lat="43.23449" lon="5.89736">
        <ele>640.83984375</ele>
        <time>2020-06-21T08:51:39Z</time>
      </trkpt>
      <trkpt lat="43.23448" lon="5.89778">
        <ele>642.98828125</ele>
        <time>2020-06-21T08:51:54Z</time>
      </trkpt>
      <trkpt lat="43.23445" lon="5.8982">
        <ele>645.46875</ele>
        <time>2020-06-21T08:52:08Z</time>
      </trkpt>
      <trkpt lat="43.23437" lon="5.89867">
        <ele>647.82421875</ele>
        <time>2020-06-21T08:52:22Z</time>
      </trkpt>
      <trkpt lat="43.23437" lon="5.89914">
        <ele>650.828125</ele>
        <time>2020-06-21T08:52:35Z</time>
      </trkpt>
      <trkpt lat="43.23453" lon="5.8996">
        <ele>655.89453125</ele>
        <time>2020-06-21T08:52:49Z</time>
      </trkpt>
      <trkpt lat="43.23454" lon="5.90022">
        <ele>658.1328125</ele>
        <time>2020-06-21T08:53:04Z</time>
      </trkpt>
      <trkpt lat="43.23418" lon="5.90068">
        <ele>657.5703125</ele>
        <time>2020-06-21T08:53:19Z</time>
      </trkpt>
      <trkpt lat="43.23376" lon="5.90092">
        <ele>657.265625</ele>
        <time>2020-06-21T08:53:33Z</time>
      </trkpt>
      <trkpt lat="43.23356" lon="5.9014">
        <ele>659.34375</ele>
        <time>2020-06-21T08:53:46Z</time>
      </trkpt>
      <trkpt lat="43.23349" lon="5.90194">
        <ele>662.51953125</ele>
        <time>2020-06-21T08:53:58Z</time>
      </trkpt>
      <trkpt lat="43.23361" lon="5.90266">
        <ele>666.21484375</ele>
        <time>2020-06-21T08:54:15Z</time>
      </trkpt>
      <trkpt lat="43.23371" lon="5.90317">
        <ele>668.4765625</ele>
        <time>2020-06-21T08:54:27Z</time>
      </trkpt>
      <trkpt lat="43.2338" lon="5.90371">
        <ele>671.2421875</ele>
        <time>2020-06-21T08:54:40Z</time>
      </trkpt>
      <trkpt lat="43.23385" lon="5.90414">
        <ele>674.96484375</ele>
        <time>2020-06-21T08:54:55Z</time>
      </trkpt>
      <trkpt lat="43.23382" lon="5.90414">
        <ele>675.02734375</ele>
        <time>2020-06-21T08:55:14Z</time>
      </trkpt>
      <trkpt lat="43.23382" lon="5.90415">
        <ele>675.13671875</ele>
        <time>2020-06-21T08:55:46Z</time>
      </trkpt>
      <trkpt lat="43.23382" lon="5.90413">
        <ele>674.99609375</ele>
        <time>2020-06-21T08:56:08Z</time>
      </trkpt>
      <trkpt lat="43.23384" lon="5.90418">
        <ele>675.31640625</ele>
        <time>2020-06-21T08:56:27Z</time>
      </trkpt>
      <trkpt lat="43.23384" lon="5.9042">
        <ele>675.48046875</ele>
        <time>2020-06-21T08:56:28Z</time>
      </trkpt>
      <trkpt lat="43.23392" lon="5.90455">
        <ele>679.33984375</ele>
        <time>2020-06-21T08:56:40Z</time>
      </trkpt>
      <trkpt lat="43.23405" lon="5.90487">
        <ele>683.4140625</ele>
        <time>2020-06-21T08:56:51Z</time>
      </trkpt>
      <trkpt lat="43.23422" lon="5.90516">
        <ele>686.09765625</ele>
        <time>2020-06-21T08:57:02Z</time>
      </trkpt>
      <trkpt lat="43.23434" lon="5.90552">
        <ele>689.5859375</ele>
        <time>2020-06-21T08:57:14Z</time>
      </trkpt>
      <trkpt lat="43.23429" lon="5.90603">
        <ele>692.6171875</ele>
        <time>2020-06-21T08:57:29Z</time>
      </trkpt>
      <trkpt lat="43.23416" lon="5.90654">
        <ele>693.8203125</ele>
        <time>2020-06-21T08:57:41Z</time>
      </trkpt>
      <trkpt lat="43.23399" lon="5.90716">
        <ele>693.38671875</ele>
        <time>2020-06-21T08:57:53Z</time>
      </trkpt>
      <trkpt lat="43.23397" lon="5.90721">
        <ele>693.23046875</ele>
        <time>2020-06-21T08:57:54Z</time>
      </trkpt>
      <trkpt lat="43.23392" lon="5.90731">
        <ele>693.17578125</ele>
        <time>2020-06-21T08:57:56Z</time>
      </trkpt>
      <trkpt lat="43.23322" lon="5.90835">
        <ele>690.84765625</ele>
        <time>2020-06-21T08:58:17Z</time>
      </trkpt>
      <trkpt lat="43.23256" lon="5.90925">
        <ele>684.14453125</ele>
        <time>2020-06-21T08:58:31Z</time>
      </trkpt>
      <trkpt lat="43.23249" lon="5.9093">
        <ele>683.69921875</ele>
        <time>2020-06-21T08:58:32Z</time>
      </trkpt>
      <trkpt lat="43.23241" lon="5.90934">
        <ele>683.19921875</ele>
        <time>2020-06-21T08:58:33Z</time>
      </trkpt>
      <trkpt lat="43.23215" lon="5.90944">
        <ele>681.234375</ele>
        <time>2020-06-21T08:58:36Z</time>
      </trkpt>
      <trkpt lat="43.23208" lon="5.9095">
        <ele>680.46875</ele>
        <time>2020-06-21T08:58:37Z</time>
      </trkpt>
      <trkpt lat="43.23201" lon="5.90958">
        <ele>679.69921875</ele>
        <time>2020-06-21T08:58:38Z</time>
      </trkpt>
      <trkpt lat="43.23195" lon="5.90967">
        <ele>679.23828125</ele>
        <time>2020-06-21T08:58:39Z</time>
      </trkpt>
      <trkpt lat="43.2319" lon="5.90977">
        <ele>678.8515625</ele>
        <time>2020-06-21T08:58:40Z</time>
      </trkpt>
      <trkpt lat="43.23163" lon="5.91024">
        <ele>677.1640625</ele>
        <time>2020-06-21T08:58:45Z</time>
      </trkpt>
      <trkpt lat="43.23159" lon="5.91034">
        <ele>676.703125</ele>
        <time>2020-06-21T08:58:46Z</time>
      </trkpt>
      <trkpt lat="43.23133" lon="5.91083">
        <ele>674.06640625</ele>
        <time>2020-06-21T08:58:51Z</time>
      </trkpt>
      <trkpt lat="43.23126" lon="5.91091">
        <ele>673.5546875</ele>
        <time>2020-06-21T08:58:52Z</time>
      </trkpt>
      <trkpt lat="43.2311" lon="5.91104">
        <ele>672.73046875</ele>
        <time>2020-06-21T08:58:54Z</time>
      </trkpt>
      <trkpt lat="43.23085" lon="5.91122">
        <ele>672.2890625</ele>
        <time>2020-06-21T08:59:00Z</time>
      </trkpt>
      <trkpt lat="43.23085" lon="5.91125">
        <ele>672.08203125</ele>
        <time>2020-06-21T08:59:01Z</time>
      </trkpt>
      <trkpt lat="43.23085" lon="5.91127">
        <ele>671.89453125</ele>
        <time>2020-06-21T08:59:02Z</time>
      </trkpt>
      <trkpt lat="43.23088" lon="5.91141">
        <ele>670.8984375</ele>
        <time>2020-06-21T08:59:06Z</time>
      </trkpt>
      <trkpt lat="43.23085" lon="5.91144">
        <ele>670.7265625</ele>
        <time>2020-06-21T08:59:07Z</time>
      </trkpt>
      <trkpt lat="43.23082" lon="5.91146">
        <ele>670.578125</ele>
        <time>2020-06-21T08:59:08Z</time>
      </trkpt>
      <trkpt lat="43.23071" lon="5.91154">
        <ele>670.01171875</ele>
        <time>2020-06-21T08:59:11Z</time>
      </trkpt>
      <trkpt lat="43.23066" lon="5.91156">
        <ele>669.828125</ele>
        <time>2020-06-21T08:59:12Z</time>
      </trkpt>
      <trkpt lat="43.23061" lon="5.91159">
        <ele>669.62890625</ele>
        <time>2020-06-21T08:59:13Z</time>
      </trkpt>
      <trkpt lat="43.23057" lon="5.91162">
        <ele>669.3515625</ele>
        <time>2020-06-21T08:59:14Z</time>
      </trkpt>
      <trkpt lat="43.23052" lon="5.91167">
        <ele>669.0546875</ele>
        <time>2020-06-21T08:59:15Z</time>
      </trkpt>
      <trkpt lat="43.23048" lon="5.91171">
        <ele>668.7265625</ele>
        <time>2020-06-21T08:59:16Z</time>
      </trkpt>
      <trkpt lat="43.23043" lon="5.91176">
        <ele>668.359375</ele>
        <time>2020-06-21T08:59:17Z</time>
      </trkpt>
      <trkpt lat="43.23039" lon="5.91182">
        <ele>667.953125</ele>
        <time>2020-06-21T08:59:18Z</time>
      </trkpt>
      <trkpt lat="43.23034" lon="5.91188">
        <ele>667.52734375</ele>
        <time>2020-06-21T08:59:19Z</time>
      </trkpt>
      <trkpt lat="43.2303" lon="5.91195">
        <ele>667.046875</ele>
        <time>2020-06-21T08:59:20Z</time>
      </trkpt>
      <trkpt lat="43.23014" lon="5.91223">
        <ele>665.67578125</ele>
        <time>2020-06-21T08:59:24Z</time>
      </trkpt>
      <trkpt lat="43.22994" lon="5.91263">
        <ele>662.82421875</ele>
        <time>2020-06-21T08:59:29Z</time>
      </trkpt>
      <trkpt lat="43.2299" lon="5.91271">
        <ele>662.18359375</ele>
        <time>2020-06-21T08:59:30Z</time>
      </trkpt>
      <trkpt lat="43.22981" lon="5.91286">
        <ele>661.59765625</ele>
        <time>2020-06-21T08:59:32Z</time>
      </trkpt>
      <trkpt lat="43.22958" lon="5.91317">
        <ele>660.2578125</ele>
        <time>2020-06-21T08:59:37Z</time>
      </trkpt>
      <trkpt lat="43.22955" lon="5.91322">
        <ele>659.859375</ele>
        <time>2020-06-21T08:59:38Z</time>
      </trkpt>
      <trkpt lat="43.22952" lon="5.91327">
        <ele>659.484375</ele>
        <time>2020-06-21T08:59:39Z</time>
      </trkpt>
      <trkpt lat="43.22945" lon="5.91337">
        <ele>658.87109375</ele>
        <time>2020-06-21T08:59:41Z</time>
      </trkpt>
      <trkpt lat="43.22941" lon="5.91341">
        <ele>658.68359375</ele>
        <time>2020-06-21T08:59:42Z</time>
      </trkpt>
      <trkpt lat="43.22937" lon="5.91344">
        <ele>658.49609375</ele>
        <time>2020-06-21T08:59:43Z</time>
      </trkpt>
      <trkpt lat="43.22932" lon="5.91347">
        <ele>658.25</ele>
        <time>2020-06-21T08:59:44Z</time>
      </trkpt>
      <trkpt lat="43.22929" lon="5.91351">
        <ele>657.94140625</ele>
        <time>2020-06-21T08:59:45Z</time>
      </trkpt>
      <trkpt lat="43.22925" lon="5.91354">
        <ele>657.63671875</ele>
        <time>2020-06-21T08:59:46Z</time>
      </trkpt>
      <trkpt lat="43.22922" lon="5.91357">
        <ele>657.3515625</ele>
        <time>2020-06-21T08:59:47Z</time>
      </trkpt>
      <trkpt lat="43.22918" lon="5.91359">
        <ele>657.17578125</ele>
        <time>2020-06-21T08:59:48Z</time>
      </trkpt>
      <trkpt lat="43.22914" lon="5.91361">
        <ele>657.0703125</ele>
        <time>2020-06-21T08:59:49Z</time>
      </trkpt>
      <trkpt lat="43.22906" lon="5.91364">
        <ele>656.83984375</ele>
        <time>2020-06-21T08:59:51Z</time>
      </trkpt>
      <trkpt lat="43.22903" lon="5.91366">
        <ele>656.62890625</ele>
        <time>2020-06-21T08:59:52Z</time>
      </trkpt>
      <trkpt lat="43.22895" lon="5.91371">
        <ele>656.03125</ele>
        <time>2020-06-21T08:59:54Z</time>
      </trkpt>
      <trkpt lat="43.22883" lon="5.91383">
        <ele>654.64453125</ele>
        <time>2020-06-21T08:59:57Z</time>
      </trkpt>
      <trkpt lat="43.22871" lon="5.91399">
        <ele>653.01171875</ele>
        <time>2020-06-21T09:00:00Z</time>
      </trkpt>
      <trkpt lat="43.22868" lon="5.91406">
        <ele>652.30078125</ele>
        <time>2020-06-21T09:00:01Z</time>
      </trkpt>
      <trkpt lat="43.22855" lon="5.91425">
        <ele>650.42578125</ele>
        <time>2020-06-21T09:00:05Z</time>
      </trkpt>
      <trkpt lat="43.22848" lon="5.91433">
        <ele>649.86328125</ele>
        <time>2020-06-21T09:00:07Z</time>
      </trkpt>
      <trkpt lat="43.22845" lon="5.91437">
        <ele>649.5546875</ele>
        <time>2020-06-21T09:00:08Z</time>
      </trkpt>
      <trkpt lat="43.22842" lon="5.91442">
        <ele>649.25</ele>
        <time>2020-06-21T09:00:09Z</time>
      </trkpt>
      <trkpt lat="43.22839" lon="5.91446">
        <ele>648.921875</ele>
        <time>2020-06-21T09:00:10Z</time>
      </trkpt>
      <trkpt lat="43.22836" lon="5.9145">
        <ele>648.45703125</ele>
        <time>2020-06-21T09:00:11Z</time>
      </trkpt>
      <trkpt lat="43.2281" lon="5.91469">
        <ele>646.375</ele>
        <time>2020-06-21T09:00:21Z</time>
      </trkpt>
      <trkpt lat="43.22794" lon="5.91493">
        <ele>644.2890625</ele>
        <time>2020-06-21T09:00:32Z</time>
      </trkpt>
      <trkpt lat="43.22792" lon="5.91497">
        <ele>643.9765625</ele>
        <time>2020-06-21T09:00:33Z</time>
      </trkpt>
      <trkpt lat="43.22789" lon="5.915">
        <ele>643.84765625</ele>
        <time>2020-06-21T09:00:34Z</time>
      </trkpt>
      <trkpt lat="43.22784" lon="5.91503">
        <ele>643.73828125</ele>
        <time>2020-06-21T09:00:35Z</time>
      </trkpt>
      <trkpt lat="43.2278" lon="5.91507">
        <ele>643.43359375</ele>
        <time>2020-06-21T09:00:36Z</time>
      </trkpt>
      <trkpt lat="43.22776" lon="5.91512">
        <ele>643.03515625</ele>
        <time>2020-06-21T09:00:37Z</time>
      </trkpt>
      <trkpt lat="43.22772" lon="5.91516">
        <ele>642.6953125</ele>
        <time>2020-06-21T09:00:38Z</time>
      </trkpt>
      <trkpt lat="43.22768" lon="5.91521">
        <ele>642.32421875</ele>
        <time>2020-06-21T09:00:39Z</time>
      </trkpt>
      <trkpt lat="43.22761" lon="5.91531">
        <ele>641.6328125</ele>
        <time>2020-06-21T09:00:41Z</time>
      </trkpt>
      <trkpt lat="43.22757" lon="5.91534">
        <ele>641.53515625</ele>
        <time>2020-06-21T09:00:42Z</time>
      </trkpt>
      <trkpt lat="43.22755" lon="5.91537">
        <ele>641.359375</ele>
        <time>2020-06-21T09:00:43Z</time>
      </trkpt>
      <trkpt lat="43.22754" lon="5.91542">
        <ele>641.0390625</ele>
        <time>2020-06-21T09:00:44Z</time>
      </trkpt>
      <trkpt lat="43.22753" lon="5.91547">
        <ele>640.69140625</ele>
        <time>2020-06-21T09:00:45Z</time>
      </trkpt>
      <trkpt lat="43.22751" lon="5.91552">
        <ele>640.31640625</ele>
        <time>2020-06-21T09:00:46Z</time>
      </trkpt>
      <trkpt lat="43.2275" lon="5.91558">
        <ele>639.8984375</ele>
        <time>2020-06-21T09:00:47Z</time>
      </trkpt>
      <trkpt lat="43.22748" lon="5.91564">
        <ele>639.5390625</ele>
        <time>2020-06-21T09:00:48Z</time>
      </trkpt>
      <trkpt lat="43.22746" lon="5.9157">
        <ele>639.1875</ele>
        <time>2020-06-21T09:00:49Z</time>
      </trkpt>
      <trkpt lat="43.22745" lon="5.91576">
        <ele>638.82421875</ele>
        <time>2020-06-21T09:00:50Z</time>
      </trkpt>
      <trkpt lat="43.22743" lon="5.91583">
        <ele>638.46875</ele>
        <time>2020-06-21T09:00:51Z</time>
      </trkpt>
      <trkpt lat="43.2274" lon="5.91597">
        <ele>638.0703125</ele>
        <time>2020-06-21T09:00:53Z</time>
      </trkpt>
      <trkpt lat="43.22741" lon="5.91603">
        <ele>637.81640625</ele>
        <time>2020-06-21T09:00:54Z</time>
      </trkpt>
      <trkpt lat="43.22742" lon="5.9161">
        <ele>637.5546875</ele>
        <time>2020-06-21T09:00:55Z</time>
      </trkpt>
      <trkpt lat="43.22743" lon="5.91624">
        <ele>637.44921875</ele>
        <time>2020-06-21T09:00:57Z</time>
      </trkpt>
      <trkpt lat="43.22745" lon="5.91629">
        <ele>637.375</ele>
        <time>2020-06-21T09:00:58Z</time>
      </trkpt>
      <trkpt lat="43.22747" lon="5.9163">
        <ele>637.27734375</ele>
        <time>2020-06-21T09:00:59Z</time>
      </trkpt>
      <trkpt lat="43.22751" lon="5.91635">
        <ele>637.14453125</ele>
        <time>2020-06-21T09:01:04Z</time>
      </trkpt>
      <trkpt lat="43.22752" lon="5.91639">
        <ele>637.1171875</ele>
        <time>2020-06-21T09:01:05Z</time>
      </trkpt>
      <trkpt lat="43.22752" lon="5.91644">
        <ele>636.94140625</ele>
        <time>2020-06-21T09:01:06Z</time>
      </trkpt>
      <trkpt lat="43.22752" lon="5.91649">
        <ele>636.76171875</ele>
        <time>2020-06-21T09:01:07Z</time>
      </trkpt>
      <trkpt lat="43.22751" lon="5.91654">
        <ele>636.61328125</ele>
        <time>2020-06-21T09:01:08Z</time>
      </trkpt>
      <trkpt lat="43.2275" lon="5.91659">
        <ele>636.484375</ele>
        <time>2020-06-21T09:01:09Z</time>
      </trkpt>
      <trkpt lat="43.22749" lon="5.91662">
        <ele>636.39453125</ele>
        <time>2020-06-21T09:01:10Z</time>
      </trkpt>
      <trkpt lat="43.22748" lon="5.91665">
        <ele>636.34765625</ele>
        <time>2020-06-21T09:01:11Z</time>
      </trkpt>
      <trkpt lat="43.22747" lon="5.91667">
        <ele>636.32421875</ele>
        <time>2020-06-21T09:01:12Z</time>
      </trkpt>
      <trkpt lat="43.22744" lon="5.91668">
        <ele>636.34765625</ele>
        <time>2020-06-21T09:01:13Z</time>
      </trkpt>
      <trkpt lat="43.22742" lon="5.91669">
        <ele>636.39453125</ele>
        <time>2020-06-21T09:01:14Z</time>
      </trkpt>
      <trkpt lat="43.2274" lon="5.91669">
        <ele>636.453125</ele>
        <time>2020-06-21T09:01:15Z</time>
      </trkpt>
      <trkpt lat="43.22738" lon="5.9167">
        <ele>636.5</ele>
        <time>2020-06-21T09:01:16Z</time>
      </trkpt>
      <trkpt lat="43.22736" lon="5.91672">
        <ele>636.5078125</ele>
        <time>2020-06-21T09:01:17Z</time>
      </trkpt>
      <trkpt lat="43.22735" lon="5.91674">
        <ele>636.4765625</ele>
        <time>2020-06-21T09:01:18Z</time>
      </trkpt>
      <trkpt lat="43.22734" lon="5.91676">
        <ele>636.44140625</ele>
        <time>2020-06-21T09:01:19Z</time>
      </trkpt>
      <trkpt lat="43.22732" lon="5.91679">
        <ele>636.4296875</ele>
        <time>2020-06-21T09:01:20Z</time>
      </trkpt>
      <trkpt lat="43.2273" lon="5.91681">
        <ele>636.39453125</ele>
        <time>2020-06-21T09:01:21Z</time>
      </trkpt>
      <trkpt lat="43.22729" lon="5.91684">
        <ele>636.34375</ele>
        <time>2020-06-21T09:01:22Z</time>
      </trkpt>
      <trkpt lat="43.22728" lon="5.91687">
        <ele>636.26171875</ele>
        <time>2020-06-21T09:01:23Z</time>
      </trkpt>
      <trkpt lat="43.22728" lon="5.91691">
        <ele>636.140625</ele>
        <time>2020-06-21T09:01:24Z</time>
      </trkpt>
      <trkpt lat="43.22728" lon="5.91694">
        <ele>636.0078125</ele>
        <time>2020-06-21T09:01:25Z</time>
      </trkpt>
      <trkpt lat="43.22727" lon="5.91698">
        <ele>635.87890625</ele>
        <time>2020-06-21T09:01:26Z</time>
      </trkpt>
      <trkpt lat="43.22723" lon="5.91725">
        <ele>635.1953125</ele>
        <time>2020-06-21T09:01:32Z</time>
      </trkpt>
      <trkpt lat="43.22721" lon="5.91732">
        <ele>635.01953125</ele>
        <time>2020-06-21T09:01:33Z</time>
      </trkpt>
      <trkpt lat="43.22721" lon="5.91739">
        <ele>634.72265625</ele>
        <time>2020-06-21T09:01:34Z</time>
      </trkpt>
      <trkpt lat="43.22722" lon="5.91746">
        <ele>634.359375</ele>
        <time>2020-06-21T09:01:35Z</time>
      </trkpt>
      <trkpt lat="43.22724" lon="5.91752">
        <ele>633.98046875</ele>
        <time>2020-06-21T09:01:36Z</time>
      </trkpt>
      <trkpt lat="43.22726" lon="5.91758">
        <ele>633.53125</ele>
        <time>2020-06-21T09:01:37Z</time>
      </trkpt>
      <trkpt lat="43.22727" lon="5.91764">
        <ele>633.05859375</ele>
        <time>2020-06-21T09:01:38Z</time>
      </trkpt>
      <trkpt lat="43.22728" lon="5.9177">
        <ele>632.5703125</ele>
        <time>2020-06-21T09:01:39Z</time>
      </trkpt>
      <trkpt lat="43.22728" lon="5.91778">
        <ele>632.015625</ele>
        <time>2020-06-21T09:01:40Z</time>
      </trkpt>
      <trkpt lat="43.22727" lon="5.91786">
        <ele>631.7109375</ele>
        <time>2020-06-21T09:01:41Z</time>
      </trkpt>
      <trkpt lat="43.22726" lon="5.91795">
        <ele>631.44921875</ele>
        <time>2020-06-21T09:01:42Z</time>
      </trkpt>
      <trkpt lat="43.22725" lon="5.91804">
        <ele>631.15625</ele>
        <time>2020-06-21T09:01:43Z</time>
      </trkpt>
      <trkpt lat="43.22725" lon="5.91813">
        <ele>630.8359375</ele>
        <time>2020-06-21T09:01:44Z</time>
      </trkpt>
      <trkpt lat="43.22725" lon="5.91822">
        <ele>630.5234375</ele>
        <time>2020-06-21T09:01:45Z</time>
      </trkpt>
      <trkpt lat="43.22725" lon="5.9183">
        <ele>630.2109375</ele>
        <time>2020-06-21T09:01:46Z</time>
      </trkpt>
      <trkpt lat="43.22724" lon="5.91885">
        <ele>629.24609375</ele>
        <time>2020-06-21T09:01:52Z</time>
      </trkpt>
      <trkpt lat="43.22728" lon="5.91909">
        <ele>629.0078125</ele>
        <time>2020-06-21T09:01:55Z</time>
      </trkpt>
      <trkpt lat="43.22728" lon="5.91917">
        <ele>628.9921875</ele>
        <time>2020-06-21T09:01:56Z</time>
      </trkpt>
      <trkpt lat="43.22727" lon="5.91925">
        <ele>628.72265625</ele>
        <time>2020-06-21T09:01:57Z</time>
      </trkpt>
      <trkpt lat="43.22725" lon="5.91932">
        <ele>628.50390625</ele>
        <time>2020-06-21T09:01:58Z</time>
      </trkpt>
      <trkpt lat="43.22723" lon="5.91939">
        <ele>628.32421875</ele>
        <time>2020-06-21T09:01:59Z</time>
      </trkpt>
      <trkpt lat="43.22721" lon="5.91946">
        <ele>628.2109375</ele>
        <time>2020-06-21T09:02:00Z</time>
      </trkpt>
      <trkpt lat="43.2272" lon="5.91954">
        <ele>628.25</ele>
        <time>2020-06-21T09:02:01Z</time>
      </trkpt>
      <trkpt lat="43.2272" lon="5.91961">
        <ele>628.2578125</ele>
        <time>2020-06-21T09:02:02Z</time>
      </trkpt>
      <trkpt lat="43.22721" lon="5.91968">
        <ele>628.23828125</ele>
        <time>2020-06-21T09:02:03Z</time>
      </trkpt>
      <trkpt lat="43.22721" lon="5.91976">
        <ele>628.234375</ele>
        <time>2020-06-21T09:02:04Z</time>
      </trkpt>
      <trkpt lat="43.22721" lon="5.91984">
        <ele>628.22265625</ele>
        <time>2020-06-21T09:02:05Z</time>
      </trkpt>
      <trkpt lat="43.22721" lon="5.91992">
        <ele>628.2109375</ele>
        <time>2020-06-21T09:02:06Z</time>
      </trkpt>
      <trkpt lat="43.22722" lon="5.92">
        <ele>628.1875</ele>
        <time>2020-06-21T09:02:07Z</time>
      </trkpt>
      <trkpt lat="43.22724" lon="5.92015">
        <ele>628.12890625</ele>
        <time>2020-06-21T09:02:09Z</time>
      </trkpt>
      <trkpt lat="43.22724" lon="5.92022">
        <ele>628.125</ele>
        <time>2020-06-21T09:02:10Z</time>
      </trkpt>
      <trkpt lat="43.22724" lon="5.9203">
        <ele>628.12109375</ele>
        <time>2020-06-21T09:02:11Z</time>
      </trkpt>
      <trkpt lat="43.22723" lon="5.92037">
        <ele>628.1484375</ele>
        <time>2020-06-21T09:02:12Z</time>
      </trkpt>
      <trkpt lat="43.22722" lon="5.92044">
        <ele>628.1875</ele>
        <time>2020-06-21T09:02:13Z</time>
      </trkpt>
      <trkpt lat="43.2272" lon="5.92101">
        <ele>628.7109375</ele>
        <time>2020-06-21T09:02:24Z</time>
      </trkpt>
      <trkpt lat="43.22723" lon="5.92102">
        <ele>628.70703125</ele>
        <time>2020-06-21T09:02:25Z</time>
      </trkpt>
      <trkpt lat="43.22725" lon="5.92102">
        <ele>628.6875</ele>
        <time>2020-06-21T09:02:26Z</time>
      </trkpt>
      <trkpt lat="43.22727" lon="5.92102">
        <ele>628.66796875</ele>
        <time>2020-06-21T09:02:27Z</time>
      </trkpt>
      <trkpt lat="43.2273" lon="5.92103">
        <ele>628.59765625</ele>
        <time>2020-06-21T09:02:28Z</time>
      </trkpt>
      <trkpt lat="43.22732" lon="5.92103">
        <ele>628.54296875</ele>
        <time>2020-06-21T09:02:29Z</time>
      </trkpt>
      <trkpt lat="43.22734" lon="5.92104">
        <ele>628.50390625</ele>
        <time>2020-06-21T09:02:30Z</time>
      </trkpt>
      <trkpt lat="43.22736" lon="5.92106">
        <ele>628.4609375</ele>
        <time>2020-06-21T09:02:31Z</time>
      </trkpt>
      <trkpt lat="43.22739" lon="5.92107">
        <ele>628.4140625</ele>
        <time>2020-06-21T09:02:32Z</time>
      </trkpt>
      <trkpt lat="43.22752" lon="5.92115">
        <ele>628.23828125</ele>
        <time>2020-06-21T09:02:39Z</time>
      </trkpt>
      <trkpt lat="43.22754" lon="5.92116">
        <ele>628.1953125</ele>
        <time>2020-06-21T09:02:40Z</time>
      </trkpt>
      <trkpt lat="43.22756" lon="5.92116">
        <ele>628.14453125</ele>
        <time>2020-06-21T09:02:41Z</time>
      </trkpt>
      <trkpt lat="43.22785" lon="5.92105">
        <ele>626.9375</ele>
        <time>2020-06-21T09:02:53Z</time>
      </trkpt>
      <trkpt lat="43.22822" lon="5.92091">
        <ele>626</ele>
        <time>2020-06-21T09:03:03Z</time>
      </trkpt>
      <trkpt lat="43.22841" lon="5.92091">
        <ele>626.08203125</ele>
        <time>2020-06-21T09:03:07Z</time>
      </trkpt>
      <trkpt lat="43.22904" lon="5.92104">
        <ele>626.25390625</ele>
        <time>2020-06-21T09:03:21Z</time>
      </trkpt>
      <trkpt lat="43.22946" lon="5.92117">
        <ele>623.3828125</ele>
        <time>2020-06-21T09:03:33Z</time>
      </trkpt>
      <trkpt lat="43.2297" lon="5.92142">
        <ele>621.61328125</ele>
        <time>2020-06-21T09:03:38Z</time>
      </trkpt>
      <trkpt lat="43.22975" lon="5.9215">
        <ele>621.51171875</ele>
        <time>2020-06-21T09:03:39Z</time>
      </trkpt>
      <trkpt lat="43.22981" lon="5.92156">
        <ele>621.3515625</ele>
        <time>2020-06-21T09:03:40Z</time>
      </trkpt>
      <trkpt lat="43.22988" lon="5.92159">
        <ele>621.0390625</ele>
        <time>2020-06-21T09:03:41Z</time>
      </trkpt>
      <trkpt lat="43.22994" lon="5.92158">
        <ele>620.63671875</ele>
        <time>2020-06-21T09:03:42Z</time>
      </trkpt>
      <trkpt lat="43.23001" lon="5.92154">
        <ele>620.2109375</ele>
        <time>2020-06-21T09:03:43Z</time>
      </trkpt>
      <trkpt lat="43.23008" lon="5.92149">
        <ele>620</ele>
        <time>2020-06-21T09:03:44Z</time>
      </trkpt>
      <trkpt lat="43.23014" lon="5.92143">
        <ele>620</ele>
        <time>2020-06-21T09:03:45Z</time>
      </trkpt>
      <trkpt lat="43.23019" lon="5.92137">
        <ele>619.91015625</ele>
        <time>2020-06-21T09:03:46Z</time>
      </trkpt>
      <trkpt lat="43.23024" lon="5.92131">
        <ele>619.70703125</ele>
        <time>2020-06-21T09:03:47Z</time>
      </trkpt>
      <trkpt lat="43.23028" lon="5.92126">
        <ele>619.53515625</ele>
        <time>2020-06-21T09:03:48Z</time>
      </trkpt>
      <trkpt lat="43.23033" lon="5.92123">
        <ele>619.40234375</ele>
        <time>2020-06-21T09:03:49Z</time>
      </trkpt>
      <trkpt lat="43.23037" lon="5.92119">
        <ele>619.39453125</ele>
        <time>2020-06-21T09:03:50Z</time>
      </trkpt>
      <trkpt lat="43.23044" lon="5.92117">
        <ele>619.5234375</ele>
        <time>2020-06-21T09:03:52Z</time>
      </trkpt>
      <trkpt lat="43.23048" lon="5.92118">
        <ele>619.6484375</ele>
        <time>2020-06-21T09:03:53Z</time>
      </trkpt>
      <trkpt lat="43.23052" lon="5.92116">
        <ele>619.73046875</ele>
        <time>2020-06-21T09:03:54Z</time>
      </trkpt>
      <trkpt lat="43.23054" lon="5.92113">
        <ele>619.78125</ele>
        <time>2020-06-21T09:03:55Z</time>
      </trkpt>
      <trkpt lat="43.23056" lon="5.9211">
        <ele>619.82421875</ele>
        <time>2020-06-21T09:03:56Z</time>
      </trkpt>
      <trkpt lat="43.23059" lon="5.92109">
        <ele>619.8671875</ele>
        <time>2020-06-21T09:03:57Z</time>
      </trkpt>
      <trkpt lat="43.23063" lon="5.92107">
        <ele>619.765625</ele>
        <time>2020-06-21T09:03:58Z</time>
      </trkpt>
      <trkpt lat="43.23092" lon="5.92105">
        <ele>618.78125</ele>
        <time>2020-06-21T09:04:08Z</time>
      </trkpt>
      <trkpt lat="43.23097" lon="5.92106">
        <ele>618.8203125</ele>
        <time>2020-06-21T09:04:10Z</time>
      </trkpt>
      <trkpt lat="43.23099" lon="5.92107">
        <ele>618.84765625</ele>
        <time>2020-06-21T09:04:11Z</time>
      </trkpt>
      <trkpt lat="43.23101" lon="5.92108">
        <ele>618.87109375</ele>
        <time>2020-06-21T09:04:12Z</time>
      </trkpt>
      <trkpt lat="43.23103" lon="5.92109">
        <ele>618.90625</ele>
        <time>2020-06-21T09:04:13Z</time>
      </trkpt>
      <trkpt lat="43.23106" lon="5.9211">
        <ele>618.9609375</ele>
        <time>2020-06-21T09:04:14Z</time>
      </trkpt>
      <trkpt lat="43.23108" lon="5.92112">
        <ele>619.01953125</ele>
        <time>2020-06-21T09:04:15Z</time>
      </trkpt>
      <trkpt lat="43.23111" lon="5.92112">
        <ele>619.06640625</ele>
        <time>2020-06-21T09:04:16Z</time>
      </trkpt>
      <trkpt lat="43.23114" lon="5.92113">
        <ele>619.09765625</ele>
        <time>2020-06-21T09:04:17Z</time>
      </trkpt>
      <trkpt lat="43.23117" lon="5.92113">
        <ele>619.09375</ele>
        <time>2020-06-21T09:04:18Z</time>
      </trkpt>
      <trkpt lat="43.23119" lon="5.92113">
        <ele>619.08984375</ele>
        <time>2020-06-21T09:04:19Z</time>
      </trkpt>
      <trkpt lat="43.23122" lon="5.92113">
        <ele>619.09375</ele>
        <time>2020-06-21T09:04:20Z</time>
      </trkpt>
      <trkpt lat="43.23125" lon="5.92113">
        <ele>619.08203125</ele>
        <time>2020-06-21T09:04:21Z</time>
      </trkpt>
      <trkpt lat="43.23157" lon="5.92095">
        <ele>617.80078125</ele>
        <time>2020-06-21T09:04:32Z</time>
      </trkpt>
      <trkpt lat="43.23161" lon="5.92094">
        <ele>617.76953125</ele>
        <time>2020-06-21T09:04:33Z</time>
      </trkpt>
      <trkpt lat="43.23163" lon="5.92095">
        <ele>617.82421875</ele>
        <time>2020-06-21T09:04:34Z</time>
      </trkpt>
      <trkpt lat="43.23166" lon="5.92097">
        <ele>617.9375</ele>
        <time>2020-06-21T09:04:35Z</time>
      </trkpt>
      <trkpt lat="43.23168" lon="5.92099">
        <ele>618.07421875</ele>
        <time>2020-06-21T09:04:36Z</time>
      </trkpt>
      <trkpt lat="43.23208" lon="5.92105">
        <ele>618.4609375</ele>
        <time>2020-06-21T09:04:49Z</time>
      </trkpt>
      <trkpt lat="43.2325" lon="5.92095">
        <ele>617.07421875</ele>
        <time>2020-06-21T09:05:02Z</time>
      </trkpt>
      <trkpt lat="43.23278" lon="5.92101">
        <ele>615.29296875</ele>
        <time>2020-06-21T09:05:10Z</time>
      </trkpt>
      <trkpt lat="43.23305" lon="5.9212">
        <ele>613.453125</ele>
        <time>2020-06-21T09:05:17Z</time>
      </trkpt>
      <trkpt lat="43.23313" lon="5.92128">
        <ele>612.8828125</ele>
        <time>2020-06-21T09:05:19Z</time>
      </trkpt>
      <trkpt lat="43.23317" lon="5.9213">
        <ele>612.66796875</ele>
        <time>2020-06-21T09:05:20Z</time>
      </trkpt>
      <trkpt lat="43.23322" lon="5.9213">
        <ele>612.41796875</ele>
        <time>2020-06-21T09:05:21Z</time>
      </trkpt>
      <trkpt lat="43.23327" lon="5.92128">
        <ele>612.13671875</ele>
        <time>2020-06-21T09:05:22Z</time>
      </trkpt>
      <trkpt lat="43.23332" lon="5.92125">
        <ele>611.796875</ele>
        <time>2020-06-21T09:05:23Z</time>
      </trkpt>
      <trkpt lat="43.23337" lon="5.92122">
        <ele>611.3984375</ele>
        <time>2020-06-21T09:05:24Z</time>
      </trkpt>
      <trkpt lat="43.23344" lon="5.92121">
        <ele>611.265625</ele>
        <time>2020-06-21T09:05:25Z</time>
      </trkpt>
      <trkpt lat="43.2335" lon="5.92121">
        <ele>611.19921875</ele>
        <time>2020-06-21T09:05:26Z</time>
      </trkpt>
      <trkpt lat="43.23355" lon="5.92123">
        <ele>611.15625</ele>
        <time>2020-06-21T09:05:27Z</time>
      </trkpt>
      <trkpt lat="43.23361" lon="5.92127">
        <ele>611.09375</ele>
        <time>2020-06-21T09:05:28Z</time>
      </trkpt>
      <trkpt lat="43.23367" lon="5.9213">
        <ele>610.97265625</ele>
        <time>2020-06-21T09:05:29Z</time>
      </trkpt>
      <trkpt lat="43.23382" lon="5.9214">
        <ele>610.421875</ele>
        <time>2020-06-21T09:05:32Z</time>
      </trkpt>
      <trkpt lat="43.23388" lon="5.92143">
        <ele>610.21484375</ele>
        <time>2020-06-21T09:05:33Z</time>
      </trkpt>
      <trkpt lat="43.23407" lon="5.92153">
        <ele>610</ele>
        <time>2020-06-21T09:05:36Z</time>
      </trkpt>
      <trkpt lat="43.23412" lon="5.9216">
        <ele>610</ele>
        <time>2020-06-21T09:05:37Z</time>
      </trkpt>
      <trkpt lat="43.23415" lon="5.92168">
        <ele>609.96484375</ele>
        <time>2020-06-21T09:05:38Z</time>
      </trkpt>
      <trkpt lat="43.23416" lon="5.92177">
        <ele>609.703125</ele>
        <time>2020-06-21T09:05:39Z</time>
      </trkpt>
      <trkpt lat="43.23416" lon="5.92187">
        <ele>609.4296875</ele>
        <time>2020-06-21T09:05:40Z</time>
      </trkpt>
      <trkpt lat="43.23415" lon="5.92196">
        <ele>609.21875</ele>
        <time>2020-06-21T09:05:41Z</time>
      </trkpt>
      <trkpt lat="43.23415" lon="5.92204">
        <ele>609.22265625</ele>
        <time>2020-06-21T09:05:42Z</time>
      </trkpt>
      <trkpt lat="43.23417" lon="5.92212">
        <ele>609.15625</ele>
        <time>2020-06-21T09:05:43Z</time>
      </trkpt>
      <trkpt lat="43.2342" lon="5.92218">
        <ele>609.046875</ele>
        <time>2020-06-21T09:05:44Z</time>
      </trkpt>
      <trkpt lat="43.23424" lon="5.92223">
        <ele>608.8828125</ele>
        <time>2020-06-21T09:05:45Z</time>
      </trkpt>
      <trkpt lat="43.23432" lon="5.92234">
        <ele>608.2109375</ele>
        <time>2020-06-21T09:05:47Z</time>
      </trkpt>
      <trkpt lat="43.23436" lon="5.92238">
        <ele>607.94140625</ele>
        <time>2020-06-21T09:05:48Z</time>
      </trkpt>
      <trkpt lat="43.2344" lon="5.92241">
        <ele>607.6875</ele>
        <time>2020-06-21T09:05:49Z</time>
      </trkpt>
      <trkpt lat="43.23454" lon="5.9225">
        <ele>606.83203125</ele>
        <time>2020-06-21T09:05:53Z</time>
      </trkpt>
      <trkpt lat="43.23458" lon="5.92252">
        <ele>606.6328125</ele>
        <time>2020-06-21T09:05:54Z</time>
      </trkpt>
      <trkpt lat="43.23462" lon="5.92252">
        <ele>606.47265625</ele>
        <time>2020-06-21T09:05:55Z</time>
      </trkpt>
      <trkpt lat="43.23466" lon="5.92252">
        <ele>606.34765625</ele>
        <time>2020-06-21T09:05:56Z</time>
      </trkpt>
      <trkpt lat="43.2347" lon="5.9225">
        <ele>606.25390625</ele>
        <time>2020-06-21T09:05:57Z</time>
      </trkpt>
      <trkpt lat="43.23473" lon="5.92248">
        <ele>606.1328125</ele>
        <time>2020-06-21T09:05:58Z</time>
      </trkpt>
      <trkpt lat="43.23506" lon="5.92242">
        <ele>606.34765625</ele>
        <time>2020-06-21T09:06:07Z</time>
      </trkpt>
      <trkpt lat="43.2351" lon="5.92244">
        <ele>606.41796875</ele>
        <time>2020-06-21T09:06:08Z</time>
      </trkpt>
      <trkpt lat="43.23515" lon="5.92247">
        <ele>606.4609375</ele>
        <time>2020-06-21T09:06:09Z</time>
      </trkpt>
      <trkpt lat="43.23519" lon="5.92251">
        <ele>606.46875</ele>
        <time>2020-06-21T09:06:10Z</time>
      </trkpt>
      <trkpt lat="43.23523" lon="5.92256">
        <ele>606.421875</ele>
        <time>2020-06-21T09:06:11Z</time>
      </trkpt>
      <trkpt lat="43.23526" lon="5.92261">
        <ele>606.36328125</ele>
        <time>2020-06-21T09:06:12Z</time>
      </trkpt>
      <trkpt lat="43.23532" lon="5.92271">
        <ele>606.23046875</ele>
        <time>2020-06-21T09:06:14Z</time>
      </trkpt>
      <trkpt lat="43.23533" lon="5.92276">
        <ele>606.08984375</ele>
        <time>2020-06-21T09:06:15Z</time>
      </trkpt>
      <trkpt lat="43.23534" lon="5.92282">
        <ele>605.88671875</ele>
        <time>2020-06-21T09:06:16Z</time>
      </trkpt>
      <trkpt lat="43.23533" lon="5.92288">
        <ele>605.640625</ele>
        <time>2020-06-21T09:06:17Z</time>
      </trkpt>
      <trkpt lat="43.23532" lon="5.92294">
        <ele>605.3984375</ele>
        <time>2020-06-21T09:06:18Z</time>
      </trkpt>
      <trkpt lat="43.2353" lon="5.923">
        <ele>605.1796875</ele>
        <time>2020-06-21T09:06:19Z</time>
      </trkpt>
      <trkpt lat="43.23528" lon="5.92306">
        <ele>604.99609375</ele>
        <time>2020-06-21T09:06:20Z</time>
      </trkpt>
      <trkpt lat="43.23526" lon="5.92313">
        <ele>604.94140625</ele>
        <time>2020-06-21T09:06:21Z</time>
      </trkpt>
      <trkpt lat="43.23521" lon="5.92325">
        <ele>604.7265625</ele>
        <time>2020-06-21T09:06:23Z</time>
      </trkpt>
      <trkpt lat="43.23511" lon="5.92348">
        <ele>604.21875</ele>
        <time>2020-06-21T09:06:27Z</time>
      </trkpt>
      <trkpt lat="43.23509" lon="5.92354">
        <ele>604.1640625</ele>
        <time>2020-06-21T09:06:28Z</time>
      </trkpt>
      <trkpt lat="43.23507" lon="5.92359">
        <ele>604.09765625</ele>
        <time>2020-06-21T09:06:29Z</time>
      </trkpt>
      <trkpt lat="43.23505" lon="5.92365">
        <ele>604.0234375</ele>
        <time>2020-06-21T09:06:30Z</time>
      </trkpt>
      <trkpt lat="43.23504" lon="5.92371">
        <ele>604</ele>
        <time>2020-06-21T09:06:31Z</time>
      </trkpt>
      <trkpt lat="43.23502" lon="5.92377">
        <ele>604</ele>
        <time>2020-06-21T09:06:32Z</time>
      </trkpt>
      <trkpt lat="43.235" lon="5.92382">
        <ele>604</ele>
        <time>2020-06-21T09:06:33Z</time>
      </trkpt>
      <trkpt lat="43.23498" lon="5.92388">
        <ele>604</ele>
        <time>2020-06-21T09:06:34Z</time>
      </trkpt>
      <trkpt lat="43.23488" lon="5.92411">
        <ele>603.21875</ele>
        <time>2020-06-21T09:06:38Z</time>
      </trkpt>
      <trkpt lat="43.23485" lon="5.92418">
        <ele>602.9921875</ele>
        <time>2020-06-21T09:06:39Z</time>
      </trkpt>
      <trkpt lat="43.23484" lon="5.92425">
        <ele>602.93359375</ele>
        <time>2020-06-21T09:06:40Z</time>
      </trkpt>
      <trkpt lat="43.23482" lon="5.92431">
        <ele>602.90234375</ele>
        <time>2020-06-21T09:06:41Z</time>
      </trkpt>
      <trkpt lat="43.23481" lon="5.92438">
        <ele>602.88671875</ele>
        <time>2020-06-21T09:06:42Z</time>
      </trkpt>
      <trkpt lat="43.23479" lon="5.92451">
        <ele>602.9296875</ele>
        <time>2020-06-21T09:06:44Z</time>
      </trkpt>
      <trkpt lat="43.23478" lon="5.92457">
        <ele>602.9609375</ele>
        <time>2020-06-21T09:06:45Z</time>
      </trkpt>
      <trkpt lat="43.23478" lon="5.92463">
        <ele>602.97265625</ele>
        <time>2020-06-21T09:06:46Z</time>
      </trkpt>
      <trkpt lat="43.23478" lon="5.9247">
        <ele>602.95703125</ele>
        <time>2020-06-21T09:06:47Z</time>
      </trkpt>
      <trkpt lat="43.23479" lon="5.92475">
        <ele>603.01953125</ele>
        <time>2020-06-21T09:06:48Z</time>
      </trkpt>
      <trkpt lat="43.2348" lon="5.9248">
        <ele>603.15234375</ele>
        <time>2020-06-21T09:06:49Z</time>
      </trkpt>
      <trkpt lat="43.23481" lon="5.92486">
        <ele>603.28125</ele>
        <time>2020-06-21T09:06:50Z</time>
      </trkpt>
      <trkpt lat="43.23482" lon="5.92491">
        <ele>603.36328125</ele>
        <time>2020-06-21T09:06:51Z</time>
      </trkpt>
      <trkpt lat="43.23484" lon="5.92496">
        <ele>603.33984375</ele>
        <time>2020-06-21T09:06:52Z</time>
      </trkpt>
      <trkpt lat="43.23488" lon="5.92499">
        <ele>603.18359375</ele>
        <time>2020-06-21T09:06:53Z</time>
      </trkpt>
      <trkpt lat="43.23491" lon="5.92501">
        <ele>602.96484375</ele>
        <time>2020-06-21T09:06:54Z</time>
      </trkpt>
      <trkpt lat="43.23495" lon="5.92502">
        <ele>602.71875</ele>
        <time>2020-06-21T09:06:55Z</time>
      </trkpt>
      <trkpt lat="43.23499" lon="5.92502">
        <ele>602.44140625</ele>
        <time>2020-06-21T09:06:56Z</time>
      </trkpt>
      <trkpt lat="43.23503" lon="5.92503">
        <ele>602.20703125</ele>
        <time>2020-06-21T09:06:57Z</time>
      </trkpt>
      <trkpt lat="43.23507" lon="5.92506">
        <ele>602.125</ele>
        <time>2020-06-21T09:06:58Z</time>
      </trkpt>
      <trkpt lat="43.2351" lon="5.92511">
        <ele>602.15234375</ele>
        <time>2020-06-21T09:06:59Z</time>
      </trkpt>
      <trkpt lat="43.23511" lon="5.92517">
        <ele>602.23046875</ele>
        <time>2020-06-21T09:07:00Z</time>
      </trkpt>
      <trkpt lat="43.23512" lon="5.92524">
        <ele>602.37109375</ele>
        <time>2020-06-21T09:07:01Z</time>
      </trkpt>
      <trkpt lat="43.23512" lon="5.9253">
        <ele>602.4921875</ele>
        <time>2020-06-21T09:07:02Z</time>
      </trkpt>
      <trkpt lat="43.23513" lon="5.92544">
        <ele>602.546875</ele>
        <time>2020-06-21T09:07:04Z</time>
      </trkpt>
      <trkpt lat="43.23528" lon="5.92596">
        <ele>603.21875</ele>
        <time>2020-06-21T09:07:14Z</time>
      </trkpt>
      <trkpt lat="43.23534" lon="5.92642">
        <ele>603.09375</ele>
        <time>2020-06-21T09:07:26Z</time>
      </trkpt>
      <trkpt lat="43.23548" lon="5.92694">
        <ele>601.2890625</ele>
        <time>2020-06-21T09:07:38Z</time>
      </trkpt>
      <trkpt lat="43.23564" lon="5.92704">
        <ele>602.5546875</ele>
        <time>2020-06-21T09:07:44Z</time>
      </trkpt>
      <trkpt lat="43.23564" lon="5.92709">
        <ele>602.1875</ele>
        <time>2020-06-21T09:07:45Z</time>
      </trkpt>
      <trkpt lat="43.23564" lon="5.92715">
        <ele>601.41015625</ele>
        <time>2020-06-21T09:07:46Z</time>
      </trkpt>
      <trkpt lat="43.23561" lon="5.92721">
        <ele>600.296875</ele>
        <time>2020-06-21T09:07:47Z</time>
      </trkpt>
      <trkpt lat="43.23556" lon="5.92726">
        <ele>599.1015625</ele>
        <time>2020-06-21T09:07:48Z</time>
      </trkpt>
      <trkpt lat="43.23551" lon="5.92731">
        <ele>597.90234375</ele>
        <time>2020-06-21T09:07:49Z</time>
      </trkpt>
      <trkpt lat="43.23546" lon="5.92736">
        <ele>596.72265625</ele>
        <time>2020-06-21T09:07:50Z</time>
      </trkpt>
      <trkpt lat="43.23541" lon="5.92743">
        <ele>595.56640625</ele>
        <time>2020-06-21T09:07:51Z</time>
      </trkpt>
      <trkpt lat="43.23537" lon="5.9275">
        <ele>594.4609375</ele>
        <time>2020-06-21T09:07:52Z</time>
      </trkpt>
      <trkpt lat="43.23532" lon="5.92758">
        <ele>593.1953125</ele>
        <time>2020-06-21T09:07:53Z</time>
      </trkpt>
      <trkpt lat="43.23528" lon="5.92765">
        <ele>593.015625</ele>
        <time>2020-06-21T09:07:54Z</time>
      </trkpt>
      <trkpt lat="43.23508" lon="5.92814">
        <ele>594.23828125</ele>
        <time>2020-06-21T09:08:04Z</time>
      </trkpt>
      <trkpt lat="43.23505" lon="5.92818">
        <ele>594.5</ele>
        <time>2020-06-21T09:08:06Z</time>
      </trkpt>
      <trkpt lat="43.23486" lon="5.92853">
        <ele>596.70703125</ele>
        <time>2020-06-21T09:08:19Z</time>
      </trkpt>
      <trkpt lat="43.23465" lon="5.92875">
        <ele>599.3828125</ele>
        <time>2020-06-21T09:08:26Z</time>
      </trkpt>
      <trkpt lat="43.23462" lon="5.9288">
        <ele>599.71875</ele>
        <time>2020-06-21T09:08:27Z</time>
      </trkpt>
      <trkpt lat="43.23461" lon="5.92885">
        <ele>599.9765625</ele>
        <time>2020-06-21T09:08:28Z</time>
      </trkpt>
      <trkpt lat="43.23462" lon="5.9289">
        <ele>600.32421875</ele>
        <time>2020-06-21T09:08:29Z</time>
      </trkpt>
      <trkpt lat="43.23463" lon="5.92895">
        <ele>600.9609375</ele>
        <time>2020-06-21T09:08:30Z</time>
      </trkpt>
      <trkpt lat="43.23464" lon="5.929">
        <ele>601.47265625</ele>
        <time>2020-06-21T09:08:31Z</time>
      </trkpt>
      <trkpt lat="43.23466" lon="5.92904">
        <ele>601.890625</ele>
        <time>2020-06-21T09:08:32Z</time>
      </trkpt>
      <trkpt lat="43.2349" lon="5.92947">
        <ele>607.60546875</ele>
        <time>2020-06-21T09:08:46Z</time>
      </trkpt>
      <trkpt lat="43.23489" lon="5.92941">
        <ele>606.56640625</ele>
        <time>2020-06-21T09:08:51Z</time>
      </trkpt>
      <trkpt lat="43.23487" lon="5.92939">
        <ele>606.23828125</ele>
        <time>2020-06-21T09:08:52Z</time>
      </trkpt>
      <trkpt lat="43.23486" lon="5.92936">
        <ele>605.8515625</ele>
        <time>2020-06-21T09:08:53Z</time>
      </trkpt>
      <trkpt lat="43.23479" lon="5.92925">
        <ele>604.40234375</ele>
        <time>2020-06-21T09:08:56Z</time>
      </trkpt>
      <trkpt lat="43.23476" lon="5.9292">
        <ele>603.640625</ele>
        <time>2020-06-21T09:08:57Z</time>
      </trkpt>
      <trkpt lat="43.2347" lon="5.92903">
        <ele>601.515625</ele>
        <time>2020-06-21T09:09:00Z</time>
      </trkpt>
      <trkpt lat="43.23467" lon="5.92899">
        <ele>601.140625</ele>
        <time>2020-06-21T09:09:01Z</time>
      </trkpt>
      <trkpt lat="43.23464" lon="5.92896">
        <ele>601.02734375</ele>
        <time>2020-06-21T09:09:02Z</time>
      </trkpt>
      <trkpt lat="43.23461" lon="5.92895">
        <ele>601.0546875</ele>
        <time>2020-06-21T09:09:03Z</time>
      </trkpt>
      <trkpt lat="43.23458" lon="5.92894">
        <ele>601.1484375</ele>
        <time>2020-06-21T09:09:04Z</time>
      </trkpt>
      <trkpt lat="43.23456" lon="5.92895">
        <ele>601.359375</ele>
        <time>2020-06-21T09:09:05Z</time>
      </trkpt>
      <trkpt lat="43.23453" lon="5.92895">
        <ele>601.6484375</ele>
        <time>2020-06-21T09:09:06Z</time>
      </trkpt>
      <trkpt lat="43.23451" lon="5.92897">
        <ele>602.0234375</ele>
        <time>2020-06-21T09:09:07Z</time>
      </trkpt>
      <trkpt lat="43.23449" lon="5.92899">
        <ele>602.5234375</ele>
        <time>2020-06-21T09:09:08Z</time>
      </trkpt>
      <trkpt lat="43.23448" lon="5.92902">
        <ele>602.9921875</ele>
        <time>2020-06-21T09:09:09Z</time>
      </trkpt>
      <trkpt lat="43.23447" lon="5.92905">
        <ele>603.42578125</ele>
        <time>2020-06-21T09:09:10Z</time>
      </trkpt>
      <trkpt lat="43.23437" lon="5.9292">
        <ele>605.98046875</ele>
        <time>2020-06-21T09:09:16Z</time>
      </trkpt>
      <trkpt lat="43.23435" lon="5.9292">
        <ele>606.12109375</ele>
        <time>2020-06-21T09:09:17Z</time>
      </trkpt>
      <trkpt lat="43.23433" lon="5.92921">
        <ele>606.2265625</ele>
        <time>2020-06-21T09:09:18Z</time>
      </trkpt>
      <trkpt lat="43.234" lon="5.92929">
        <ele>608.52734375</ele>
        <time>2020-06-21T09:09:30Z</time>
      </trkpt>
      <trkpt lat="43.23374" lon="5.92938">
        <ele>608.6875</ele>
        <time>2020-06-21T09:09:40Z</time>
      </trkpt>
      <trkpt lat="43.23365" lon="5.92965">
        <ele>611.97265625</ele>
        <time>2020-06-21T09:09:52Z</time>
      </trkpt>
      <trkpt lat="43.23363" lon="5.92968">
        <ele>612.18359375</ele>
        <time>2020-06-21T09:09:53Z</time>
      </trkpt>
      <trkpt lat="43.23338" lon="5.92987">
        <ele>612.6875</ele>
        <time>2020-06-21T09:10:03Z</time>
      </trkpt>
      <trkpt lat="43.23325" lon="5.92997">
        <ele>613.18359375</ele>
        <time>2020-06-21T09:10:08Z</time>
      </trkpt>
      <trkpt lat="43.23319" lon="5.93004">
        <ele>613.81640625</ele>
        <time>2020-06-21T09:10:12Z</time>
      </trkpt>
      <trkpt lat="43.23317" lon="5.93005">
        <ele>613.82421875</ele>
        <time>2020-06-21T09:10:13Z</time>
      </trkpt>
      <trkpt lat="43.23315" lon="5.93005">
        <ele>613.765625</ele>
        <time>2020-06-21T09:10:14Z</time>
      </trkpt>
      <trkpt lat="43.23312" lon="5.93005">
        <ele>613.62890625</ele>
        <time>2020-06-21T09:10:15Z</time>
      </trkpt>
      <trkpt lat="43.2331" lon="5.93005">
        <ele>613.51953125</ele>
        <time>2020-06-21T09:10:16Z</time>
      </trkpt>
      <trkpt lat="43.23307" lon="5.93005">
        <ele>613.49609375</ele>
        <time>2020-06-21T09:10:17Z</time>
      </trkpt>
      <trkpt lat="43.23305" lon="5.93006">
        <ele>613.48828125</ele>
        <time>2020-06-21T09:10:18Z</time>
      </trkpt>
      <trkpt lat="43.23301" lon="5.93009">
        <ele>613.6171875</ele>
        <time>2020-06-21T09:10:20Z</time>
      </trkpt>
      <trkpt lat="43.233" lon="5.93011">
        <ele>613.8359375</ele>
        <time>2020-06-21T09:10:21Z</time>
      </trkpt>
      <trkpt lat="43.23299" lon="5.93014">
        <ele>614.13671875</ele>
        <time>2020-06-21T09:10:22Z</time>
      </trkpt>
      <trkpt lat="43.23298" lon="5.93017">
        <ele>614.40234375</ele>
        <time>2020-06-21T09:10:23Z</time>
      </trkpt>
      <trkpt lat="43.23297" lon="5.9302">
        <ele>614.69140625</ele>
        <time>2020-06-21T09:10:24Z</time>
      </trkpt>
      <trkpt lat="43.23296" lon="5.93023">
        <ele>615.0078125</ele>
        <time>2020-06-21T09:10:25Z</time>
      </trkpt>
      <trkpt lat="43.23296" lon="5.93026">
        <ele>615.33203125</ele>
        <time>2020-06-21T09:10:26Z</time>
      </trkpt>
      <trkpt lat="43.23295" lon="5.93029">
        <ele>615.65625</ele>
        <time>2020-06-21T09:10:27Z</time>
      </trkpt>
      <trkpt lat="43.23294" lon="5.93032">
        <ele>615.9140625</ele>
        <time>2020-06-21T09:10:28Z</time>
      </trkpt>
      <trkpt lat="43.23292" lon="5.93033">
        <ele>616.03515625</ele>
        <time>2020-06-21T09:10:29Z</time>
      </trkpt>
      <trkpt lat="43.2329" lon="5.93034">
        <ele>616.05859375</ele>
        <time>2020-06-21T09:10:30Z</time>
      </trkpt>
      <trkpt lat="43.23288" lon="5.93035">
        <ele>616.09375</ele>
        <time>2020-06-21T09:10:31Z</time>
      </trkpt>
      <trkpt lat="43.23286" lon="5.93036">
        <ele>616.1015625</ele>
        <time>2020-06-21T09:10:32Z</time>
      </trkpt>
      <trkpt lat="43.23284" lon="5.93037">
        <ele>616.11328125</ele>
        <time>2020-06-21T09:10:33Z</time>
      </trkpt>
      <trkpt lat="43.23275" lon="5.93039">
        <ele>615.875</ele>
        <time>2020-06-21T09:10:37Z</time>
      </trkpt>
      <trkpt lat="43.23273" lon="5.93039">
        <ele>615.734375</ele>
        <time>2020-06-21T09:10:38Z</time>
      </trkpt>
      <trkpt lat="43.23272" lon="5.93039">
        <ele>615.65625</ele>
        <time>2020-06-21T09:10:39Z</time>
      </trkpt>
      <trkpt lat="43.2327" lon="5.93039">
        <ele>615.6328125</ele>
        <time>2020-06-21T09:10:40Z</time>
      </trkpt>
      <trkpt lat="43.23269" lon="5.9304">
        <ele>615.58984375</ele>
        <time>2020-06-21T09:10:41Z</time>
      </trkpt>
      <trkpt lat="43.23267" lon="5.93041">
        <ele>615.6328125</ele>
        <time>2020-06-21T09:10:44Z</time>
      </trkpt>
      <trkpt lat="43.23266" lon="5.93042">
        <ele>615.65234375</ele>
        <time>2020-06-21T09:10:45Z</time>
      </trkpt>
      <trkpt lat="43.23265" lon="5.93043">
        <ele>615.69140625</ele>
        <time>2020-06-21T09:10:46Z</time>
      </trkpt>
      <trkpt lat="43.23263" lon="5.93045">
        <ele>615.734375</ele>
        <time>2020-06-21T09:10:47Z</time>
      </trkpt>
      <trkpt lat="43.23261" lon="5.93047">
        <ele>615.77734375</ele>
        <time>2020-06-21T09:10:48Z</time>
      </trkpt>
      <trkpt lat="43.23259" lon="5.93049">
        <ele>615.8515625</ele>
        <time>2020-06-21T09:10:49Z</time>
      </trkpt>
      <trkpt lat="43.23257" lon="5.93051">
        <ele>615.86328125</ele>
        <time>2020-06-21T09:10:50Z</time>
      </trkpt>
      <trkpt lat="43.23255" lon="5.93053">
        <ele>615.8359375</ele>
        <time>2020-06-21T09:10:51Z</time>
      </trkpt>
      <trkpt lat="43.23224" lon="5.93082">
        <ele>615.7578125</ele>
        <time>2020-06-21T09:11:03Z</time>
      </trkpt>
      <trkpt lat="43.23212" lon="5.93134">
        <ele>616.81640625</ele>
        <time>2020-06-21T09:11:14Z</time>
      </trkpt>
      <trkpt lat="43.23193" lon="5.93165">
        <ele>616.96875</ele>
        <time>2020-06-21T09:11:24Z</time>
      </trkpt>
      <trkpt lat="43.23191" lon="5.93168">
        <ele>617.02734375</ele>
        <time>2020-06-21T09:11:25Z</time>
      </trkpt>
      <trkpt lat="43.23189" lon="5.93169">
        <ele>617.06640625</ele>
        <time>2020-06-21T09:11:26Z</time>
      </trkpt>
      <trkpt lat="43.23187" lon="5.93171">
        <ele>617.1015625</ele>
        <time>2020-06-21T09:11:27Z</time>
      </trkpt>
      <trkpt lat="43.23183" lon="5.93178">
        <ele>617.18359375</ele>
        <time>2020-06-21T09:11:34Z</time>
      </trkpt>
      <trkpt lat="43.23156" lon="5.93209">
        <ele>617.234375</ele>
        <time>2020-06-21T09:11:45Z</time>
      </trkpt>
      <trkpt lat="43.23154" lon="5.93214">
        <ele>617.25390625</ele>
        <time>2020-06-21T09:11:46Z</time>
      </trkpt>
      <trkpt lat="43.23152" lon="5.9322">
        <ele>617.265625</ele>
        <time>2020-06-21T09:11:47Z</time>
      </trkpt>
      <trkpt lat="43.2315" lon="5.93226">
        <ele>617.12109375</ele>
        <time>2020-06-21T09:11:48Z</time>
      </trkpt>
      <trkpt lat="43.23149" lon="5.93232">
        <ele>616.875</ele>
        <time>2020-06-21T09:11:49Z</time>
      </trkpt>
      <trkpt lat="43.23146" lon="5.93237">
        <ele>616.58203125</ele>
        <time>2020-06-21T09:11:50Z</time>
      </trkpt>
      <trkpt lat="43.23143" lon="5.93241">
        <ele>616.32421875</ele>
        <time>2020-06-21T09:11:51Z</time>
      </trkpt>
      <trkpt lat="43.23139" lon="5.93244">
        <ele>616.20703125</ele>
        <time>2020-06-21T09:11:52Z</time>
      </trkpt>
      <trkpt lat="43.23124" lon="5.93275">
        <ele>615.34765625</ele>
        <time>2020-06-21T09:11:59Z</time>
      </trkpt>
      <trkpt lat="43.23123" lon="5.93281">
        <ele>615.12890625</ele>
        <time>2020-06-21T09:12:00Z</time>
      </trkpt>
      <trkpt lat="43.23122" lon="5.93287">
        <ele>614.87109375</ele>
        <time>2020-06-21T09:12:01Z</time>
      </trkpt>
      <trkpt lat="43.2312" lon="5.93293">
        <ele>614.59375</ele>
        <time>2020-06-21T09:12:02Z</time>
      </trkpt>
      <trkpt lat="43.23117" lon="5.93298">
        <ele>614.3046875</ele>
        <time>2020-06-21T09:12:03Z</time>
      </trkpt>
      <trkpt lat="43.23114" lon="5.93303">
        <ele>614.125</ele>
        <time>2020-06-21T09:12:04Z</time>
      </trkpt>
      <trkpt lat="43.23112" lon="5.93308">
        <ele>614.13671875</ele>
        <time>2020-06-21T09:12:05Z</time>
      </trkpt>
      <trkpt lat="43.2311" lon="5.93314">
        <ele>614.20703125</ele>
        <time>2020-06-21T09:12:06Z</time>
      </trkpt>
      <trkpt lat="43.23108" lon="5.9332">
        <ele>614.2734375</ele>
        <time>2020-06-21T09:12:07Z</time>
      </trkpt>
      <trkpt lat="43.23107" lon="5.93326">
        <ele>614.33203125</ele>
        <time>2020-06-21T09:12:08Z</time>
      </trkpt>
      <trkpt lat="43.23106" lon="5.93333">
        <ele>614.375</ele>
        <time>2020-06-21T09:12:09Z</time>
      </trkpt>
      <trkpt lat="43.23105" lon="5.9334">
        <ele>614.55859375</ele>
        <time>2020-06-21T09:12:10Z</time>
      </trkpt>
      <trkpt lat="43.23104" lon="5.93346">
        <ele>614.70703125</ele>
        <time>2020-06-21T09:12:11Z</time>
      </trkpt>
      <trkpt lat="43.23104" lon="5.93352">
        <ele>614.81640625</ele>
        <time>2020-06-21T09:12:12Z</time>
      </trkpt>
      <trkpt lat="43.23105" lon="5.93357">
        <ele>614.91015625</ele>
        <time>2020-06-21T09:12:13Z</time>
      </trkpt>
      <trkpt lat="43.23106" lon="5.93361">
        <ele>615</ele>
        <time>2020-06-21T09:12:14Z</time>
      </trkpt>
      <trkpt lat="43.23113" lon="5.93414">
        <ele>615.90625</ele>
        <time>2020-06-21T09:12:24Z</time>
      </trkpt>
      <trkpt lat="43.23114" lon="5.93429">
        <ele>616</ele>
        <time>2020-06-21T09:12:33Z</time>
      </trkpt>
      <trkpt lat="43.23114" lon="5.93445">
        <ele>616.01953125</ele>
        <time>2020-06-21T09:12:47Z</time>
      </trkpt>
      <trkpt lat="43.23113" lon="5.93452">
        <ele>616.28125</ele>
        <time>2020-06-21T09:13:00Z</time>
      </trkpt>
      <trkpt lat="43.23115" lon="5.93462">
        <ele>616.64453125</ele>
        <time>2020-06-21T09:13:14Z</time>
      </trkpt>
      <trkpt lat="43.23113" lon="5.93476">
        <ele>617</ele>
        <time>2020-06-21T09:13:25Z</time>
      </trkpt>
      <trkpt lat="43.2311" lon="5.93483">
        <ele>617</ele>
        <time>2020-06-21T09:13:29Z</time>
      </trkpt>
      <trkpt lat="43.23105" lon="5.93491">
        <ele>617</ele>
        <time>2020-06-21T09:13:33Z</time>
      </trkpt>
      <trkpt lat="43.23086" lon="5.93527">
        <ele>617</ele>
        <time>2020-06-21T09:13:46Z</time>
      </trkpt>
      <trkpt lat="43.23074" lon="5.9356">
        <ele>616.421875</ele>
        <time>2020-06-21T09:13:57Z</time>
      </trkpt>
      <trkpt lat="43.23066" lon="5.93576">
        <ele>616.19921875</ele>
        <time>2020-06-21T09:14:07Z</time>
      </trkpt>
      <trkpt lat="43.23064" lon="5.93591">
        <ele>616</ele>
        <time>2020-06-21T09:14:18Z</time>
      </trkpt>
      <trkpt lat="43.23066" lon="5.93638">
        <ele>615.21875</ele>
        <time>2020-06-21T09:14:29Z</time>
      </trkpt>
      <trkpt lat="43.2307" lon="5.93665">
        <ele>615.359375</ele>
        <time>2020-06-21T09:14:34Z</time>
      </trkpt>
      <trkpt lat="43.2307" lon="5.93671">
        <ele>615.35546875</ele>
        <time>2020-06-21T09:14:35Z</time>
      </trkpt>
      <trkpt lat="43.2307" lon="5.93677">
        <ele>615.33203125</ele>
        <time>2020-06-21T09:14:36Z</time>
      </trkpt>
      <trkpt lat="43.23068" lon="5.93683">
        <ele>615.28515625</ele>
        <time>2020-06-21T09:14:37Z</time>
      </trkpt>
      <trkpt lat="43.23067" lon="5.93689">
        <ele>615.2421875</ele>
        <time>2020-06-21T09:14:38Z</time>
      </trkpt>
      <trkpt lat="43.23066" lon="5.93696">
        <ele>615.21484375</ele>
        <time>2020-06-21T09:14:39Z</time>
      </trkpt>
      <trkpt lat="43.23065" lon="5.93702">
        <ele>615.1796875</ele>
        <time>2020-06-21T09:14:40Z</time>
      </trkpt>
      <trkpt lat="43.23064" lon="5.93708">
        <ele>615.1171875</ele>
        <time>2020-06-21T09:14:41Z</time>
      </trkpt>
      <trkpt lat="43.23061" lon="5.93714">
        <ele>615.02734375</ele>
        <time>2020-06-21T09:14:42Z</time>
      </trkpt>
      <trkpt lat="43.23059" lon="5.9372">
        <ele>615.00390625</ele>
        <time>2020-06-21T09:14:43Z</time>
      </trkpt>
      <trkpt lat="43.23057" lon="5.93726">
        <ele>615</ele>
        <time>2020-06-21T09:14:44Z</time>
      </trkpt>
      <trkpt lat="43.23055" lon="5.93733">
        <ele>615</ele>
        <time>2020-06-21T09:14:45Z</time>
      </trkpt>
      <trkpt lat="43.23054" lon="5.9374">
        <ele>615</ele>
        <time>2020-06-21T09:14:46Z</time>
      </trkpt>
      <trkpt lat="43.23053" lon="5.93748">
        <ele>615</ele>
        <time>2020-06-21T09:14:47Z</time>
      </trkpt>
      <trkpt lat="43.2305" lon="5.93762">
        <ele>614.52734375</ele>
        <time>2020-06-21T09:14:49Z</time>
      </trkpt>
      <trkpt lat="43.23048" lon="5.9377">
        <ele>614.26953125</ele>
        <time>2020-06-21T09:14:50Z</time>
      </trkpt>
      <trkpt lat="43.23039" lon="5.93805">
        <ele>613.21875</ele>
        <time>2020-06-21T09:14:55Z</time>
      </trkpt>
      <trkpt lat="43.23037" lon="5.93831">
        <ele>612.20703125</ele>
        <time>2020-06-21T09:14:59Z</time>
      </trkpt>
      <trkpt lat="43.23038" lon="5.93838">
        <ele>612.1875</ele>
        <time>2020-06-21T09:15:00Z</time>
      </trkpt>
      <trkpt lat="43.2304" lon="5.93844">
        <ele>612.25</ele>
        <time>2020-06-21T09:15:01Z</time>
      </trkpt>
      <trkpt lat="43.23043" lon="5.93857">
        <ele>612.36328125</ele>
        <time>2020-06-21T09:15:03Z</time>
      </trkpt>
      <trkpt lat="43.23047" lon="5.93899">
        <ele>612.70703125</ele>
        <time>2020-06-21T09:15:09Z</time>
      </trkpt>
      <trkpt lat="43.23046" lon="5.93943">
        <ele>612.94921875</ele>
        <time>2020-06-21T09:15:17Z</time>
      </trkpt>
      <trkpt lat="43.23044" lon="5.93946">
        <ele>612.8125</ele>
        <time>2020-06-21T09:15:18Z</time>
      </trkpt>
      <trkpt lat="43.23041" lon="5.93949">
        <ele>612.6484375</ele>
        <time>2020-06-21T09:15:19Z</time>
      </trkpt>
      <trkpt lat="43.23038" lon="5.93952">
        <ele>612.46484375</ele>
        <time>2020-06-21T09:15:20Z</time>
      </trkpt>
      <trkpt lat="43.23036" lon="5.93955">
        <ele>612.31640625</ele>
        <time>2020-06-21T09:15:21Z</time>
      </trkpt>
      <trkpt lat="43.23035" lon="5.93959">
        <ele>612.1796875</ele>
        <time>2020-06-21T09:15:22Z</time>
      </trkpt>
      <trkpt lat="43.23033" lon="5.93964">
        <ele>612.0625</ele>
        <time>2020-06-21T09:15:23Z</time>
      </trkpt>
      <trkpt lat="43.23032" lon="5.93969">
        <ele>611.90234375</ele>
        <time>2020-06-21T09:15:24Z</time>
      </trkpt>
      <trkpt lat="43.23029" lon="5.93973">
        <ele>611.71875</ele>
        <time>2020-06-21T09:15:25Z</time>
      </trkpt>
      <trkpt lat="43.23027" lon="5.93977">
        <ele>611.5703125</ele>
        <time>2020-06-21T09:15:26Z</time>
      </trkpt>
      <trkpt lat="43.23021" lon="5.9401">
        <ele>612.12890625</ele>
        <time>2020-06-21T09:15:34Z</time>
      </trkpt>
      <trkpt lat="43.23019" lon="5.9402">
        <ele>612.26953125</ele>
        <time>2020-06-21T09:15:38Z</time>
      </trkpt>
      <trkpt lat="43.23019" lon="5.94022">
        <ele>612.39453125</ele>
        <time>2020-06-21T09:15:39Z</time>
      </trkpt>
      <trkpt lat="43.2302" lon="5.94024">
        <ele>612.51171875</ele>
        <time>2020-06-21T09:15:40Z</time>
      </trkpt>
      <trkpt lat="43.2302" lon="5.94025">
        <ele>612.58203125</ele>
        <time>2020-06-21T09:15:41Z</time>
      </trkpt>
      <trkpt lat="43.23018" lon="5.94055">
        <ele>613.3671875</ele>
        <time>2020-06-21T09:15:51Z</time>
      </trkpt>
      <trkpt lat="43.23014" lon="5.94059">
        <ele>613.27734375</ele>
        <time>2020-06-21T09:16:01Z</time>
      </trkpt>
      <trkpt lat="43.2301" lon="5.94062">
        <ele>613.1171875</ele>
        <time>2020-06-21T09:16:07Z</time>
      </trkpt>
      <trkpt lat="43.2301" lon="5.94063">
        <ele>613.125</ele>
        <time>2020-06-21T09:16:08Z</time>
      </trkpt>
      <trkpt lat="43.23008" lon="5.94076">
        <ele>613.828125</ele>
        <time>2020-06-21T09:16:14Z</time>
      </trkpt>
      <trkpt lat="43.22999" lon="5.941">
        <ele>615.0234375</ele>
        <time>2020-06-21T09:16:23Z</time>
      </trkpt>
      <trkpt lat="43.22993" lon="5.9412">
        <ele>616.13671875</ele>
        <time>2020-06-21T09:16:30Z</time>
      </trkpt>
      <trkpt lat="43.22991" lon="5.94122">
        <ele>616.1328125</ele>
        <time>2020-06-21T09:16:31Z</time>
      </trkpt>
      <trkpt lat="43.2299" lon="5.94124">
        <ele>616.1484375</ele>
        <time>2020-06-21T09:16:32Z</time>
      </trkpt>
      <trkpt lat="43.22988" lon="5.94131">
        <ele>616.50390625</ele>
        <time>2020-06-21T09:16:36Z</time>
      </trkpt>
      <trkpt lat="43.22981" lon="5.94157">
        <ele>617.79296875</ele>
        <time>2020-06-21T09:16:47Z</time>
      </trkpt>
      <trkpt lat="43.22962" lon="5.94178">
        <ele>618.0625</ele>
        <time>2020-06-21T09:16:58Z</time>
      </trkpt>
      <trkpt lat="43.22934" lon="5.94201">
        <ele>617.82421875</ele>
        <time>2020-06-21T09:17:12Z</time>
      </trkpt>
      <trkpt lat="43.22913" lon="5.94229">
        <ele>617.87890625</ele>
        <time>2020-06-21T09:17:24Z</time>
      </trkpt>
      <trkpt lat="43.22893" lon="5.94273">
        <ele>617.80078125</ele>
        <time>2020-06-21T09:17:36Z</time>
      </trkpt>
      <trkpt lat="43.22883" lon="5.94294">
        <ele>617.828125</ele>
        <time>2020-06-21T09:17:43Z</time>
      </trkpt>
      <trkpt lat="43.22871" lon="5.94327">
        <ele>617.359375</ele>
        <time>2020-06-21T09:17:53Z</time>
      </trkpt>
      <trkpt lat="43.2287" lon="5.9433">
        <ele>617.2734375</ele>
        <time>2020-06-21T09:17:54Z</time>
      </trkpt>
      <trkpt lat="43.22869" lon="5.94332">
        <ele>617.17578125</ele>
        <time>2020-06-21T09:17:55Z</time>
      </trkpt>
      <trkpt lat="43.22867" lon="5.94334">
        <ele>617.125</ele>
        <time>2020-06-21T09:17:56Z</time>
      </trkpt>
      <trkpt lat="43.22863" lon="5.9434">
        <ele>617.03515625</ele>
        <time>2020-06-21T09:18:06Z</time>
      </trkpt>
      <trkpt lat="43.22862" lon="5.9434">
        <ele>616.98828125</ele>
        <time>2020-06-21T09:18:31Z</time>
      </trkpt>
      <trkpt lat="43.2286" lon="5.9434">
        <ele>616.82421875</ele>
        <time>2020-06-21T09:18:49Z</time>
      </trkpt>
      <trkpt lat="43.2286" lon="5.9434">
        <ele>616.80859375</ele>
        <time>2020-06-21T09:19:01Z</time>
      </trkpt>
      <trkpt lat="43.2286" lon="5.9434">
        <ele>616.84765625</ele>
        <time>2020-06-21T09:19:33Z</time>
      </trkpt>
      <trkpt lat="43.2286" lon="5.94342">
        <ele>616.90625</ele>
        <time>2020-06-21T09:19:36Z</time>
      </trkpt>
      <trkpt lat="43.22859" lon="5.94344">
        <ele>616.92578125</ele>
        <time>2020-06-21T09:19:37Z</time>
      </trkpt>
      <trkpt lat="43.22858" lon="5.94346">
        <ele>616.921875</ele>
        <time>2020-06-21T09:19:38Z</time>
      </trkpt>
      <trkpt lat="43.22857" lon="5.94349">
        <ele>616.953125</ele>
        <time>2020-06-21T09:19:39Z</time>
      </trkpt>
      <trkpt lat="43.22856" lon="5.94353">
        <ele>617.00390625</ele>
        <time>2020-06-21T09:19:40Z</time>
      </trkpt>
      <trkpt lat="43.22855" lon="5.94356">
        <ele>617.01171875</ele>
        <time>2020-06-21T09:19:41Z</time>
      </trkpt>
      <trkpt lat="43.22853" lon="5.94358">
        <ele>616.98046875</ele>
        <time>2020-06-21T09:19:42Z</time>
      </trkpt>
      <trkpt lat="43.22851" lon="5.9436">
        <ele>616.90234375</ele>
        <time>2020-06-21T09:19:43Z</time>
      </trkpt>
      <trkpt lat="43.22849" lon="5.94362">
        <ele>616.75390625</ele>
        <time>2020-06-21T09:19:44Z</time>
      </trkpt>
      <trkpt lat="43.22817" lon="5.94388">
        <ele>615.2421875</ele>
        <time>2020-06-21T09:19:54Z</time>
      </trkpt>
      <trkpt lat="43.22798" lon="5.94406">
        <ele>614.1875</ele>
        <time>2020-06-21T09:20:02Z</time>
      </trkpt>
      <trkpt lat="43.22793" lon="5.94412">
        <ele>614.0390625</ele>
        <time>2020-06-21T09:20:04Z</time>
      </trkpt>
      <trkpt lat="43.22791" lon="5.94416">
        <ele>613.984375</ele>
        <time>2020-06-21T09:20:05Z</time>
      </trkpt>
      <trkpt lat="43.2279" lon="5.94419">
        <ele>613.83984375</ele>
        <time>2020-06-21T09:20:06Z</time>
      </trkpt>
      <trkpt lat="43.22789" lon="5.94422">
        <ele>613.72265625</ele>
        <time>2020-06-21T09:20:07Z</time>
      </trkpt>
      <trkpt lat="43.22788" lon="5.94424">
        <ele>613.640625</ele>
        <time>2020-06-21T09:20:08Z</time>
      </trkpt>
      <trkpt lat="43.22786" lon="5.94426">
        <ele>613.58984375</ele>
        <time>2020-06-21T09:20:09Z</time>
      </trkpt>
      <trkpt lat="43.22751" lon="5.94433">
        <ele>614.46484375</ele>
        <time>2020-06-21T09:20:21Z</time>
      </trkpt>
      <trkpt lat="43.2272" lon="5.94442">
        <ele>615.25390625</ele>
        <time>2020-06-21T09:20:33Z</time>
      </trkpt>
      <trkpt lat="43.22709" lon="5.94444">
        <ele>615.6171875</ele>
        <time>2020-06-21T09:20:43Z</time>
      </trkpt>
      <trkpt lat="43.22683" lon="5.94457">
        <ele>615.8046875</ele>
        <time>2020-06-21T09:20:54Z</time>
      </trkpt>
      <trkpt lat="43.22659" lon="5.94468">
        <ele>616.5</ele>
        <time>2020-06-21T09:21:02Z</time>
      </trkpt>
      <trkpt lat="43.22649" lon="5.94489">
        <ele>616.15234375</ele>
        <time>2020-06-21T09:21:09Z</time>
      </trkpt>
      <trkpt lat="43.22658" lon="5.9452">
        <ele>613.9765625</ele>
        <time>2020-06-21T09:21:20Z</time>
      </trkpt>
      <trkpt lat="43.22661" lon="5.94547">
        <ele>612.19140625</ele>
        <time>2020-06-21T09:21:29Z</time>
      </trkpt>
      <trkpt lat="43.2266" lon="5.94549">
        <ele>612.13671875</ele>
        <time>2020-06-21T09:21:30Z</time>
      </trkpt>
      <trkpt lat="43.22658" lon="5.94552">
        <ele>612.09375</ele>
        <time>2020-06-21T09:21:31Z</time>
      </trkpt>
      <trkpt lat="43.22656" lon="5.94556">
        <ele>612.05078125</ele>
        <time>2020-06-21T09:21:32Z</time>
      </trkpt>
      <trkpt lat="43.22649" lon="5.94568">
        <ele>612.1484375</ele>
        <time>2020-06-21T09:21:35Z</time>
      </trkpt>
      <trkpt lat="43.22645" lon="5.94571">
        <ele>612.3515625</ele>
        <time>2020-06-21T09:21:36Z</time>
      </trkpt>
      <trkpt lat="43.22641" lon="5.94573">
        <ele>612.4453125</ele>
        <time>2020-06-21T09:21:37Z</time>
      </trkpt>
      <trkpt lat="43.22638" lon="5.94575">
        <ele>612.48828125</ele>
        <time>2020-06-21T09:21:38Z</time>
      </trkpt>
      <trkpt lat="43.22635" lon="5.94577">
        <ele>612.53125</ele>
        <time>2020-06-21T09:21:39Z</time>
      </trkpt>
      <trkpt lat="43.22631" lon="5.94579">
        <ele>612.6015625</ele>
        <time>2020-06-21T09:21:40Z</time>
      </trkpt>
      <trkpt lat="43.22613" lon="5.94591">
        <ele>612.8203125</ele>
        <time>2020-06-21T09:21:45Z</time>
      </trkpt>
      <trkpt lat="43.22609" lon="5.94592">
        <ele>612.890625</ele>
        <time>2020-06-21T09:21:46Z</time>
      </trkpt>
      <trkpt lat="43.22606" lon="5.94596">
        <ele>612.890625</ele>
        <time>2020-06-21T09:21:47Z</time>
      </trkpt>
      <trkpt lat="43.22604" lon="5.94599">
        <ele>612.83984375</ele>
        <time>2020-06-21T09:21:48Z</time>
      </trkpt>
      <trkpt lat="43.22602" lon="5.94603">
        <ele>612.7734375</ele>
        <time>2020-06-21T09:21:49Z</time>
      </trkpt>
      <trkpt lat="43.22579" lon="5.94627">
        <ele>612.6015625</ele>
        <time>2020-06-21T09:21:57Z</time>
      </trkpt>
      <trkpt lat="43.22576" lon="5.94631">
        <ele>612.58984375</ele>
        <time>2020-06-21T09:21:58Z</time>
      </trkpt>
      <trkpt lat="43.22573" lon="5.94634">
        <ele>612.61328125</ele>
        <time>2020-06-21T09:21:59Z</time>
      </trkpt>
      <trkpt lat="43.2257" lon="5.94639">
        <ele>612.66015625</ele>
        <time>2020-06-21T09:22:00Z</time>
      </trkpt>
      <trkpt lat="43.22567" lon="5.94643">
        <ele>612.7578125</ele>
        <time>2020-06-21T09:22:01Z</time>
      </trkpt>
      <trkpt lat="43.22564" lon="5.94647">
        <ele>612.8671875</ele>
        <time>2020-06-21T09:22:02Z</time>
      </trkpt>
      <trkpt lat="43.22561" lon="5.94651">
        <ele>612.98828125</ele>
        <time>2020-06-21T09:22:03Z</time>
      </trkpt>
      <trkpt lat="43.2255" lon="5.94662">
        <ele>613</ele>
        <time>2020-06-21T09:22:06Z</time>
      </trkpt>
      <trkpt lat="43.22507" lon="5.94712">
        <ele>613</ele>
        <time>2020-06-21T09:22:20Z</time>
      </trkpt>
      <trkpt lat="43.22509" lon="5.94744">
        <ele>613</ele>
        <time>2020-06-21T09:22:31Z</time>
      </trkpt>
      <trkpt lat="43.225" lon="5.94794">
        <ele>612.56640625</ele>
        <time>2020-06-21T09:22:42Z</time>
      </trkpt>
      <trkpt lat="43.2247" lon="5.9482">
        <ele>613.5234375</ele>
        <time>2020-06-21T09:22:52Z</time>
      </trkpt>
      <trkpt lat="43.22433" lon="5.94859">
        <ele>615.59765625</ele>
        <time>2020-06-21T09:23:05Z</time>
      </trkpt>
      <trkpt lat="43.22399" lon="5.94905">
        <ele>615.09375</ele>
        <time>2020-06-21T09:23:20Z</time>
      </trkpt>
      <trkpt lat="43.22373" lon="5.94941">
        <ele>614.6875</ele>
        <time>2020-06-21T09:23:30Z</time>
      </trkpt>
      <trkpt lat="43.22361" lon="5.94948">
        <ele>615.05078125</ele>
        <time>2020-06-21T09:23:33Z</time>
      </trkpt>
      <trkpt lat="43.22358" lon="5.94951">
        <ele>615.03125</ele>
        <time>2020-06-21T09:23:34Z</time>
      </trkpt>
      <trkpt lat="43.22342" lon="5.94979">
        <ele>613.90234375</ele>
        <time>2020-06-21T09:23:40Z</time>
      </trkpt>
      <trkpt lat="43.22339" lon="5.94983">
        <ele>613.62890625</ele>
        <time>2020-06-21T09:23:41Z</time>
      </trkpt>
      <trkpt lat="43.22336" lon="5.94987">
        <ele>613.40234375</ele>
        <time>2020-06-21T09:23:42Z</time>
      </trkpt>
      <trkpt lat="43.22332" lon="5.9499">
        <ele>613.26171875</ele>
        <time>2020-06-21T09:23:43Z</time>
      </trkpt>
      <trkpt lat="43.22329" lon="5.94994">
        <ele>613.1875</ele>
        <time>2020-06-21T09:23:44Z</time>
      </trkpt>
      <trkpt lat="43.22298" lon="5.95021">
        <ele>613.3671875</ele>
        <time>2020-06-21T09:23:52Z</time>
      </trkpt>
      <trkpt lat="43.22283" lon="5.95037">
        <ele>612.796875</ele>
        <time>2020-06-21T09:23:56Z</time>
      </trkpt>
      <trkpt lat="43.22275" lon="5.95044">
        <ele>612.6015625</ele>
        <time>2020-06-21T09:23:58Z</time>
      </trkpt>
      <trkpt lat="43.22271" lon="5.95047">
        <ele>612.6015625</ele>
        <time>2020-06-21T09:23:59Z</time>
      </trkpt>
      <trkpt lat="43.22267" lon="5.9505">
        <ele>612.6640625</ele>
        <time>2020-06-21T09:24:00Z</time>
      </trkpt>
      <trkpt lat="43.22253" lon="5.95056">
        <ele>613.02734375</ele>
        <time>2020-06-21T09:24:03Z</time>
      </trkpt>
      <trkpt lat="43.2225" lon="5.95059">
        <ele>613.06640625</ele>
        <time>2020-06-21T09:24:04Z</time>
      </trkpt>
      <trkpt lat="43.22175" lon="5.951">
        <ele>611.58203125</ele>
        <time>2020-06-21T09:24:18Z</time>
      </trkpt>
      <trkpt lat="43.22148" lon="5.95125">
        <ele>610.1328125</ele>
        <time>2020-06-21T09:24:24Z</time>
      </trkpt>
      <trkpt lat="43.22145" lon="5.9513">
        <ele>609.734375</ele>
        <time>2020-06-21T09:24:25Z</time>
      </trkpt>
      <trkpt lat="43.2214" lon="5.95135">
        <ele>609.375</ele>
        <time>2020-06-21T09:24:26Z</time>
      </trkpt>
      <trkpt lat="43.22136" lon="5.95139">
        <ele>609.12890625</ele>
        <time>2020-06-21T09:24:27Z</time>
      </trkpt>
      <trkpt lat="43.22131" lon="5.95141">
        <ele>608.9765625</ele>
        <time>2020-06-21T09:24:28Z</time>
      </trkpt>
      <trkpt lat="43.22126" lon="5.95144">
        <ele>608.91015625</ele>
        <time>2020-06-21T09:24:29Z</time>
      </trkpt>
      <trkpt lat="43.22088" lon="5.95161">
        <ele>609.30078125</ele>
        <time>2020-06-21T09:24:36Z</time>
      </trkpt>
      <trkpt lat="43.22082" lon="5.95163">
        <ele>609.38671875</ele>
        <time>2020-06-21T09:24:37Z</time>
      </trkpt>
      <trkpt lat="43.22076" lon="5.95164">
        <ele>609.51171875</ele>
        <time>2020-06-21T09:24:38Z</time>
      </trkpt>
      <trkpt lat="43.2207" lon="5.95167">
        <ele>609.58203125</ele>
        <time>2020-06-21T09:24:39Z</time>
      </trkpt>
      <trkpt lat="43.22065" lon="5.9517">
        <ele>609.63671875</ele>
        <time>2020-06-21T09:24:40Z</time>
      </trkpt>
      <trkpt lat="43.2206" lon="5.95174">
        <ele>609.71484375</ele>
        <time>2020-06-21T09:24:41Z</time>
      </trkpt>
      <trkpt lat="43.22056" lon="5.95178">
        <ele>609.92578125</ele>
        <time>2020-06-21T09:24:42Z</time>
      </trkpt>
      <trkpt lat="43.22052" lon="5.95182">
        <ele>610.2265625</ele>
        <time>2020-06-21T09:24:43Z</time>
      </trkpt>
      <trkpt lat="43.22047" lon="5.95185">
        <ele>610.62890625</ele>
        <time>2020-06-21T09:24:44Z</time>
      </trkpt>
      <trkpt lat="43.22043" lon="5.95188">
        <ele>611.03515625</ele>
        <time>2020-06-21T09:24:45Z</time>
      </trkpt>
      <trkpt lat="43.22038" lon="5.95191">
        <ele>611.48046875</ele>
        <time>2020-06-21T09:24:46Z</time>
      </trkpt>
      <trkpt lat="43.22034" lon="5.95193">
        <ele>611.97265625</ele>
        <time>2020-06-21T09:24:47Z</time>
      </trkpt>
      <trkpt lat="43.22014" lon="5.952">
        <ele>612.87890625</ele>
        <time>2020-06-21T09:24:51Z</time>
      </trkpt>
      <trkpt lat="43.21963" lon="5.95204">
        <ele>613.0625</ele>
        <time>2020-06-21T09:24:59Z</time>
      </trkpt>
      <trkpt lat="43.21956" lon="5.95206">
        <ele>612.80078125</ele>
        <time>2020-06-21T09:25:00Z</time>
      </trkpt>
      <trkpt lat="43.21929" lon="5.95219">
        <ele>611.40625</ele>
        <time>2020-06-21T09:25:04Z</time>
      </trkpt>
      <trkpt lat="43.21917" lon="5.95226">
        <ele>610.78515625</ele>
        <time>2020-06-21T09:25:06Z</time>
      </trkpt>
      <trkpt lat="43.21912" lon="5.9523">
        <ele>610.4296875</ele>
        <time>2020-06-21T09:25:07Z</time>
      </trkpt>
      <trkpt lat="43.21907" lon="5.95236">
        <ele>610.17578125</ele>
        <time>2020-06-21T09:25:08Z</time>
      </trkpt>
      <trkpt lat="43.219" lon="5.95249">
        <ele>609.80859375</ele>
        <time>2020-06-21T09:25:10Z</time>
      </trkpt>
      <trkpt lat="43.21888" lon="5.95272">
        <ele>610.0546875</ele>
        <time>2020-06-21T09:25:13Z</time>
      </trkpt>
      <trkpt lat="43.21884" lon="5.95278">
        <ele>609.9140625</ele>
        <time>2020-06-21T09:25:14Z</time>
      </trkpt>
      <trkpt lat="43.21879" lon="5.95284">
        <ele>609.57421875</ele>
        <time>2020-06-21T09:25:15Z</time>
      </trkpt>
      <trkpt lat="43.21873" lon="5.95289">
        <ele>609.125</ele>
        <time>2020-06-21T09:25:16Z</time>
      </trkpt>
      <trkpt lat="43.21867" lon="5.95293">
        <ele>608.62109375</ele>
        <time>2020-06-21T09:25:17Z</time>
      </trkpt>
      <trkpt lat="43.21841" lon="5.95317">
        <ele>607.62109375</ele>
        <time>2020-06-21T09:25:22Z</time>
      </trkpt>
      <trkpt lat="43.21837" lon="5.95322">
        <ele>607.58203125</ele>
        <time>2020-06-21T09:25:23Z</time>
      </trkpt>
      <trkpt lat="43.21834" lon="5.95326">
        <ele>607.61328125</ele>
        <time>2020-06-21T09:25:24Z</time>
      </trkpt>
      <trkpt lat="43.21811" lon="5.95354">
        <ele>607.80859375</ele>
        <time>2020-06-21T09:25:30Z</time>
      </trkpt>
      <trkpt lat="43.21781" lon="5.9538">
        <ele>606.53515625</ele>
        <time>2020-06-21T09:25:36Z</time>
      </trkpt>
      <trkpt lat="43.21748" lon="5.95399">
        <ele>603.97265625</ele>
        <time>2020-06-21T09:25:41Z</time>
      </trkpt>
      <trkpt lat="43.21741" lon="5.95404">
        <ele>603.63671875</ele>
        <time>2020-06-21T09:25:42Z</time>
      </trkpt>
      <trkpt lat="43.21735" lon="5.9541">
        <ele>603.3828125</ele>
        <time>2020-06-21T09:25:43Z</time>
      </trkpt>
      <trkpt lat="43.21687" lon="5.95449">
        <ele>600.203125</ele>
        <time>2020-06-21T09:25:50Z</time>
      </trkpt>
      <trkpt lat="43.2168" lon="5.95454">
        <ele>599.72265625</ele>
        <time>2020-06-21T09:25:51Z</time>
      </trkpt>
      <trkpt lat="43.21673" lon="5.95459">
        <ele>599.296875</ele>
        <time>2020-06-21T09:25:52Z</time>
      </trkpt>
      <trkpt lat="43.21668" lon="5.95465">
        <ele>599.12109375</ele>
        <time>2020-06-21T09:25:53Z</time>
      </trkpt>
      <trkpt lat="43.21663" lon="5.95472">
        <ele>599.15625</ele>
        <time>2020-06-21T09:25:54Z</time>
      </trkpt>
      <trkpt lat="43.21659" lon="5.9548">
        <ele>599.17578125</ele>
        <time>2020-06-21T09:25:55Z</time>
      </trkpt>
      <trkpt lat="43.21654" lon="5.95487">
        <ele>598.91796875</ele>
        <time>2020-06-21T09:25:56Z</time>
      </trkpt>
      <trkpt lat="43.21647" lon="5.95492">
        <ele>598.23828125</ele>
        <time>2020-06-21T09:25:57Z</time>
      </trkpt>
      <trkpt lat="43.21641" lon="5.95496">
        <ele>597.49609375</ele>
        <time>2020-06-21T09:25:58Z</time>
      </trkpt>
      <trkpt lat="43.21633" lon="5.955">
        <ele>596.85546875</ele>
        <time>2020-06-21T09:25:59Z</time>
      </trkpt>
      <trkpt lat="43.21619" lon="5.95509">
        <ele>595.28515625</ele>
        <time>2020-06-21T09:26:01Z</time>
      </trkpt>
      <trkpt lat="43.21613" lon="5.95516">
        <ele>594.54296875</ele>
        <time>2020-06-21T09:26:02Z</time>
      </trkpt>
      <trkpt lat="43.21607" lon="5.95524">
        <ele>593.98046875</ele>
        <time>2020-06-21T09:26:03Z</time>
      </trkpt>
      <trkpt lat="43.21602" lon="5.95532">
        <ele>593.52734375</ele>
        <time>2020-06-21T09:26:04Z</time>
      </trkpt>
      <trkpt lat="43.21597" lon="5.9554">
        <ele>592.97265625</ele>
        <time>2020-06-21T09:26:05Z</time>
      </trkpt>
      <trkpt lat="43.21591" lon="5.95547">
        <ele>592.3125</ele>
        <time>2020-06-21T09:26:06Z</time>
      </trkpt>
      <trkpt lat="43.2157" lon="5.95575">
        <ele>589.30078125</ele>
        <time>2020-06-21T09:26:10Z</time>
      </trkpt>
      <trkpt lat="43.2156" lon="5.9559">
        <ele>587.671875</ele>
        <time>2020-06-21T09:26:12Z</time>
      </trkpt>
      <trkpt lat="43.21555" lon="5.95598">
        <ele>587.28125</ele>
        <time>2020-06-21T09:26:13Z</time>
      </trkpt>
      <trkpt lat="43.21549" lon="5.95604">
        <ele>586.83203125</ele>
        <time>2020-06-21T09:26:14Z</time>
      </trkpt>
      <trkpt lat="43.21544" lon="5.9561">
        <ele>586.33984375</ele>
        <time>2020-06-21T09:26:15Z</time>
      </trkpt>
      <trkpt lat="43.21538" lon="5.95615">
        <ele>585.9375</ele>
        <time>2020-06-21T09:26:16Z</time>
      </trkpt>
      <trkpt lat="43.21531" lon="5.9562">
        <ele>585.70703125</ele>
        <time>2020-06-21T09:26:17Z</time>
      </trkpt>
      <trkpt lat="43.21525" lon="5.95623">
        <ele>585.80859375</ele>
        <time>2020-06-21T09:26:18Z</time>
      </trkpt>
      <trkpt lat="43.21518" lon="5.95626">
        <ele>585.9453125</ele>
        <time>2020-06-21T09:26:19Z</time>
      </trkpt>
      <trkpt lat="43.21489" lon="5.95634">
        <ele>586.171875</ele>
        <time>2020-06-21T09:26:23Z</time>
      </trkpt>
      <trkpt lat="43.21458" lon="5.95641">
        <ele>586.6015625</ele>
        <time>2020-06-21T09:26:27Z</time>
      </trkpt>
      <trkpt lat="43.21451" lon="5.95646">
        <ele>586.66796875</ele>
        <time>2020-06-21T09:26:28Z</time>
      </trkpt>
      <trkpt lat="43.21438" lon="5.95654">
        <ele>585.94140625</ele>
        <time>2020-06-21T09:26:30Z</time>
      </trkpt>
      <trkpt lat="43.21431" lon="5.95656">
        <ele>585.6015625</ele>
        <time>2020-06-21T09:26:31Z</time>
      </trkpt>
      <trkpt lat="43.21416" lon="5.95659">
        <ele>585.0078125</ele>
        <time>2020-06-21T09:26:33Z</time>
      </trkpt>
      <trkpt lat="43.2141" lon="5.95663">
        <ele>584.625</ele>
        <time>2020-06-21T09:26:34Z</time>
      </trkpt>
      <trkpt lat="43.21398" lon="5.95672">
        <ele>584.12109375</ele>
        <time>2020-06-21T09:26:36Z</time>
      </trkpt>
      <trkpt lat="43.21392" lon="5.95675">
        <ele>583.96484375</ele>
        <time>2020-06-21T09:26:37Z</time>
      </trkpt>
      <trkpt lat="43.21387" lon="5.95675">
        <ele>583.88671875</ele>
        <time>2020-06-21T09:26:38Z</time>
      </trkpt>
      <trkpt lat="43.21355" lon="5.95677">
        <ele>583.828125</ele>
        <time>2020-06-21T09:26:48Z</time>
      </trkpt>
      <trkpt lat="43.21318" lon="5.95685">
        <ele>583.796875</ele>
        <time>2020-06-21T09:27:03Z</time>
      </trkpt>
      <trkpt lat="43.21265" lon="5.95698">
        <ele>587.453125</ele>
        <time>2020-06-21T09:27:21Z</time>
      </trkpt>
      <trkpt lat="43.2123" lon="5.95705">
        <ele>590.86328125</ele>
        <time>2020-06-21T09:27:34Z</time>
      </trkpt>
      <trkpt lat="43.21219" lon="5.95706">
        <ele>591.85546875</ele>
        <time>2020-06-21T09:27:39Z</time>
      </trkpt>
      <trkpt lat="43.21181" lon="5.95715">
        <ele>593.92578125</ele>
        <time>2020-06-21T09:27:54Z</time>
      </trkpt>
      <trkpt lat="43.21141" lon="5.95709">
        <ele>597.62890625</ele>
        <time>2020-06-21T09:28:10Z</time>
      </trkpt>
      <trkpt lat="43.21141" lon="5.95705">
        <ele>598.0234375</ele>
        <time>2020-06-21T09:28:11Z</time>
      </trkpt>
      <trkpt lat="43.21143" lon="5.95701">
        <ele>598.28515625</ele>
        <time>2020-06-21T09:28:12Z</time>
      </trkpt>
      <trkpt lat="43.21145" lon="5.95698">
        <ele>598.3984375</ele>
        <time>2020-06-21T09:28:13Z</time>
      </trkpt>
      <trkpt lat="43.21147" lon="5.95696">
        <ele>598.4921875</ele>
        <time>2020-06-21T09:28:14Z</time>
      </trkpt>
      <trkpt lat="43.2115" lon="5.95694">
        <ele>598.5078125</ele>
        <time>2020-06-21T09:28:15Z</time>
      </trkpt>
      <trkpt lat="43.21153" lon="5.95692">
        <ele>598.44921875</ele>
        <time>2020-06-21T09:28:16Z</time>
      </trkpt>
      <trkpt lat="43.21156" lon="5.95691">
        <ele>598.4375</ele>
        <time>2020-06-21T09:28:17Z</time>
      </trkpt>
      <trkpt lat="43.21159" lon="5.95689">
        <ele>598.46484375</ele>
        <time>2020-06-21T09:28:18Z</time>
      </trkpt>
      <trkpt lat="43.21195" lon="5.95649">
        <ele>600.9921875</ele>
        <time>2020-06-21T09:28:34Z</time>
      </trkpt>
      <trkpt lat="43.21217" lon="5.95613">
        <ele>604.41796875</ele>
        <time>2020-06-21T09:28:47Z</time>
      </trkpt>
      <trkpt lat="43.21241" lon="5.95585">
        <ele>606.51953125</ele>
        <time>2020-06-21T09:29:01Z</time>
      </trkpt>
      <trkpt lat="43.21272" lon="5.95557">
        <ele>607.94140625</ele>
        <time>2020-06-21T09:29:17Z</time>
      </trkpt>
      <trkpt lat="43.21302" lon="5.95528">
        <ele>609.85546875</ele>
        <time>2020-06-21T09:29:34Z</time>
      </trkpt>
      <trkpt lat="43.21335" lon="5.95497">
        <ele>615.6796875</ele>
        <time>2020-06-21T09:29:52Z</time>
      </trkpt>
      <trkpt lat="43.21372" lon="5.95465">
        <ele>619.94140625</ele>
        <time>2020-06-21T09:30:10Z</time>
      </trkpt>
      <trkpt lat="43.21407" lon="5.95433">
        <ele>624.78125</ele>
        <time>2020-06-21T09:30:27Z</time>
      </trkpt>
      <trkpt lat="43.21427" lon="5.95409">
        <ele>627.6171875</ele>
        <time>2020-06-21T09:30:37Z</time>
      </trkpt>
      <trkpt lat="43.21449" lon="5.95361">
        <ele>631.91796875</ele>
        <time>2020-06-21T09:30:53Z</time>
      </trkpt>
      <trkpt lat="43.21467" lon="5.95313">
        <ele>635.86328125</ele>
        <time>2020-06-21T09:31:09Z</time>
      </trkpt>
      <trkpt lat="43.2147" lon="5.9526">
        <ele>639.69921875</ele>
        <time>2020-06-21T09:31:25Z</time>
      </trkpt>
      <trkpt lat="43.21463" lon="5.95213">
        <ele>643.37109375</ele>
        <time>2020-06-21T09:31:39Z</time>
      </trkpt>
      <trkpt lat="43.21449" lon="5.95156">
        <ele>646.015625</ele>
        <time>2020-06-21T09:31:55Z</time>
      </trkpt>
      <trkpt lat="43.21433" lon="5.95088">
        <ele>647.609375</ele>
        <time>2020-06-21T09:32:12Z</time>
      </trkpt>
      <trkpt lat="43.21426" lon="5.95082">
        <ele>647.859375</ele>
        <time>2020-06-21T09:32:15Z</time>
      </trkpt>
      <trkpt lat="43.21424" lon="5.95082">
        <ele>647.953125</ele>
        <time>2020-06-21T09:32:16Z</time>
      </trkpt>
      <trkpt lat="43.21422" lon="5.95083">
        <ele>648</ele>
        <time>2020-06-21T09:32:17Z</time>
      </trkpt>
      <trkpt lat="43.21419" lon="5.95084">
        <ele>648</ele>
        <time>2020-06-21T09:32:18Z</time>
      </trkpt>
      <trkpt lat="43.21417" lon="5.95086">
        <ele>648</ele>
        <time>2020-06-21T09:32:19Z</time>
      </trkpt>
      <trkpt lat="43.21415" lon="5.95086">
        <ele>648</ele>
        <time>2020-06-21T09:32:20Z</time>
      </trkpt>
      <trkpt lat="43.21413" lon="5.95087">
        <ele>648</ele>
        <time>2020-06-21T09:32:21Z</time>
      </trkpt>
      <trkpt lat="43.21411" lon="5.95087">
        <ele>648</ele>
        <time>2020-06-21T09:32:22Z</time>
      </trkpt>
      <trkpt lat="43.2141" lon="5.95086">
        <ele>648</ele>
        <time>2020-06-21T09:32:23Z</time>
      </trkpt>
      <trkpt lat="43.21408" lon="5.95085">
        <ele>648</ele>
        <time>2020-06-21T09:32:24Z</time>
      </trkpt>
      <trkpt lat="43.21407" lon="5.95085">
        <ele>648</ele>
        <time>2020-06-21T09:32:25Z</time>
      </trkpt>
      <trkpt lat="43.21403" lon="5.95084">
        <ele>648</ele>
        <time>2020-06-21T09:32:37Z</time>
      </trkpt>
      <trkpt lat="43.21389" lon="5.95076">
        <ele>648.22265625</ele>
        <time>2020-06-21T09:32:50Z</time>
      </trkpt>
      <trkpt lat="43.21382" lon="5.95062">
        <ele>648.4609375</ele>
        <time>2020-06-21T09:33:01Z</time>
      </trkpt>
      <trkpt lat="43.21385" lon="5.95061">
        <ele>648.37109375</ele>
        <time>2020-06-21T09:33:16Z</time>
      </trkpt>
      <trkpt lat="43.21384" lon="5.9506">
        <ele>648.3828125</ele>
        <time>2020-06-21T09:33:59Z</time>
      </trkpt>
      <trkpt lat="43.21385" lon="5.95067">
        <ele>648.34375</ele>
        <time>2020-06-21T09:34:44Z</time>
      </trkpt>
      <trkpt lat="43.21383" lon="5.9506">
        <ele>648.41015625</ele>
        <time>2020-06-21T09:35:32Z</time>
      </trkpt>
      <trkpt lat="43.21381" lon="5.95058">
        <ele>648.48828125</ele>
        <time>2020-06-21T09:36:18Z</time>
      </trkpt>
      <trkpt lat="43.21382" lon="5.95059">
        <ele>648.46875</ele>
        <time>2020-06-21T09:37:02Z</time>
      </trkpt>
      <trkpt lat="43.21383" lon="5.9506">
        <ele>648.41015625</ele>
        <time>2020-06-21T09:37:43Z</time>
      </trkpt>
      <trkpt lat="43.21385" lon="5.95056">
        <ele>648.3671875</ele>
        <time>2020-06-21T09:38:22Z</time>
      </trkpt>
      <trkpt lat="43.21383" lon="5.95059">
        <ele>648.4375</ele>
        <time>2020-06-21T09:39:05Z</time>
      </trkpt>
      <trkpt lat="43.21383" lon="5.95063">
        <ele>648.41015625</ele>
        <time>2020-06-21T09:39:26Z</time>
      </trkpt>
      <trkpt lat="43.21383" lon="5.95061">
        <ele>648.4140625</ele>
        <time>2020-06-21T09:39:57Z</time>
      </trkpt>
      <trkpt lat="43.21386" lon="5.95062">
        <ele>648.328125</ele>
        <time>2020-06-21T09:40:28Z</time>
      </trkpt>
      <trkpt lat="43.21382" lon="5.95064">
        <ele>648.4609375</ele>
        <time>2020-06-21T09:41:01Z</time>
      </trkpt>
      <trkpt lat="43.21381" lon="5.95064">
        <ele>648.484375</ele>
        <time>2020-06-21T09:41:22Z</time>
      </trkpt>
      <trkpt lat="43.21381" lon="5.95065">
        <ele>648.48046875</ele>
        <time>2020-06-21T09:41:54Z</time>
      </trkpt>
      <trkpt lat="43.21384" lon="5.95065">
        <ele>648.390625</ele>
        <time>2020-06-21T09:42:15Z</time>
      </trkpt>
      <trkpt lat="43.21384" lon="5.95068">
        <ele>648.38671875</ele>
        <time>2020-06-21T09:42:18Z</time>
      </trkpt>
      <trkpt lat="43.21384" lon="5.9507">
        <ele>648.38671875</ele>
        <time>2020-06-21T09:42:19Z</time>
      </trkpt>
      <trkpt lat="43.21381" lon="5.95078">
        <ele>648.5078125</ele>
        <time>2020-06-21T09:42:23Z</time>
      </trkpt>
      <trkpt lat="43.21378" lon="5.95079">
        <ele>648.59375</ele>
        <time>2020-06-21T09:42:24Z</time>
      </trkpt>
      <trkpt lat="43.21352" lon="5.95125">
        <ele>648.453125</ele>
        <time>2020-06-21T09:42:39Z</time>
      </trkpt>
      <trkpt lat="43.21342" lon="5.95172">
        <ele>647.75</ele>
        <time>2020-06-21T09:42:52Z</time>
      </trkpt>
      <trkpt lat="43.21344" lon="5.95169">
        <ele>647.84375</ele>
        <time>2020-06-21T09:42:57Z</time>
      </trkpt>
      <trkpt lat="43.21344" lon="5.95167">
        <ele>647.92578125</ele>
        <time>2020-06-21T09:42:58Z</time>
      </trkpt>
      <trkpt lat="43.21347" lon="5.95128">
        <ele>648.33984375</ele>
        <time>2020-06-21T09:43:10Z</time>
      </trkpt>
      <trkpt lat="43.21335" lon="5.95114">
        <ele>648.85546875</ele>
        <time>2020-06-21T09:43:17Z</time>
      </trkpt>
      <trkpt lat="43.21334" lon="5.95112">
        <ele>648.921875</ele>
        <time>2020-06-21T09:43:18Z</time>
      </trkpt>
      <trkpt lat="43.21333" lon="5.95109">
        <ele>649</ele>
        <time>2020-06-21T09:43:19Z</time>
      </trkpt>
      <trkpt lat="43.21333" lon="5.95106">
        <ele>649</ele>
        <time>2020-06-21T09:43:20Z</time>
      </trkpt>
      <trkpt lat="43.21333" lon="5.95102">
        <ele>649</ele>
        <time>2020-06-21T09:43:21Z</time>
      </trkpt>
      <trkpt lat="43.21332" lon="5.95098">
        <ele>649</ele>
        <time>2020-06-21T09:43:22Z</time>
      </trkpt>
      <trkpt lat="43.21331" lon="5.95094">
        <ele>649</ele>
        <time>2020-06-21T09:43:23Z</time>
      </trkpt>
      <trkpt lat="43.21325" lon="5.95085">
        <ele>649</ele>
        <time>2020-06-21T09:43:26Z</time>
      </trkpt>
      <trkpt lat="43.21322" lon="5.95084">
        <ele>649</ele>
        <time>2020-06-21T09:43:27Z</time>
      </trkpt>
      <trkpt lat="43.2132" lon="5.95083">
        <ele>649</ele>
        <time>2020-06-21T09:43:28Z</time>
      </trkpt>
      <trkpt lat="43.21317" lon="5.95082">
        <ele>649</ele>
        <time>2020-06-21T09:43:29Z</time>
      </trkpt>
      <trkpt lat="43.21314" lon="5.95081">
        <ele>649</ele>
        <time>2020-06-21T09:43:30Z</time>
      </trkpt>
      <trkpt lat="43.2129" lon="5.95062">
        <ele>650.53515625</ele>
        <time>2020-06-21T09:43:41Z</time>
      </trkpt>
      <trkpt lat="43.21289" lon="5.9506">
        <ele>650.625</ele>
        <time>2020-06-21T09:43:42Z</time>
      </trkpt>
      <trkpt lat="43.21288" lon="5.95057">
        <ele>650.70703125</ele>
        <time>2020-06-21T09:43:43Z</time>
      </trkpt>
      <trkpt lat="43.21287" lon="5.95054">
        <ele>650.7890625</ele>
        <time>2020-06-21T09:43:44Z</time>
      </trkpt>
      <trkpt lat="43.21286" lon="5.95051">
        <ele>650.97265625</ele>
        <time>2020-06-21T09:43:45Z</time>
      </trkpt>
      <trkpt lat="43.21284" lon="5.95048">
        <ele>651.16796875</ele>
        <time>2020-06-21T09:43:46Z</time>
      </trkpt>
      <trkpt lat="43.21283" lon="5.95046">
        <ele>651.35546875</ele>
        <time>2020-06-21T09:43:47Z</time>
      </trkpt>
      <trkpt lat="43.21282" lon="5.95043">
        <ele>651.5390625</ele>
        <time>2020-06-21T09:43:48Z</time>
      </trkpt>
      <trkpt lat="43.21261" lon="5.9504">
        <ele>653.16796875</ele>
        <time>2020-06-21T09:44:00Z</time>
      </trkpt>
      <trkpt lat="43.21247" lon="5.95033">
        <ele>654.71484375</ele>
        <time>2020-06-21T09:44:10Z</time>
      </trkpt>
      <trkpt lat="43.21245" lon="5.95031">
        <ele>655.05859375</ele>
        <time>2020-06-21T09:44:12Z</time>
      </trkpt>
      <trkpt lat="43.21227" lon="5.95027">
        <ele>657.140625</ele>
        <time>2020-06-21T09:44:26Z</time>
      </trkpt>
      <trkpt lat="43.21211" lon="5.95039">
        <ele>658.6796875</ele>
        <time>2020-06-21T09:44:40Z</time>
      </trkpt>
      <trkpt lat="43.2121" lon="5.9504">
        <ele>658.77734375</ele>
        <time>2020-06-21T09:44:41Z</time>
      </trkpt>
      <trkpt lat="43.21192" lon="5.95064">
        <ele>659.75</ele>
        <time>2020-06-21T09:44:54Z</time>
      </trkpt>
      <trkpt lat="43.21177" lon="5.95082">
        <ele>660.57421875</ele>
        <time>2020-06-21T09:45:04Z</time>
      </trkpt>
      <trkpt lat="43.21175" lon="5.95082">
        <ele>660.77734375</ele>
        <time>2020-06-21T09:45:05Z</time>
      </trkpt>
      <trkpt lat="43.21173" lon="5.95083">
        <ele>660.97265625</ele>
        <time>2020-06-21T09:45:06Z</time>
      </trkpt>
      <trkpt lat="43.21167" lon="5.95086">
        <ele>661.7421875</ele>
        <time>2020-06-21T09:45:10Z</time>
      </trkpt>
      <trkpt lat="43.21165" lon="5.95086">
        <ele>661.93359375</ele>
        <time>2020-06-21T09:45:11Z</time>
      </trkpt>
      <trkpt lat="43.21163" lon="5.95087">
        <ele>662.1484375</ele>
        <time>2020-06-21T09:45:12Z</time>
      </trkpt>
      <trkpt lat="43.21162" lon="5.95087">
        <ele>662.3828125</ele>
        <time>2020-06-21T09:45:13Z</time>
      </trkpt>
      <trkpt lat="43.2116" lon="5.95087">
        <ele>662.6171875</ele>
        <time>2020-06-21T09:45:14Z</time>
      </trkpt>
      <trkpt lat="43.21159" lon="5.95087">
        <ele>662.8515625</ele>
        <time>2020-06-21T09:45:15Z</time>
      </trkpt>
      <trkpt lat="43.2114" lon="5.95089">
        <ele>665.640625</ele>
        <time>2020-06-21T09:45:27Z</time>
      </trkpt>
      <trkpt lat="43.21127" lon="5.95102">
        <ele>667.0703125</ele>
        <time>2020-06-21T09:45:38Z</time>
      </trkpt>
      <trkpt lat="43.21125" lon="5.95104">
        <ele>667.20703125</ele>
        <time>2020-06-21T09:45:39Z</time>
      </trkpt>
      <trkpt lat="43.2111" lon="5.95109">
        <ele>669.1171875</ele>
        <time>2020-06-21T09:45:49Z</time>
      </trkpt>
      <trkpt lat="43.21099" lon="5.95106">
        <ele>670.87109375</ele>
        <time>2020-06-21T09:45:56Z</time>
      </trkpt>
      <trkpt lat="43.2109" lon="5.95102">
        <ele>672.43359375</ele>
        <time>2020-06-21T09:46:02Z</time>
      </trkpt>
      <trkpt lat="43.21089" lon="5.951">
        <ele>672.68359375</ele>
        <time>2020-06-21T09:46:03Z</time>
      </trkpt>
      <trkpt lat="43.21089" lon="5.95098">
        <ele>672.9453125</ele>
        <time>2020-06-21T09:46:04Z</time>
      </trkpt>
      <trkpt lat="43.21088" lon="5.95097">
        <ele>673.1953125</ele>
        <time>2020-06-21T09:46:05Z</time>
      </trkpt>
      <trkpt lat="43.21088" lon="5.95095">
        <ele>673.44140625</ele>
        <time>2020-06-21T09:46:06Z</time>
      </trkpt>
      <trkpt lat="43.21086" lon="5.95091">
        <ele>674.11328125</ele>
        <time>2020-06-21T09:46:09Z</time>
      </trkpt>
      <trkpt lat="43.21085" lon="5.9509">
        <ele>674.43359375</ele>
        <time>2020-06-21T09:46:10Z</time>
      </trkpt>
      <trkpt lat="43.21084" lon="5.95088">
        <ele>674.80078125</ele>
        <time>2020-06-21T09:46:11Z</time>
      </trkpt>
      <trkpt lat="43.21082" lon="5.95087">
        <ele>675.15234375</ele>
        <time>2020-06-21T09:46:12Z</time>
      </trkpt>
      <trkpt lat="43.21082" lon="5.95085">
        <ele>675.44921875</ele>
        <time>2020-06-21T09:46:13Z</time>
      </trkpt>
      <trkpt lat="43.21081" lon="5.95083">
        <ele>675.7265625</ele>
        <time>2020-06-21T09:46:14Z</time>
      </trkpt>
      <trkpt lat="43.21081" lon="5.95081">
        <ele>675.953125</ele>
        <time>2020-06-21T09:46:15Z</time>
      </trkpt>
      <trkpt lat="43.21069" lon="5.95075">
        <ele>678.69140625</ele>
        <time>2020-06-21T09:46:24Z</time>
      </trkpt>
      <trkpt lat="43.21068" lon="5.95076">
        <ele>678.87890625</ele>
        <time>2020-06-21T09:46:25Z</time>
      </trkpt>
      <trkpt lat="43.21064" lon="5.95081">
        <ele>679.6171875</ele>
        <time>2020-06-21T09:46:29Z</time>
      </trkpt>
      <trkpt lat="43.21049" lon="5.95101">
        <ele>680.8359375</ele>
        <time>2020-06-21T09:46:43Z</time>
      </trkpt>
      <trkpt lat="43.21049" lon="5.95102">
        <ele>680.8828125</ele>
        <time>2020-06-21T09:46:44Z</time>
      </trkpt>
      <trkpt lat="43.21044" lon="5.95106">
        <ele>681.37109375</ele>
        <time>2020-06-21T09:46:48Z</time>
      </trkpt>
      <trkpt lat="43.21043" lon="5.95106">
        <ele>681.546875</ele>
        <time>2020-06-21T09:46:49Z</time>
      </trkpt>
      <trkpt lat="43.2104" lon="5.95108">
        <ele>681.96875</ele>
        <time>2020-06-21T09:47:02Z</time>
      </trkpt>
      <trkpt lat="43.21041" lon="5.95108">
        <ele>681.85546875</ele>
        <time>2020-06-21T09:47:26Z</time>
      </trkpt>
      <trkpt lat="43.2103" lon="5.95112">
        <ele>683.609375</ele>
        <time>2020-06-21T09:47:43Z</time>
      </trkpt>
      <trkpt lat="43.21028" lon="5.95112">
        <ele>683.9375</ele>
        <time>2020-06-21T09:47:44Z</time>
      </trkpt>
      <trkpt lat="43.21027" lon="5.95111">
        <ele>684.3828125</ele>
        <time>2020-06-21T09:47:45Z</time>
      </trkpt>
      <trkpt lat="43.21025" lon="5.9511">
        <ele>684.82421875</ele>
        <time>2020-06-21T09:47:46Z</time>
      </trkpt>
      <trkpt lat="43.21023" lon="5.95109">
        <ele>685.2890625</ele>
        <time>2020-06-21T09:47:47Z</time>
      </trkpt>
      <trkpt lat="43.21022" lon="5.95108">
        <ele>685.6875</ele>
        <time>2020-06-21T09:47:48Z</time>
      </trkpt>
      <trkpt lat="43.21021" lon="5.95107">
        <ele>686.08203125</ele>
        <time>2020-06-21T09:47:49Z</time>
      </trkpt>
      <trkpt lat="43.21007" lon="5.95103">
        <ele>689.35546875</ele>
        <time>2020-06-21T09:47:59Z</time>
      </trkpt>
      <trkpt lat="43.20992" lon="5.95097">
        <ele>693.0390625</ele>
        <time>2020-06-21T09:48:10Z</time>
      </trkpt>
      <trkpt lat="43.20975" lon="5.95107">
        <ele>695.8125</ele>
        <time>2020-06-21T09:48:24Z</time>
      </trkpt>
      <trkpt lat="43.20957" lon="5.95121">
        <ele>697.5859375</ele>
        <time>2020-06-21T09:48:40Z</time>
      </trkpt>
      <trkpt lat="43.20938" lon="5.95136">
        <ele>699.33203125</ele>
        <time>2020-06-21T09:48:55Z</time>
      </trkpt>
      <trkpt lat="43.20917" lon="5.95138">
        <ele>703.015625</ele>
        <time>2020-06-21T09:49:09Z</time>
      </trkpt>
      <trkpt lat="43.20911" lon="5.95134">
        <ele>704.34765625</ele>
        <time>2020-06-21T09:49:13Z</time>
      </trkpt>
      <trkpt lat="43.2091" lon="5.95132">
        <ele>704.60546875</ele>
        <time>2020-06-21T09:49:14Z</time>
      </trkpt>
      <trkpt lat="43.20893" lon="5.95119">
        <ele>708.49609375</ele>
        <time>2020-06-21T09:49:27Z</time>
      </trkpt>
      <trkpt lat="43.20878" lon="5.95107">
        <ele>710.9375</ele>
        <time>2020-06-21T09:49:39Z</time>
      </trkpt>
      <trkpt lat="43.20862" lon="5.95096">
        <ele>713.2578125</ele>
        <time>2020-06-21T09:49:51Z</time>
      </trkpt>
      <trkpt lat="43.20857" lon="5.95096">
        <ele>713.9609375</ele>
        <time>2020-06-21T09:49:54Z</time>
      </trkpt>
      <trkpt lat="43.20856" lon="5.95097">
        <ele>714.15234375</ele>
        <time>2020-06-21T09:49:55Z</time>
      </trkpt>
      <trkpt lat="43.2084" lon="5.95112">
        <ele>715.59375</ele>
        <time>2020-06-21T09:50:09Z</time>
      </trkpt>
      <trkpt lat="43.20832" lon="5.95129">
        <ele>715.51171875</ele>
        <time>2020-06-21T09:50:24Z</time>
      </trkpt>
      <trkpt lat="43.20828" lon="5.95133">
        <ele>715.953125</ele>
        <time>2020-06-21T09:50:38Z</time>
      </trkpt>
      <trkpt lat="43.20825" lon="5.95133">
        <ele>716.47265625</ele>
        <time>2020-06-21T09:50:40Z</time>
      </trkpt>
      <trkpt lat="43.20824" lon="5.95133">
        <ele>716.8046875</ele>
        <time>2020-06-21T09:50:41Z</time>
      </trkpt>
      <trkpt lat="43.20823" lon="5.95132">
        <ele>717.12109375</ele>
        <time>2020-06-21T09:50:42Z</time>
      </trkpt>
      <trkpt lat="43.20821" lon="5.95132">
        <ele>717.4375</ele>
        <time>2020-06-21T09:50:43Z</time>
      </trkpt>
      <trkpt lat="43.20816" lon="5.95123">
        <ele>719.16796875</ele>
        <time>2020-06-21T09:50:50Z</time>
      </trkpt>
      <trkpt lat="43.20815" lon="5.95122">
        <ele>719.515625</ele>
        <time>2020-06-21T09:50:51Z</time>
      </trkpt>
      <trkpt lat="43.20809" lon="5.95123">
        <ele>720.57421875</ele>
        <time>2020-06-21T09:50:56Z</time>
      </trkpt>
      <trkpt lat="43.20802" lon="5.95126">
        <ele>721.6875</ele>
        <time>2020-06-21T09:51:02Z</time>
      </trkpt>
      <trkpt lat="43.208" lon="5.95128">
        <ele>721.859375</ele>
        <time>2020-06-21T09:51:03Z</time>
      </trkpt>
      <trkpt lat="43.20785" lon="5.95139">
        <ele>724.77734375</ele>
        <time>2020-06-21T09:51:15Z</time>
      </trkpt>
      <trkpt lat="43.20768" lon="5.95153">
        <ele>727.99609375</ele>
        <time>2020-06-21T09:51:29Z</time>
      </trkpt>
      <trkpt lat="43.20763" lon="5.95161">
        <ele>728.74609375</ele>
        <time>2020-06-21T09:51:45Z</time>
      </trkpt>
      <trkpt lat="43.20754" lon="5.95185">
        <ele>730.4765625</ele>
        <time>2020-06-21T09:51:59Z</time>
      </trkpt>
      <trkpt lat="43.20747" lon="5.95201">
        <ele>731.734375</ele>
        <time>2020-06-21T09:52:09Z</time>
      </trkpt>
      <trkpt lat="43.20746" lon="5.95202">
        <ele>731.953125</ele>
        <time>2020-06-21T09:52:10Z</time>
      </trkpt>
      <trkpt lat="43.20733" lon="5.95214">
        <ele>734.1953125</ele>
        <time>2020-06-21T09:52:22Z</time>
      </trkpt>
      <trkpt lat="43.20727" lon="5.95218">
        <ele>735.45703125</ele>
        <time>2020-06-21T09:52:28Z</time>
      </trkpt>
      <trkpt lat="43.20726" lon="5.95218">
        <ele>735.7265625</ele>
        <time>2020-06-21T09:52:29Z</time>
      </trkpt>
      <trkpt lat="43.20716" lon="5.9522">
        <ele>737.66015625</ele>
        <time>2020-06-21T09:52:36Z</time>
      </trkpt>
      <trkpt lat="43.207" lon="5.95232">
        <ele>741.06640625</ele>
        <time>2020-06-21T09:52:49Z</time>
      </trkpt>
      <trkpt lat="43.20699" lon="5.95232">
        <ele>741.3671875</ele>
        <time>2020-06-21T09:52:50Z</time>
      </trkpt>
      <trkpt lat="43.20694" lon="5.95235">
        <ele>742.28515625</ele>
        <time>2020-06-21T09:52:53Z</time>
      </trkpt>
      <trkpt lat="43.20693" lon="5.95238">
        <ele>742.55078125</ele>
        <time>2020-06-21T09:52:55Z</time>
      </trkpt>
      <trkpt lat="43.20693" lon="5.9524">
        <ele>742.62109375</ele>
        <time>2020-06-21T09:52:56Z</time>
      </trkpt>
      <trkpt lat="43.20693" lon="5.95242">
        <ele>742.671875</ele>
        <time>2020-06-21T09:52:57Z</time>
      </trkpt>
      <trkpt lat="43.20693" lon="5.95244">
        <ele>742.7265625</ele>
        <time>2020-06-21T09:52:58Z</time>
      </trkpt>
      <trkpt lat="43.20692" lon="5.95246">
        <ele>742.828125</ele>
        <time>2020-06-21T09:52:59Z</time>
      </trkpt>
      <trkpt lat="43.20692" lon="5.95248">
        <ele>742.95703125</ele>
        <time>2020-06-21T09:53:00Z</time>
      </trkpt>
      <trkpt lat="43.2069" lon="5.95254">
        <ele>743.43359375</ele>
        <time>2020-06-21T09:53:03Z</time>
      </trkpt>
      <trkpt lat="43.20689" lon="5.95256">
        <ele>743.6875</ele>
        <time>2020-06-21T09:53:04Z</time>
      </trkpt>
      <trkpt lat="43.20688" lon="5.95258">
        <ele>743.96875</ele>
        <time>2020-06-21T09:53:05Z</time>
      </trkpt>
      <trkpt lat="43.20687" lon="5.95259">
        <ele>744.22265625</ele>
        <time>2020-06-21T09:53:06Z</time>
      </trkpt>
      <trkpt lat="43.20686" lon="5.9526">
        <ele>744.4765625</ele>
        <time>2020-06-21T09:53:07Z</time>
      </trkpt>
      <trkpt lat="43.20685" lon="5.95261">
        <ele>744.76953125</ele>
        <time>2020-06-21T09:53:08Z</time>
      </trkpt>
      <trkpt lat="43.20683" lon="5.95262">
        <ele>745.05859375</ele>
        <time>2020-06-21T09:53:09Z</time>
      </trkpt>
      <trkpt lat="43.20682" lon="5.95263">
        <ele>745.38671875</ele>
        <time>2020-06-21T09:53:10Z</time>
      </trkpt>
      <trkpt lat="43.20681" lon="5.95264">
        <ele>745.73046875</ele>
        <time>2020-06-21T09:53:11Z</time>
      </trkpt>
      <trkpt lat="43.20679" lon="5.95264">
        <ele>746.078125</ele>
        <time>2020-06-21T09:53:12Z</time>
      </trkpt>
      <trkpt lat="43.20678" lon="5.95265">
        <ele>746.4140625</ele>
        <time>2020-06-21T09:53:13Z</time>
      </trkpt>
      <trkpt lat="43.20677" lon="5.95265">
        <ele>746.70703125</ele>
        <time>2020-06-21T09:53:14Z</time>
      </trkpt>
      <trkpt lat="43.20675" lon="5.95265">
        <ele>747.01171875</ele>
        <time>2020-06-21T09:53:15Z</time>
      </trkpt>
      <trkpt lat="43.20674" lon="5.95265">
        <ele>747.35546875</ele>
        <time>2020-06-21T09:53:16Z</time>
      </trkpt>
      <trkpt lat="43.20673" lon="5.95266">
        <ele>747.70703125</ele>
        <time>2020-06-21T09:53:17Z</time>
      </trkpt>
      <trkpt lat="43.20667" lon="5.95267">
        <ele>748.8828125</ele>
        <time>2020-06-21T09:53:21Z</time>
      </trkpt>
      <trkpt lat="43.20666" lon="5.95267">
        <ele>749.16796875</ele>
        <time>2020-06-21T09:53:22Z</time>
      </trkpt>
      <trkpt lat="43.20665" lon="5.95268">
        <ele>749.4453125</ele>
        <time>2020-06-21T09:53:23Z</time>
      </trkpt>
      <trkpt lat="43.20664" lon="5.95269">
        <ele>749.75390625</ele>
        <time>2020-06-21T09:53:24Z</time>
      </trkpt>
      <trkpt lat="43.20662" lon="5.95269">
        <ele>750.0390625</ele>
        <time>2020-06-21T09:53:25Z</time>
      </trkpt>
      <trkpt lat="43.20642" lon="5.95264">
        <ele>754.171875</ele>
        <time>2020-06-21T09:53:40Z</time>
      </trkpt>
      <trkpt lat="43.2063" lon="5.95267">
        <ele>756.82421875</ele>
        <time>2020-06-21T09:53:49Z</time>
      </trkpt>
      <trkpt lat="43.2062" lon="5.95287">
        <ele>760.07421875</ele>
        <time>2020-06-21T09:54:01Z</time>
      </trkpt>
      <trkpt lat="43.20617" lon="5.95313">
        <ele>762.359375</ele>
        <time>2020-06-21T09:54:15Z</time>
      </trkpt>
      <trkpt lat="43.20618" lon="5.95315">
        <ele>762.34765625</ele>
        <time>2020-06-21T09:54:16Z</time>
      </trkpt>
      <trkpt lat="43.20618" lon="5.95346">
        <ele>763.4453125</ele>
        <time>2020-06-21T09:54:32Z</time>
      </trkpt>
      <trkpt lat="43.2061" lon="5.95364">
        <ele>765.734375</ele>
        <time>2020-06-21T09:54:42Z</time>
      </trkpt>
      <trkpt lat="43.20596" lon="5.95376">
        <ele>769.0703125</ele>
        <time>2020-06-21T09:54:52Z</time>
      </trkpt>
      <trkpt lat="43.20595" lon="5.95375">
        <ele>769.34375</ele>
        <time>2020-06-21T09:54:53Z</time>
      </trkpt>
      <trkpt lat="43.20575" lon="5.9536">
        <ele>772.203125</ele>
        <time>2020-06-21T09:55:07Z</time>
      </trkpt>
      <trkpt lat="43.20573" lon="5.9536">
        <ele>772.41796875</ele>
        <time>2020-06-21T09:55:08Z</time>
      </trkpt>
      <trkpt lat="43.20552" lon="5.9537">
        <ele>775.359375</ele>
        <time>2020-06-21T09:55:23Z</time>
      </trkpt>
      <trkpt lat="43.20539" lon="5.95375">
        <ele>776.3125</ele>
        <time>2020-06-21T09:55:37Z</time>
      </trkpt>
      <trkpt lat="43.20538" lon="5.95376">
        <ele>776.42578125</ele>
        <time>2020-06-21T09:55:57Z</time>
      </trkpt>
      <trkpt lat="43.20534" lon="5.95386">
        <ele>776.94921875</ele>
        <time>2020-06-21T09:56:04Z</time>
      </trkpt>
      <trkpt lat="43.20523" lon="5.95391">
        <ele>776.94921875</ele>
        <time>2020-06-21T09:56:16Z</time>
      </trkpt>
      <trkpt lat="43.20514" lon="5.95385">
        <ele>776.98046875</ele>
        <time>2020-06-21T09:56:24Z</time>
      </trkpt>
      <trkpt lat="43.20504" lon="5.95379">
        <ele>776.9296875</ele>
        <time>2020-06-21T09:56:37Z</time>
      </trkpt>
      <trkpt lat="43.20497" lon="5.95376">
        <ele>776.80859375</ele>
        <time>2020-06-21T09:56:45Z</time>
      </trkpt>
      <trkpt lat="43.20485" lon="5.95366">
        <ele>776.8203125</ele>
        <time>2020-06-21T09:57:00Z</time>
      </trkpt>
      <trkpt lat="43.20482" lon="5.95364">
        <ele>776.8671875</ele>
        <time>2020-06-21T09:57:04Z</time>
      </trkpt>
      <trkpt lat="43.20472" lon="5.95347">
        <ele>777.546875</ele>
        <time>2020-06-21T09:57:20Z</time>
      </trkpt>
      <trkpt lat="43.20468" lon="5.95342">
        <ele>777.8671875</ele>
        <time>2020-06-21T09:57:26Z</time>
      </trkpt>
      <trkpt lat="43.20458" lon="5.95344">
        <ele>777.96875</ele>
        <time>2020-06-21T09:57:37Z</time>
      </trkpt>
      <trkpt lat="43.20447" lon="5.9534">
        <ele>778.33984375</ele>
        <time>2020-06-21T09:57:52Z</time>
      </trkpt>
      <trkpt lat="43.20446" lon="5.95342">
        <ele>778.23046875</ele>
        <time>2020-06-21T09:58:09Z</time>
      </trkpt>
      <trkpt lat="43.20447" lon="5.95342">
        <ele>778.171875</ele>
        <time>2020-06-21T09:58:36Z</time>
      </trkpt>
      <trkpt lat="43.20447" lon="5.95343">
        <ele>778.125</ele>
        <time>2020-06-21T09:58:56Z</time>
      </trkpt>
      <trkpt lat="43.20448" lon="5.95343">
        <ele>778.171875</ele>
        <time>2020-06-21T09:59:11Z</time>
      </trkpt>
      <trkpt lat="43.20446" lon="5.95342">
        <ele>778.22265625</ele>
        <time>2020-06-21T09:59:40Z</time>
      </trkpt>
      <trkpt lat="43.20447" lon="5.95341">
        <ele>778.2734375</ele>
        <time>2020-06-21T09:59:59Z</time>
      </trkpt>
      <trkpt lat="43.20446" lon="5.9534">
        <ele>778.328125</ele>
        <time>2020-06-21T10:00:29Z</time>
      </trkpt>
      <trkpt lat="43.20446" lon="5.95344">
        <ele>778.03515625</ele>
        <time>2020-06-21T10:01:01Z</time>
      </trkpt>
      <trkpt lat="43.20447" lon="5.95346">
        <ele>777.9375</ele>
        <time>2020-06-21T10:01:23Z</time>
      </trkpt>
      <trkpt lat="43.20447" lon="5.95342">
        <ele>778.21875</ele>
        <time>2020-06-21T10:02:00Z</time>
      </trkpt>
      <trkpt lat="43.20447" lon="5.95342">
        <ele>778.23046875</ele>
        <time>2020-06-21T10:02:04Z</time>
      </trkpt>
      <trkpt lat="43.20447" lon="5.95343">
        <ele>778.109375</ele>
        <time>2020-06-21T10:02:11Z</time>
      </trkpt>
      <trkpt lat="43.20448" lon="5.95342">
        <ele>778.234375</ele>
        <time>2020-06-21T10:02:42Z</time>
      </trkpt>
      <trkpt lat="43.20448" lon="5.95342">
        <ele>778.203125</ele>
        <time>2020-06-21T10:02:46Z</time>
      </trkpt>
      <trkpt lat="43.20448" lon="5.95342">
        <ele>778.1875</ele>
        <time>2020-06-21T10:02:51Z</time>
      </trkpt>
      <trkpt lat="43.20449" lon="5.95342">
        <ele>778.265625</ele>
        <time>2020-06-21T10:03:27Z</time>
      </trkpt>
      <trkpt lat="43.20448" lon="5.95341">
        <ele>778.30859375</ele>
        <time>2020-06-21T10:04:07Z</time>
      </trkpt>
      <trkpt lat="43.20448" lon="5.95342">
        <ele>778.23828125</ele>
        <time>2020-06-21T10:04:36Z</time>
      </trkpt>
      <trkpt lat="43.20448" lon="5.95344">
        <ele>778.09765625</ele>
        <time>2020-06-21T10:05:08Z</time>
      </trkpt>
      <trkpt lat="43.20448" lon="5.95344">
        <ele>778.0703125</ele>
        <time>2020-06-21T10:05:11Z</time>
      </trkpt>
      <trkpt lat="43.20447" lon="5.95344">
        <ele>778.03125</ele>
        <time>2020-06-21T10:05:18Z</time>
      </trkpt>
      <trkpt lat="43.2045" lon="5.95342">
        <ele>778.26171875</ele>
        <time>2020-06-21T10:05:22Z</time>
      </trkpt>
      <trkpt lat="43.20444" lon="5.95338">
        <ele>778.46484375</ele>
        <time>2020-06-21T10:05:36Z</time>
      </trkpt>
      <trkpt lat="43.20442" lon="5.9534">
        <ele>778.3359375</ele>
        <time>2020-06-21T10:05:39Z</time>
      </trkpt>
      <trkpt lat="43.2044" lon="5.95341">
        <ele>778.19140625</ele>
        <time>2020-06-21T10:05:42Z</time>
      </trkpt>
      <trkpt lat="43.20437" lon="5.95337">
        <ele>778.5546875</ele>
        <time>2020-06-21T10:05:55Z</time>
      </trkpt>
      <trkpt lat="43.20437" lon="5.95336">
        <ele>778.62109375</ele>
        <time>2020-06-21T10:05:59Z</time>
      </trkpt>
      <trkpt lat="43.20435" lon="5.95331">
        <ele>779.03125</ele>
        <time>2020-06-21T10:06:02Z</time>
      </trkpt>
      <trkpt lat="43.20432" lon="5.95325">
        <ele>779.2578125</ele>
        <time>2020-06-21T10:06:04Z</time>
      </trkpt>
      <trkpt lat="43.2043" lon="5.95322">
        <ele>779.36328125</ele>
        <time>2020-06-21T10:06:05Z</time>
      </trkpt>
      <trkpt lat="43.20427" lon="5.95319">
        <ele>779.45703125</ele>
        <time>2020-06-21T10:06:06Z</time>
      </trkpt>
      <trkpt lat="43.20417" lon="5.95305">
        <ele>779.7421875</ele>
        <time>2020-06-21T10:06:10Z</time>
      </trkpt>
      <trkpt lat="43.20416" lon="5.95301">
        <ele>779.6640625</ele>
        <time>2020-06-21T10:06:11Z</time>
      </trkpt>
      <trkpt lat="43.2041" lon="5.95288">
        <ele>778.9453125</ele>
        <time>2020-06-21T10:06:17Z</time>
      </trkpt>
      <trkpt lat="43.20409" lon="5.95286">
        <ele>778.859375</ele>
        <time>2020-06-21T10:06:18Z</time>
      </trkpt>
      <trkpt lat="43.20408" lon="5.95286">
        <ele>778.81640625</ele>
        <time>2020-06-21T10:06:19Z</time>
      </trkpt>
      <trkpt lat="43.20406" lon="5.95286">
        <ele>778.74609375</ele>
        <time>2020-06-21T10:06:20Z</time>
      </trkpt>
      <trkpt lat="43.20404" lon="5.95285">
        <ele>778.63671875</ele>
        <time>2020-06-21T10:06:21Z</time>
      </trkpt>
      <trkpt lat="43.20398" lon="5.95279">
        <ele>778.19140625</ele>
        <time>2020-06-21T10:06:30Z</time>
      </trkpt>
      <trkpt lat="43.20395" lon="5.95275">
        <ele>777.87890625</ele>
        <time>2020-06-21T10:06:41Z</time>
      </trkpt>
      <trkpt lat="43.20395" lon="5.95274">
        <ele>777.65625</ele>
        <time>2020-06-21T10:06:42Z</time>
      </trkpt>
      <trkpt lat="43.20393" lon="5.95273">
        <ele>777.4609375</ele>
        <time>2020-06-21T10:06:43Z</time>
      </trkpt>
      <trkpt lat="43.20391" lon="5.95273">
        <ele>777.28515625</ele>
        <time>2020-06-21T10:06:44Z</time>
      </trkpt>
      <trkpt lat="43.2039" lon="5.95274">
        <ele>777.15625</ele>
        <time>2020-06-21T10:06:45Z</time>
      </trkpt>
      <trkpt lat="43.20387" lon="5.9527">
        <ele>776.5625</ele>
        <time>2020-06-21T10:06:52Z</time>
      </trkpt>
      <trkpt lat="43.20381" lon="5.95267">
        <ele>775.640625</ele>
        <time>2020-06-21T10:07:03Z</time>
      </trkpt>
      <trkpt lat="43.20381" lon="5.95264">
        <ele>775.40625</ele>
        <time>2020-06-21T10:07:07Z</time>
      </trkpt>
      <trkpt lat="43.20381" lon="5.95262">
        <ele>775.22265625</ele>
        <time>2020-06-21T10:07:08Z</time>
      </trkpt>
      <trkpt lat="43.20381" lon="5.9526">
        <ele>775.01953125</ele>
        <time>2020-06-21T10:07:09Z</time>
      </trkpt>
      <trkpt lat="43.2038" lon="5.95258">
        <ele>774.7578125</ele>
        <time>2020-06-21T10:07:10Z</time>
      </trkpt>
      <trkpt lat="43.20379" lon="5.95255">
        <ele>774.40625</ele>
        <time>2020-06-21T10:07:11Z</time>
      </trkpt>
      <trkpt lat="43.20378" lon="5.95252">
        <ele>774.078125</ele>
        <time>2020-06-21T10:07:12Z</time>
      </trkpt>
      <trkpt lat="43.20378" lon="5.95249">
        <ele>773.76953125</ele>
        <time>2020-06-21T10:07:13Z</time>
      </trkpt>
      <trkpt lat="43.20376" lon="5.95243">
        <ele>773.0546875</ele>
        <time>2020-06-21T10:07:15Z</time>
      </trkpt>
      <trkpt lat="43.20375" lon="5.95242">
        <ele>772.87890625</ele>
        <time>2020-06-21T10:07:16Z</time>
      </trkpt>
      <trkpt lat="43.20375" lon="5.95241">
        <ele>772.6875</ele>
        <time>2020-06-21T10:07:18Z</time>
      </trkpt>
      <trkpt lat="43.20374" lon="5.95238">
        <ele>772.3515625</ele>
        <time>2020-06-21T10:07:20Z</time>
      </trkpt>
      <trkpt lat="43.20364" lon="5.95228">
        <ele>770.20703125</ele>
        <time>2020-06-21T10:07:27Z</time>
      </trkpt>
      <trkpt lat="43.20364" lon="5.95227">
        <ele>770.12890625</ele>
        <time>2020-06-21T10:07:28Z</time>
      </trkpt>
      <trkpt lat="43.20367" lon="5.95217">
        <ele>769.33984375</ele>
        <time>2020-06-21T10:07:38Z</time>
      </trkpt>
      <trkpt lat="43.20364" lon="5.95218">
        <ele>768.99609375</ele>
        <time>2020-06-21T10:07:50Z</time>
      </trkpt>
      <trkpt lat="43.20364" lon="5.95218">
        <ele>768.9296875</ele>
        <time>2020-06-21T10:07:51Z</time>
      </trkpt>
      <trkpt lat="43.20354" lon="5.95215">
        <ele>766.8515625</ele>
        <time>2020-06-21T10:07:59Z</time>
      </trkpt>
      <trkpt lat="43.20353" lon="5.95215">
        <ele>766.6015625</ele>
        <time>2020-06-21T10:08:00Z</time>
      </trkpt>
      <trkpt lat="43.20351" lon="5.95215">
        <ele>766.32421875</ele>
        <time>2020-06-21T10:08:01Z</time>
      </trkpt>
      <trkpt lat="43.20349" lon="5.95215">
        <ele>765.91015625</ele>
        <time>2020-06-21T10:08:02Z</time>
      </trkpt>
      <trkpt lat="43.20347" lon="5.95214">
        <ele>765.5234375</ele>
        <time>2020-06-21T10:08:03Z</time>
      </trkpt>
      <trkpt lat="43.20346" lon="5.95212">
        <ele>765.046875</ele>
        <time>2020-06-21T10:08:05Z</time>
      </trkpt>
      <trkpt lat="43.20345" lon="5.95205">
        <ele>764.1875</ele>
        <time>2020-06-21T10:08:16Z</time>
      </trkpt>
      <trkpt lat="43.20343" lon="5.95201">
        <ele>763.38671875</ele>
        <time>2020-06-21T10:08:23Z</time>
      </trkpt>
      <trkpt lat="43.20342" lon="5.952">
        <ele>763.09375</ele>
        <time>2020-06-21T10:08:24Z</time>
      </trkpt>
      <trkpt lat="43.20341" lon="5.95199">
        <ele>762.77734375</ele>
        <time>2020-06-21T10:08:25Z</time>
      </trkpt>
      <trkpt lat="43.20339" lon="5.95196">
        <ele>762.203125</ele>
        <time>2020-06-21T10:08:38Z</time>
      </trkpt>
      <trkpt lat="43.20336" lon="5.95193">
        <ele>761.42578125</ele>
        <time>2020-06-21T10:08:58Z</time>
      </trkpt>
      <trkpt lat="43.20335" lon="5.95192">
        <ele>761.06640625</ele>
        <time>2020-06-21T10:08:59Z</time>
      </trkpt>
      <trkpt lat="43.20332" lon="5.95192">
        <ele>760.4375</ele>
        <time>2020-06-21T10:09:04Z</time>
      </trkpt>
      <trkpt lat="43.20328" lon="5.95193">
        <ele>759.8984375</ele>
        <time>2020-06-21T10:09:06Z</time>
      </trkpt>
      <trkpt lat="43.20327" lon="5.95194">
        <ele>759.83203125</ele>
        <time>2020-06-21T10:09:07Z</time>
      </trkpt>
      <trkpt lat="43.20318" lon="5.95201">
        <ele>758.98046875</ele>
        <time>2020-06-21T10:09:18Z</time>
      </trkpt>
      <trkpt lat="43.20317" lon="5.95201">
        <ele>758.8203125</ele>
        <time>2020-06-21T10:09:19Z</time>
      </trkpt>
      <trkpt lat="43.20314" lon="5.95203">
        <ele>758.3203125</ele>
        <time>2020-06-21T10:09:24Z</time>
      </trkpt>
      <trkpt lat="43.20312" lon="5.95203">
        <ele>758.12890625</ele>
        <time>2020-06-21T10:09:25Z</time>
      </trkpt>
      <trkpt lat="43.2031" lon="5.95204">
        <ele>757.86328125</ele>
        <time>2020-06-21T10:09:26Z</time>
      </trkpt>
      <trkpt lat="43.20308" lon="5.95205">
        <ele>757.5546875</ele>
        <time>2020-06-21T10:09:27Z</time>
      </trkpt>
      <trkpt lat="43.20306" lon="5.95206">
        <ele>757.16015625</ele>
        <time>2020-06-21T10:09:28Z</time>
      </trkpt>
      <trkpt lat="43.20303" lon="5.95207">
        <ele>756.71875</ele>
        <time>2020-06-21T10:09:29Z</time>
      </trkpt>
      <trkpt lat="43.20301" lon="5.95209">
        <ele>756.38671875</ele>
        <time>2020-06-21T10:09:30Z</time>
      </trkpt>
      <trkpt lat="43.20299" lon="5.95212">
        <ele>756.25</ele>
        <time>2020-06-21T10:09:31Z</time>
      </trkpt>
      <trkpt lat="43.20297" lon="5.95215">
        <ele>756.15625</ele>
        <time>2020-06-21T10:09:32Z</time>
      </trkpt>
      <trkpt lat="43.20295" lon="5.95217">
        <ele>755.9453125</ele>
        <time>2020-06-21T10:09:33Z</time>
      </trkpt>
      <trkpt lat="43.20292" lon="5.95219">
        <ele>755.61328125</ele>
        <time>2020-06-21T10:09:34Z</time>
      </trkpt>
      <trkpt lat="43.2029" lon="5.95221">
        <ele>755.19140625</ele>
        <time>2020-06-21T10:09:35Z</time>
      </trkpt>
      <trkpt lat="43.20288" lon="5.95222">
        <ele>754.859375</ele>
        <time>2020-06-21T10:09:36Z</time>
      </trkpt>
      <trkpt lat="43.20284" lon="5.95223">
        <ele>754.2734375</ele>
        <time>2020-06-21T10:09:39Z</time>
      </trkpt>
      <trkpt lat="43.20269" lon="5.95221">
        <ele>751.24609375</ele>
        <time>2020-06-21T10:09:49Z</time>
      </trkpt>
      <trkpt lat="43.20267" lon="5.9522">
        <ele>750.8125</ele>
        <time>2020-06-21T10:09:51Z</time>
      </trkpt>
      <trkpt lat="43.20266" lon="5.95218">
        <ele>750.48828125</ele>
        <time>2020-06-21T10:09:52Z</time>
      </trkpt>
      <trkpt lat="43.20265" lon="5.95216">
        <ele>750.20703125</ele>
        <time>2020-06-21T10:09:53Z</time>
      </trkpt>
      <trkpt lat="43.20265" lon="5.95213">
        <ele>749.8984375</ele>
        <time>2020-06-21T10:09:54Z</time>
      </trkpt>
      <trkpt lat="43.20264" lon="5.95211">
        <ele>749.578125</ele>
        <time>2020-06-21T10:09:55Z</time>
      </trkpt>
      <trkpt lat="43.20257" lon="5.95201">
        <ele>747.6171875</ele>
        <time>2020-06-21T10:10:01Z</time>
      </trkpt>
      <trkpt lat="43.20254" lon="5.952">
        <ele>747.01953125</ele>
        <time>2020-06-21T10:10:02Z</time>
      </trkpt>
      <trkpt lat="43.20251" lon="5.95199">
        <ele>746.35546875</ele>
        <time>2020-06-21T10:10:03Z</time>
      </trkpt>
      <trkpt lat="43.20237" lon="5.95188">
        <ele>742.36328125</ele>
        <time>2020-06-21T10:10:08Z</time>
      </trkpt>
      <trkpt lat="43.20236" lon="5.95185">
        <ele>741.96484375</ele>
        <time>2020-06-21T10:10:09Z</time>
      </trkpt>
      <trkpt lat="43.20235" lon="5.95184">
        <ele>741.6875</ele>
        <time>2020-06-21T10:10:10Z</time>
      </trkpt>
      <trkpt lat="43.20234" lon="5.95182">
        <ele>741.26953125</ele>
        <time>2020-06-21T10:10:11Z</time>
      </trkpt>
      <trkpt lat="43.20232" lon="5.9518">
        <ele>740.65234375</ele>
        <time>2020-06-21T10:10:12Z</time>
      </trkpt>
      <trkpt lat="43.20229" lon="5.95177">
        <ele>739.95703125</ele>
        <time>2020-06-21T10:10:13Z</time>
      </trkpt>
      <trkpt lat="43.20227" lon="5.95175">
        <ele>739.375</ele>
        <time>2020-06-21T10:10:14Z</time>
      </trkpt>
      <trkpt lat="43.20225" lon="5.95174">
        <ele>738.953125</ele>
        <time>2020-06-21T10:10:15Z</time>
      </trkpt>
      <trkpt lat="43.20223" lon="5.95174">
        <ele>738.609375</ele>
        <time>2020-06-21T10:10:16Z</time>
      </trkpt>
      <trkpt lat="43.20221" lon="5.95173">
        <ele>738.25</ele>
        <time>2020-06-21T10:10:17Z</time>
      </trkpt>
      <trkpt lat="43.2022" lon="5.95172">
        <ele>737.94921875</ele>
        <time>2020-06-21T10:10:18Z</time>
      </trkpt>
      <trkpt lat="43.20219" lon="5.95169">
        <ele>737.60546875</ele>
        <time>2020-06-21T10:10:19Z</time>
      </trkpt>
      <trkpt lat="43.20218" lon="5.95166">
        <ele>737.12890625</ele>
        <time>2020-06-21T10:10:20Z</time>
      </trkpt>
      <trkpt lat="43.20216" lon="5.95164">
        <ele>736.64453125</ele>
        <time>2020-06-21T10:10:21Z</time>
      </trkpt>
      <trkpt lat="43.20213" lon="5.95161">
        <ele>736.14453125</ele>
        <time>2020-06-21T10:10:22Z</time>
      </trkpt>
      <trkpt lat="43.20211" lon="5.9516">
        <ele>735.73828125</ele>
        <time>2020-06-21T10:10:23Z</time>
      </trkpt>
      <trkpt lat="43.20205" lon="5.9516">
        <ele>734.62890625</ele>
        <time>2020-06-21T10:10:33Z</time>
      </trkpt>
      <trkpt lat="43.20204" lon="5.95161">
        <ele>734.42578125</ele>
        <time>2020-06-21T10:10:34Z</time>
      </trkpt>
      <trkpt lat="43.20203" lon="5.95163">
        <ele>734.2421875</ele>
        <time>2020-06-21T10:10:35Z</time>
      </trkpt>
      <trkpt lat="43.20202" lon="5.95165">
        <ele>734.08984375</ele>
        <time>2020-06-21T10:10:36Z</time>
      </trkpt>
      <trkpt lat="43.202" lon="5.95167">
        <ele>733.8984375</ele>
        <time>2020-06-21T10:10:37Z</time>
      </trkpt>
      <trkpt lat="43.20198" lon="5.95168">
        <ele>733.55078125</ele>
        <time>2020-06-21T10:10:38Z</time>
      </trkpt>
      <trkpt lat="43.20196" lon="5.9517">
        <ele>733.2890625</ele>
        <time>2020-06-21T10:10:39Z</time>
      </trkpt>
      <trkpt lat="43.20195" lon="5.95173">
        <ele>733.203125</ele>
        <time>2020-06-21T10:10:40Z</time>
      </trkpt>
      <trkpt lat="43.20193" lon="5.95176">
        <ele>733.19921875</ele>
        <time>2020-06-21T10:10:41Z</time>
      </trkpt>
      <trkpt lat="43.20192" lon="5.95178">
        <ele>733.03515625</ele>
        <time>2020-06-21T10:10:42Z</time>
      </trkpt>
      <trkpt lat="43.2019" lon="5.95179">
        <ele>732.7578125</ele>
        <time>2020-06-21T10:10:43Z</time>
      </trkpt>
      <trkpt lat="43.20188" lon="5.9518">
        <ele>732.45703125</ele>
        <time>2020-06-21T10:10:44Z</time>
      </trkpt>
      <trkpt lat="43.20187" lon="5.9518">
        <ele>732.171875</ele>
        <time>2020-06-21T10:10:45Z</time>
      </trkpt>
      <trkpt lat="43.20185" lon="5.95178">
        <ele>731.79296875</ele>
        <time>2020-06-21T10:10:46Z</time>
      </trkpt>
      <trkpt lat="43.20184" lon="5.95175">
        <ele>731.265625</ele>
        <time>2020-06-21T10:10:47Z</time>
      </trkpt>
      <trkpt lat="43.20182" lon="5.95174">
        <ele>730.703125</ele>
        <time>2020-06-21T10:10:48Z</time>
      </trkpt>
      <trkpt lat="43.2018" lon="5.95172">
        <ele>730.11328125</ele>
        <time>2020-06-21T10:10:49Z</time>
      </trkpt>
      <trkpt lat="43.20178" lon="5.95169">
        <ele>729.43359375</ele>
        <time>2020-06-21T10:10:50Z</time>
      </trkpt>
      <trkpt lat="43.20171" lon="5.95162">
        <ele>727.48828125</ele>
        <time>2020-06-21T10:10:54Z</time>
      </trkpt>
      <trkpt lat="43.20157" lon="5.95148">
        <ele>724.1640625</ele>
        <time>2020-06-21T10:11:01Z</time>
      </trkpt>
      <trkpt lat="43.20136" lon="5.95139">
        <ele>719.484375</ele>
        <time>2020-06-21T10:11:10Z</time>
      </trkpt>
      <trkpt lat="43.20135" lon="5.95137">
        <ele>719.01953125</ele>
        <time>2020-06-21T10:11:11Z</time>
      </trkpt>
      <trkpt lat="43.20129" lon="5.95132">
        <ele>717.8203125</ele>
        <time>2020-06-21T10:11:14Z</time>
      </trkpt>
      <trkpt lat="43.20127" lon="5.95132">
        <ele>717.265625</ele>
        <time>2020-06-21T10:11:17Z</time>
      </trkpt>
      <trkpt lat="43.20125" lon="5.95131">
        <ele>716.88671875</ele>
        <time>2020-06-21T10:11:32Z</time>
      </trkpt>
      <trkpt lat="43.20116" lon="5.95122">
        <ele>714.55859375</ele>
        <time>2020-06-21T10:11:44Z</time>
      </trkpt>
      <trkpt lat="43.20111" lon="5.95119">
        <ele>713.484375</ele>
        <time>2020-06-21T10:11:46Z</time>
      </trkpt>
      <trkpt lat="43.20097" lon="5.95104">
        <ele>709.8828125</ele>
        <time>2020-06-21T10:11:51Z</time>
      </trkpt>
      <trkpt lat="43.20083" lon="5.95094">
        <ele>706.73828125</ele>
        <time>2020-06-21T10:11:55Z</time>
      </trkpt>
      <trkpt lat="43.20078" lon="5.95087">
        <ele>705.49609375</ele>
        <time>2020-06-21T10:11:58Z</time>
      </trkpt>
      <trkpt lat="43.2006" lon="5.95072">
        <ele>701.93359375</ele>
        <time>2020-06-21T10:12:05Z</time>
      </trkpt>
      <trkpt lat="43.20053" lon="5.95069">
        <ele>700.3671875</ele>
        <time>2020-06-21T10:12:07Z</time>
      </trkpt>
      <trkpt lat="43.20046" lon="5.95066">
        <ele>698.98828125</ele>
        <time>2020-06-21T10:12:11Z</time>
      </trkpt>
      <trkpt lat="43.20045" lon="5.95064">
        <ele>698.61328125</ele>
        <time>2020-06-21T10:12:12Z</time>
      </trkpt>
      <trkpt lat="43.20043" lon="5.95062">
        <ele>698.20703125</ele>
        <time>2020-06-21T10:12:13Z</time>
      </trkpt>
      <trkpt lat="43.20042" lon="5.95061">
        <ele>697.74609375</ele>
        <time>2020-06-21T10:12:14Z</time>
      </trkpt>
      <trkpt lat="43.2004" lon="5.95059">
        <ele>697.30859375</ele>
        <time>2020-06-21T10:12:15Z</time>
      </trkpt>
      <trkpt lat="43.20038" lon="5.95058">
        <ele>696.93359375</ele>
        <time>2020-06-21T10:12:16Z</time>
      </trkpt>
      <trkpt lat="43.20037" lon="5.95056">
        <ele>696.60546875</ele>
        <time>2020-06-21T10:12:17Z</time>
      </trkpt>
      <trkpt lat="43.20035" lon="5.95054">
        <ele>696.015625</ele>
        <time>2020-06-21T10:12:24Z</time>
      </trkpt>
      <trkpt lat="43.20033" lon="5.95052">
        <ele>695.76953125</ele>
        <time>2020-06-21T10:12:25Z</time>
      </trkpt>
      <trkpt lat="43.20032" lon="5.95051">
        <ele>695.4375</ele>
        <time>2020-06-21T10:12:26Z</time>
      </trkpt>
      <trkpt lat="43.2003" lon="5.95049">
        <ele>695.08984375</ele>
        <time>2020-06-21T10:12:27Z</time>
      </trkpt>
      <trkpt lat="43.20029" lon="5.95046">
        <ele>694.90234375</ele>
        <time>2020-06-21T10:12:28Z</time>
      </trkpt>
      <trkpt lat="43.20028" lon="5.95043">
        <ele>694.65625</ele>
        <time>2020-06-21T10:12:29Z</time>
      </trkpt>
      <trkpt lat="43.20026" lon="5.95041">
        <ele>694.23046875</ele>
        <time>2020-06-21T10:12:30Z</time>
      </trkpt>
      <trkpt lat="43.20023" lon="5.95039">
        <ele>693.65625</ele>
        <time>2020-06-21T10:12:31Z</time>
      </trkpt>
      <trkpt lat="43.2002" lon="5.95037">
        <ele>693.01953125</ele>
        <time>2020-06-21T10:12:32Z</time>
      </trkpt>
      <trkpt lat="43.20018" lon="5.95034">
        <ele>692.41015625</ele>
        <time>2020-06-21T10:12:33Z</time>
      </trkpt>
      <trkpt lat="43.20015" lon="5.95032">
        <ele>691.796875</ele>
        <time>2020-06-21T10:12:34Z</time>
      </trkpt>
      <trkpt lat="43.20012" lon="5.9503">
        <ele>691.171875</ele>
        <time>2020-06-21T10:12:35Z</time>
      </trkpt>
      <trkpt lat="43.20005" lon="5.95027">
        <ele>689.81640625</ele>
        <time>2020-06-21T10:12:40Z</time>
      </trkpt>
      <trkpt lat="43.20003" lon="5.95027">
        <ele>689.55078125</ele>
        <time>2020-06-21T10:12:41Z</time>
      </trkpt>
      <trkpt lat="43.20001" lon="5.95027">
        <ele>689.21875</ele>
        <time>2020-06-21T10:12:42Z</time>
      </trkpt>
      <trkpt lat="43.19998" lon="5.95027">
        <ele>688.80078125</ele>
        <time>2020-06-21T10:12:43Z</time>
      </trkpt>
      <trkpt lat="43.19995" lon="5.95027">
        <ele>688.33203125</ele>
        <time>2020-06-21T10:12:44Z</time>
      </trkpt>
      <trkpt lat="43.19992" lon="5.95028">
        <ele>687.94921875</ele>
        <time>2020-06-21T10:12:45Z</time>
      </trkpt>
      <trkpt lat="43.19987" lon="5.9503">
        <ele>687.4453125</ele>
        <time>2020-06-21T10:12:47Z</time>
      </trkpt>
      <trkpt lat="43.19985" lon="5.95032">
        <ele>687.203125</ele>
        <time>2020-06-21T10:12:48Z</time>
      </trkpt>
      <trkpt lat="43.19982" lon="5.95033">
        <ele>686.8828125</ele>
        <time>2020-06-21T10:12:49Z</time>
      </trkpt>
      <trkpt lat="43.19979" lon="5.95034">
        <ele>686.53515625</ele>
        <time>2020-06-21T10:12:50Z</time>
      </trkpt>
      <trkpt lat="43.19975" lon="5.95036">
        <ele>686.1328125</ele>
        <time>2020-06-21T10:12:51Z</time>
      </trkpt>
      <trkpt lat="43.1996" lon="5.95037">
        <ele>684.06640625</ele>
        <time>2020-06-21T10:12:55Z</time>
      </trkpt>
      <trkpt lat="43.19954" lon="5.95037">
        <ele>683.2265625</ele>
        <time>2020-06-21T10:12:57Z</time>
      </trkpt>
      <trkpt lat="43.19953" lon="5.95039">
        <ele>683.08984375</ele>
        <time>2020-06-21T10:12:58Z</time>
      </trkpt>
      <trkpt lat="43.19951" lon="5.9504">
        <ele>682.8984375</ele>
        <time>2020-06-21T10:12:59Z</time>
      </trkpt>
      <trkpt lat="43.19948" lon="5.95041">
        <ele>682.4921875</ele>
        <time>2020-06-21T10:13:00Z</time>
      </trkpt>
      <trkpt lat="43.19945" lon="5.95043">
        <ele>682.0390625</ele>
        <time>2020-06-21T10:13:01Z</time>
      </trkpt>
      <trkpt lat="43.1994" lon="5.95043">
        <ele>681.16015625</ele>
        <time>2020-06-21T10:13:03Z</time>
      </trkpt>
      <trkpt lat="43.19939" lon="5.95041">
        <ele>680.78125</ele>
        <time>2020-06-21T10:13:04Z</time>
      </trkpt>
      <trkpt lat="43.19938" lon="5.95038">
        <ele>680.40234375</ele>
        <time>2020-06-21T10:13:05Z</time>
      </trkpt>
      <trkpt lat="43.19937" lon="5.95036">
        <ele>680.046875</ele>
        <time>2020-06-21T10:13:06Z</time>
      </trkpt>
      <trkpt lat="43.19937" lon="5.95032">
        <ele>679.80859375</ele>
        <time>2020-06-21T10:13:07Z</time>
      </trkpt>
      <trkpt lat="43.19937" lon="5.95029">
        <ele>679.58203125</ele>
        <time>2020-06-21T10:13:08Z</time>
      </trkpt>
      <trkpt lat="43.19935" lon="5.95026">
        <ele>679.09375</ele>
        <time>2020-06-21T10:13:09Z</time>
      </trkpt>
      <trkpt lat="43.19933" lon="5.95022">
        <ele>678.41015625</ele>
        <time>2020-06-21T10:13:10Z</time>
      </trkpt>
      <trkpt lat="43.19931" lon="5.95017">
        <ele>677.67578125</ele>
        <time>2020-06-21T10:13:11Z</time>
      </trkpt>
      <trkpt lat="43.19928" lon="5.95013">
        <ele>676.8359375</ele>
        <time>2020-06-21T10:13:12Z</time>
      </trkpt>
      <trkpt lat="43.19925" lon="5.95008">
        <ele>675.9921875</ele>
        <time>2020-06-21T10:13:13Z</time>
      </trkpt>
      <trkpt lat="43.19923" lon="5.95005">
        <ele>675.44140625</ele>
        <time>2020-06-21T10:13:14Z</time>
      </trkpt>
      <trkpt lat="43.19922" lon="5.95002">
        <ele>674.9765625</ele>
        <time>2020-06-21T10:13:15Z</time>
      </trkpt>
      <trkpt lat="43.1992" lon="5.94998">
        <ele>674.40625</ele>
        <time>2020-06-21T10:13:16Z</time>
      </trkpt>
      <trkpt lat="43.19916" lon="5.94994">
        <ele>673.7421875</ele>
        <time>2020-06-21T10:13:17Z</time>
      </trkpt>
      <trkpt lat="43.19912" lon="5.9499">
        <ele>672.9375</ele>
        <time>2020-06-21T10:13:18Z</time>
      </trkpt>
      <trkpt lat="43.19908" lon="5.94985">
        <ele>672.03125</ele>
        <time>2020-06-21T10:13:19Z</time>
      </trkpt>
      <trkpt lat="43.19903" lon="5.94981">
        <ele>671.03515625</ele>
        <time>2020-06-21T10:13:20Z</time>
      </trkpt>
      <trkpt lat="43.19899" lon="5.94977">
        <ele>670.03125</ele>
        <time>2020-06-21T10:13:21Z</time>
      </trkpt>
      <trkpt lat="43.19889" lon="5.94965">
        <ele>668.2421875</ele>
        <time>2020-06-21T10:13:25Z</time>
      </trkpt>
      <trkpt lat="43.19888" lon="5.94963">
        <ele>668.21484375</ele>
        <time>2020-06-21T10:13:26Z</time>
      </trkpt>
      <trkpt lat="43.19889" lon="5.94961">
        <ele>668.2421875</ele>
        <time>2020-06-21T10:13:27Z</time>
      </trkpt>
      <trkpt lat="43.19889" lon="5.94953">
        <ele>668.328125</ele>
        <time>2020-06-21T10:13:34Z</time>
      </trkpt>
      <trkpt lat="43.19889" lon="5.94952">
        <ele>668.31640625</ele>
        <time>2020-06-21T10:13:35Z</time>
      </trkpt>
      <trkpt lat="43.19889" lon="5.94952">
        <ele>668.28515625</ele>
        <time>2020-06-21T10:14:05Z</time>
      </trkpt>
      <trkpt lat="43.19888" lon="5.94944">
        <ele>668.125</ele>
        <time>2020-06-21T10:14:22Z</time>
      </trkpt>
      <trkpt lat="43.19887" lon="5.94942">
        <ele>668.11328125</ele>
        <time>2020-06-21T10:14:23Z</time>
      </trkpt>
      <trkpt lat="43.19888" lon="5.9494">
        <ele>668.125</ele>
        <time>2020-06-21T10:14:24Z</time>
      </trkpt>
      <trkpt lat="43.19887" lon="5.94938">
        <ele>668.109375</ele>
        <time>2020-06-21T10:14:25Z</time>
      </trkpt>
      <trkpt lat="43.19887" lon="5.94936">
        <ele>668.09375</ele>
        <time>2020-06-21T10:14:26Z</time>
      </trkpt>
      <trkpt lat="43.19887" lon="5.94934">
        <ele>668.09375</ele>
        <time>2020-06-21T10:14:27Z</time>
      </trkpt>
      <trkpt lat="43.19888" lon="5.94931">
        <ele>668.13671875</ele>
        <time>2020-06-21T10:14:28Z</time>
      </trkpt>
      <trkpt lat="43.19888" lon="5.94928">
        <ele>668.22265625</ele>
        <time>2020-06-21T10:14:29Z</time>
      </trkpt>
      <trkpt lat="43.19889" lon="5.94925">
        <ele>668.2734375</ele>
        <time>2020-06-21T10:14:30Z</time>
      </trkpt>
      <trkpt lat="43.19889" lon="5.94922">
        <ele>668.28125</ele>
        <time>2020-06-21T10:14:31Z</time>
      </trkpt>
      <trkpt lat="43.19892" lon="5.94904">
        <ele>668.58984375</ele>
        <time>2020-06-21T10:14:44Z</time>
      </trkpt>
      <trkpt lat="43.19892" lon="5.949">
        <ele>668.55078125</ele>
        <time>2020-06-21T10:14:47Z</time>
      </trkpt>
      <trkpt lat="43.19889" lon="5.94879">
        <ele>668.171875</ele>
        <time>2020-06-21T10:14:55Z</time>
      </trkpt>
      <trkpt lat="43.19887" lon="5.94877">
        <ele>667.93359375</ele>
        <time>2020-06-21T10:14:56Z</time>
      </trkpt>
      <trkpt lat="43.19884" lon="5.94875">
        <ele>667.60546875</ele>
        <time>2020-06-21T10:14:57Z</time>
      </trkpt>
      <trkpt lat="43.19881" lon="5.94874">
        <ele>667.20703125</ele>
        <time>2020-06-21T10:14:58Z</time>
      </trkpt>
      <trkpt lat="43.19878" lon="5.94874">
        <ele>666.76171875</ele>
        <time>2020-06-21T10:14:59Z</time>
      </trkpt>
      <trkpt lat="43.19875" lon="5.94872">
        <ele>666.3125</ele>
        <time>2020-06-21T10:15:00Z</time>
      </trkpt>
      <trkpt lat="43.19869" lon="5.94869">
        <ele>665.40625</ele>
        <time>2020-06-21T10:15:02Z</time>
      </trkpt>
      <trkpt lat="43.19866" lon="5.94867">
        <ele>665.0234375</ele>
        <time>2020-06-21T10:15:03Z</time>
      </trkpt>
      <trkpt lat="43.19863" lon="5.94867">
        <ele>664.703125</ele>
        <time>2020-06-21T10:15:04Z</time>
      </trkpt>
      <trkpt lat="43.1986" lon="5.94868">
        <ele>664.41015625</ele>
        <time>2020-06-21T10:15:05Z</time>
      </trkpt>
      <trkpt lat="43.19858" lon="5.94869">
        <ele>664.1875</ele>
        <time>2020-06-21T10:15:06Z</time>
      </trkpt>
      <trkpt lat="43.19856" lon="5.9487">
        <ele>663.97265625</ele>
        <time>2020-06-21T10:15:07Z</time>
      </trkpt>
      <trkpt lat="43.19854" lon="5.94871">
        <ele>663.6953125</ele>
        <time>2020-06-21T10:15:08Z</time>
      </trkpt>
      <trkpt lat="43.19834" lon="5.94882">
        <ele>661.3359375</ele>
        <time>2020-06-21T10:15:15Z</time>
      </trkpt>
      <trkpt lat="43.19817" lon="5.94894">
        <ele>659.47265625</ele>
        <time>2020-06-21T10:15:22Z</time>
      </trkpt>
      <trkpt lat="43.19814" lon="5.94898">
        <ele>659.1640625</ele>
        <time>2020-06-21T10:15:23Z</time>
      </trkpt>
      <trkpt lat="43.19811" lon="5.949">
        <ele>658.7109375</ele>
        <time>2020-06-21T10:15:24Z</time>
      </trkpt>
      <trkpt lat="43.19807" lon="5.949">
        <ele>658.1171875</ele>
        <time>2020-06-21T10:15:25Z</time>
      </trkpt>
      <trkpt lat="43.19803" lon="5.949">
        <ele>657.5234375</ele>
        <time>2020-06-21T10:15:26Z</time>
      </trkpt>
      <trkpt lat="43.198" lon="5.94898">
        <ele>656.9765625</ele>
        <time>2020-06-21T10:15:27Z</time>
      </trkpt>
      <trkpt lat="43.19797" lon="5.94896">
        <ele>656.4453125</ele>
        <time>2020-06-21T10:15:28Z</time>
      </trkpt>
      <trkpt lat="43.19795" lon="5.94893">
        <ele>655.9453125</ele>
        <time>2020-06-21T10:15:29Z</time>
      </trkpt>
      <trkpt lat="43.19793" lon="5.94892">
        <ele>655.5703125</ele>
        <time>2020-06-21T10:15:30Z</time>
      </trkpt>
      <trkpt lat="43.19789" lon="5.9489">
        <ele>654.84765625</ele>
        <time>2020-06-21T10:15:39Z</time>
      </trkpt>
      <trkpt lat="43.19782" lon="5.94889">
        <ele>653.64453125</ele>
        <time>2020-06-21T10:15:47Z</time>
      </trkpt>
      <trkpt lat="43.1978" lon="5.9489">
        <ele>653.33203125</ele>
        <time>2020-06-21T10:15:48Z</time>
      </trkpt>
      <trkpt lat="43.19778" lon="5.94891">
        <ele>652.921875</ele>
        <time>2020-06-21T10:15:49Z</time>
      </trkpt>
      <trkpt lat="43.19775" lon="5.94891">
        <ele>652.34765625</ele>
        <time>2020-06-21T10:15:50Z</time>
      </trkpt>
      <trkpt lat="43.19771" lon="5.9489">
        <ele>651.69140625</ele>
        <time>2020-06-21T10:15:51Z</time>
      </trkpt>
      <trkpt lat="43.19767" lon="5.9489">
        <ele>650.8984375</ele>
        <time>2020-06-21T10:15:53Z</time>
      </trkpt>
      <trkpt lat="43.19765" lon="5.94891">
        <ele>650.7421875</ele>
        <time>2020-06-21T10:15:54Z</time>
      </trkpt>
      <trkpt lat="43.19764" lon="5.94893">
        <ele>650.5703125</ele>
        <time>2020-06-21T10:16:10Z</time>
      </trkpt>
      <trkpt lat="43.19758" lon="5.94893">
        <ele>649.5</ele>
        <time>2020-06-21T10:16:17Z</time>
      </trkpt>
      <trkpt lat="43.19757" lon="5.9489">
        <ele>649.17578125</ele>
        <time>2020-06-21T10:16:18Z</time>
      </trkpt>
      <trkpt lat="43.19757" lon="5.94888">
        <ele>649.0234375</ele>
        <time>2020-06-21T10:16:19Z</time>
      </trkpt>
      <trkpt lat="43.19758" lon="5.94885">
        <ele>649.18359375</ele>
        <time>2020-06-21T10:16:20Z</time>
      </trkpt>
      <trkpt lat="43.19759" lon="5.94882">
        <ele>649.34765625</ele>
        <time>2020-06-21T10:16:21Z</time>
      </trkpt>
      <trkpt lat="43.1976" lon="5.94879">
        <ele>649.50390625</ele>
        <time>2020-06-21T10:16:22Z</time>
      </trkpt>
      <trkpt lat="43.1976" lon="5.94849">
        <ele>649.578125</ele>
        <time>2020-06-21T10:16:33Z</time>
      </trkpt>
      <trkpt lat="43.19762" lon="5.94824">
        <ele>649.5625</ele>
        <time>2020-06-21T10:16:40Z</time>
      </trkpt>
      <trkpt lat="43.1976" lon="5.94821">
        <ele>649.1328125</ele>
        <time>2020-06-21T10:16:41Z</time>
      </trkpt>
      <trkpt lat="43.19758" lon="5.94817">
        <ele>648.66796875</ele>
        <time>2020-06-21T10:16:42Z</time>
      </trkpt>
      <trkpt lat="43.19757" lon="5.94813">
        <ele>648.2734375</ele>
        <time>2020-06-21T10:16:43Z</time>
      </trkpt>
      <trkpt lat="43.19755" lon="5.9481">
        <ele>647.91796875</ele>
        <time>2020-06-21T10:16:44Z</time>
      </trkpt>
      <trkpt lat="43.19755" lon="5.94805">
        <ele>647.62109375</ele>
        <time>2020-06-21T10:16:45Z</time>
      </trkpt>
      <trkpt lat="43.19754" lon="5.94801">
        <ele>647.36328125</ele>
        <time>2020-06-21T10:16:46Z</time>
      </trkpt>
      <trkpt lat="43.19753" lon="5.94798">
        <ele>647.046875</ele>
        <time>2020-06-21T10:16:47Z</time>
      </trkpt>
      <trkpt lat="43.19752" lon="5.94794">
        <ele>646.79296875</ele>
        <time>2020-06-21T10:16:48Z</time>
      </trkpt>
      <trkpt lat="43.19751" lon="5.94791">
        <ele>646.546875</ele>
        <time>2020-06-21T10:16:49Z</time>
      </trkpt>
      <trkpt lat="43.1975" lon="5.94789">
        <ele>646.2734375</ele>
        <time>2020-06-21T10:16:50Z</time>
      </trkpt>
      <trkpt lat="43.19748" lon="5.94786">
        <ele>645.9453125</ele>
        <time>2020-06-21T10:16:51Z</time>
      </trkpt>
      <trkpt lat="43.19746" lon="5.94784">
        <ele>645.6328125</ele>
        <time>2020-06-21T10:16:52Z</time>
      </trkpt>
      <trkpt lat="43.19744" lon="5.94784">
        <ele>645.3359375</ele>
        <time>2020-06-21T10:16:53Z</time>
      </trkpt>
      <trkpt lat="43.19742" lon="5.94784">
        <ele>645.03125</ele>
        <time>2020-06-21T10:16:54Z</time>
      </trkpt>
      <trkpt lat="43.1974" lon="5.94786">
        <ele>644.6953125</ele>
        <time>2020-06-21T10:16:55Z</time>
      </trkpt>
      <trkpt lat="43.19737" lon="5.94788">
        <ele>644.3203125</ele>
        <time>2020-06-21T10:16:56Z</time>
      </trkpt>
      <trkpt lat="43.19735" lon="5.94789">
        <ele>643.921875</ele>
        <time>2020-06-21T10:16:57Z</time>
      </trkpt>
      <trkpt lat="43.19714" lon="5.9478">
        <ele>641.75</ele>
        <time>2020-06-21T10:17:07Z</time>
      </trkpt>
      <trkpt lat="43.19713" lon="5.94778">
        <ele>641.7734375</ele>
        <time>2020-06-21T10:17:08Z</time>
      </trkpt>
      <trkpt lat="43.19712" lon="5.94775">
        <ele>641.78515625</ele>
        <time>2020-06-21T10:17:09Z</time>
      </trkpt>
      <trkpt lat="43.1971" lon="5.94738">
        <ele>642.00390625</ele>
        <time>2020-06-21T10:17:19Z</time>
      </trkpt>
      <trkpt lat="43.19702" lon="5.94709">
        <ele>642.06640625</ele>
        <time>2020-06-21T10:17:25Z</time>
      </trkpt>
      <trkpt lat="43.19701" lon="5.94696">
        <ele>641.953125</ele>
        <time>2020-06-21T10:17:27Z</time>
      </trkpt>
      <trkpt lat="43.197" lon="5.9469">
        <ele>641.69921875</ele>
        <time>2020-06-21T10:17:28Z</time>
      </trkpt>
      <trkpt lat="43.19698" lon="5.94685">
        <ele>641.375</ele>
        <time>2020-06-21T10:17:29Z</time>
      </trkpt>
      <trkpt lat="43.19697" lon="5.94682">
        <ele>641.1015625</ele>
        <time>2020-06-21T10:17:30Z</time>
      </trkpt>
      <trkpt lat="43.19696" lon="5.94678">
        <ele>640.83984375</ele>
        <time>2020-06-21T10:17:31Z</time>
      </trkpt>
      <trkpt lat="43.19694" lon="5.94676">
        <ele>640.55078125</ele>
        <time>2020-06-21T10:17:32Z</time>
      </trkpt>
      <trkpt lat="43.19692" lon="5.94674">
        <ele>640.28125</ele>
        <time>2020-06-21T10:17:33Z</time>
      </trkpt>
      <trkpt lat="43.19691" lon="5.9467">
        <ele>640.0390625</ele>
        <time>2020-06-21T10:17:34Z</time>
      </trkpt>
      <trkpt lat="43.19691" lon="5.94666">
        <ele>639.8828125</ele>
        <time>2020-06-21T10:17:35Z</time>
      </trkpt>
      <trkpt lat="43.19691" lon="5.94662">
        <ele>639.71875</ele>
        <time>2020-06-21T10:17:36Z</time>
      </trkpt>
      <trkpt lat="43.19692" lon="5.94658">
        <ele>639.68359375</ele>
        <time>2020-06-21T10:17:37Z</time>
      </trkpt>
      <trkpt lat="43.19694" lon="5.94655">
        <ele>639.65234375</ele>
        <time>2020-06-21T10:17:38Z</time>
      </trkpt>
      <trkpt lat="43.19694" lon="5.94651">
        <ele>639.55078125</ele>
        <time>2020-06-21T10:17:39Z</time>
      </trkpt>
      <trkpt lat="43.19694" lon="5.94648">
        <ele>639.4140625</ele>
        <time>2020-06-21T10:17:40Z</time>
      </trkpt>
      <trkpt lat="43.19693" lon="5.94644">
        <ele>639.14453125</ele>
        <time>2020-06-21T10:17:41Z</time>
      </trkpt>
      <trkpt lat="43.19691" lon="5.94642">
        <ele>638.7734375</ele>
        <time>2020-06-21T10:17:42Z</time>
      </trkpt>
      <trkpt lat="43.19689" lon="5.9464">
        <ele>638.3359375</ele>
        <time>2020-06-21T10:17:43Z</time>
      </trkpt>
      <trkpt lat="43.19687" lon="5.94637">
        <ele>637.8671875</ele>
        <time>2020-06-21T10:17:44Z</time>
      </trkpt>
      <trkpt lat="43.19684" lon="5.94636">
        <ele>637.42578125</ele>
        <time>2020-06-21T10:17:45Z</time>
      </trkpt>
      <trkpt lat="43.19681" lon="5.94635">
        <ele>636.9453125</ele>
        <time>2020-06-21T10:17:46Z</time>
      </trkpt>
      <trkpt lat="43.19674" lon="5.94633">
        <ele>635.96484375</ele>
        <time>2020-06-21T10:17:48Z</time>
      </trkpt>
      <trkpt lat="43.19672" lon="5.94631">
        <ele>635.48046875</ele>
        <time>2020-06-21T10:17:49Z</time>
      </trkpt>
      <trkpt lat="43.19668" lon="5.94628">
        <ele>634.85546875</ele>
        <time>2020-06-21T10:17:50Z</time>
      </trkpt>
      <trkpt lat="43.19658" lon="5.94619">
        <ele>632.78515625</ele>
        <time>2020-06-21T10:17:53Z</time>
      </trkpt>
      <trkpt lat="43.19641" lon="5.94611">
        <ele>629.39453125</ele>
        <time>2020-06-21T10:17:58Z</time>
      </trkpt>
      <trkpt lat="43.19632" lon="5.94608">
        <ele>627.88671875</ele>
        <time>2020-06-21T10:18:01Z</time>
      </trkpt>
      <trkpt lat="43.19626" lon="5.94608">
        <ele>626.96484375</ele>
        <time>2020-06-21T10:18:04Z</time>
      </trkpt>
      <trkpt lat="43.19625" lon="5.94606">
        <ele>626.74609375</ele>
        <time>2020-06-21T10:18:05Z</time>
      </trkpt>
      <trkpt lat="43.19624" lon="5.94604">
        <ele>626.484375</ele>
        <time>2020-06-21T10:18:06Z</time>
      </trkpt>
      <trkpt lat="43.19622" lon="5.946">
        <ele>625.78515625</ele>
        <time>2020-06-21T10:18:17Z</time>
      </trkpt>
      <trkpt lat="43.19621" lon="5.94596">
        <ele>625.45703125</ele>
        <time>2020-06-21T10:18:21Z</time>
      </trkpt>
      <trkpt lat="43.19622" lon="5.94593">
        <ele>625.29296875</ele>
        <time>2020-06-21T10:18:22Z</time>
      </trkpt>
      <trkpt lat="43.19621" lon="5.9459">
        <ele>625.0625</ele>
        <time>2020-06-21T10:18:23Z</time>
      </trkpt>
      <trkpt lat="43.19621" lon="5.94587">
        <ele>624.7265625</ele>
        <time>2020-06-21T10:18:24Z</time>
      </trkpt>
      <trkpt lat="43.1962" lon="5.94584">
        <ele>624.375</ele>
        <time>2020-06-21T10:18:25Z</time>
      </trkpt>
      <trkpt lat="43.19619" lon="5.9458">
        <ele>623.8125</ele>
        <time>2020-06-21T10:18:26Z</time>
      </trkpt>
      <trkpt lat="43.19618" lon="5.94575">
        <ele>622.94140625</ele>
        <time>2020-06-21T10:18:27Z</time>
      </trkpt>
      <trkpt lat="43.19617" lon="5.94559">
        <ele>620.453125</ele>
        <time>2020-06-21T10:18:30Z</time>
      </trkpt>
      <trkpt lat="43.19619" lon="5.94544">
        <ele>618.93359375</ele>
        <time>2020-06-21T10:18:34Z</time>
      </trkpt>
      <trkpt lat="43.19619" lon="5.94542">
        <ele>618.82421875</ele>
        <time>2020-06-21T10:18:35Z</time>
      </trkpt>
      <trkpt lat="43.1962" lon="5.94527">
        <ele>617.33984375</ele>
        <time>2020-06-21T10:18:40Z</time>
      </trkpt>
      <trkpt lat="43.1962" lon="5.94523">
        <ele>616.765625</ele>
        <time>2020-06-21T10:18:41Z</time>
      </trkpt>
      <trkpt lat="43.1962" lon="5.945">
        <ele>613.62109375</ele>
        <time>2020-06-21T10:18:45Z</time>
      </trkpt>
      <trkpt lat="43.1962" lon="5.94494">
        <ele>613.1796875</ele>
        <time>2020-06-21T10:18:46Z</time>
      </trkpt>
      <trkpt lat="43.1962" lon="5.94481">
        <ele>612.12890625</ele>
        <time>2020-06-21T10:18:50Z</time>
      </trkpt>
      <trkpt lat="43.1962" lon="5.94478">
        <ele>611.8828125</ele>
        <time>2020-06-21T10:18:51Z</time>
      </trkpt>
      <trkpt lat="43.19616" lon="5.94466">
        <ele>609.9609375</ele>
        <time>2020-06-21T10:18:56Z</time>
      </trkpt>
      <trkpt lat="43.19616" lon="5.94466">
        <ele>609.89453125</ele>
        <time>2020-06-21T10:18:57Z</time>
      </trkpt>
      <trkpt lat="43.19617" lon="5.94464">
        <ele>609.90234375</ele>
        <time>2020-06-21T10:19:17Z</time>
      </trkpt>
      <trkpt lat="43.19615" lon="5.94459">
        <ele>608.796875</ele>
        <time>2020-06-21T10:19:33Z</time>
      </trkpt>
      <trkpt lat="43.19615" lon="5.94457">
        <ele>608.56640625</ele>
        <time>2020-06-21T10:19:35Z</time>
      </trkpt>
      <trkpt lat="43.19615" lon="5.94455">
        <ele>608.38671875</ele>
        <time>2020-06-21T10:19:36Z</time>
      </trkpt>
      <trkpt lat="43.19616" lon="5.94451">
        <ele>608.17578125</ele>
        <time>2020-06-21T10:19:37Z</time>
      </trkpt>
      <trkpt lat="43.19618" lon="5.94437">
        <ele>607.4375</ele>
        <time>2020-06-21T10:19:41Z</time>
      </trkpt>
      <trkpt lat="43.19616" lon="5.94432">
        <ele>606.69921875</ele>
        <time>2020-06-21T10:19:43Z</time>
      </trkpt>
      <trkpt lat="43.19614" lon="5.94433">
        <ele>606.1015625</ele>
        <time>2020-06-21T10:19:45Z</time>
      </trkpt>
      <trkpt lat="43.19612" lon="5.94435">
        <ele>605.703125</ele>
        <time>2020-06-21T10:19:46Z</time>
      </trkpt>
      <trkpt lat="43.1961" lon="5.94436">
        <ele>605.1875</ele>
        <time>2020-06-21T10:19:47Z</time>
      </trkpt>
      <trkpt lat="43.19588" lon="5.94447">
        <ele>599.80078125</ele>
        <time>2020-06-21T10:19:53Z</time>
      </trkpt>
      <trkpt lat="43.19584" lon="5.94449">
        <ele>598.99609375</ele>
        <time>2020-06-21T10:19:54Z</time>
      </trkpt>
      <trkpt lat="43.19582" lon="5.94451">
        <ele>598.49609375</ele>
        <time>2020-06-21T10:19:55Z</time>
      </trkpt>
      <trkpt lat="43.19578" lon="5.94452">
        <ele>597.828125</ele>
        <time>2020-06-21T10:19:56Z</time>
      </trkpt>
      <trkpt lat="43.19575" lon="5.94454">
        <ele>597</ele>
        <time>2020-06-21T10:19:57Z</time>
      </trkpt>
      <trkpt lat="43.19566" lon="5.94456">
        <ele>595.26171875</ele>
        <time>2020-06-21T10:19:59Z</time>
      </trkpt>
      <trkpt lat="43.19558" lon="5.9446">
        <ele>594.15625</ele>
        <time>2020-06-21T10:20:01Z</time>
      </trkpt>
      <trkpt lat="43.19554" lon="5.9446">
        <ele>593.51171875</ele>
        <time>2020-06-21T10:20:02Z</time>
      </trkpt>
      <trkpt lat="43.19551" lon="5.9446">
        <ele>592.81640625</ele>
        <time>2020-06-21T10:20:03Z</time>
      </trkpt>
      <trkpt lat="43.19548" lon="5.94459">
        <ele>592.15234375</ele>
        <time>2020-06-21T10:20:04Z</time>
      </trkpt>
      <trkpt lat="43.19545" lon="5.94458">
        <ele>591.36328125</ele>
        <time>2020-06-21T10:20:05Z</time>
      </trkpt>
      <trkpt lat="43.19541" lon="5.94458">
        <ele>590.78515625</ele>
        <time>2020-06-21T10:20:06Z</time>
      </trkpt>
      <trkpt lat="43.19538" lon="5.94459">
        <ele>590.44140625</ele>
        <time>2020-06-21T10:20:07Z</time>
      </trkpt>
      <trkpt lat="43.19534" lon="5.94459">
        <ele>589.7421875</ele>
        <time>2020-06-21T10:20:08Z</time>
      </trkpt>
      <trkpt lat="43.1953" lon="5.94458">
        <ele>588.85546875</ele>
        <time>2020-06-21T10:20:09Z</time>
      </trkpt>
      <trkpt lat="43.19527" lon="5.94456">
        <ele>588.0546875</ele>
        <time>2020-06-21T10:20:10Z</time>
      </trkpt>
      <trkpt lat="43.19523" lon="5.94456">
        <ele>587.328125</ele>
        <time>2020-06-21T10:20:11Z</time>
      </trkpt>
      <trkpt lat="43.19518" lon="5.94456">
        <ele>586.55078125</ele>
        <time>2020-06-21T10:20:12Z</time>
      </trkpt>
      <trkpt lat="43.19513" lon="5.94456">
        <ele>585.78125</ele>
        <time>2020-06-21T10:20:13Z</time>
      </trkpt>
      <trkpt lat="43.19509" lon="5.94456">
        <ele>585.0078125</ele>
        <time>2020-06-21T10:20:14Z</time>
      </trkpt>
      <trkpt lat="43.19504" lon="5.94456">
        <ele>584.39453125</ele>
        <time>2020-06-21T10:20:15Z</time>
      </trkpt>
      <trkpt lat="43.195" lon="5.94457">
        <ele>583.94921875</ele>
        <time>2020-06-21T10:20:16Z</time>
      </trkpt>
      <trkpt lat="43.19496" lon="5.94459">
        <ele>583.53125</ele>
        <time>2020-06-21T10:20:17Z</time>
      </trkpt>
      <trkpt lat="43.19492" lon="5.9446">
        <ele>583.15625</ele>
        <time>2020-06-21T10:20:18Z</time>
      </trkpt>
      <trkpt lat="43.19488" lon="5.94462">
        <ele>582.91015625</ele>
        <time>2020-06-21T10:20:19Z</time>
      </trkpt>
      <trkpt lat="43.19484" lon="5.94466">
        <ele>582.83984375</ele>
        <time>2020-06-21T10:20:20Z</time>
      </trkpt>
      <trkpt lat="43.19481" lon="5.94467">
        <ele>582.6640625</ele>
        <time>2020-06-21T10:20:21Z</time>
      </trkpt>
      <trkpt lat="43.19478" lon="5.94468">
        <ele>582.421875</ele>
        <time>2020-06-21T10:20:22Z</time>
      </trkpt>
      <trkpt lat="43.19476" lon="5.94469">
        <ele>582.3203125</ele>
        <time>2020-06-21T10:20:23Z</time>
      </trkpt>
      <trkpt lat="43.19474" lon="5.9447">
        <ele>582.1484375</ele>
        <time>2020-06-21T10:20:24Z</time>
      </trkpt>
      <trkpt lat="43.19471" lon="5.94471">
        <ele>581.80859375</ele>
        <time>2020-06-21T10:20:25Z</time>
      </trkpt>
      <trkpt lat="43.19468" lon="5.94471">
        <ele>581.36328125</ele>
        <time>2020-06-21T10:20:26Z</time>
      </trkpt>
      <trkpt lat="43.19466" lon="5.94473">
        <ele>581.23828125</ele>
        <time>2020-06-21T10:20:27Z</time>
      </trkpt>
      <trkpt lat="43.19463" lon="5.94475">
        <ele>581.31640625</ele>
        <time>2020-06-21T10:20:28Z</time>
      </trkpt>
      <trkpt lat="43.19461" lon="5.94477">
        <ele>581.25390625</ele>
        <time>2020-06-21T10:20:29Z</time>
      </trkpt>
      <trkpt lat="43.19458" lon="5.94478">
        <ele>580.95703125</ele>
        <time>2020-06-21T10:20:30Z</time>
      </trkpt>
      <trkpt lat="43.19448" lon="5.94481">
        <ele>579.875</ele>
        <time>2020-06-21T10:20:33Z</time>
      </trkpt>
      <trkpt lat="43.19445" lon="5.9448">
        <ele>579.26171875</ele>
        <time>2020-06-21T10:20:34Z</time>
      </trkpt>
      <trkpt lat="43.19443" lon="5.94477">
        <ele>578.51953125</ele>
        <time>2020-06-21T10:20:35Z</time>
      </trkpt>
      <trkpt lat="43.19441" lon="5.94472">
        <ele>577.6796875</ele>
        <time>2020-06-21T10:20:36Z</time>
      </trkpt>
      <trkpt lat="43.19439" lon="5.94468">
        <ele>576.99609375</ele>
        <time>2020-06-21T10:20:37Z</time>
      </trkpt>
      <trkpt lat="43.19437" lon="5.94466">
        <ele>576.5</ele>
        <time>2020-06-21T10:20:38Z</time>
      </trkpt>
      <trkpt lat="43.19434" lon="5.94467">
        <ele>576.14453125</ele>
        <time>2020-06-21T10:20:39Z</time>
      </trkpt>
      <trkpt lat="43.19431" lon="5.94468">
        <ele>575.8125</ele>
        <time>2020-06-21T10:20:40Z</time>
      </trkpt>
      <trkpt lat="43.19427" lon="5.94469">
        <ele>575.3671875</ele>
        <time>2020-06-21T10:20:41Z</time>
      </trkpt>
      <trkpt lat="43.19423" lon="5.94471">
        <ele>574.82421875</ele>
        <time>2020-06-21T10:20:42Z</time>
      </trkpt>
      <trkpt lat="43.19401" lon="5.94475">
        <ele>572.94921875</ele>
        <time>2020-06-21T10:20:48Z</time>
      </trkpt>
      <trkpt lat="43.19392" lon="5.94478">
        <ele>572.2734375</ele>
        <time>2020-06-21T10:20:52Z</time>
      </trkpt>
      <trkpt lat="43.19391" lon="5.94477">
        <ele>571.9765625</ele>
        <time>2020-06-21T10:20:55Z</time>
      </trkpt>
      <trkpt lat="43.19389" lon="5.94476">
        <ele>571.671875</ele>
        <time>2020-06-21T10:20:56Z</time>
      </trkpt>
      <trkpt lat="43.19382" lon="5.94474">
        <ele>570.77734375</ele>
        <time>2020-06-21T10:20:58Z</time>
      </trkpt>
      <trkpt lat="43.19378" lon="5.94472">
        <ele>570.15234375</ele>
        <time>2020-06-21T10:20:59Z</time>
      </trkpt>
      <trkpt lat="43.19363" lon="5.94466">
        <ele>567.9765625</ele>
        <time>2020-06-21T10:21:03Z</time>
      </trkpt>
      <trkpt lat="43.19359" lon="5.94465">
        <ele>567.48828125</ele>
        <time>2020-06-21T10:21:14Z</time>
      </trkpt>
      <trkpt lat="43.19348" lon="5.9444">
        <ele>564.03125</ele>
        <time>2020-06-21T10:21:26Z</time>
      </trkpt>
      <trkpt lat="43.19332" lon="5.94408">
        <ele>560.12890625</ele>
        <time>2020-06-21T10:21:36Z</time>
      </trkpt>
      <trkpt lat="43.1933" lon="5.94405">
        <ele>559.7265625</ele>
        <time>2020-06-21T10:21:37Z</time>
      </trkpt>
      <trkpt lat="43.19326" lon="5.94394">
        <ele>558.60546875</ele>
        <time>2020-06-21T10:21:40Z</time>
      </trkpt>
      <trkpt lat="43.19334" lon="5.94359">
        <ele>559.8203125</ele>
        <time>2020-06-21T10:21:49Z</time>
      </trkpt>
      <trkpt lat="43.19335" lon="5.94317">
        <ele>557.15625</ele>
        <time>2020-06-21T10:21:58Z</time>
      </trkpt>
      <trkpt lat="43.1934" lon="5.94299">
        <ele>556.14453125</ele>
        <time>2020-06-21T10:22:03Z</time>
      </trkpt>
      <trkpt lat="43.19341" lon="5.94299">
        <ele>556.2890625</ele>
        <time>2020-06-21T10:22:17Z</time>
      </trkpt>
      <trkpt lat="43.19345" lon="5.94299">
        <ele>556.875</ele>
        <time>2020-06-21T10:22:29Z</time>
      </trkpt>
      <trkpt lat="43.19347" lon="5.94287">
        <ele>555.55859375</ele>
        <time>2020-06-21T10:22:43Z</time>
      </trkpt>
      <trkpt lat="43.19345" lon="5.94286">
        <ele>554.95703125</ele>
        <time>2020-06-21T10:22:52Z</time>
      </trkpt>
      <trkpt lat="43.19345" lon="5.94279">
        <ele>554.23046875</ele>
        <time>2020-06-21T10:22:56Z</time>
      </trkpt>
      <trkpt lat="43.19346" lon="5.94277">
        <ele>554</ele>
        <time>2020-06-21T10:22:57Z</time>
      </trkpt>
      <trkpt lat="43.19347" lon="5.94274">
        <ele>553.8359375</ele>
        <time>2020-06-21T10:22:58Z</time>
      </trkpt>
      <trkpt lat="43.19347" lon="5.94271">
        <ele>553.69921875</ele>
        <time>2020-06-21T10:22:59Z</time>
      </trkpt>
      <trkpt lat="43.19348" lon="5.94269">
        <ele>553.484375</ele>
        <time>2020-06-21T10:23:00Z</time>
      </trkpt>
      <trkpt lat="43.19347" lon="5.94267">
        <ele>553.19140625</ele>
        <time>2020-06-21T10:23:01Z</time>
      </trkpt>
      <trkpt lat="43.19345" lon="5.94266">
        <ele>552.796875</ele>
        <time>2020-06-21T10:23:02Z</time>
      </trkpt>
      <trkpt lat="43.19343" lon="5.94265">
        <ele>552.25390625</ele>
        <time>2020-06-21T10:23:03Z</time>
      </trkpt>
      <trkpt lat="43.19341" lon="5.94264">
        <ele>551.65234375</ele>
        <time>2020-06-21T10:23:04Z</time>
      </trkpt>
      <trkpt lat="43.19338" lon="5.94262">
        <ele>551.0625</ele>
        <time>2020-06-21T10:23:05Z</time>
      </trkpt>
      <trkpt lat="43.19335" lon="5.9426">
        <ele>550.390625</ele>
        <time>2020-06-21T10:23:06Z</time>
      </trkpt>
      <trkpt lat="43.19332" lon="5.94257">
        <ele>549.65625</ele>
        <time>2020-06-21T10:23:07Z</time>
      </trkpt>
      <trkpt lat="43.19325" lon="5.94252">
        <ele>548.0234375</ele>
        <time>2020-06-21T10:23:10Z</time>
      </trkpt>
      <trkpt lat="43.19319" lon="5.94245">
        <ele>546.7890625</ele>
        <time>2020-06-21T10:23:13Z</time>
      </trkpt>
      <trkpt lat="43.19318" lon="5.94244">
        <ele>546.53125</ele>
        <time>2020-06-21T10:23:14Z</time>
      </trkpt>
      <trkpt lat="43.19316" lon="5.94242">
        <ele>546.2421875</ele>
        <time>2020-06-21T10:23:15Z</time>
      </trkpt>
      <trkpt lat="43.19314" lon="5.9424">
        <ele>545.84765625</ele>
        <time>2020-06-21T10:23:16Z</time>
      </trkpt>
      <trkpt lat="43.19311" lon="5.94238">
        <ele>545.37109375</ele>
        <time>2020-06-21T10:23:17Z</time>
      </trkpt>
      <trkpt lat="43.1931" lon="5.94237">
        <ele>544.9453125</ele>
        <time>2020-06-21T10:23:18Z</time>
      </trkpt>
      <trkpt lat="43.19308" lon="5.94235">
        <ele>544.58203125</ele>
        <time>2020-06-21T10:23:19Z</time>
      </trkpt>
      <trkpt lat="43.19306" lon="5.94233">
        <ele>544.15234375</ele>
        <time>2020-06-21T10:23:20Z</time>
      </trkpt>
      <trkpt lat="43.19304" lon="5.94232">
        <ele>543.6171875</ele>
        <time>2020-06-21T10:23:21Z</time>
      </trkpt>
      <trkpt lat="43.19302" lon="5.9423">
        <ele>543.07421875</ele>
        <time>2020-06-21T10:23:22Z</time>
      </trkpt>
      <trkpt lat="43.193" lon="5.94227">
        <ele>542.52734375</ele>
        <time>2020-06-21T10:23:23Z</time>
      </trkpt>
      <trkpt lat="43.19283" lon="5.94211">
        <ele>538.328125</ele>
        <time>2020-06-21T10:23:29Z</time>
      </trkpt>
      <trkpt lat="43.19271" lon="5.94202">
        <ele>535.95703125</ele>
        <time>2020-06-21T10:23:34Z</time>
      </trkpt>
      <trkpt lat="43.19261" lon="5.94197">
        <ele>533.8515625</ele>
        <time>2020-06-21T10:23:39Z</time>
      </trkpt>
      <trkpt lat="43.19248" lon="5.94178">
        <ele>529.7890625</ele>
        <time>2020-06-21T10:23:48Z</time>
      </trkpt>
      <trkpt lat="43.19243" lon="5.94176">
        <ele>528.41015625</ele>
        <time>2020-06-21T10:23:50Z</time>
      </trkpt>
      <trkpt lat="43.1924" lon="5.94175">
        <ele>527.8984375</ele>
        <time>2020-06-21T10:23:51Z</time>
      </trkpt>
      <trkpt lat="43.19238" lon="5.94173">
        <ele>527.0234375</ele>
        <time>2020-06-21T10:23:52Z</time>
      </trkpt>
      <trkpt lat="43.19226" lon="5.94165">
        <ele>523.47265625</ele>
        <time>2020-06-21T10:23:56Z</time>
      </trkpt>
      <trkpt lat="43.19224" lon="5.94161">
        <ele>523.07421875</ele>
        <time>2020-06-21T10:23:57Z</time>
      </trkpt>
      <trkpt lat="43.19223" lon="5.94156">
        <ele>522.73046875</ele>
        <time>2020-06-21T10:23:58Z</time>
      </trkpt>
      <trkpt lat="43.19222" lon="5.94151">
        <ele>522.4296875</ele>
        <time>2020-06-21T10:23:59Z</time>
      </trkpt>
      <trkpt lat="43.19221" lon="5.94146">
        <ele>522.03125</ele>
        <time>2020-06-21T10:24:00Z</time>
      </trkpt>
      <trkpt lat="43.19218" lon="5.94141">
        <ele>521.50390625</ele>
        <time>2020-06-21T10:24:01Z</time>
      </trkpt>
      <trkpt lat="43.19215" lon="5.94139">
        <ele>520.98046875</ele>
        <time>2020-06-21T10:24:02Z</time>
      </trkpt>
      <trkpt lat="43.19212" lon="5.94139">
        <ele>520.5078125</ele>
        <time>2020-06-21T10:24:03Z</time>
      </trkpt>
      <trkpt lat="43.19209" lon="5.94139">
        <ele>520.12890625</ele>
        <time>2020-06-21T10:24:04Z</time>
      </trkpt>
      <trkpt lat="43.19207" lon="5.94139">
        <ele>519.81640625</ele>
        <time>2020-06-21T10:24:05Z</time>
      </trkpt>
      <trkpt lat="43.19205" lon="5.9414">
        <ele>519.46875</ele>
        <time>2020-06-21T10:24:06Z</time>
      </trkpt>
      <trkpt lat="43.19202" lon="5.94141">
        <ele>519.15234375</ele>
        <time>2020-06-21T10:24:07Z</time>
      </trkpt>
      <trkpt lat="43.19199" lon="5.94142">
        <ele>518.8046875</ele>
        <time>2020-06-21T10:24:08Z</time>
      </trkpt>
      <trkpt lat="43.19197" lon="5.94143">
        <ele>518.4140625</ele>
        <time>2020-06-21T10:24:09Z</time>
      </trkpt>
      <trkpt lat="43.19194" lon="5.94144">
        <ele>518.01953125</ele>
        <time>2020-06-21T10:24:10Z</time>
      </trkpt>
      <trkpt lat="43.19191" lon="5.94144">
        <ele>517.64453125</ele>
        <time>2020-06-21T10:24:11Z</time>
      </trkpt>
      <trkpt lat="43.19189" lon="5.94145">
        <ele>517.26171875</ele>
        <time>2020-06-21T10:24:12Z</time>
      </trkpt>
      <trkpt lat="43.19186" lon="5.94145">
        <ele>516.80859375</ele>
        <time>2020-06-21T10:24:13Z</time>
      </trkpt>
      <trkpt lat="43.19145" lon="5.9414">
        <ele>511.82421875</ele>
        <time>2020-06-21T10:24:25Z</time>
      </trkpt>
      <trkpt lat="43.19123" lon="5.94116">
        <ele>511.46875</ele>
        <time>2020-06-21T10:24:36Z</time>
      </trkpt>
      <trkpt lat="43.19117" lon="5.94114">
        <ele>511.40625</ele>
        <time>2020-06-21T10:24:46Z</time>
      </trkpt>
      <trkpt lat="43.19116" lon="5.94114">
        <ele>511.37890625</ele>
        <time>2020-06-21T10:24:56Z</time>
      </trkpt>
      <trkpt lat="43.19114" lon="5.94114">
        <ele>511.28515625</ele>
        <time>2020-06-21T10:24:57Z</time>
      </trkpt>
      <trkpt lat="43.1909" lon="5.94115">
        <ele>509.7890625</ele>
        <time>2020-06-21T10:25:08Z</time>
      </trkpt>
      <trkpt lat="43.19056" lon="5.94102">
        <ele>509.89453125</ele>
        <time>2020-06-21T10:25:21Z</time>
      </trkpt>
      <trkpt lat="43.1903" lon="5.94064">
        <ele>512.9921875</ele>
        <time>2020-06-21T10:25:32Z</time>
      </trkpt>
      <trkpt lat="43.19025" lon="5.94043">
        <ele>514.20703125</ele>
        <time>2020-06-21T10:25:36Z</time>
      </trkpt>
      <trkpt lat="43.19022" lon="5.94039">
        <ele>513.90234375</ele>
        <time>2020-06-21T10:25:37Z</time>
      </trkpt>
      <trkpt lat="43.19017" lon="5.94035">
        <ele>513.36328125</ele>
        <time>2020-06-21T10:25:38Z</time>
      </trkpt>
      <trkpt lat="43.19012" lon="5.94033">
        <ele>512.6328125</ele>
        <time>2020-06-21T10:25:39Z</time>
      </trkpt>
      <trkpt lat="43.19007" lon="5.94031">
        <ele>511.82421875</ele>
        <time>2020-06-21T10:25:40Z</time>
      </trkpt>
      <trkpt lat="43.19002" lon="5.9403">
        <ele>511.02734375</ele>
        <time>2020-06-21T10:25:41Z</time>
      </trkpt>
      <trkpt lat="43.18998" lon="5.94029">
        <ele>510.29296875</ele>
        <time>2020-06-21T10:25:42Z</time>
      </trkpt>
      <trkpt lat="43.18994" lon="5.94028">
        <ele>509.63671875</ele>
        <time>2020-06-21T10:25:43Z</time>
      </trkpt>
      <trkpt lat="43.18982" lon="5.94011">
        <ele>507.47265625</ele>
        <time>2020-06-21T10:25:48Z</time>
      </trkpt>
      <trkpt lat="43.1898" lon="5.94004">
        <ele>507.1015625</ele>
        <time>2020-06-21T10:25:49Z</time>
      </trkpt>
      <trkpt lat="43.18978" lon="5.93997">
        <ele>506.77734375</ele>
        <time>2020-06-21T10:25:50Z</time>
      </trkpt>
      <trkpt lat="43.18977" lon="5.93989">
        <ele>506.67578125</ele>
        <time>2020-06-21T10:25:51Z</time>
      </trkpt>
      <trkpt lat="43.18976" lon="5.93981">
        <ele>506.6796875</ele>
        <time>2020-06-21T10:25:52Z</time>
      </trkpt>
      <trkpt lat="43.18972" lon="5.93951">
        <ele>505.36328125</ele>
        <time>2020-06-21T10:25:56Z</time>
      </trkpt>
      <trkpt lat="43.18967" lon="5.93923">
        <ele>503.19140625</ele>
        <time>2020-06-21T10:26:00Z</time>
      </trkpt>
      <trkpt lat="43.18963" lon="5.939">
        <ele>500.43359375</ele>
        <time>2020-06-21T10:26:04Z</time>
      </trkpt>
      <trkpt lat="43.18963" lon="5.93894">
        <ele>499.73828125</ele>
        <time>2020-06-21T10:26:05Z</time>
      </trkpt>
      <trkpt lat="43.18962" lon="5.93866">
        <ele>497.2265625</ele>
        <time>2020-06-21T10:26:09Z</time>
      </trkpt>
      <trkpt lat="43.18961" lon="5.93854">
        <ele>496.2734375</ele>
        <time>2020-06-21T10:26:11Z</time>
      </trkpt>
      <trkpt lat="43.1896" lon="5.93849">
        <ele>495.67578125</ele>
        <time>2020-06-21T10:26:12Z</time>
      </trkpt>
      <trkpt lat="43.1896" lon="5.93846">
        <ele>495.30078125</ele>
        <time>2020-06-21T10:26:13Z</time>
      </trkpt>
      <trkpt lat="43.18959" lon="5.93842">
        <ele>494.9140625</ele>
        <time>2020-06-21T10:26:14Z</time>
      </trkpt>
      <trkpt lat="43.18958" lon="5.9384">
        <ele>494.3359375</ele>
        <time>2020-06-21T10:26:25Z</time>
      </trkpt>
      <trkpt lat="43.18956" lon="5.93839">
        <ele>493.671875</ele>
        <time>2020-06-21T10:26:42Z</time>
      </trkpt>
      <trkpt lat="43.18954" lon="5.9384">
        <ele>493.234375</ele>
        <time>2020-06-21T10:26:43Z</time>
      </trkpt>
      <trkpt lat="43.18952" lon="5.93841">
        <ele>492.6796875</ele>
        <time>2020-06-21T10:26:44Z</time>
      </trkpt>
      <trkpt lat="43.18943" lon="5.93849">
        <ele>490.15234375</ele>
        <time>2020-06-21T10:26:47Z</time>
      </trkpt>
      <trkpt lat="43.1894" lon="5.93853">
        <ele>489.3359375</ele>
        <time>2020-06-21T10:26:48Z</time>
      </trkpt>
      <trkpt lat="43.18938" lon="5.93858">
        <ele>488.8125</ele>
        <time>2020-06-21T10:26:49Z</time>
      </trkpt>
      <trkpt lat="43.18931" lon="5.93873">
        <ele>487.80078125</ele>
        <time>2020-06-21T10:26:52Z</time>
      </trkpt>
      <trkpt lat="43.18928" lon="5.93878">
        <ele>487.171875</ele>
        <time>2020-06-21T10:26:53Z</time>
      </trkpt>
      <trkpt lat="43.18913" lon="5.939">
        <ele>484.23046875</ele>
        <time>2020-06-21T10:26:57Z</time>
      </trkpt>
      <trkpt lat="43.1889" lon="5.93925">
        <ele>478.0234375</ele>
        <time>2020-06-21T10:27:02Z</time>
      </trkpt>
      <trkpt lat="43.18886" lon="5.9393">
        <ele>476.77734375</ele>
        <time>2020-06-21T10:27:03Z</time>
      </trkpt>
      <trkpt lat="43.18883" lon="5.93936">
        <ele>475.671875</ele>
        <time>2020-06-21T10:27:04Z</time>
      </trkpt>
      <trkpt lat="43.18875" lon="5.9395">
        <ele>472.60546875</ele>
        <time>2020-06-21T10:27:07Z</time>
      </trkpt>
      <trkpt lat="43.18866" lon="5.93963">
        <ele>469.140625</ele>
        <time>2020-06-21T10:27:10Z</time>
      </trkpt>
      <trkpt lat="43.18864" lon="5.93969">
        <ele>468.20703125</ele>
        <time>2020-06-21T10:27:11Z</time>
      </trkpt>
      <trkpt lat="43.18859" lon="5.93981">
        <ele>466.26953125</ele>
        <time>2020-06-21T10:27:13Z</time>
      </trkpt>
      <trkpt lat="43.18858" lon="5.93987">
        <ele>465.48828125</ele>
        <time>2020-06-21T10:27:14Z</time>
      </trkpt>
      <trkpt lat="43.18856" lon="5.93993">
        <ele>464.8046875</ele>
        <time>2020-06-21T10:27:15Z</time>
      </trkpt>
      <trkpt lat="43.18852" lon="5.94015">
        <ele>461.92578125</ele>
        <time>2020-06-21T10:27:18Z</time>
      </trkpt>
      <trkpt lat="43.18849" lon="5.9402">
        <ele>460.74609375</ele>
        <time>2020-06-21T10:27:19Z</time>
      </trkpt>
      <trkpt lat="43.18846" lon="5.94021">
        <ele>459.546875</ele>
        <time>2020-06-21T10:27:20Z</time>
      </trkpt>
      <trkpt lat="43.18843" lon="5.9402">
        <ele>458.515625</ele>
        <time>2020-06-21T10:27:21Z</time>
      </trkpt>
      <trkpt lat="43.18841" lon="5.94018">
        <ele>457.66015625</ele>
        <time>2020-06-21T10:27:22Z</time>
      </trkpt>
      <trkpt lat="43.18838" lon="5.94014">
        <ele>457.07421875</ele>
        <time>2020-06-21T10:27:23Z</time>
      </trkpt>
      <trkpt lat="43.18837" lon="5.94009">
        <ele>456.88671875</ele>
        <time>2020-06-21T10:27:24Z</time>
      </trkpt>
      <trkpt lat="43.18836" lon="5.94003">
        <ele>456.83984375</ele>
        <time>2020-06-21T10:27:25Z</time>
      </trkpt>
      <trkpt lat="43.18832" lon="5.9399">
        <ele>456.28125</ele>
        <time>2020-06-21T10:27:27Z</time>
      </trkpt>
      <trkpt lat="43.18829" lon="5.93983">
        <ele>455.43359375</ele>
        <time>2020-06-21T10:27:28Z</time>
      </trkpt>
      <trkpt lat="43.18818" lon="5.93957">
        <ele>452.078125</ele>
        <time>2020-06-21T10:27:32Z</time>
      </trkpt>
      <trkpt lat="43.18809" lon="5.93939">
        <ele>449.609375</ele>
        <time>2020-06-21T10:27:35Z</time>
      </trkpt>
      <trkpt lat="43.18807" lon="5.93934">
        <ele>448.83984375</ele>
        <time>2020-06-21T10:27:36Z</time>
      </trkpt>
      <trkpt lat="43.18806" lon="5.93928">
        <ele>448.4140625</ele>
        <time>2020-06-21T10:27:37Z</time>
      </trkpt>
      <trkpt lat="43.18805" lon="5.93923">
        <ele>448.078125</ele>
        <time>2020-06-21T10:27:38Z</time>
      </trkpt>
      <trkpt lat="43.18803" lon="5.93919">
        <ele>447.4609375</ele>
        <time>2020-06-21T10:27:39Z</time>
      </trkpt>
      <trkpt lat="43.18801" lon="5.93915">
        <ele>446.7109375</ele>
        <time>2020-06-21T10:27:40Z</time>
      </trkpt>
      <trkpt lat="43.18799" lon="5.9391">
        <ele>446.05859375</ele>
        <time>2020-06-21T10:27:41Z</time>
      </trkpt>
      <trkpt lat="43.18798" lon="5.93905">
        <ele>445.6484375</ele>
        <time>2020-06-21T10:27:42Z</time>
      </trkpt>
      <trkpt lat="43.18798" lon="5.93899">
        <ele>445.47265625</ele>
        <time>2020-06-21T10:27:43Z</time>
      </trkpt>
      <trkpt lat="43.18798" lon="5.93893">
        <ele>445.484375</ele>
        <time>2020-06-21T10:27:44Z</time>
      </trkpt>
      <trkpt lat="43.18798" lon="5.93886">
        <ele>445.4375</ele>
        <time>2020-06-21T10:27:45Z</time>
      </trkpt>
      <trkpt lat="43.18798" lon="5.93879">
        <ele>445.03125</ele>
        <time>2020-06-21T10:27:46Z</time>
      </trkpt>
      <trkpt lat="43.18797" lon="5.93873">
        <ele>444.3671875</ele>
        <time>2020-06-21T10:27:47Z</time>
      </trkpt>
      <trkpt lat="43.18796" lon="5.93867">
        <ele>443.54296875</ele>
        <time>2020-06-21T10:27:48Z</time>
      </trkpt>
      <trkpt lat="43.18794" lon="5.93863">
        <ele>442.609375</ele>
        <time>2020-06-21T10:27:49Z</time>
      </trkpt>
      <trkpt lat="43.18791" lon="5.93858">
        <ele>441.5625</ele>
        <time>2020-06-21T10:27:50Z</time>
      </trkpt>
      <trkpt lat="43.18788" lon="5.93854">
        <ele>440.40625</ele>
        <time>2020-06-21T10:27:51Z</time>
      </trkpt>
      <trkpt lat="43.18785" lon="5.9385">
        <ele>439.10546875</ele>
        <time>2020-06-21T10:27:52Z</time>
      </trkpt>
      <trkpt lat="43.18781" lon="5.93845">
        <ele>437.64453125</ele>
        <time>2020-06-21T10:27:53Z</time>
      </trkpt>
      <trkpt lat="43.18777" lon="5.93841">
        <ele>436.171875</ele>
        <time>2020-06-21T10:27:54Z</time>
      </trkpt>
      <trkpt lat="43.18758" lon="5.93832">
        <ele>430.02734375</ele>
        <time>2020-06-21T10:27:59Z</time>
      </trkpt>
      <trkpt lat="43.18756" lon="5.93834">
        <ele>429.64453125</ele>
        <time>2020-06-21T10:28:00Z</time>
      </trkpt>
      <trkpt lat="43.18754" lon="5.93837">
        <ele>429.34375</ele>
        <time>2020-06-21T10:28:01Z</time>
      </trkpt>
      <trkpt lat="43.18753" lon="5.9384">
        <ele>429.1328125</ele>
        <time>2020-06-21T10:28:02Z</time>
      </trkpt>
      <trkpt lat="43.18752" lon="5.93843">
        <ele>429.00390625</ele>
        <time>2020-06-21T10:28:03Z</time>
      </trkpt>
      <trkpt lat="43.18751" lon="5.93846">
        <ele>428.921875</ele>
        <time>2020-06-21T10:28:04Z</time>
      </trkpt>
      <trkpt lat="43.18751" lon="5.93849">
        <ele>428.94140625</ele>
        <time>2020-06-21T10:28:05Z</time>
      </trkpt>
      <trkpt lat="43.18752" lon="5.9385">
        <ele>429.26171875</ele>
        <time>2020-06-21T10:28:18Z</time>
      </trkpt>
      <trkpt lat="43.18752" lon="5.9385">
        <ele>429.23828125</ele>
        <time>2020-06-21T10:28:42Z</time>
      </trkpt>
      <trkpt lat="43.1875" lon="5.93861">
        <ele>428.75390625</ele>
        <time>2020-06-21T10:29:05Z</time>
      </trkpt>
      <trkpt lat="43.18749" lon="5.9388">
        <ele>428.3359375</ele>
        <time>2020-06-21T10:29:09Z</time>
      </trkpt>
      <trkpt lat="43.18748" lon="5.93886">
        <ele>428.01953125</ele>
        <time>2020-06-21T10:29:10Z</time>
      </trkpt>
      <trkpt lat="43.18747" lon="5.93891">
        <ele>427.4921875</ele>
        <time>2020-06-21T10:29:11Z</time>
      </trkpt>
      <trkpt lat="43.18746" lon="5.93895">
        <ele>426.80078125</ele>
        <time>2020-06-21T10:29:12Z</time>
      </trkpt>
      <trkpt lat="43.18744" lon="5.939">
        <ele>426.08984375</ele>
        <time>2020-06-21T10:29:13Z</time>
      </trkpt>
      <trkpt lat="43.18743" lon="5.93906">
        <ele>425.47265625</ele>
        <time>2020-06-21T10:29:14Z</time>
      </trkpt>
      <trkpt lat="43.18743" lon="5.93913">
        <ele>424.81640625</ele>
        <time>2020-06-21T10:29:15Z</time>
      </trkpt>
      <trkpt lat="43.18741" lon="5.93938">
        <ele>423.03125</ele>
        <time>2020-06-21T10:29:19Z</time>
      </trkpt>
      <trkpt lat="43.18741" lon="5.93944">
        <ele>422.76953125</ele>
        <time>2020-06-21T10:29:20Z</time>
      </trkpt>
      <trkpt lat="43.18741" lon="5.9395">
        <ele>422.4609375</ele>
        <time>2020-06-21T10:29:21Z</time>
      </trkpt>
      <trkpt lat="43.18741" lon="5.93975">
        <ele>421.23828125</ele>
        <time>2020-06-21T10:29:24Z</time>
      </trkpt>
      <trkpt lat="43.18741" lon="5.93984">
        <ele>420.89453125</ele>
        <time>2020-06-21T10:29:25Z</time>
      </trkpt>
      <trkpt lat="43.18739" lon="5.9399">
        <ele>420.3046875</ele>
        <time>2020-06-21T10:29:26Z</time>
      </trkpt>
      <trkpt lat="43.18738" lon="5.93994">
        <ele>419.59765625</ele>
        <time>2020-06-21T10:29:27Z</time>
      </trkpt>
      <trkpt lat="43.18736" lon="5.93996">
        <ele>418.94921875</ele>
        <time>2020-06-21T10:29:28Z</time>
      </trkpt>
      <trkpt lat="43.18735" lon="5.93996">
        <ele>418.28125</ele>
        <time>2020-06-21T10:29:29Z</time>
      </trkpt>
      <trkpt lat="43.18733" lon="5.93996">
        <ele>417.63671875</ele>
        <time>2020-06-21T10:29:30Z</time>
      </trkpt>
      <trkpt lat="43.18732" lon="5.93995">
        <ele>416.875</ele>
        <time>2020-06-21T10:29:31Z</time>
      </trkpt>
      <trkpt lat="43.1873" lon="5.93992">
        <ele>416.2890625</ele>
        <time>2020-06-21T10:29:32Z</time>
      </trkpt>
      <trkpt lat="43.1873" lon="5.9399">
        <ele>415.9375</ele>
        <time>2020-06-21T10:29:33Z</time>
      </trkpt>
      <trkpt lat="43.18729" lon="5.93988">
        <ele>415.71875</ele>
        <time>2020-06-21T10:29:34Z</time>
      </trkpt>
      <trkpt lat="43.18729" lon="5.93986">
        <ele>415.57421875</ele>
        <time>2020-06-21T10:29:35Z</time>
      </trkpt>
      <trkpt lat="43.18729" lon="5.93984">
        <ele>415.56640625</ele>
        <time>2020-06-21T10:29:36Z</time>
      </trkpt>
      <trkpt lat="43.18729" lon="5.93981">
        <ele>415.72265625</ele>
        <time>2020-06-21T10:29:37Z</time>
      </trkpt>
      <trkpt lat="43.1873" lon="5.93979">
        <ele>416.02734375</ele>
        <time>2020-06-21T10:29:38Z</time>
      </trkpt>
      <trkpt lat="43.18733" lon="5.93945">
        <ele>419.1484375</ele>
        <time>2020-06-21T10:29:49Z</time>
      </trkpt>
      <trkpt lat="43.1873" lon="5.93891">
        <ele>421.98828125</ele>
        <time>2020-06-21T10:30:02Z</time>
      </trkpt>
      <trkpt lat="43.18737" lon="5.93819">
        <ele>424.98828125</ele>
        <time>2020-06-21T10:30:17Z</time>
      </trkpt>
      <trkpt lat="43.18754" lon="5.93736">
        <ele>423.51953125</ele>
        <time>2020-06-21T10:30:33Z</time>
      </trkpt>
      <trkpt lat="43.18765" lon="5.93655">
        <ele>416.77734375</ele>
        <time>2020-06-21T10:30:49Z</time>
      </trkpt>
      <trkpt lat="43.18763" lon="5.93629">
        <ele>413.54296875</ele>
        <time>2020-06-21T10:30:54Z</time>
      </trkpt>
      <trkpt lat="43.18765" lon="5.93623">
        <ele>413.13671875</ele>
        <time>2020-06-21T10:30:55Z</time>
      </trkpt>
      <trkpt lat="43.18768" lon="5.93616">
        <ele>412.69921875</ele>
        <time>2020-06-21T10:30:56Z</time>
      </trkpt>
      <trkpt lat="43.18771" lon="5.93607">
        <ele>411.9140625</ele>
        <time>2020-06-21T10:30:57Z</time>
      </trkpt>
      <trkpt lat="43.18774" lon="5.93597">
        <ele>410.6328125</ele>
        <time>2020-06-21T10:30:58Z</time>
      </trkpt>
      <trkpt lat="43.18777" lon="5.93586">
        <ele>409.296875</ele>
        <time>2020-06-21T10:30:59Z</time>
      </trkpt>
      <trkpt lat="43.18786" lon="5.93551">
        <ele>405.5703125</ele>
        <time>2020-06-21T10:31:02Z</time>
      </trkpt>
      <trkpt lat="43.18788" lon="5.93537">
        <ele>404.58203125</ele>
        <time>2020-06-21T10:31:03Z</time>
      </trkpt>
      <trkpt lat="43.18794" lon="5.93497">
        <ele>403.37109375</ele>
        <time>2020-06-21T10:31:06Z</time>
      </trkpt>
      <trkpt lat="43.18797" lon="5.93466">
        <ele>402.94140625</ele>
        <time>2020-06-21T10:31:09Z</time>
      </trkpt>
      <trkpt lat="43.18798" lon="5.93447">
        <ele>402.3671875</ele>
        <time>2020-06-21T10:31:12Z</time>
      </trkpt>
      <trkpt lat="43.18799" lon="5.93442">
        <ele>402.1015625</ele>
        <time>2020-06-21T10:31:13Z</time>
      </trkpt>
      <trkpt lat="43.18803" lon="5.93394">
        <ele>399.04296875</ele>
        <time>2020-06-21T10:31:21Z</time>
      </trkpt>
      <trkpt lat="43.18803" lon="5.93384">
        <ele>397.6484375</ele>
        <time>2020-06-21T10:31:23Z</time>
      </trkpt>
      <trkpt lat="43.18802" lon="5.93381">
        <ele>396.890625</ele>
        <time>2020-06-21T10:31:24Z</time>
      </trkpt>
      <trkpt lat="43.18792" lon="5.93358">
        <ele>390.00390625</ele>
        <time>2020-06-21T10:31:30Z</time>
      </trkpt>
      <trkpt lat="43.18791" lon="5.93355">
        <ele>389.30078125</ele>
        <time>2020-06-21T10:31:31Z</time>
      </trkpt>
      <trkpt lat="43.18791" lon="5.93351">
        <ele>388.5</ele>
        <time>2020-06-21T10:31:32Z</time>
      </trkpt>
      <trkpt lat="43.18787" lon="5.93335">
        <ele>384.69140625</ele>
        <time>2020-06-21T10:31:35Z</time>
      </trkpt>
      <trkpt lat="43.18785" lon="5.9333">
        <ele>383.63671875</ele>
        <time>2020-06-21T10:31:36Z</time>
      </trkpt>
      <trkpt lat="43.18781" lon="5.93311">
        <ele>380.2734375</ele>
        <time>2020-06-21T10:31:40Z</time>
      </trkpt>
      <trkpt lat="43.18778" lon="5.93305">
        <ele>378.80859375</ele>
        <time>2020-06-21T10:31:42Z</time>
      </trkpt>
      <trkpt lat="43.18776" lon="5.93301">
        <ele>378.0078125</ele>
        <time>2020-06-21T10:31:44Z</time>
      </trkpt>
      <trkpt lat="43.18774" lon="5.93287">
        <ele>376.1484375</ele>
        <time>2020-06-21T10:31:50Z</time>
      </trkpt>
      <trkpt lat="43.18767" lon="5.93266">
        <ele>372.44140625</ele>
        <time>2020-06-21T10:31:59Z</time>
      </trkpt>
      <trkpt lat="43.18765" lon="5.93262">
        <ele>371.7578125</ele>
        <time>2020-06-21T10:32:00Z</time>
      </trkpt>
      <trkpt lat="43.18764" lon="5.93252">
        <ele>370.7734375</ele>
        <time>2020-06-21T10:32:03Z</time>
      </trkpt>
      <trkpt lat="43.18757" lon="5.9324">
        <ele>368.18359375</ele>
        <time>2020-06-21T10:32:07Z</time>
      </trkpt>
      <trkpt lat="43.18755" lon="5.93237">
        <ele>367.48046875</ele>
        <time>2020-06-21T10:32:09Z</time>
      </trkpt>
      <trkpt lat="43.18753" lon="5.93222">
        <ele>365.71484375</ele>
        <time>2020-06-21T10:32:18Z</time>
      </trkpt>
      <trkpt lat="43.18756" lon="5.93199">
        <ele>364.80078125</ele>
        <time>2020-06-21T10:32:29Z</time>
      </trkpt>
      <trkpt lat="43.18756" lon="5.93186">
        <ele>363.98046875</ele>
        <time>2020-06-21T10:32:39Z</time>
      </trkpt>
      <trkpt lat="43.1875" lon="5.93168">
        <ele>360.56640625</ele>
        <time>2020-06-21T10:32:45Z</time>
      </trkpt>
      <trkpt lat="43.18748" lon="5.93166">
        <ele>359.73046875</ele>
        <time>2020-06-21T10:32:46Z</time>
      </trkpt>
      <trkpt lat="43.18746" lon="5.93164">
        <ele>358.96875</ele>
        <time>2020-06-21T10:32:47Z</time>
      </trkpt>
      <trkpt lat="43.18741" lon="5.93149">
        <ele>356.25</ele>
        <time>2020-06-21T10:32:51Z</time>
      </trkpt>
      <trkpt lat="43.18738" lon="5.9313">
        <ele>353.53515625</ele>
        <time>2020-06-21T10:32:54Z</time>
      </trkpt>
      <trkpt lat="43.18733" lon="5.93116">
        <ele>351.18359375</ele>
        <time>2020-06-21T10:32:57Z</time>
      </trkpt>
      <trkpt lat="43.18729" lon="5.93087">
        <ele>349.03125</ele>
        <time>2020-06-21T10:33:04Z</time>
      </trkpt>
      <trkpt lat="43.18728" lon="5.93084">
        <ele>348.59765625</ele>
        <time>2020-06-21T10:33:05Z</time>
      </trkpt>
      <trkpt lat="43.18727" lon="5.93081">
        <ele>348.21484375</ele>
        <time>2020-06-21T10:33:06Z</time>
      </trkpt>
      <trkpt lat="43.18727" lon="5.93079">
        <ele>347.8515625</ele>
        <time>2020-06-21T10:33:07Z</time>
      </trkpt>
      <trkpt lat="43.18726" lon="5.93077">
        <ele>347.4609375</ele>
        <time>2020-06-21T10:33:08Z</time>
      </trkpt>
      <trkpt lat="43.18722" lon="5.93072">
        <ele>346.02734375</ele>
        <time>2020-06-21T10:33:10Z</time>
      </trkpt>
      <trkpt lat="43.1872" lon="5.93069">
        <ele>345.28125</ele>
        <time>2020-06-21T10:33:12Z</time>
      </trkpt>
      <trkpt lat="43.1872" lon="5.93067">
        <ele>345.08984375</ele>
        <time>2020-06-21T10:33:20Z</time>
      </trkpt>
      <trkpt lat="43.1872" lon="5.93064">
        <ele>344.66796875</ele>
        <time>2020-06-21T10:33:21Z</time>
      </trkpt>
      <trkpt lat="43.18718" lon="5.9306">
        <ele>343.95703125</ele>
        <time>2020-06-21T10:33:22Z</time>
      </trkpt>
      <trkpt lat="43.18717" lon="5.93055">
        <ele>343.21484375</ele>
        <time>2020-06-21T10:33:23Z</time>
      </trkpt>
      <trkpt lat="43.18716" lon="5.93049">
        <ele>342.5390625</ele>
        <time>2020-06-21T10:33:24Z</time>
      </trkpt>
      <trkpt lat="43.18713" lon="5.93031">
        <ele>340.41796875</ele>
        <time>2020-06-21T10:33:31Z</time>
      </trkpt>
      <trkpt lat="43.18709" lon="5.93025">
        <ele>338.97265625</ele>
        <time>2020-06-21T10:33:42Z</time>
      </trkpt>
      <trkpt lat="43.18709" lon="5.93022">
        <ele>338.69140625</ele>
        <time>2020-06-21T10:33:43Z</time>
      </trkpt>
      <trkpt lat="43.1871" lon="5.93019">
        <ele>338.61328125</ele>
        <time>2020-06-21T10:33:44Z</time>
      </trkpt>
      <trkpt lat="43.1871" lon="5.93017">
        <ele>338.60546875</ele>
        <time>2020-06-21T10:33:45Z</time>
      </trkpt>
      <trkpt lat="43.18713" lon="5.93012">
        <ele>338.88671875</ele>
        <time>2020-06-21T10:33:56Z</time>
      </trkpt>
      <trkpt lat="43.18712" lon="5.93">
        <ele>338.03125</ele>
        <time>2020-06-21T10:34:05Z</time>
      </trkpt>
      <trkpt lat="43.18709" lon="5.92988">
        <ele>336.15234375</ele>
        <time>2020-06-21T10:34:09Z</time>
      </trkpt>
      <trkpt lat="43.18707" lon="5.92976">
        <ele>334.56640625</ele>
        <time>2020-06-21T10:34:13Z</time>
      </trkpt>
      <trkpt lat="43.18702" lon="5.92956">
        <ele>332.31640625</ele>
        <time>2020-06-21T10:34:18Z</time>
      </trkpt>
      <trkpt lat="43.18694" lon="5.92924">
        <ele>328.83203125</ele>
        <time>2020-06-21T10:34:23Z</time>
      </trkpt>
      <trkpt lat="43.1869" lon="5.92891">
        <ele>326.31640625</ele>
        <time>2020-06-21T10:34:29Z</time>
      </trkpt>
      <trkpt lat="43.18688" lon="5.92885">
        <ele>325.2578125</ele>
        <time>2020-06-21T10:34:30Z</time>
      </trkpt>
      <trkpt lat="43.18685" lon="5.9288">
        <ele>323.921875</ele>
        <time>2020-06-21T10:34:31Z</time>
      </trkpt>
      <trkpt lat="43.18676" lon="5.92861">
        <ele>319.62109375</ele>
        <time>2020-06-21T10:34:39Z</time>
      </trkpt>
      <trkpt lat="43.18676" lon="5.92859">
        <ele>319.36328125</ele>
        <time>2020-06-21T10:35:09Z</time>
      </trkpt>
      <trkpt lat="43.1867" lon="5.9283">
        <ele>316.734375</ele>
        <time>2020-06-21T10:35:20Z</time>
      </trkpt>
      <trkpt lat="43.1867" lon="5.92823">
        <ele>316.53125</ele>
        <time>2020-06-21T10:35:21Z</time>
      </trkpt>
      <trkpt lat="43.18671" lon="5.92817">
        <ele>316.61328125</ele>
        <time>2020-06-21T10:35:22Z</time>
      </trkpt>
      <trkpt lat="43.18673" lon="5.92811">
        <ele>316.9609375</ele>
        <time>2020-06-21T10:35:23Z</time>
      </trkpt>
      <trkpt lat="43.18676" lon="5.92805">
        <ele>317.390625</ele>
        <time>2020-06-21T10:35:24Z</time>
      </trkpt>
      <trkpt lat="43.18678" lon="5.92799">
        <ele>317.734375</ele>
        <time>2020-06-21T10:35:25Z</time>
      </trkpt>
      <trkpt lat="43.1868" lon="5.92785">
        <ele>318.07421875</ele>
        <time>2020-06-21T10:35:27Z</time>
      </trkpt>
      <trkpt lat="43.1868" lon="5.92778">
        <ele>317.7109375</ele>
        <time>2020-06-21T10:35:28Z</time>
      </trkpt>
      <trkpt lat="43.18678" lon="5.92771">
        <ele>316.99609375</ele>
        <time>2020-06-21T10:35:29Z</time>
      </trkpt>
      <trkpt lat="43.18676" lon="5.92765">
        <ele>315.94140625</ele>
        <time>2020-06-21T10:35:30Z</time>
      </trkpt>
      <trkpt lat="43.18672" lon="5.92761">
        <ele>314.91015625</ele>
        <time>2020-06-21T10:35:31Z</time>
      </trkpt>
      <trkpt lat="43.18668" lon="5.92757">
        <ele>314.0234375</ele>
        <time>2020-06-21T10:35:32Z</time>
      </trkpt>
      <trkpt lat="43.18663" lon="5.92754">
        <ele>313.109375</ele>
        <time>2020-06-21T10:35:33Z</time>
      </trkpt>
      <trkpt lat="43.18658" lon="5.92751">
        <ele>312.1171875</ele>
        <time>2020-06-21T10:35:34Z</time>
      </trkpt>
      <trkpt lat="43.18653" lon="5.92749">
        <ele>311.21875</ele>
        <time>2020-06-21T10:35:35Z</time>
      </trkpt>
      <trkpt lat="43.18648" lon="5.92748">
        <ele>310.33984375</ele>
        <time>2020-06-21T10:35:36Z</time>
      </trkpt>
      <trkpt lat="43.18643" lon="5.92749">
        <ele>309.515625</ele>
        <time>2020-06-21T10:35:37Z</time>
      </trkpt>
      <trkpt lat="43.18638" lon="5.92752">
        <ele>308.73828125</ele>
        <time>2020-06-21T10:35:38Z</time>
      </trkpt>
      <trkpt lat="43.18633" lon="5.92756">
        <ele>307.9296875</ele>
        <time>2020-06-21T10:35:39Z</time>
      </trkpt>
      <trkpt lat="43.18629" lon="5.9276">
        <ele>307.05859375</ele>
        <time>2020-06-21T10:35:40Z</time>
      </trkpt>
      <trkpt lat="43.18625" lon="5.92764">
        <ele>306.1328125</ele>
        <time>2020-06-21T10:35:41Z</time>
      </trkpt>
      <trkpt lat="43.18622" lon="5.92769">
        <ele>305.18359375</ele>
        <time>2020-06-21T10:35:42Z</time>
      </trkpt>
      <trkpt lat="43.18618" lon="5.92774">
        <ele>304.265625</ele>
        <time>2020-06-21T10:35:43Z</time>
      </trkpt>
      <trkpt lat="43.18615" lon="5.92779">
        <ele>304.0625</ele>
        <time>2020-06-21T10:35:44Z</time>
      </trkpt>
      <trkpt lat="43.18612" lon="5.92783">
        <ele>303.93359375</ele>
        <time>2020-06-21T10:35:45Z</time>
      </trkpt>
      <trkpt lat="43.18609" lon="5.92788">
        <ele>303.734375</ele>
        <time>2020-06-21T10:35:46Z</time>
      </trkpt>
      <trkpt lat="43.18606" lon="5.92792">
        <ele>303.48046875</ele>
        <time>2020-06-21T10:35:47Z</time>
      </trkpt>
      <trkpt lat="43.18596" lon="5.92808">
        <ele>302.03125</ele>
        <time>2020-06-21T10:35:51Z</time>
      </trkpt>
      <trkpt lat="43.18593" lon="5.92812">
        <ele>301.60546875</ele>
        <time>2020-06-21T10:35:52Z</time>
      </trkpt>
      <trkpt lat="43.18548" lon="5.92886">
        <ele>295.84765625</ele>
        <time>2020-06-21T10:36:05Z</time>
      </trkpt>
      <trkpt lat="43.18537" lon="5.929">
        <ele>294.81640625</ele>
        <time>2020-06-21T10:36:07Z</time>
      </trkpt>
      <trkpt lat="43.18494" lon="5.92967">
        <ele>288.38671875</ele>
        <time>2020-06-21T10:36:15Z</time>
      </trkpt>
      <trkpt lat="43.18479" lon="5.92984">
        <ele>285.8671875</ele>
        <time>2020-06-21T10:36:18Z</time>
      </trkpt>
      <trkpt lat="43.18474" lon="5.92986">
        <ele>285.30859375</ele>
        <time>2020-06-21T10:36:19Z</time>
      </trkpt>
      <trkpt lat="43.18468" lon="5.92987">
        <ele>285.08984375</ele>
        <time>2020-06-21T10:36:20Z</time>
      </trkpt>
      <trkpt lat="43.18463" lon="5.92985">
        <ele>285.46484375</ele>
        <time>2020-06-21T10:36:21Z</time>
      </trkpt>
      <trkpt lat="43.18459" lon="5.9298">
        <ele>286.45703125</ele>
        <time>2020-06-21T10:36:22Z</time>
      </trkpt>
      <trkpt lat="43.18457" lon="5.92972">
        <ele>287.9453125</ele>
        <time>2020-06-21T10:36:23Z</time>
      </trkpt>
      <trkpt lat="43.18455" lon="5.92964">
        <ele>289.23828125</ele>
        <time>2020-06-21T10:36:24Z</time>
      </trkpt>
      <trkpt lat="43.18436" lon="5.92886">
        <ele>293.59765625</ele>
        <time>2020-06-21T10:36:32Z</time>
      </trkpt>
      <trkpt lat="43.18433" lon="5.92819">
        <ele>293.2421875</ele>
        <time>2020-06-21T10:36:38Z</time>
      </trkpt>
      <trkpt lat="43.18436" lon="5.92806">
        <ele>293.734375</ele>
        <time>2020-06-21T10:36:39Z</time>
      </trkpt>
      <trkpt lat="43.18446" lon="5.92754">
        <ele>294.35546875</ele>
        <time>2020-06-21T10:36:43Z</time>
      </trkpt>
      <trkpt lat="43.18447" lon="5.92741">
        <ele>293.82421875</ele>
        <time>2020-06-21T10:36:44Z</time>
      </trkpt>
      <trkpt lat="43.18447" lon="5.92687">
        <ele>290.109375</ele>
        <time>2020-06-21T10:36:48Z</time>
      </trkpt>
      <trkpt lat="43.18447" lon="5.9266">
        <ele>289.0703125</ele>
        <time>2020-06-21T10:36:50Z</time>
      </trkpt>
      <trkpt lat="43.18445" lon="5.92647">
        <ele>288.01953125</ele>
        <time>2020-06-21T10:36:51Z</time>
      </trkpt>
      <trkpt lat="43.18442" lon="5.92636">
        <ele>286.7265625</ele>
        <time>2020-06-21T10:36:52Z</time>
      </trkpt>
      <trkpt lat="43.1843" lon="5.92603">
        <ele>282.30078125</ele>
        <time>2020-06-21T10:36:56Z</time>
      </trkpt>
      <trkpt lat="43.18424" lon="5.92591">
        <ele>280.13671875</ele>
        <time>2020-06-21T10:36:58Z</time>
      </trkpt>
      <trkpt lat="43.18417" lon="5.9258">
        <ele>278.6015625</ele>
        <time>2020-06-21T10:37:00Z</time>
      </trkpt>
      <trkpt lat="43.18407" lon="5.92561">
        <ele>276.88671875</ele>
        <time>2020-06-21T10:37:03Z</time>
      </trkpt>
      <trkpt lat="43.18405" lon="5.92554">
        <ele>276.51953125</ele>
        <time>2020-06-21T10:37:04Z</time>
      </trkpt>
      <trkpt lat="43.18403" lon="5.92548">
        <ele>276.4375</ele>
        <time>2020-06-21T10:37:05Z</time>
      </trkpt>
      <trkpt lat="43.18402" lon="5.92541">
        <ele>276.4375</ele>
        <time>2020-06-21T10:37:06Z</time>
      </trkpt>
      <trkpt lat="43.18401" lon="5.92535">
        <ele>276.51953125</ele>
        <time>2020-06-21T10:37:07Z</time>
      </trkpt>
      <trkpt lat="43.18397" lon="5.92508">
        <ele>277.53125</ele>
        <time>2020-06-21T10:37:11Z</time>
      </trkpt>
      <trkpt lat="43.18395" lon="5.92502">
        <ele>277.609375</ele>
        <time>2020-06-21T10:37:12Z</time>
      </trkpt>
      <trkpt lat="43.18392" lon="5.92497">
        <ele>277.7890625</ele>
        <time>2020-06-21T10:37:13Z</time>
      </trkpt>
      <trkpt lat="43.18388" lon="5.92492">
        <ele>277.9296875</ele>
        <time>2020-06-21T10:37:14Z</time>
      </trkpt>
      <trkpt lat="43.18384" lon="5.92487">
        <ele>277.81640625</ele>
        <time>2020-06-21T10:37:15Z</time>
      </trkpt>
      <trkpt lat="43.18379" lon="5.92484">
        <ele>277.4375</ele>
        <time>2020-06-21T10:37:16Z</time>
      </trkpt>
      <trkpt lat="43.18374" lon="5.92482">
        <ele>276.81640625</ele>
        <time>2020-06-21T10:37:17Z</time>
      </trkpt>
      <trkpt lat="43.18368" lon="5.9248">
        <ele>276.12109375</ele>
        <time>2020-06-21T10:37:18Z</time>
      </trkpt>
      <trkpt lat="43.18346" lon="5.92469">
        <ele>274.1015625</ele>
        <time>2020-06-21T10:37:22Z</time>
      </trkpt>
      <trkpt lat="43.18341" lon="5.92464">
        <ele>273.83984375</ele>
        <time>2020-06-21T10:37:23Z</time>
      </trkpt>
      <trkpt lat="43.18337" lon="5.92458">
        <ele>273.96875</ele>
        <time>2020-06-21T10:37:24Z</time>
      </trkpt>
      <trkpt lat="43.18335" lon="5.92451">
        <ele>274.5078125</ele>
        <time>2020-06-21T10:37:25Z</time>
      </trkpt>
      <trkpt lat="43.18336" lon="5.92442">
        <ele>275.45703125</ele>
        <time>2020-06-21T10:37:26Z</time>
      </trkpt>
      <trkpt lat="43.18337" lon="5.92434">
        <ele>276.53515625</ele>
        <time>2020-06-21T10:37:27Z</time>
      </trkpt>
      <trkpt lat="43.18339" lon="5.92426">
        <ele>277.5390625</ele>
        <time>2020-06-21T10:37:28Z</time>
      </trkpt>
      <trkpt lat="43.18343" lon="5.92408">
        <ele>279.0078125</ele>
        <time>2020-06-21T10:37:32Z</time>
      </trkpt>
      <trkpt lat="43.18342" lon="5.92405">
        <ele>278.83984375</ele>
        <time>2020-06-21T10:37:33Z</time>
      </trkpt>
      <trkpt lat="43.18341" lon="5.92403">
        <ele>278.51953125</ele>
        <time>2020-06-21T10:37:34Z</time>
      </trkpt>
      <trkpt lat="43.1834" lon="5.924">
        <ele>278.07421875</ele>
        <time>2020-06-21T10:37:35Z</time>
      </trkpt>
      <trkpt lat="43.18338" lon="5.92398">
        <ele>277.67578125</ele>
        <time>2020-06-21T10:37:36Z</time>
      </trkpt>
      <trkpt lat="43.18336" lon="5.92389">
        <ele>276.59765625</ele>
        <time>2020-06-21T10:37:39Z</time>
      </trkpt>
      <trkpt lat="43.18335" lon="5.92387">
        <ele>276.48828125</ele>
        <time>2020-06-21T10:37:40Z</time>
      </trkpt>
      <trkpt lat="43.18335" lon="5.92377">
        <ele>275.84765625</ele>
        <time>2020-06-21T10:37:44Z</time>
      </trkpt>
      <trkpt lat="43.18333" lon="5.92344">
        <ele>273.5</ele>
        <time>2020-06-21T10:37:52Z</time>
      </trkpt>
      <trkpt lat="43.18335" lon="5.92332">
        <ele>273.05078125</ele>
        <time>2020-06-21T10:37:55Z</time>
      </trkpt>
      <trkpt lat="43.18334" lon="5.92328">
        <ele>272.8203125</ele>
        <time>2020-06-21T10:37:56Z</time>
      </trkpt>
      <trkpt lat="43.18333" lon="5.92324">
        <ele>272.3828125</ele>
        <time>2020-06-21T10:37:57Z</time>
      </trkpt>
      <trkpt lat="43.18333" lon="5.92321">
        <ele>271.92578125</ele>
        <time>2020-06-21T10:37:58Z</time>
      </trkpt>
      <trkpt lat="43.18332" lon="5.92318">
        <ele>271.640625</ele>
        <time>2020-06-21T10:37:59Z</time>
      </trkpt>
      <trkpt lat="43.18332" lon="5.92317">
        <ele>271.59375</ele>
        <time>2020-06-21T10:38:00Z</time>
      </trkpt>
      <trkpt lat="43.18329" lon="5.92304">
        <ele>270.1171875</ele>
        <time>2020-06-21T10:38:13Z</time>
      </trkpt>
      <trkpt lat="43.18322" lon="5.9228">
        <ele>266.69921875</ele>
        <time>2020-06-21T10:38:24Z</time>
      </trkpt>
      <trkpt lat="43.18321" lon="5.92277">
        <ele>266.21875</ele>
        <time>2020-06-21T10:38:25Z</time>
      </trkpt>
      <trkpt lat="43.1832" lon="5.92273">
        <ele>266.23046875</ele>
        <time>2020-06-21T10:38:27Z</time>
      </trkpt>
      <trkpt lat="43.18318" lon="5.92271">
        <ele>266</ele>
        <time>2020-06-21T10:38:28Z</time>
      </trkpt>
      <trkpt lat="43.18317" lon="5.9227">
        <ele>265.78125</ele>
        <time>2020-06-21T10:38:29Z</time>
      </trkpt>
      <trkpt lat="43.18316" lon="5.92268">
        <ele>265.5703125</ele>
        <time>2020-06-21T10:38:30Z</time>
      </trkpt>
      <trkpt lat="43.18315" lon="5.92267">
        <ele>265.2578125</ele>
        <time>2020-06-21T10:38:31Z</time>
      </trkpt>
      <trkpt lat="43.18313" lon="5.92267">
        <ele>264.6484375</ele>
        <time>2020-06-21T10:38:32Z</time>
      </trkpt>
      <trkpt lat="43.18307" lon="5.92263">
        <ele>262.890625</ele>
        <time>2020-06-21T10:38:35Z</time>
      </trkpt>
      <trkpt lat="43.18301" lon="5.92259">
        <ele>261.35546875</ele>
        <time>2020-06-21T10:38:39Z</time>
      </trkpt>
      <trkpt lat="43.18299" lon="5.9226">
        <ele>260.578125</ele>
        <time>2020-06-21T10:38:40Z</time>
      </trkpt>
      <trkpt lat="43.18296" lon="5.9226">
        <ele>259.46875</ele>
        <time>2020-06-21T10:38:41Z</time>
      </trkpt>
      <trkpt lat="43.18293" lon="5.92261">
        <ele>258.1796875</ele>
        <time>2020-06-21T10:38:42Z</time>
      </trkpt>
      <trkpt lat="43.18289" lon="5.92261">
        <ele>256.8046875</ele>
        <time>2020-06-21T10:38:43Z</time>
      </trkpt>
      <trkpt lat="43.18284" lon="5.92261">
        <ele>254.91796875</ele>
        <time>2020-06-21T10:38:45Z</time>
      </trkpt>
      <trkpt lat="43.18282" lon="5.9226">
        <ele>254.515625</ele>
        <time>2020-06-21T10:38:46Z</time>
      </trkpt>
      <trkpt lat="43.18281" lon="5.92258">
        <ele>254.16796875</ele>
        <time>2020-06-21T10:38:47Z</time>
      </trkpt>
      <trkpt lat="43.18278" lon="5.92256">
        <ele>253.64453125</ele>
        <time>2020-06-21T10:38:48Z</time>
      </trkpt>
      <trkpt lat="43.18276" lon="5.92255">
        <ele>252.9296875</ele>
        <time>2020-06-21T10:38:49Z</time>
      </trkpt>
      <trkpt lat="43.18275" lon="5.92254">
        <ele>252.640625</ele>
        <time>2020-06-21T10:38:50Z</time>
      </trkpt>
      <trkpt lat="43.18274" lon="5.92252">
        <ele>252.42578125</ele>
        <time>2020-06-21T10:38:51Z</time>
      </trkpt>
      <trkpt lat="43.18272" lon="5.92251">
        <ele>252.0625</ele>
        <time>2020-06-21T10:38:52Z</time>
      </trkpt>
      <trkpt lat="43.1827" lon="5.92249">
        <ele>251.65625</ele>
        <time>2020-06-21T10:38:53Z</time>
      </trkpt>
      <trkpt lat="43.18268" lon="5.92248">
        <ele>251.13671875</ele>
        <time>2020-06-21T10:38:54Z</time>
      </trkpt>
      <trkpt lat="43.18267" lon="5.92247">
        <ele>250.796875</ele>
        <time>2020-06-21T10:38:55Z</time>
      </trkpt>
      <trkpt lat="43.18266" lon="5.92245">
        <ele>250.6953125</ele>
        <time>2020-06-21T10:38:56Z</time>
      </trkpt>
      <trkpt lat="43.18265" lon="5.92244">
        <ele>250.55859375</ele>
        <time>2020-06-21T10:38:57Z</time>
      </trkpt>
      <trkpt lat="43.18263" lon="5.92242">
        <ele>250.2734375</ele>
        <time>2020-06-21T10:38:58Z</time>
      </trkpt>
      <trkpt lat="43.18261" lon="5.92241">
        <ele>249.8125</ele>
        <time>2020-06-21T10:38:59Z</time>
      </trkpt>
      <trkpt lat="43.18247" lon="5.92232">
        <ele>247.625</ele>
        <time>2020-06-21T10:39:09Z</time>
      </trkpt>
      <trkpt lat="43.1824" lon="5.92232">
        <ele>245.87890625</ele>
        <time>2020-06-21T10:39:28Z</time>
      </trkpt>
      <trkpt lat="43.1824" lon="5.92233">
        <ele>245.60546875</ele>
        <time>2020-06-21T10:39:29Z</time>
      </trkpt>
      <trkpt lat="43.18235" lon="5.9224">
        <ele>243.10546875</ele>
        <time>2020-06-21T10:39:44Z</time>
      </trkpt>
      <trkpt lat="43.18234" lon="5.92244">
        <ele>242.11328125</ele>
        <time>2020-06-21T10:39:51Z</time>
      </trkpt>
      <trkpt lat="43.18221" lon="5.92259">
        <ele>237.5</ele>
        <time>2020-06-21T10:40:02Z</time>
      </trkpt>
      <trkpt lat="43.18189" lon="5.92289">
        <ele>229.8828125</ele>
        <time>2020-06-21T10:40:13Z</time>
      </trkpt>
      <trkpt lat="43.18165" lon="5.92322">
        <ele>224.95703125</ele>
        <time>2020-06-21T10:40:22Z</time>
      </trkpt>
      <trkpt lat="43.18153" lon="5.92334">
        <ele>222.91015625</ele>
        <time>2020-06-21T10:40:25Z</time>
      </trkpt>
      <trkpt lat="43.1815" lon="5.92339">
        <ele>221.78515625</ele>
        <time>2020-06-21T10:40:26Z</time>
      </trkpt>
      <trkpt lat="43.18143" lon="5.9235">
        <ele>219.76953125</ele>
        <time>2020-06-21T10:40:28Z</time>
      </trkpt>
      <trkpt lat="43.18139" lon="5.92355">
        <ele>219.15625</ele>
        <time>2020-06-21T10:40:29Z</time>
      </trkpt>
      <trkpt lat="43.18135" lon="5.92359">
        <ele>218.77734375</ele>
        <time>2020-06-21T10:40:30Z</time>
      </trkpt>
      <trkpt lat="43.18131" lon="5.92361">
        <ele>218.6875</ele>
        <time>2020-06-21T10:40:31Z</time>
      </trkpt>
      <trkpt lat="43.18127" lon="5.92363">
        <ele>218.84375</ele>
        <time>2020-06-21T10:40:32Z</time>
      </trkpt>
      <trkpt lat="43.18123" lon="5.92363">
        <ele>219.1328125</ele>
        <time>2020-06-21T10:40:33Z</time>
      </trkpt>
      <trkpt lat="43.18118" lon="5.92363">
        <ele>219.6875</ele>
        <time>2020-06-21T10:40:34Z</time>
      </trkpt>
      <trkpt lat="43.18113" lon="5.92362">
        <ele>220.01953125</ele>
        <time>2020-06-21T10:40:35Z</time>
      </trkpt>
      <trkpt lat="43.18104" lon="5.9236">
        <ele>220.765625</ele>
        <time>2020-06-21T10:40:37Z</time>
      </trkpt>
      <trkpt lat="43.181" lon="5.92358">
        <ele>221.35546875</ele>
        <time>2020-06-21T10:40:38Z</time>
      </trkpt>
      <trkpt lat="43.18096" lon="5.92355">
        <ele>221.97265625</ele>
        <time>2020-06-21T10:40:39Z</time>
      </trkpt>
      <trkpt lat="43.18092" lon="5.92352">
        <ele>222.55859375</ele>
        <time>2020-06-21T10:40:40Z</time>
      </trkpt>
      <trkpt lat="43.18088" lon="5.9235">
        <ele>222.64453125</ele>
        <time>2020-06-21T10:40:41Z</time>
      </trkpt>
      <trkpt lat="43.18084" lon="5.92348">
        <ele>222.36328125</ele>
        <time>2020-06-21T10:40:42Z</time>
      </trkpt>
      <trkpt lat="43.1808" lon="5.92348">
        <ele>221.9140625</ele>
        <time>2020-06-21T10:40:43Z</time>
      </trkpt>
      <trkpt lat="43.18075" lon="5.92349">
        <ele>221.25390625</ele>
        <time>2020-06-21T10:40:44Z</time>
      </trkpt>
      <trkpt lat="43.18058" lon="5.92354">
        <ele>218.4375</ele>
        <time>2020-06-21T10:40:49Z</time>
      </trkpt>
      <trkpt lat="43.18055" lon="5.92354">
        <ele>218.0546875</ele>
        <time>2020-06-21T10:40:50Z</time>
      </trkpt>
      <trkpt lat="43.18051" lon="5.92353">
        <ele>217.71875</ele>
        <time>2020-06-21T10:40:51Z</time>
      </trkpt>
      <trkpt lat="43.18048" lon="5.92353">
        <ele>217.44140625</ele>
        <time>2020-06-21T10:40:52Z</time>
      </trkpt>
      <trkpt lat="43.18045" lon="5.92352">
        <ele>217.1484375</ele>
        <time>2020-06-21T10:40:53Z</time>
      </trkpt>
      <trkpt lat="43.18042" lon="5.92352">
        <ele>216.765625</ele>
        <time>2020-06-21T10:40:54Z</time>
      </trkpt>
      <trkpt lat="43.18039" lon="5.92353">
        <ele>216.296875</ele>
        <time>2020-06-21T10:40:55Z</time>
      </trkpt>
      <trkpt lat="43.18036" lon="5.92353">
        <ele>215.83984375</ele>
        <time>2020-06-21T10:40:56Z</time>
      </trkpt>
      <trkpt lat="43.18032" lon="5.92353">
        <ele>215.5859375</ele>
        <time>2020-06-21T10:40:57Z</time>
      </trkpt>
      <trkpt lat="43.1803" lon="5.92353">
        <ele>215.390625</ele>
        <time>2020-06-21T10:40:58Z</time>
      </trkpt>
      <trkpt lat="43.18025" lon="5.92352">
        <ele>215.08203125</ele>
        <time>2020-06-21T10:40:59Z</time>
      </trkpt>
      <trkpt lat="43.1802" lon="5.92354">
        <ele>214.54296875</ele>
        <time>2020-06-21T10:41:00Z</time>
      </trkpt>
      <trkpt lat="43.18014" lon="5.92356">
        <ele>213.90625</ele>
        <time>2020-06-21T10:41:01Z</time>
      </trkpt>
      <trkpt lat="43.18008" lon="5.92357">
        <ele>213.35546875</ele>
        <time>2020-06-21T10:41:02Z</time>
      </trkpt>
      <trkpt lat="43.18003" lon="5.92357">
        <ele>212.55078125</ele>
        <time>2020-06-21T10:41:03Z</time>
      </trkpt>
      <trkpt lat="43.17988" lon="5.92364">
        <ele>209.875</ele>
        <time>2020-06-21T10:41:07Z</time>
      </trkpt>
      <trkpt lat="43.17971" lon="5.92371">
        <ele>206.765625</ele>
        <time>2020-06-21T10:41:14Z</time>
      </trkpt>
      <trkpt lat="43.17971" lon="5.92371">
        <ele>206.69140625</ele>
        <time>2020-06-21T10:41:15Z</time>
      </trkpt>
      <trkpt lat="43.17968" lon="5.92371">
        <ele>206.3671875</ele>
        <time>2020-06-21T10:41:43Z</time>
      </trkpt>
      <trkpt lat="43.17965" lon="5.92371">
        <ele>206.01953125</ele>
        <time>2020-06-21T10:42:07Z</time>
      </trkpt>
      <trkpt lat="43.17963" lon="5.9237">
        <ele>205.73046875</ele>
        <time>2020-06-21T10:42:08Z</time>
      </trkpt>
      <trkpt lat="43.17948" lon="5.92367">
        <ele>204.015625</ele>
        <time>2020-06-21T10:42:11Z</time>
      </trkpt>
      <trkpt lat="43.17942" lon="5.92367">
        <ele>203.140625</ele>
        <time>2020-06-21T10:42:12Z</time>
      </trkpt>
      <trkpt lat="43.1793" lon="5.92367">
        <ele>201.30859375</ele>
        <time>2020-06-21T10:42:14Z</time>
      </trkpt>
      <trkpt lat="43.17919" lon="5.92366">
        <ele>200.19921875</ele>
        <time>2020-06-21T10:42:16Z</time>
      </trkpt>
      <trkpt lat="43.17914" lon="5.92364">
        <ele>200.01953125</ele>
        <time>2020-06-21T10:42:17Z</time>
      </trkpt>
      <trkpt lat="43.17904" lon="5.9236">
        <ele>199.66796875</ele>
        <time>2020-06-21T10:42:19Z</time>
      </trkpt>
      <trkpt lat="43.17899" lon="5.9236">
        <ele>199.2890625</ele>
        <time>2020-06-21T10:42:20Z</time>
      </trkpt>
      <trkpt lat="43.17894" lon="5.92361">
        <ele>198.75390625</ele>
        <time>2020-06-21T10:42:21Z</time>
      </trkpt>
      <trkpt lat="43.17888" lon="5.92364">
        <ele>198.09765625</ele>
        <time>2020-06-21T10:42:22Z</time>
      </trkpt>
      <trkpt lat="43.17882" lon="5.92367">
        <ele>197.32421875</ele>
        <time>2020-06-21T10:42:23Z</time>
      </trkpt>
      <trkpt lat="43.17876" lon="5.9237">
        <ele>196.515625</ele>
        <time>2020-06-21T10:42:24Z</time>
      </trkpt>
      <trkpt lat="43.1787" lon="5.92374">
        <ele>195.734375</ele>
        <time>2020-06-21T10:42:25Z</time>
      </trkpt>
      <trkpt lat="43.17792" lon="5.92421">
        <ele>195.51953125</ele>
        <time>2020-06-21T10:42:40Z</time>
      </trkpt>
      <trkpt lat="43.17772" lon="5.92444">
        <ele>194.55859375</ele>
        <time>2020-06-21T10:42:47Z</time>
      </trkpt>
      <trkpt lat="43.17744" lon="5.92478">
        <ele>192.19921875</ele>
        <time>2020-06-21T10:42:53Z</time>
      </trkpt>
      <trkpt lat="43.17713" lon="5.92517">
        <ele>189.15625</ele>
        <time>2020-06-21T10:42:59Z</time>
      </trkpt>
      <trkpt lat="43.17697" lon="5.92539">
        <ele>187.61328125</ele>
        <time>2020-06-21T10:43:03Z</time>
      </trkpt>
      <trkpt lat="43.17694" lon="5.92544">
        <ele>187.43359375</ele>
        <time>2020-06-21T10:43:04Z</time>
      </trkpt>
      <trkpt lat="43.17678" lon="5.92562">
        <ele>187.1640625</ele>
        <time>2020-06-21T10:43:13Z</time>
      </trkpt>
      <trkpt lat="43.17677" lon="5.92563">
        <ele>187.23046875</ele>
        <time>2020-06-21T10:43:14Z</time>
      </trkpt>
      <trkpt lat="43.17676" lon="5.92565">
        <ele>187.31640625</ele>
        <time>2020-06-21T10:43:15Z</time>
      </trkpt>
      <trkpt lat="43.17676" lon="5.92568">
        <ele>187.40234375</ele>
        <time>2020-06-21T10:43:16Z</time>
      </trkpt>
      <trkpt lat="43.17675" lon="5.92569">
        <ele>187.48046875</ele>
        <time>2020-06-21T10:43:17Z</time>
      </trkpt>
      <trkpt lat="43.17676" lon="5.92573">
        <ele>187.55078125</ele>
        <time>2020-06-21T10:43:28Z</time>
      </trkpt>
      <trkpt lat="43.1768" lon="5.92568">
        <ele>187.296875</ele>
        <time>2020-06-21T10:43:51Z</time>
      </trkpt>
      <trkpt lat="43.17679" lon="5.92567">
        <ele>187.28125</ele>
        <time>2020-06-21T10:44:21Z</time>
      </trkpt>
      <trkpt lat="43.17679" lon="5.92568">
        <ele>187.3203125</ele>
        <time>2020-06-21T10:44:46Z</time>
      </trkpt>
      <trkpt lat="43.17675" lon="5.92568">
        <ele>187.41796875</ele>
        <time>2020-06-21T10:45:11Z</time>
      </trkpt>
      <trkpt lat="43.17673" lon="5.92566">
        <ele>187.421875</ele>
        <time>2020-06-21T10:45:40Z</time>
      </trkpt>
      <trkpt lat="43.17678" lon="5.92565">
        <ele>187.25390625</ele>
        <time>2020-06-21T10:46:19Z</time>
      </trkpt>
      <trkpt lat="43.17677" lon="5.92571">
        <ele>187.48828125</ele>
        <time>2020-06-21T10:46:55Z</time>
      </trkpt>
      <trkpt lat="43.17676" lon="5.92571">
        <ele>187.52734375</ele>
        <time>2020-06-21T10:47:29Z</time>
      </trkpt>
      <trkpt lat="43.17677" lon="5.92573">
        <ele>187.5078125</ele>
        <time>2020-06-21T10:47:56Z</time>
      </trkpt>
      <trkpt lat="43.17678" lon="5.92569">
        <ele>187.34765625</ele>
        <time>2020-06-21T10:48:44Z</time>
      </trkpt>
      <trkpt lat="43.17672" lon="5.92565">
        <ele>187.35546875</ele>
        <time>2020-06-21T10:49:22Z</time>
      </trkpt>
      <trkpt lat="43.17671" lon="5.92566">
        <ele>187.42578125</ele>
        <time>2020-06-21T10:49:56Z</time>
      </trkpt>
      <trkpt lat="43.17679" lon="5.92565">
        <ele>187.23046875</ele>
        <time>2020-06-21T10:50:26Z</time>
      </trkpt>
      <trkpt lat="43.17677" lon="5.92565">
        <ele>187.30078125</ele>
        <time>2020-06-21T10:51:08Z</time>
      </trkpt>
      <trkpt lat="43.17675" lon="5.92566">
        <ele>187.3828125</ele>
        <time>2020-06-21T10:51:45Z</time>
      </trkpt>
      <trkpt lat="43.17678" lon="5.9257">
        <ele>187.40234375</ele>
        <time>2020-06-21T10:52:27Z</time>
      </trkpt>
      <trkpt lat="43.17676" lon="5.92563">
        <ele>187.2578125</ele>
        <time>2020-06-21T10:53:08Z</time>
      </trkpt>
      <trkpt lat="43.17677" lon="5.92565">
        <ele>187.28515625</ele>
        <time>2020-06-21T10:53:41Z</time>
      </trkpt>
      <trkpt lat="43.17677" lon="5.92563">
        <ele>187.22265625</ele>
        <time>2020-06-21T10:54:20Z</time>
      </trkpt>
      <trkpt lat="43.17676" lon="5.92565">
        <ele>187.296875</ele>
        <time>2020-06-21T10:54:55Z</time>
      </trkpt>
      <trkpt lat="43.17677" lon="5.92565">
        <ele>187.2890625</ele>
        <time>2020-06-21T10:55:30Z</time>
      </trkpt>
      <trkpt lat="43.17676" lon="5.92567">
        <ele>187.390625</ele>
        <time>2020-06-21T10:55:58Z</time>
      </trkpt>
      <trkpt lat="43.17675" lon="5.92569">
        <ele>187.46875</ele>
        <time>2020-06-21T10:56:22Z</time>
      </trkpt>
      <trkpt lat="43.1767" lon="5.92565">
        <ele>187.4140625</ele>
        <time>2020-06-21T10:57:01Z</time>
      </trkpt>
      <trkpt lat="43.17671" lon="5.92569">
        <ele>187.5390625</ele>
        <time>2020-06-21T10:57:20Z</time>
      </trkpt>
      <trkpt lat="43.17674" lon="5.92569">
        <ele>187.49609375</ele>
        <time>2020-06-21T10:57:54Z</time>
      </trkpt>
      <trkpt lat="43.17675" lon="5.92569">
        <ele>187.4765625</ele>
        <time>2020-06-21T10:58:19Z</time>
      </trkpt>
      <trkpt lat="43.17677" lon="5.92571">
        <ele>187.4609375</ele>
        <time>2020-06-21T10:58:50Z</time>
      </trkpt>
      <trkpt lat="43.17678" lon="5.92571">
        <ele>187.43359375</ele>
        <time>2020-06-21T10:59:13Z</time>
      </trkpt>
      <trkpt lat="43.17677" lon="5.92571">
        <ele>187.46484375</ele>
        <time>2020-06-21T10:59:27Z</time>
      </trkpt>
      <trkpt lat="43.17679" lon="5.92571">
        <ele>187.3828125</ele>
        <time>2020-06-21T10:59:49Z</time>
      </trkpt>
      <trkpt lat="43.17688" lon="5.92573">
        <ele>187.0390625</ele>
        <time>2020-06-21T11:00:13Z</time>
      </trkpt>
      <trkpt lat="43.17684" lon="5.92566">
        <ele>187.1328125</ele>
        <time>2020-06-21T11:00:29Z</time>
      </trkpt>
      <trkpt lat="43.17683" lon="5.92565">
        <ele>187.12890625</ele>
        <time>2020-06-21T11:00:30Z</time>
      </trkpt>
      <trkpt lat="43.17679" lon="5.9256">
        <ele>187.10546875</ele>
        <time>2020-06-21T11:00:34Z</time>
      </trkpt>
      <trkpt lat="43.17678" lon="5.92557">
        <ele>187.05078125</ele>
        <time>2020-06-21T11:00:35Z</time>
      </trkpt>
      <trkpt lat="43.17676" lon="5.92556">
        <ele>187</ele>
        <time>2020-06-21T11:00:36Z</time>
      </trkpt>
      <trkpt lat="43.17674" lon="5.92554">
        <ele>187.05078125</ele>
        <time>2020-06-21T11:00:37Z</time>
      </trkpt>
      <trkpt lat="43.17671" lon="5.92553">
        <ele>187.078125</ele>
        <time>2020-06-21T11:00:38Z</time>
      </trkpt>
      <trkpt lat="43.17668" lon="5.92552">
        <ele>187.1015625</ele>
        <time>2020-06-21T11:00:39Z</time>
      </trkpt>
      <trkpt lat="43.17665" lon="5.92551">
        <ele>187.1171875</ele>
        <time>2020-06-21T11:00:40Z</time>
      </trkpt>
      <trkpt lat="43.17657" lon="5.92547">
        <ele>187.1171875</ele>
        <time>2020-06-21T11:00:42Z</time>
      </trkpt>
      <trkpt lat="43.17624" lon="5.9252">
        <ele>186.16015625</ele>
        <time>2020-06-21T11:00:53Z</time>
      </trkpt>
      <trkpt lat="43.17621" lon="5.92517">
        <ele>186.05859375</ele>
        <time>2020-06-21T11:00:55Z</time>
      </trkpt>
      <trkpt lat="43.1762" lon="5.92519">
        <ele>186.0234375</ele>
        <time>2020-06-21T11:00:56Z</time>
      </trkpt>
      <trkpt lat="43.1762" lon="5.92521">
        <ele>186.03515625</ele>
        <time>2020-06-21T11:00:57Z</time>
      </trkpt>
      <trkpt lat="43.17621" lon="5.92522">
        <ele>186.06640625</ele>
        <time>2020-06-21T11:00:58Z</time>
      </trkpt>
      <trkpt lat="43.17622" lon="5.92524">
        <ele>186.1015625</ele>
        <time>2020-06-21T11:00:59Z</time>
      </trkpt>
      <trkpt lat="43.17623" lon="5.92525">
        <ele>186.13671875</ele>
        <time>2020-06-21T11:01:00Z</time>
      </trkpt>
      <trkpt lat="43.17624" lon="5.92526">
        <ele>186.1796875</ele>
        <time>2020-06-21T11:01:01Z</time>
      </trkpt>
      <trkpt lat="43.17626" lon="5.92527">
        <ele>186.2265625</ele>
        <time>2020-06-21T11:01:02Z</time>
      </trkpt>
      <trkpt lat="43.17627" lon="5.92528">
        <ele>186.29296875</ele>
        <time>2020-06-21T11:01:03Z</time>
      </trkpt>
      <trkpt lat="43.17629" lon="5.92529">
        <ele>186.37109375</ele>
        <time>2020-06-21T11:01:04Z</time>
      </trkpt>
      <trkpt lat="43.17638" lon="5.92535">
        <ele>186.7734375</ele>
        <time>2020-06-21T11:01:11Z</time>
      </trkpt>
      <trkpt lat="43.1764" lon="5.92532">
        <ele>186.77734375</ele>
        <time>2020-06-21T11:01:17Z</time>
      </trkpt>
      <trkpt lat="43.17636" lon="5.92531">
        <ele>186.66015625</ele>
        <time>2020-06-21T11:01:19Z</time>
      </trkpt>
      <trkpt lat="43.17618" lon="5.92516">
        <ele>185.92578125</ele>
        <time>2020-06-21T11:01:30Z</time>
      </trkpt>
      <trkpt lat="43.17616" lon="5.92514">
        <ele>185.81640625</ele>
        <time>2020-06-21T11:01:32Z</time>
      </trkpt>
      <trkpt lat="43.17615" lon="5.92513">
        <ele>185.765625</ele>
        <time>2020-06-21T11:01:33Z</time>
      </trkpt>
      <trkpt lat="43.17614" lon="5.92512">
        <ele>185.6875</ele>
        <time>2020-06-21T11:01:35Z</time>
      </trkpt>
      <trkpt lat="43.17614" lon="5.92514">
        <ele>185.7109375</ele>
        <time>2020-06-21T11:01:36Z</time>
      </trkpt>
      <trkpt lat="43.17615" lon="5.92516">
        <ele>185.765625</ele>
        <time>2020-06-21T11:01:37Z</time>
      </trkpt>
      <trkpt lat="43.17616" lon="5.92516">
        <ele>185.83984375</ele>
        <time>2020-06-21T11:01:38Z</time>
      </trkpt>
      <trkpt lat="43.17618" lon="5.92516">
        <ele>185.91796875</ele>
        <time>2020-06-21T11:01:39Z</time>
      </trkpt>
      <trkpt lat="43.17619" lon="5.92514">
        <ele>186</ele>
        <time>2020-06-21T11:01:40Z</time>
      </trkpt>
      <trkpt lat="43.17621" lon="5.92513">
        <ele>186.05078125</ele>
        <time>2020-06-21T11:01:41Z</time>
      </trkpt>
      <trkpt lat="43.17622" lon="5.9251">
        <ele>186.08984375</ele>
        <time>2020-06-21T11:01:42Z</time>
      </trkpt>
      <trkpt lat="43.17622" lon="5.92507">
        <ele>186.109375</ele>
        <time>2020-06-21T11:01:43Z</time>
      </trkpt>
      <trkpt lat="43.17623" lon="5.92505">
        <ele>186.1171875</ele>
        <time>2020-06-21T11:01:44Z</time>
      </trkpt>
      <trkpt lat="43.17622" lon="5.92502">
        <ele>186.11328125</ele>
        <time>2020-06-21T11:01:45Z</time>
      </trkpt>
      <trkpt lat="43.17622" lon="5.92499">
        <ele>186.15625</ele>
        <time>2020-06-21T11:01:46Z</time>
      </trkpt>
      <trkpt lat="43.1762" lon="5.92473">
        <ele>186.9765625</ele>
        <time>2020-06-21T11:01:55Z</time>
      </trkpt>
      <trkpt lat="43.1762" lon="5.92471">
        <ele>187.07421875</ele>
        <time>2020-06-21T11:01:56Z</time>
      </trkpt>
      <trkpt lat="43.1762" lon="5.92469">
        <ele>187.17578125</ele>
        <time>2020-06-21T11:02:07Z</time>
      </trkpt>
      <trkpt lat="43.17619" lon="5.92468">
        <ele>187.12109375</ele>
        <time>2020-06-21T11:02:18Z</time>
      </trkpt>
      <trkpt lat="43.17618" lon="5.9247">
        <ele>186.95703125</ele>
        <time>2020-06-21T11:02:20Z</time>
      </trkpt>
      <trkpt lat="43.17617" lon="5.92473">
        <ele>186.83984375</ele>
        <time>2020-06-21T11:02:21Z</time>
      </trkpt>
      <trkpt lat="43.17619" lon="5.9251">
        <ele>185.95703125</ele>
        <time>2020-06-21T11:02:29Z</time>
      </trkpt>
      <trkpt lat="43.17617" lon="5.92511">
        <ele>185.85546875</ele>
        <time>2020-06-21T11:02:30Z</time>
      </trkpt>
      <trkpt lat="43.17614" lon="5.92512">
        <ele>185.6953125</ele>
        <time>2020-06-21T11:02:31Z</time>
      </trkpt>
      <trkpt lat="43.17612" lon="5.92511">
        <ele>185.5546875</ele>
        <time>2020-06-21T11:02:32Z</time>
      </trkpt>
      <trkpt lat="43.17609" lon="5.92509">
        <ele>185.390625</ele>
        <time>2020-06-21T11:02:33Z</time>
      </trkpt>
      <trkpt lat="43.17592" lon="5.92496">
        <ele>184.15625</ele>
        <time>2020-06-21T11:02:38Z</time>
      </trkpt>
      <trkpt lat="43.17556" lon="5.92474">
        <ele>181.34765625</ele>
        <time>2020-06-21T11:02:45Z</time>
      </trkpt>
      <trkpt lat="43.1755" lon="5.92474">
        <ele>180.87109375</ele>
        <time>2020-06-21T11:02:46Z</time>
      </trkpt>
      <trkpt lat="43.17544" lon="5.92476">
        <ele>180.23046875</ele>
        <time>2020-06-21T11:02:47Z</time>
      </trkpt>
      <trkpt lat="43.17539" lon="5.92481">
        <ele>179.34375</ele>
        <time>2020-06-21T11:02:48Z</time>
      </trkpt>
      <trkpt lat="43.17534" lon="5.92487">
        <ele>178.6484375</ele>
        <time>2020-06-21T11:02:49Z</time>
      </trkpt>
      <trkpt lat="43.17531" lon="5.92494">
        <ele>178.09375</ele>
        <time>2020-06-21T11:02:50Z</time>
      </trkpt>
      <trkpt lat="43.17528" lon="5.92503">
        <ele>177.46875</ele>
        <time>2020-06-21T11:02:51Z</time>
      </trkpt>
      <trkpt lat="43.17527" lon="5.92512">
        <ele>177.25390625</ele>
        <time>2020-06-21T11:02:52Z</time>
      </trkpt>
      <trkpt lat="43.17522" lon="5.9253">
        <ele>176.51953125</ele>
        <time>2020-06-21T11:02:54Z</time>
      </trkpt>
      <trkpt lat="43.17517" lon="5.92538">
        <ele>176.30859375</ele>
        <time>2020-06-21T11:02:55Z</time>
      </trkpt>
      <trkpt lat="43.17512" lon="5.92546">
        <ele>175.71484375</ele>
        <time>2020-06-21T11:02:56Z</time>
      </trkpt>
      <trkpt lat="43.17505" lon="5.92551">
        <ele>174.83984375</ele>
        <time>2020-06-21T11:02:57Z</time>
      </trkpt>
      <trkpt lat="43.17497" lon="5.92556">
        <ele>173.83203125</ele>
        <time>2020-06-21T11:02:58Z</time>
      </trkpt>
      <trkpt lat="43.17489" lon="5.92559">
        <ele>173.015625</ele>
        <time>2020-06-21T11:02:59Z</time>
      </trkpt>
      <trkpt lat="43.1748" lon="5.92561">
        <ele>171.9765625</ele>
        <time>2020-06-21T11:03:00Z</time>
      </trkpt>
      <trkpt lat="43.17471" lon="5.92561">
        <ele>171.36328125</ele>
        <time>2020-06-21T11:03:01Z</time>
      </trkpt>
      <trkpt lat="43.17414" lon="5.92562">
        <ele>167.39453125</ele>
        <time>2020-06-21T11:03:07Z</time>
      </trkpt>
      <trkpt lat="43.17345" lon="5.92552">
        <ele>165.19921875</ele>
        <time>2020-06-21T11:03:14Z</time>
      </trkpt>
      <trkpt lat="43.17285" lon="5.9252">
        <ele>165.1328125</ele>
        <time>2020-06-21T11:03:20Z</time>
      </trkpt>
      <trkpt lat="43.17276" lon="5.92512">
        <ele>165.1171875</ele>
        <time>2020-06-21T11:03:21Z</time>
      </trkpt>
      <trkpt lat="43.17268" lon="5.92503">
        <ele>165.375</ele>
        <time>2020-06-21T11:03:22Z</time>
      </trkpt>
      <trkpt lat="43.17241" lon="5.92458">
        <ele>165.890625</ele>
        <time>2020-06-21T11:03:26Z</time>
      </trkpt>
      <trkpt lat="43.17235" lon="5.92445">
        <ele>166.0625</ele>
        <time>2020-06-21T11:03:27Z</time>
      </trkpt>
      <trkpt lat="43.17208" lon="5.92377">
        <ele>164.3359375</ele>
        <time>2020-06-21T11:03:32Z</time>
      </trkpt>
      <trkpt lat="43.17195" lon="5.92318">
        <ele>163.9296875</ele>
        <time>2020-06-21T11:03:36Z</time>
      </trkpt>
      <trkpt lat="43.17176" lon="5.92215">
        <ele>161.39453125</ele>
        <time>2020-06-21T11:03:43Z</time>
      </trkpt>
      <trkpt lat="43.17172" lon="5.92201">
        <ele>160.7421875</ele>
        <time>2020-06-21T11:03:44Z</time>
      </trkpt>
      <trkpt lat="43.17159" lon="5.92161">
        <ele>158.53125</ele>
        <time>2020-06-21T11:03:47Z</time>
      </trkpt>
      <trkpt lat="43.17152" lon="5.92149">
        <ele>157.13671875</ele>
        <time>2020-06-21T11:03:48Z</time>
      </trkpt>
      <trkpt lat="43.17145" lon="5.92137">
        <ele>155.58203125</ele>
        <time>2020-06-21T11:03:49Z</time>
      </trkpt>
      <trkpt lat="43.1711" lon="5.92083">
        <ele>150.28125</ele>
        <time>2020-06-21T11:03:54Z</time>
      </trkpt>
      <trkpt lat="43.17099" lon="5.92066">
        <ele>148.90234375</ele>
        <time>2020-06-21T11:03:56Z</time>
      </trkpt>
      <trkpt lat="43.17093" lon="5.92059">
        <ele>148.15625</ele>
        <time>2020-06-21T11:03:57Z</time>
      </trkpt>
      <trkpt lat="43.17087" lon="5.92054">
        <ele>147.66796875</ele>
        <time>2020-06-21T11:03:58Z</time>
      </trkpt>
      <trkpt lat="43.17081" lon="5.92051">
        <ele>147.14453125</ele>
        <time>2020-06-21T11:03:59Z</time>
      </trkpt>
      <trkpt lat="43.17073" lon="5.92051">
        <ele>146.40234375</ele>
        <time>2020-06-21T11:04:00Z</time>
      </trkpt>
      <trkpt lat="43.17066" lon="5.92051">
        <ele>145.5234375</ele>
        <time>2020-06-21T11:04:01Z</time>
      </trkpt>
      <trkpt lat="43.17059" lon="5.92053">
        <ele>144.9921875</ele>
        <time>2020-06-21T11:04:02Z</time>
      </trkpt>
      <trkpt lat="43.17051" lon="5.92056">
        <ele>144.5078125</ele>
        <time>2020-06-21T11:04:03Z</time>
      </trkpt>
      <trkpt lat="43.17043" lon="5.92059">
        <ele>143.8046875</ele>
        <time>2020-06-21T11:04:04Z</time>
      </trkpt>
      <trkpt lat="43.16997" lon="5.92085">
        <ele>138.8515625</ele>
        <time>2020-06-21T11:04:10Z</time>
      </trkpt>
      <trkpt lat="43.16989" lon="5.92088">
        <ele>138.55859375</ele>
        <time>2020-06-21T11:04:11Z</time>
      </trkpt>
      <trkpt lat="43.16971" lon="5.9209">
        <ele>137.9375</ele>
        <time>2020-06-21T11:04:13Z</time>
      </trkpt>
      <trkpt lat="43.16919" lon="5.92091">
        <ele>134.703125</ele>
        <time>2020-06-21T11:04:19Z</time>
      </trkpt>
      <trkpt lat="43.16891" lon="5.92091">
        <ele>133.24609375</ele>
        <time>2020-06-21T11:04:22Z</time>
      </trkpt>
      <trkpt lat="43.16881" lon="5.92089">
        <ele>132.86328125</ele>
        <time>2020-06-21T11:04:23Z</time>
      </trkpt>
      <trkpt lat="43.16872" lon="5.92086">
        <ele>132.8046875</ele>
        <time>2020-06-21T11:04:24Z</time>
      </trkpt>
      <trkpt lat="43.16862" lon="5.92081">
        <ele>132.484375</ele>
        <time>2020-06-21T11:04:25Z</time>
      </trkpt>
      <trkpt lat="43.16853" lon="5.92074">
        <ele>132.45703125</ele>
        <time>2020-06-21T11:04:26Z</time>
      </trkpt>
      <trkpt lat="43.16845" lon="5.92066">
        <ele>132.71484375</ele>
        <time>2020-06-21T11:04:27Z</time>
      </trkpt>
      <trkpt lat="43.16827" lon="5.9205">
        <ele>132.76171875</ele>
        <time>2020-06-21T11:04:29Z</time>
      </trkpt>
      <trkpt lat="43.16817" lon="5.92045">
        <ele>132.140625</ele>
        <time>2020-06-21T11:04:30Z</time>
      </trkpt>
      <trkpt lat="43.16807" lon="5.92041">
        <ele>131.2890625</ele>
        <time>2020-06-21T11:04:31Z</time>
      </trkpt>
      <trkpt lat="43.16775" lon="5.92036">
        <ele>128.3828125</ele>
        <time>2020-06-21T11:04:34Z</time>
      </trkpt>
      <trkpt lat="43.1672" lon="5.92031">
        <ele>124.6875</ele>
        <time>2020-06-21T11:04:39Z</time>
      </trkpt>
      <trkpt lat="43.16709" lon="5.92031">
        <ele>123.9140625</ele>
        <time>2020-06-21T11:04:40Z</time>
      </trkpt>
      <trkpt lat="43.16698" lon="5.92033">
        <ele>123.0546875</ele>
        <time>2020-06-21T11:04:41Z</time>
      </trkpt>
      <trkpt lat="43.16688" lon="5.92038">
        <ele>122.0546875</ele>
        <time>2020-06-21T11:04:42Z</time>
      </trkpt>
      <trkpt lat="43.16679" lon="5.92046">
        <ele>120.60546875</ele>
        <time>2020-06-21T11:04:43Z</time>
      </trkpt>
      <trkpt lat="43.16671" lon="5.92055">
        <ele>119.453125</ele>
        <time>2020-06-21T11:04:44Z</time>
      </trkpt>
      <trkpt lat="43.16663" lon="5.92066">
        <ele>118.3125</ele>
        <time>2020-06-21T11:04:45Z</time>
      </trkpt>
      <trkpt lat="43.16621" lon="5.92133">
        <ele>114.3984375</ele>
        <time>2020-06-21T11:04:51Z</time>
      </trkpt>
      <trkpt lat="43.16615" lon="5.92145">
        <ele>114.15625</ele>
        <time>2020-06-21T11:04:52Z</time>
      </trkpt>
      <trkpt lat="43.1661" lon="5.92159">
        <ele>113.50390625</ele>
        <time>2020-06-21T11:04:53Z</time>
      </trkpt>
      <trkpt lat="43.16608" lon="5.92173">
        <ele>112.875</ele>
        <time>2020-06-21T11:04:54Z</time>
      </trkpt>
      <trkpt lat="43.16608" lon="5.92188">
        <ele>112.390625</ele>
        <time>2020-06-21T11:04:55Z</time>
      </trkpt>
      <trkpt lat="43.16609" lon="5.92202">
        <ele>111.84765625</ele>
        <time>2020-06-21T11:04:56Z</time>
      </trkpt>
      <trkpt lat="43.1661" lon="5.92216">
        <ele>111.2265625</ele>
        <time>2020-06-21T11:04:57Z</time>
      </trkpt>
      <trkpt lat="43.16612" lon="5.92231">
        <ele>109.83203125</ele>
        <time>2020-06-21T11:04:58Z</time>
      </trkpt>
      <trkpt lat="43.16612" lon="5.92245">
        <ele>108.12109375</ele>
        <time>2020-06-21T11:04:59Z</time>
      </trkpt>
      <trkpt lat="43.1661" lon="5.92259">
        <ele>106.66015625</ele>
        <time>2020-06-21T11:05:00Z</time>
      </trkpt>
      <trkpt lat="43.16607" lon="5.92274">
        <ele>105.390625</ele>
        <time>2020-06-21T11:05:01Z</time>
      </trkpt>
      <trkpt lat="43.16602" lon="5.92287">
        <ele>104.35546875</ele>
        <time>2020-06-21T11:05:02Z</time>
      </trkpt>
      <trkpt lat="43.16596" lon="5.92299">
        <ele>103.54296875</ele>
        <time>2020-06-21T11:05:03Z</time>
      </trkpt>
      <trkpt lat="43.16588" lon="5.92309">
        <ele>102.953125</ele>
        <time>2020-06-21T11:05:04Z</time>
      </trkpt>
      <trkpt lat="43.16579" lon="5.92319">
        <ele>102.36328125</ele>
        <time>2020-06-21T11:05:05Z</time>
      </trkpt>
      <trkpt lat="43.1657" lon="5.92328">
        <ele>101.56640625</ele>
        <time>2020-06-21T11:05:06Z</time>
      </trkpt>
      <trkpt lat="43.16542" lon="5.92356">
        <ele>99.61328125</ele>
        <time>2020-06-21T11:05:09Z</time>
      </trkpt>
      <trkpt lat="43.16531" lon="5.92363">
        <ele>99.40234375</ele>
        <time>2020-06-21T11:05:10Z</time>
      </trkpt>
      <trkpt lat="43.16521" lon="5.92369">
        <ele>99.87890625</ele>
        <time>2020-06-21T11:05:11Z</time>
      </trkpt>
      <trkpt lat="43.1651" lon="5.92374">
        <ele>100.56640625</ele>
        <time>2020-06-21T11:05:12Z</time>
      </trkpt>
      <trkpt lat="43.16499" lon="5.92377">
        <ele>100.91015625</ele>
        <time>2020-06-21T11:05:13Z</time>
      </trkpt>
      <trkpt lat="43.16487" lon="5.92378">
        <ele>101.41015625</ele>
        <time>2020-06-21T11:05:14Z</time>
      </trkpt>
      <trkpt lat="43.16475" lon="5.92379">
        <ele>101.9140625</ele>
        <time>2020-06-21T11:05:15Z</time>
      </trkpt>
      <trkpt lat="43.16463" lon="5.9238">
        <ele>102.31640625</ele>
        <time>2020-06-21T11:05:16Z</time>
      </trkpt>
      <trkpt lat="43.16452" lon="5.92379">
        <ele>102.66796875</ele>
        <time>2020-06-21T11:05:17Z</time>
      </trkpt>
      <trkpt lat="43.1644" lon="5.92375">
        <ele>102.2890625</ele>
        <time>2020-06-21T11:05:18Z</time>
      </trkpt>
      <trkpt lat="43.16429" lon="5.92368">
        <ele>102.0078125</ele>
        <time>2020-06-21T11:05:19Z</time>
      </trkpt>
      <trkpt lat="43.1642" lon="5.92359">
        <ele>101.73046875</ele>
        <time>2020-06-21T11:05:20Z</time>
      </trkpt>
      <trkpt lat="43.16411" lon="5.92348">
        <ele>101.78515625</ele>
        <time>2020-06-21T11:05:21Z</time>
      </trkpt>
      <trkpt lat="43.16383" lon="5.92319">
        <ele>99.21484375</ele>
        <time>2020-06-21T11:05:24Z</time>
      </trkpt>
      <trkpt lat="43.16373" lon="5.92311">
        <ele>97.203125</ele>
        <time>2020-06-21T11:05:25Z</time>
      </trkpt>
      <trkpt lat="43.16331" lon="5.92287">
        <ele>92.30078125</ele>
        <time>2020-06-21T11:05:29Z</time>
      </trkpt>
      <trkpt lat="43.16258" lon="5.92243">
        <ele>86.828125</ele>
        <time>2020-06-21T11:05:36Z</time>
      </trkpt>
      <trkpt lat="43.16229" lon="5.92222">
        <ele>84.5234375</ele>
        <time>2020-06-21T11:05:39Z</time>
      </trkpt>
      <trkpt lat="43.1622" lon="5.92213">
        <ele>84.73046875</ele>
        <time>2020-06-21T11:05:40Z</time>
      </trkpt>
      <trkpt lat="43.16194" lon="5.92185">
        <ele>85.953125</ele>
        <time>2020-06-21T11:05:43Z</time>
      </trkpt>
      <trkpt lat="43.16185" lon="5.92175">
        <ele>86.109375</ele>
        <time>2020-06-21T11:05:44Z</time>
      </trkpt>
      <trkpt lat="43.16152" lon="5.92134">
        <ele>84.37890625</ele>
        <time>2020-06-21T11:05:48Z</time>
      </trkpt>
      <trkpt lat="43.16098" lon="5.92076">
        <ele>79.31640625</ele>
        <time>2020-06-21T11:05:54Z</time>
      </trkpt>
      <trkpt lat="43.16059" lon="5.92039">
        <ele>74.5</ele>
        <time>2020-06-21T11:05:58Z</time>
      </trkpt>
      <trkpt lat="43.16033" lon="5.92006">
        <ele>73.68359375</ele>
        <time>2020-06-21T11:06:01Z</time>
      </trkpt>
      <trkpt lat="43.16026" lon="5.91994">
        <ele>73.94921875</ele>
        <time>2020-06-21T11:06:02Z</time>
      </trkpt>
      <trkpt lat="43.1602" lon="5.91981">
        <ele>74.4375</ele>
        <time>2020-06-21T11:06:03Z</time>
      </trkpt>
      <trkpt lat="43.16015" lon="5.91968">
        <ele>75.15625</ele>
        <time>2020-06-21T11:06:04Z</time>
      </trkpt>
      <trkpt lat="43.16012" lon="5.91954">
        <ele>75.8359375</ele>
        <time>2020-06-21T11:06:05Z</time>
      </trkpt>
      <trkpt lat="43.16011" lon="5.91939">
        <ele>76.40234375</ele>
        <time>2020-06-21T11:06:06Z</time>
      </trkpt>
      <trkpt lat="43.1601" lon="5.91924">
        <ele>76.234375</ele>
        <time>2020-06-21T11:06:07Z</time>
      </trkpt>
      <trkpt lat="43.16011" lon="5.91882">
        <ele>74.3671875</ele>
        <time>2020-06-21T11:06:10Z</time>
      </trkpt>
      <trkpt lat="43.16015" lon="5.9187">
        <ele>73.1328125</ele>
        <time>2020-06-21T11:06:11Z</time>
      </trkpt>
      <trkpt lat="43.16021" lon="5.91859">
        <ele>72.4140625</ele>
        <time>2020-06-21T11:06:12Z</time>
      </trkpt>
      <trkpt lat="43.16029" lon="5.9185">
        <ele>72.22265625</ele>
        <time>2020-06-21T11:06:13Z</time>
      </trkpt>
      <trkpt lat="43.16037" lon="5.91842">
        <ele>72.0859375</ele>
        <time>2020-06-21T11:06:14Z</time>
      </trkpt>
      <trkpt lat="43.16045" lon="5.91834">
        <ele>71.5234375</ele>
        <time>2020-06-21T11:06:15Z</time>
      </trkpt>
      <trkpt lat="43.16051" lon="5.91824">
        <ele>71.12109375</ele>
        <time>2020-06-21T11:06:16Z</time>
      </trkpt>
      <trkpt lat="43.16055" lon="5.91812">
        <ele>70.48046875</ele>
        <time>2020-06-21T11:06:17Z</time>
      </trkpt>
      <trkpt lat="43.16056" lon="5.918">
        <ele>69.79296875</ele>
        <time>2020-06-21T11:06:18Z</time>
      </trkpt>
      <trkpt lat="43.16055" lon="5.91787">
        <ele>68.97265625</ele>
        <time>2020-06-21T11:06:19Z</time>
      </trkpt>
      <trkpt lat="43.16051" lon="5.91774">
        <ele>67.9921875</ele>
        <time>2020-06-21T11:06:20Z</time>
      </trkpt>
      <trkpt lat="43.16047" lon="5.91762">
        <ele>67.03515625</ele>
        <time>2020-06-21T11:06:21Z</time>
      </trkpt>
      <trkpt lat="43.16041" lon="5.91752">
        <ele>65.703125</ele>
        <time>2020-06-21T11:06:22Z</time>
      </trkpt>
      <trkpt lat="43.16033" lon="5.91742">
        <ele>64.80859375</ele>
        <time>2020-06-21T11:06:23Z</time>
      </trkpt>
      <trkpt lat="43.16025" lon="5.91735">
        <ele>64.0390625</ele>
        <time>2020-06-21T11:06:24Z</time>
      </trkpt>
      <trkpt lat="43.16015" lon="5.91731">
        <ele>63.125</ele>
        <time>2020-06-21T11:06:25Z</time>
      </trkpt>
      <trkpt lat="43.16005" lon="5.9173">
        <ele>62.2109375</ele>
        <time>2020-06-21T11:06:26Z</time>
      </trkpt>
      <trkpt lat="43.15996" lon="5.9173">
        <ele>61.5078125</ele>
        <time>2020-06-21T11:06:27Z</time>
      </trkpt>
      <trkpt lat="43.15963" lon="5.91736">
        <ele>59.359375</ele>
        <time>2020-06-21T11:06:31Z</time>
      </trkpt>
      <trkpt lat="43.15896" lon="5.91765">
        <ele>56.40234375</ele>
        <time>2020-06-21T11:06:39Z</time>
      </trkpt>
      <trkpt lat="43.15868" lon="5.91777">
        <ele>54.98046875</ele>
        <time>2020-06-21T11:06:42Z</time>
      </trkpt>
      <trkpt lat="43.15859" lon="5.9178">
        <ele>54.46484375</ele>
        <time>2020-06-21T11:06:43Z</time>
      </trkpt>
      <trkpt lat="43.1585" lon="5.91782">
        <ele>53.9765625</ele>
        <time>2020-06-21T11:06:44Z</time>
      </trkpt>
      <trkpt lat="43.1584" lon="5.91784">
        <ele>53.4609375</ele>
        <time>2020-06-21T11:06:45Z</time>
      </trkpt>
      <trkpt lat="43.15821" lon="5.91784">
        <ele>52.0546875</ele>
        <time>2020-06-21T11:06:47Z</time>
      </trkpt>
      <trkpt lat="43.15812" lon="5.91782">
        <ele>51.56640625</ele>
        <time>2020-06-21T11:06:48Z</time>
      </trkpt>
      <trkpt lat="43.15804" lon="5.91777">
        <ele>51.359375</ele>
        <time>2020-06-21T11:06:49Z</time>
      </trkpt>
      <trkpt lat="43.15796" lon="5.91771">
        <ele>51.43359375</ele>
        <time>2020-06-21T11:06:50Z</time>
      </trkpt>
      <trkpt lat="43.15788" lon="5.91764">
        <ele>51.609375</ele>
        <time>2020-06-21T11:06:51Z</time>
      </trkpt>
      <trkpt lat="43.15781" lon="5.91757">
        <ele>51.6953125</ele>
        <time>2020-06-21T11:06:52Z</time>
      </trkpt>
      <trkpt lat="43.15774" lon="5.91749">
        <ele>51.8203125</ele>
        <time>2020-06-21T11:06:53Z</time>
      </trkpt>
      <trkpt lat="43.15714" lon="5.91677">
        <ele>50.078125</ele>
        <time>2020-06-21T11:07:02Z</time>
      </trkpt>
      <trkpt lat="43.15682" lon="5.91653">
        <ele>47.31640625</ele>
        <time>2020-06-21T11:07:06Z</time>
      </trkpt>
      <trkpt lat="43.15673" lon="5.91649">
        <ele>46.65625</ele>
        <time>2020-06-21T11:07:07Z</time>
      </trkpt>
      <trkpt lat="43.15663" lon="5.91647">
        <ele>45.9765625</ele>
        <time>2020-06-21T11:07:08Z</time>
      </trkpt>
      <trkpt lat="43.15633" lon="5.91639">
        <ele>43.99609375</ele>
        <time>2020-06-21T11:07:11Z</time>
      </trkpt>
      <trkpt lat="43.15594" lon="5.91619">
        <ele>41.83984375</ele>
        <time>2020-06-21T11:07:15Z</time>
      </trkpt>
      <trkpt lat="43.15585" lon="5.91612">
        <ele>41.41796875</ele>
        <time>2020-06-21T11:07:16Z</time>
      </trkpt>
      <trkpt lat="43.15576" lon="5.91604">
        <ele>41.6171875</ele>
        <time>2020-06-21T11:07:17Z</time>
      </trkpt>
      <trkpt lat="43.15543" lon="5.91574">
        <ele>40.1640625</ele>
        <time>2020-06-21T11:07:21Z</time>
      </trkpt>
      <trkpt lat="43.15518" lon="5.9156">
        <ele>37.859375</ele>
        <time>2020-06-21T11:07:24Z</time>
      </trkpt>
      <trkpt lat="43.15509" lon="5.91557">
        <ele>37</ele>
        <time>2020-06-21T11:07:25Z</time>
      </trkpt>
      <trkpt lat="43.15413" lon="5.91529">
        <ele>38.0625</ele>
        <time>2020-06-21T11:07:36Z</time>
      </trkpt>
      <trkpt lat="43.15336" lon="5.91499">
        <ele>35.84765625</ele>
        <time>2020-06-21T11:07:46Z</time>
      </trkpt>
      <trkpt lat="43.1533" lon="5.91494">
        <ele>36.0546875</ele>
        <time>2020-06-21T11:07:47Z</time>
      </trkpt>
      <trkpt lat="43.15327" lon="5.91486">
        <ele>36.3828125</ele>
        <time>2020-06-21T11:07:48Z</time>
      </trkpt>
      <trkpt lat="43.15324" lon="5.91479">
        <ele>36.578125</ele>
        <time>2020-06-21T11:07:49Z</time>
      </trkpt>
      <trkpt lat="43.1532" lon="5.91474">
        <ele>36.45703125</ele>
        <time>2020-06-21T11:07:50Z</time>
      </trkpt>
      <trkpt lat="43.15314" lon="5.9147">
        <ele>36.1640625</ele>
        <time>2020-06-21T11:07:51Z</time>
      </trkpt>
      <trkpt lat="43.15308" lon="5.91467">
        <ele>35.92578125</ele>
        <time>2020-06-21T11:07:52Z</time>
      </trkpt>
      <trkpt lat="43.15263" lon="5.91457">
        <ele>33.75390625</ele>
        <time>2020-06-21T11:08:03Z</time>
      </trkpt>
      <trkpt lat="43.15259" lon="5.91456">
        <ele>33.60546875</ele>
        <time>2020-06-21T11:08:04Z</time>
      </trkpt>
      <trkpt lat="43.15194" lon="5.91422">
        <ele>34.51953125</ele>
        <time>2020-06-21T11:08:17Z</time>
      </trkpt>
      <trkpt lat="43.15155" lon="5.914">
        <ele>33.36328125</ele>
        <time>2020-06-21T11:08:24Z</time>
      </trkpt>
      <trkpt lat="43.15141" lon="5.91392">
        <ele>32.69140625</ele>
        <time>2020-06-21T11:08:26Z</time>
      </trkpt>
      <trkpt lat="43.15135" lon="5.9139">
        <ele>32.50390625</ele>
        <time>2020-06-21T11:08:27Z</time>
      </trkpt>
      <trkpt lat="43.15122" lon="5.91378">
        <ele>32.04296875</ele>
        <time>2020-06-21T11:08:32Z</time>
      </trkpt>
      <trkpt lat="43.15123" lon="5.91373">
        <ele>32.14453125</ele>
        <time>2020-06-21T11:08:33Z</time>
      </trkpt>
      <trkpt lat="43.15126" lon="5.91371">
        <ele>32.34375</ele>
        <time>2020-06-21T11:08:34Z</time>
      </trkpt>
      <trkpt lat="43.1513" lon="5.91369">
        <ele>32.56640625</ele>
        <time>2020-06-21T11:08:35Z</time>
      </trkpt>
      <trkpt lat="43.15133" lon="5.91369">
        <ele>32.78515625</ele>
        <time>2020-06-21T11:08:36Z</time>
      </trkpt>
      <trkpt lat="43.1516" lon="5.9136">
        <ele>34.875</ele>
        <time>2020-06-21T11:08:45Z</time>
      </trkpt>
      <trkpt lat="43.15168" lon="5.91353">
        <ele>35.703125</ele>
        <time>2020-06-21T11:08:48Z</time>
      </trkpt>
      <trkpt lat="43.15179" lon="5.91336">
        <ele>37.1328125</ele>
        <time>2020-06-21T11:08:53Z</time>
      </trkpt>
      <trkpt lat="43.15214" lon="5.91263">
        <ele>41.30859375</ele>
        <time>2020-06-21T11:09:11Z</time>
      </trkpt>
      <trkpt lat="43.15211" lon="5.91229">
        <ele>42.890625</ele>
        <time>2020-06-21T11:09:19Z</time>
      </trkpt>
      <trkpt lat="43.15206" lon="5.91193">
        <ele>45.1640625</ele>
        <time>2020-06-21T11:09:29Z</time>
      </trkpt>
      <trkpt lat="43.15204" lon="5.91183">
        <ele>45.875</ele>
        <time>2020-06-21T11:09:32Z</time>
      </trkpt>
      <trkpt lat="43.152" lon="5.91163">
        <ele>47.6953125</ele>
        <time>2020-06-21T11:09:38Z</time>
      </trkpt>
      <trkpt lat="43.15197" lon="5.91149">
        <ele>49.421875</ele>
        <time>2020-06-21T11:09:42Z</time>
      </trkpt>
      <trkpt lat="43.15185" lon="5.91096">
        <ele>55.17578125</ele>
        <time>2020-06-21T11:09:53Z</time>
      </trkpt>
      <trkpt lat="43.15183" lon="5.9109">
        <ele>55.578125</ele>
        <time>2020-06-21T11:09:54Z</time>
      </trkpt>
      <trkpt lat="43.15181" lon="5.91085">
        <ele>55.9609375</ele>
        <time>2020-06-21T11:09:55Z</time>
      </trkpt>
      <trkpt lat="43.15178" lon="5.9108">
        <ele>56.015625</ele>
        <time>2020-06-21T11:09:56Z</time>
      </trkpt>
      <trkpt lat="43.15174" lon="5.91076">
        <ele>55.91015625</ele>
        <time>2020-06-21T11:09:57Z</time>
      </trkpt>
      <trkpt lat="43.1517" lon="5.91073">
        <ele>55.76953125</ele>
        <time>2020-06-21T11:09:58Z</time>
      </trkpt>
      <trkpt lat="43.1514" lon="5.9105">
        <ele>54.99609375</ele>
        <time>2020-06-21T11:10:05Z</time>
      </trkpt>
      <trkpt lat="43.15135" lon="5.91049">
        <ele>54.93359375</ele>
        <time>2020-06-21T11:10:06Z</time>
      </trkpt>
      <trkpt lat="43.1513" lon="5.91049">
        <ele>54.796875</ele>
        <time>2020-06-21T11:10:07Z</time>
      </trkpt>
      <trkpt lat="43.15125" lon="5.91051">
        <ele>54.54296875</ele>
        <time>2020-06-21T11:10:08Z</time>
      </trkpt>
      <trkpt lat="43.1512" lon="5.91053">
        <ele>54.3125</ele>
        <time>2020-06-21T11:10:09Z</time>
      </trkpt>
      <trkpt lat="43.15116" lon="5.91056">
        <ele>54.41796875</ele>
        <time>2020-06-21T11:10:10Z</time>
      </trkpt>
      <trkpt lat="43.15112" lon="5.91059">
        <ele>54.5625</ele>
        <time>2020-06-21T11:10:11Z</time>
      </trkpt>
      <trkpt lat="43.15093" lon="5.91068">
        <ele>55.56640625</ele>
        <time>2020-06-21T11:10:16Z</time>
      </trkpt>
      <trkpt lat="43.15091" lon="5.91065">
        <ele>55.8359375</ele>
        <time>2020-06-21T11:10:17Z</time>
      </trkpt>
      <trkpt lat="43.15089" lon="5.91062">
        <ele>56.10546875</ele>
        <time>2020-06-21T11:10:18Z</time>
      </trkpt>
      <trkpt lat="43.15087" lon="5.91058">
        <ele>56.359375</ele>
        <time>2020-06-21T11:10:19Z</time>
      </trkpt>
      <trkpt lat="43.15086" lon="5.91054">
        <ele>56.68359375</ele>
        <time>2020-06-21T11:10:20Z</time>
      </trkpt>
      <trkpt lat="43.15084" lon="5.91046">
        <ele>57.4453125</ele>
        <time>2020-06-21T11:10:22Z</time>
      </trkpt>
      <trkpt lat="43.1508" lon="5.91022">
        <ele>59.59375</ele>
        <time>2020-06-21T11:10:27Z</time>
      </trkpt>
      <trkpt lat="43.15082" lon="5.91018">
        <ele>59.85546875</ele>
        <time>2020-06-21T11:10:28Z</time>
      </trkpt>
      <trkpt lat="43.15084" lon="5.91015">
        <ele>59.9765625</ele>
        <time>2020-06-21T11:10:29Z</time>
      </trkpt>
      <trkpt lat="43.15088" lon="5.91012">
        <ele>60.0390625</ele>
        <time>2020-06-21T11:10:30Z</time>
      </trkpt>
      <trkpt lat="43.15091" lon="5.9101">
        <ele>60.10546875</ele>
        <time>2020-06-21T11:10:31Z</time>
      </trkpt>
      <trkpt lat="43.15118" lon="5.90994">
        <ele>60.1953125</ele>
        <time>2020-06-21T11:10:38Z</time>
      </trkpt>
      <trkpt lat="43.15121" lon="5.90989">
        <ele>60.6796875</ele>
        <time>2020-06-21T11:10:39Z</time>
      </trkpt>
      <trkpt lat="43.15123" lon="5.90984">
        <ele>61.515625</ele>
        <time>2020-06-21T11:10:40Z</time>
      </trkpt>
      <trkpt lat="43.15123" lon="5.90977">
        <ele>62.49609375</ele>
        <time>2020-06-21T11:10:41Z</time>
      </trkpt>
      <trkpt lat="43.15122" lon="5.9097">
        <ele>63.49609375</ele>
        <time>2020-06-21T11:10:42Z</time>
      </trkpt>
      <trkpt lat="43.1512" lon="5.90963">
        <ele>64.43359375</ele>
        <time>2020-06-21T11:10:43Z</time>
      </trkpt>
      <trkpt lat="43.15117" lon="5.90957">
        <ele>65.2890625</ele>
        <time>2020-06-21T11:10:44Z</time>
      </trkpt>
      <trkpt lat="43.15084" lon="5.90859">
        <ele>69.97265625</ele>
        <time>2020-06-21T11:10:58Z</time>
      </trkpt>
      <trkpt lat="43.15053" lon="5.90759">
        <ele>71.83203125</ele>
        <time>2020-06-21T11:11:12Z</time>
      </trkpt>
      <trkpt lat="43.15045" lon="5.90706">
        <ele>73.42578125</ele>
        <time>2020-06-21T11:11:18Z</time>
      </trkpt>
      <trkpt lat="43.15042" lon="5.90698">
        <ele>73.41015625</ele>
        <time>2020-06-21T11:11:19Z</time>
      </trkpt>
      <trkpt lat="43.15038" lon="5.90691">
        <ele>73.5390625</ele>
        <time>2020-06-21T11:11:20Z</time>
      </trkpt>
      <trkpt lat="43.15034" lon="5.90686">
        <ele>73.69921875</ele>
        <time>2020-06-21T11:11:21Z</time>
      </trkpt>
      <trkpt lat="43.15029" lon="5.90682">
        <ele>73.66796875</ele>
        <time>2020-06-21T11:11:22Z</time>
      </trkpt>
      <trkpt lat="43.15024" lon="5.90679">
        <ele>73.53125</ele>
        <time>2020-06-21T11:11:23Z</time>
      </trkpt>
      <trkpt lat="43.15005" lon="5.90665">
        <ele>73.125</ele>
        <time>2020-06-21T11:11:28Z</time>
      </trkpt>
      <trkpt lat="43.14998" lon="5.9066">
        <ele>73.53125</ele>
        <time>2020-06-21T11:11:30Z</time>
      </trkpt>
      <trkpt lat="43.14978" lon="5.90644">
        <ele>75.2265625</ele>
        <time>2020-06-21T11:11:37Z</time>
      </trkpt>
      <trkpt lat="43.14942" lon="5.90629">
        <ele>77.94921875</ele>
        <time>2020-06-21T11:11:47Z</time>
      </trkpt>
      <trkpt lat="43.14909" lon="5.90605">
        <ele>81.34375</ele>
        <time>2020-06-21T11:11:57Z</time>
      </trkpt>
      <trkpt lat="43.14907" lon="5.90599">
        <ele>81.61328125</ele>
        <time>2020-06-21T11:11:58Z</time>
      </trkpt>
      <trkpt lat="43.14905" lon="5.90591">
        <ele>81.9296875</ele>
        <time>2020-06-21T11:11:59Z</time>
      </trkpt>
      <trkpt lat="43.14903" lon="5.90582">
        <ele>82.1875</ele>
        <time>2020-06-21T11:12:00Z</time>
      </trkpt>
      <trkpt lat="43.14901" lon="5.90573">
        <ele>82.140625</ele>
        <time>2020-06-21T11:12:01Z</time>
      </trkpt>
      <trkpt lat="43.14893" lon="5.90543">
        <ele>81.20703125</ele>
        <time>2020-06-21T11:12:04Z</time>
      </trkpt>
      <trkpt lat="43.14887" lon="5.90534">
        <ele>80.4375</ele>
        <time>2020-06-21T11:12:05Z</time>
      </trkpt>
      <trkpt lat="43.14865" lon="5.90505">
        <ele>76.01171875</ele>
        <time>2020-06-21T11:12:08Z</time>
      </trkpt>
      <trkpt lat="43.14839" lon="5.90473">
        <ele>70.82421875</ele>
        <time>2020-06-21T11:12:11Z</time>
      </trkpt>
      <trkpt lat="43.14825" lon="5.90453">
        <ele>68.32421875</ele>
        <time>2020-06-21T11:12:13Z</time>
      </trkpt>
      <trkpt lat="43.14798" lon="5.90414">
        <ele>64.14453125</ele>
        <time>2020-06-21T11:12:17Z</time>
      </trkpt>
      <trkpt lat="43.14791" lon="5.90404">
        <ele>63.14453125</ele>
        <time>2020-06-21T11:12:18Z</time>
      </trkpt>
      <trkpt lat="43.14785" lon="5.90392">
        <ele>61.92578125</ele>
        <time>2020-06-21T11:12:19Z</time>
      </trkpt>
      <trkpt lat="43.1478" lon="5.9038">
        <ele>61.328125</ele>
        <time>2020-06-21T11:12:20Z</time>
      </trkpt>
      <trkpt lat="43.14776" lon="5.90367">
        <ele>60.80859375</ele>
        <time>2020-06-21T11:12:21Z</time>
      </trkpt>
      <trkpt lat="43.14774" lon="5.90353">
        <ele>60.4765625</ele>
        <time>2020-06-21T11:12:22Z</time>
      </trkpt>
      <trkpt lat="43.14772" lon="5.9034">
        <ele>60.3125</ele>
        <time>2020-06-21T11:12:23Z</time>
      </trkpt>
      <trkpt lat="43.14771" lon="5.90327">
        <ele>60.109375</ele>
        <time>2020-06-21T11:12:24Z</time>
      </trkpt>
      <trkpt lat="43.14771" lon="5.90313">
        <ele>59.91015625</ele>
        <time>2020-06-21T11:12:25Z</time>
      </trkpt>
      <trkpt lat="43.14772" lon="5.903">
        <ele>59.7421875</ele>
        <time>2020-06-21T11:12:26Z</time>
      </trkpt>
      <trkpt lat="43.14774" lon="5.90276">
        <ele>59.43359375</ele>
        <time>2020-06-21T11:12:28Z</time>
      </trkpt>
      <trkpt lat="43.14775" lon="5.90267">
        <ele>59.359375</ele>
        <time>2020-06-21T11:12:29Z</time>
      </trkpt>
      <trkpt lat="43.14777" lon="5.90259">
        <ele>59.33984375</ele>
        <time>2020-06-21T11:12:30Z</time>
      </trkpt>
      <trkpt lat="43.1478" lon="5.90236">
        <ele>59.4296875</ele>
        <time>2020-06-21T11:12:36Z</time>
      </trkpt>
      <trkpt lat="43.14777" lon="5.90233">
        <ele>59.2265625</ele>
        <time>2020-06-21T11:12:37Z</time>
      </trkpt>
      <trkpt lat="43.14773" lon="5.90232">
        <ele>58.9375</ele>
        <time>2020-06-21T11:12:38Z</time>
      </trkpt>
      <trkpt lat="43.14753" lon="5.90228">
        <ele>57.765625</ele>
        <time>2020-06-21T11:12:42Z</time>
      </trkpt>
      <trkpt lat="43.14749" lon="5.90224">
        <ele>57.62109375</ele>
        <time>2020-06-21T11:12:43Z</time>
      </trkpt>
      <trkpt lat="43.14746" lon="5.90218">
        <ele>57.61328125</ele>
        <time>2020-06-21T11:12:44Z</time>
      </trkpt>
      <trkpt lat="43.14743" lon="5.90212">
        <ele>57.578125</ele>
        <time>2020-06-21T11:12:45Z</time>
      </trkpt>
      <trkpt lat="43.1474" lon="5.90205">
        <ele>57.4609375</ele>
        <time>2020-06-21T11:12:46Z</time>
      </trkpt>
      <trkpt lat="43.14705" lon="5.90145">
        <ele>56.85546875</ele>
        <time>2020-06-21T11:12:58Z</time>
      </trkpt>
      <trkpt lat="43.14694" lon="5.90131">
        <ele>56.359375</ele>
        <time>2020-06-21T11:13:02Z</time>
      </trkpt>
      <trkpt lat="43.14654" lon="5.90062">
        <ele>56.02734375</ele>
        <time>2020-06-21T11:13:17Z</time>
      </trkpt>
      <trkpt lat="43.14652" lon="5.90056">
        <ele>56.12890625</ele>
        <time>2020-06-21T11:13:18Z</time>
      </trkpt>
      <trkpt lat="43.14652" lon="5.90051">
        <ele>56.1171875</ele>
        <time>2020-06-21T11:13:19Z</time>
      </trkpt>
      <trkpt lat="43.14652" lon="5.90045">
        <ele>56.1484375</ele>
        <time>2020-06-21T11:13:20Z</time>
      </trkpt>
      <trkpt lat="43.14652" lon="5.90038">
        <ele>56.171875</ele>
        <time>2020-06-21T11:13:21Z</time>
      </trkpt>
      <trkpt lat="43.14651" lon="5.90032">
        <ele>56.1640625</ele>
        <time>2020-06-21T11:13:22Z</time>
      </trkpt>
      <trkpt lat="43.1465" lon="5.90026">
        <ele>56.19921875</ele>
        <time>2020-06-21T11:13:23Z</time>
      </trkpt>
      <trkpt lat="43.14648" lon="5.9002">
        <ele>56.27734375</ele>
        <time>2020-06-21T11:13:24Z</time>
      </trkpt>
      <trkpt lat="43.14645" lon="5.90014">
        <ele>56.33203125</ele>
        <time>2020-06-21T11:13:25Z</time>
      </trkpt>
      <trkpt lat="43.14613" lon="5.89933">
        <ele>55.05859375</ele>
        <time>2020-06-21T11:13:39Z</time>
      </trkpt>
      <trkpt lat="43.14612" lon="5.89926">
        <ele>55.15234375</ele>
        <time>2020-06-21T11:13:40Z</time>
      </trkpt>
      <trkpt lat="43.14603" lon="5.89848">
        <ele>55.671875</ele>
        <time>2020-06-21T11:13:51Z</time>
      </trkpt>
      <trkpt lat="43.146" lon="5.89842">
        <ele>55.4609375</ele>
        <time>2020-06-21T11:13:52Z</time>
      </trkpt>
      <trkpt lat="43.14593" lon="5.89829">
        <ele>54.9453125</ele>
        <time>2020-06-21T11:13:54Z</time>
      </trkpt>
      <trkpt lat="43.14573" lon="5.89795">
        <ele>54.3671875</ele>
        <time>2020-06-21T11:13:59Z</time>
      </trkpt>
      <trkpt lat="43.14569" lon="5.89789">
        <ele>54.18359375</ele>
        <time>2020-06-21T11:14:00Z</time>
      </trkpt>
      <trkpt lat="43.14565" lon="5.89782">
        <ele>53.8828125</ele>
        <time>2020-06-21T11:14:01Z</time>
      </trkpt>
      <trkpt lat="43.14517" lon="5.89698">
        <ele>51.45703125</ele>
        <time>2020-06-21T11:14:14Z</time>
      </trkpt>
      <trkpt lat="43.14464" lon="5.89615">
        <ele>49.27734375</ele>
        <time>2020-06-21T11:14:26Z</time>
      </trkpt>
      <trkpt lat="43.14404" lon="5.89549">
        <ele>49.29296875</ele>
        <time>2020-06-21T11:14:40Z</time>
      </trkpt>
      <trkpt lat="43.14372" lon="5.8954">
        <ele>50.625</ele>
        <time>2020-06-21T11:14:49Z</time>
      </trkpt>
      <trkpt lat="43.14352" lon="5.89519">
        <ele>51.37109375</ele>
        <time>2020-06-21T11:15:00Z</time>
      </trkpt>
      <trkpt lat="43.14355" lon="5.89516">
        <ele>51.48046875</ele>
        <time>2020-06-21T11:15:23Z</time>
      </trkpt>
      <trkpt lat="43.14353" lon="5.89515">
        <ele>51.5390625</ele>
        <time>2020-06-21T11:16:00Z</time>
      </trkpt>
      <trkpt lat="43.14352" lon="5.89518">
        <ele>51.40625</ele>
        <time>2020-06-21T11:16:34Z</time>
      </trkpt>
    </trkseg>
  </trk>
</gpx>